<?xml version="1.0" encoding="UTF-8" standalone="no" ?>
<gpx xmlns="http://www.topografix.com/GPX/1/1" xmlns:xsi="http://www.w3.org/2001/XMLSchema-instance" xsi:schemaLocation="http://www.topografix.com/GPX/1/1 http://www.topografix.com/GPX/1/1/gpx.xsd" version="1.1" creator="VisuGPX - https://www.visugpx.com">
  <metadata>
    <name>06 - D+  Théoule sur mer</name>
    <desc><![CDATA[06 - D+  Théoule sur mer - ND d'Afrique par les grandes Grues 3/11/2024]]></desc>
  </metadata>
  <trk>
    <name><![CDATA[Théoule Notre Dame d-Afrique par les grues 2024-11-03_093151]]></name>
    <trkseg>
      <trkpt lat="43.50386" lon="6.9376">
        <ele>5.9</ele>
        <time>2024-11-03T08:31:51Z</time>
      </trkpt>
      <trkpt lat="43.50386" lon="6.9376">
        <ele>5.9</ele>
        <time>2024-11-03T08:31:51Z</time>
      </trkpt>
      <trkpt lat="43.50385" lon="6.93761">
        <ele>6.6</ele>
        <time>2024-11-03T08:31:52Z</time>
      </trkpt>
      <trkpt lat="43.50392" lon="6.93753">
        <ele>10.1</ele>
        <time>2024-11-03T08:32:10Z</time>
      </trkpt>
      <trkpt lat="43.50391" lon="6.93754">
        <ele>10.1</ele>
        <time>2024-11-03T08:32:11Z</time>
      </trkpt>
      <trkpt lat="43.50392" lon="6.93752">
        <ele>10.5</ele>
        <time>2024-11-03T08:32:15Z</time>
      </trkpt>
      <trkpt lat="43.50392" lon="6.93752">
        <ele>10.4</ele>
        <time>2024-11-03T08:32:18Z</time>
      </trkpt>
      <trkpt lat="43.50393" lon="6.93751">
        <ele>10.9</ele>
        <time>2024-11-03T08:32:22Z</time>
      </trkpt>
      <trkpt lat="43.50393" lon="6.93751">
        <ele>11</ele>
        <time>2024-11-03T08:32:23Z</time>
      </trkpt>
      <trkpt lat="43.50394" lon="6.93751">
        <ele>9.5</ele>
        <time>2024-11-03T08:32:33Z</time>
      </trkpt>
      <trkpt lat="43.50394" lon="6.93751">
        <ele>9.3</ele>
        <time>2024-11-03T08:32:34Z</time>
      </trkpt>
      <trkpt lat="43.50389" lon="6.93751">
        <ele>10.4</ele>
        <time>2024-11-03T08:32:58Z</time>
      </trkpt>
      <trkpt lat="43.50388" lon="6.93751">
        <ele>10.6</ele>
        <time>2024-11-03T08:33:00Z</time>
      </trkpt>
      <trkpt lat="43.50386" lon="6.93753">
        <ele>11.9</ele>
        <time>2024-11-03T08:33:04Z</time>
      </trkpt>
      <trkpt lat="43.50386" lon="6.93754">
        <ele>12.3</ele>
        <time>2024-11-03T08:33:05Z</time>
      </trkpt>
      <trkpt lat="43.50383" lon="6.93759">
        <ele>17.6</ele>
        <time>2024-11-03T08:33:21Z</time>
      </trkpt>
      <trkpt lat="43.50383" lon="6.93758">
        <ele>17.7</ele>
        <time>2024-11-03T08:33:22Z</time>
      </trkpt>
      <trkpt lat="43.50383" lon="6.93758">
        <ele>17.8</ele>
        <time>2024-11-03T08:33:24Z</time>
      </trkpt>
      <trkpt lat="43.50384" lon="6.93758">
        <ele>17.9</ele>
        <time>2024-11-03T08:33:26Z</time>
      </trkpt>
      <trkpt lat="43.50384" lon="6.93757">
        <ele>17.8</ele>
        <time>2024-11-03T08:33:30Z</time>
      </trkpt>
      <trkpt lat="43.50384" lon="6.93757">
        <ele>17.8</ele>
        <time>2024-11-03T08:33:31Z</time>
      </trkpt>
      <trkpt lat="43.50382" lon="6.93753">
        <ele>18.4</ele>
        <time>2024-11-03T08:33:41Z</time>
      </trkpt>
      <trkpt lat="43.50382" lon="6.93753">
        <ele>18.2</ele>
        <time>2024-11-03T08:33:42Z</time>
      </trkpt>
      <trkpt lat="43.50384" lon="6.93755">
        <ele>17.5</ele>
        <time>2024-11-03T08:33:47Z</time>
      </trkpt>
      <trkpt lat="43.50384" lon="6.93754">
        <ele>17.4</ele>
        <time>2024-11-03T08:33:48Z</time>
      </trkpt>
      <trkpt lat="43.50385" lon="6.93754">
        <ele>17.3</ele>
        <time>2024-11-03T08:33:54Z</time>
      </trkpt>
      <trkpt lat="43.50385" lon="6.93754">
        <ele>17.2</ele>
        <time>2024-11-03T08:33:55Z</time>
      </trkpt>
      <trkpt lat="43.50385" lon="6.93739">
        <ele>16.8</ele>
        <time>2024-11-03T08:34:06Z</time>
      </trkpt>
      <trkpt lat="43.50379" lon="6.93729">
        <ele>17.2</ele>
        <time>2024-11-03T08:34:16Z</time>
      </trkpt>
      <trkpt lat="43.50371" lon="6.93721">
        <ele>17.3</ele>
        <time>2024-11-03T08:34:27Z</time>
      </trkpt>
      <trkpt lat="43.50361" lon="6.93716">
        <ele>17.2</ele>
        <time>2024-11-03T08:34:36Z</time>
      </trkpt>
      <trkpt lat="43.50351" lon="6.93714">
        <ele>16.8</ele>
        <time>2024-11-03T08:34:44Z</time>
      </trkpt>
      <trkpt lat="43.50342" lon="6.93715">
        <ele>16.6</ele>
        <time>2024-11-03T08:34:50Z</time>
      </trkpt>
      <trkpt lat="43.50333" lon="6.93712">
        <ele>16.4</ele>
        <time>2024-11-03T08:35:02Z</time>
      </trkpt>
      <trkpt lat="43.50324" lon="6.93707">
        <ele>16.3</ele>
        <time>2024-11-03T08:35:15Z</time>
      </trkpt>
      <trkpt lat="43.50315" lon="6.93701">
        <ele>15.9</ele>
        <time>2024-11-03T08:35:23Z</time>
      </trkpt>
      <trkpt lat="43.50307" lon="6.93709">
        <ele>16.1</ele>
        <time>2024-11-03T08:35:31Z</time>
      </trkpt>
      <trkpt lat="43.50298" lon="6.93702">
        <ele>16.6</ele>
        <time>2024-11-03T08:35:44Z</time>
      </trkpt>
      <trkpt lat="43.5029" lon="6.93697">
        <ele>16.2</ele>
        <time>2024-11-03T08:35:52Z</time>
      </trkpt>
      <trkpt lat="43.50282" lon="6.93689">
        <ele>16.9</ele>
        <time>2024-11-03T08:36:00Z</time>
      </trkpt>
      <trkpt lat="43.50273" lon="6.93685">
        <ele>17.9</ele>
        <time>2024-11-03T08:36:11Z</time>
      </trkpt>
      <trkpt lat="43.50262" lon="6.93689">
        <ele>17.6</ele>
        <time>2024-11-03T08:36:17Z</time>
      </trkpt>
      <trkpt lat="43.50253" lon="6.93695">
        <ele>17.7</ele>
        <time>2024-11-03T08:36:23Z</time>
      </trkpt>
      <trkpt lat="43.50243" lon="6.93696">
        <ele>17.4</ele>
        <time>2024-11-03T08:36:29Z</time>
      </trkpt>
      <trkpt lat="43.50234" lon="6.93696">
        <ele>17</ele>
        <time>2024-11-03T08:36:39Z</time>
      </trkpt>
      <trkpt lat="43.50224" lon="6.93696">
        <ele>17.2</ele>
        <time>2024-11-03T08:36:51Z</time>
      </trkpt>
      <trkpt lat="43.50215" lon="6.9369">
        <ele>17</ele>
        <time>2024-11-03T08:36:59Z</time>
      </trkpt>
      <trkpt lat="43.50205" lon="6.93692">
        <ele>17.8</ele>
        <time>2024-11-03T08:37:05Z</time>
      </trkpt>
      <trkpt lat="43.50196" lon="6.93692">
        <ele>19.3</ele>
        <time>2024-11-03T08:37:11Z</time>
      </trkpt>
      <trkpt lat="43.50195" lon="6.93694">
        <ele>19.8</ele>
        <time>2024-11-03T08:37:15Z</time>
      </trkpt>
      <trkpt lat="43.50196" lon="6.93693">
        <ele>19.7</ele>
        <time>2024-11-03T08:37:16Z</time>
      </trkpt>
      <trkpt lat="43.50188" lon="6.93701">
        <ele>19.6</ele>
        <time>2024-11-03T08:37:26Z</time>
      </trkpt>
      <trkpt lat="43.50179" lon="6.93695">
        <ele>21.6</ele>
        <time>2024-11-03T08:37:34Z</time>
      </trkpt>
      <trkpt lat="43.50172" lon="6.93705">
        <ele>21.6</ele>
        <time>2024-11-03T08:37:38Z</time>
      </trkpt>
      <trkpt lat="43.50163" lon="6.93706">
        <ele>21.4</ele>
        <time>2024-11-03T08:37:43Z</time>
      </trkpt>
      <trkpt lat="43.50154" lon="6.93712">
        <ele>22</ele>
        <time>2024-11-03T08:37:51Z</time>
      </trkpt>
      <trkpt lat="43.50148" lon="6.93722">
        <ele>22.8</ele>
        <time>2024-11-03T08:38:00Z</time>
      </trkpt>
      <trkpt lat="43.50137" lon="6.93719">
        <ele>24.1</ele>
        <time>2024-11-03T08:38:07Z</time>
      </trkpt>
      <trkpt lat="43.50127" lon="6.93712">
        <ele>24.6</ele>
        <time>2024-11-03T08:38:15Z</time>
      </trkpt>
      <trkpt lat="43.50118" lon="6.93707">
        <ele>25</ele>
        <time>2024-11-03T08:38:22Z</time>
      </trkpt>
      <trkpt lat="43.50109" lon="6.93701">
        <ele>25.8</ele>
        <time>2024-11-03T08:38:28Z</time>
      </trkpt>
      <trkpt lat="43.501" lon="6.937">
        <ele>26.6</ele>
        <time>2024-11-03T08:38:35Z</time>
      </trkpt>
      <trkpt lat="43.50091" lon="6.93695">
        <ele>28.8</ele>
        <time>2024-11-03T08:38:44Z</time>
      </trkpt>
      <trkpt lat="43.50082" lon="6.93691">
        <ele>29.4</ele>
        <time>2024-11-03T08:38:55Z</time>
      </trkpt>
      <trkpt lat="43.50073" lon="6.93686">
        <ele>29.9</ele>
        <time>2024-11-03T08:39:04Z</time>
      </trkpt>
      <trkpt lat="43.50063" lon="6.93686">
        <ele>29.8</ele>
        <time>2024-11-03T08:39:10Z</time>
      </trkpt>
      <trkpt lat="43.50057" lon="6.93696">
        <ele>30.3</ele>
        <time>2024-11-03T08:39:22Z</time>
      </trkpt>
      <trkpt lat="43.50047" lon="6.93697">
        <ele>29.9</ele>
        <time>2024-11-03T08:39:29Z</time>
      </trkpt>
      <trkpt lat="43.50037" lon="6.93691">
        <ele>31.2</ele>
        <time>2024-11-03T08:39:38Z</time>
      </trkpt>
      <trkpt lat="43.50027" lon="6.93695">
        <ele>32.2</ele>
        <time>2024-11-03T08:39:44Z</time>
      </trkpt>
      <trkpt lat="43.50018" lon="6.93693">
        <ele>32.6</ele>
        <time>2024-11-03T08:39:51Z</time>
      </trkpt>
      <trkpt lat="43.50009" lon="6.93691">
        <ele>29.2</ele>
        <time>2024-11-03T08:40:02Z</time>
      </trkpt>
      <trkpt lat="43.49999" lon="6.93687">
        <ele>30.6</ele>
        <time>2024-11-03T08:40:13Z</time>
      </trkpt>
      <trkpt lat="43.49992" lon="6.93679">
        <ele>30.9</ele>
        <time>2024-11-03T08:40:30Z</time>
      </trkpt>
      <trkpt lat="43.49986" lon="6.93668">
        <ele>31.5</ele>
        <time>2024-11-03T08:40:41Z</time>
      </trkpt>
      <trkpt lat="43.49977" lon="6.93666">
        <ele>31.8</ele>
        <time>2024-11-03T08:40:46Z</time>
      </trkpt>
      <trkpt lat="43.49968" lon="6.93663">
        <ele>31.7</ele>
        <time>2024-11-03T08:40:52Z</time>
      </trkpt>
      <trkpt lat="43.49958" lon="6.9366">
        <ele>31.8</ele>
        <time>2024-11-03T08:41:03Z</time>
      </trkpt>
      <trkpt lat="43.49949" lon="6.93656">
        <ele>32.1</ele>
        <time>2024-11-03T08:41:12Z</time>
      </trkpt>
      <trkpt lat="43.4994" lon="6.93653">
        <ele>32.3</ele>
        <time>2024-11-03T08:41:19Z</time>
      </trkpt>
      <trkpt lat="43.49931" lon="6.93648">
        <ele>32.7</ele>
        <time>2024-11-03T08:41:28Z</time>
      </trkpt>
      <trkpt lat="43.49922" lon="6.93647">
        <ele>32.7</ele>
        <time>2024-11-03T08:41:34Z</time>
      </trkpt>
      <trkpt lat="43.49913" lon="6.93643">
        <ele>32.3</ele>
        <time>2024-11-03T08:41:40Z</time>
      </trkpt>
      <trkpt lat="43.49904" lon="6.93646">
        <ele>32.5</ele>
        <time>2024-11-03T08:41:49Z</time>
      </trkpt>
      <trkpt lat="43.49895" lon="6.93652">
        <ele>32.5</ele>
        <time>2024-11-03T08:41:59Z</time>
      </trkpt>
      <trkpt lat="43.49887" lon="6.93658">
        <ele>33</ele>
        <time>2024-11-03T08:42:07Z</time>
      </trkpt>
      <trkpt lat="43.49877" lon="6.93661">
        <ele>33.9</ele>
        <time>2024-11-03T08:42:14Z</time>
      </trkpt>
      <trkpt lat="43.49869" lon="6.93655">
        <ele>35</ele>
        <time>2024-11-03T08:42:26Z</time>
      </trkpt>
      <trkpt lat="43.49861" lon="6.93651">
        <ele>35.6</ele>
        <time>2024-11-03T08:42:37Z</time>
      </trkpt>
      <trkpt lat="43.49851" lon="6.93649">
        <ele>36.5</ele>
        <time>2024-11-03T08:42:44Z</time>
      </trkpt>
      <trkpt lat="43.49842" lon="6.93647">
        <ele>38.4</ele>
        <time>2024-11-03T08:42:53Z</time>
      </trkpt>
      <trkpt lat="43.49833" lon="6.93643">
        <ele>40</ele>
        <time>2024-11-03T08:43:05Z</time>
      </trkpt>
      <trkpt lat="43.49824" lon="6.93636">
        <ele>41.5</ele>
        <time>2024-11-03T08:43:16Z</time>
      </trkpt>
      <trkpt lat="43.49815" lon="6.93632">
        <ele>41.8</ele>
        <time>2024-11-03T08:43:24Z</time>
      </trkpt>
      <trkpt lat="43.49806" lon="6.93626">
        <ele>43.1</ele>
        <time>2024-11-03T08:43:34Z</time>
      </trkpt>
      <trkpt lat="43.49797" lon="6.93621">
        <ele>43.9</ele>
        <time>2024-11-03T08:43:43Z</time>
      </trkpt>
      <trkpt lat="43.49788" lon="6.93623">
        <ele>44.8</ele>
        <time>2024-11-03T08:43:50Z</time>
      </trkpt>
      <trkpt lat="43.49779" lon="6.9362">
        <ele>45.4</ele>
        <time>2024-11-03T08:43:57Z</time>
      </trkpt>
      <trkpt lat="43.49772" lon="6.93613">
        <ele>45.8</ele>
        <time>2024-11-03T08:44:08Z</time>
      </trkpt>
      <trkpt lat="43.49765" lon="6.93602">
        <ele>46.5</ele>
        <time>2024-11-03T08:44:17Z</time>
      </trkpt>
      <trkpt lat="43.49758" lon="6.93594">
        <ele>46.9</ele>
        <time>2024-11-03T08:44:24Z</time>
      </trkpt>
      <trkpt lat="43.49753" lon="6.93582">
        <ele>47.7</ele>
        <time>2024-11-03T08:44:34Z</time>
      </trkpt>
      <trkpt lat="43.49747" lon="6.93572">
        <ele>47.9</ele>
        <time>2024-11-03T08:44:43Z</time>
      </trkpt>
      <trkpt lat="43.49738" lon="6.93566">
        <ele>48.4</ele>
        <time>2024-11-03T08:44:51Z</time>
      </trkpt>
      <trkpt lat="43.49728" lon="6.93561">
        <ele>49.2</ele>
        <time>2024-11-03T08:44:59Z</time>
      </trkpt>
      <trkpt lat="43.49718" lon="6.93557">
        <ele>49.6</ele>
        <time>2024-11-03T08:45:06Z</time>
      </trkpt>
      <trkpt lat="43.49708" lon="6.93554">
        <ele>49.9</ele>
        <time>2024-11-03T08:45:14Z</time>
      </trkpt>
      <trkpt lat="43.49699" lon="6.93554">
        <ele>50.1</ele>
        <time>2024-11-03T08:45:20Z</time>
      </trkpt>
      <trkpt lat="43.4969" lon="6.93554">
        <ele>49.5</ele>
        <time>2024-11-03T08:45:27Z</time>
      </trkpt>
      <trkpt lat="43.49681" lon="6.93559">
        <ele>49.3</ele>
        <time>2024-11-03T08:45:34Z</time>
      </trkpt>
      <trkpt lat="43.49674" lon="6.93568">
        <ele>49.7</ele>
        <time>2024-11-03T08:45:44Z</time>
      </trkpt>
      <trkpt lat="43.49668" lon="6.93579">
        <ele>49.8</ele>
        <time>2024-11-03T08:45:53Z</time>
      </trkpt>
      <trkpt lat="43.49662" lon="6.93589">
        <ele>50.5</ele>
        <time>2024-11-03T08:46:01Z</time>
      </trkpt>
      <trkpt lat="43.49655" lon="6.93598">
        <ele>51</ele>
        <time>2024-11-03T08:46:11Z</time>
      </trkpt>
      <trkpt lat="43.49649" lon="6.93609">
        <ele>51.8</ele>
        <time>2024-11-03T08:46:20Z</time>
      </trkpt>
      <trkpt lat="43.49643" lon="6.9362">
        <ele>53.3</ele>
        <time>2024-11-03T08:46:27Z</time>
      </trkpt>
      <trkpt lat="43.49637" lon="6.93631">
        <ele>54.5</ele>
        <time>2024-11-03T08:46:35Z</time>
      </trkpt>
      <trkpt lat="43.4963" lon="6.93639">
        <ele>55.3</ele>
        <time>2024-11-03T08:46:43Z</time>
      </trkpt>
      <trkpt lat="43.49623" lon="6.93647">
        <ele>55.7</ele>
        <time>2024-11-03T08:46:51Z</time>
      </trkpt>
      <trkpt lat="43.49615" lon="6.93656">
        <ele>56.4</ele>
        <time>2024-11-03T08:46:59Z</time>
      </trkpt>
      <trkpt lat="43.49617" lon="6.93644">
        <ele>57.2</ele>
        <time>2024-11-03T08:47:24Z</time>
      </trkpt>
      <trkpt lat="43.49623" lon="6.93634">
        <ele>57.5</ele>
        <time>2024-11-03T08:47:34Z</time>
      </trkpt>
      <trkpt lat="43.49626" lon="6.93622">
        <ele>58.2</ele>
        <time>2024-11-03T08:47:43Z</time>
      </trkpt>
      <trkpt lat="43.49628" lon="6.9361">
        <ele>58.5</ele>
        <time>2024-11-03T08:47:50Z</time>
      </trkpt>
      <trkpt lat="43.4963" lon="6.93597">
        <ele>58.7</ele>
        <time>2024-11-03T08:47:59Z</time>
      </trkpt>
      <trkpt lat="43.49632" lon="6.93585">
        <ele>59</ele>
        <time>2024-11-03T08:48:07Z</time>
      </trkpt>
      <trkpt lat="43.49635" lon="6.93571">
        <ele>59.6</ele>
        <time>2024-11-03T08:48:16Z</time>
      </trkpt>
      <trkpt lat="43.4964" lon="6.93559">
        <ele>60.6</ele>
        <time>2024-11-03T08:48:25Z</time>
      </trkpt>
      <trkpt lat="43.49643" lon="6.93548">
        <ele>61.8</ele>
        <time>2024-11-03T08:48:33Z</time>
      </trkpt>
      <trkpt lat="43.49649" lon="6.93537">
        <ele>63</ele>
        <time>2024-11-03T08:48:41Z</time>
      </trkpt>
      <trkpt lat="43.49654" lon="6.93525">
        <ele>63.5</ele>
        <time>2024-11-03T08:48:50Z</time>
      </trkpt>
      <trkpt lat="43.49659" lon="6.93514">
        <ele>65.1</ele>
        <time>2024-11-03T08:48:58Z</time>
      </trkpt>
      <trkpt lat="43.49662" lon="6.93502">
        <ele>66.1</ele>
        <time>2024-11-03T08:49:07Z</time>
      </trkpt>
      <trkpt lat="43.49666" lon="6.9349">
        <ele>67.2</ele>
        <time>2024-11-03T08:49:17Z</time>
      </trkpt>
      <trkpt lat="43.49662" lon="6.93478">
        <ele>67.8</ele>
        <time>2024-11-03T08:49:24Z</time>
      </trkpt>
      <trkpt lat="43.49661" lon="6.93465">
        <ele>68.8</ele>
        <time>2024-11-03T08:49:33Z</time>
      </trkpt>
      <trkpt lat="43.4966" lon="6.93452">
        <ele>69.4</ele>
        <time>2024-11-03T08:49:42Z</time>
      </trkpt>
      <trkpt lat="43.49658" lon="6.93439">
        <ele>70.4</ele>
        <time>2024-11-03T08:49:50Z</time>
      </trkpt>
      <trkpt lat="43.49651" lon="6.9343">
        <ele>71.1</ele>
        <time>2024-11-03T08:49:56Z</time>
      </trkpt>
      <trkpt lat="43.49646" lon="6.93418">
        <ele>71.6</ele>
        <time>2024-11-03T08:50:04Z</time>
      </trkpt>
      <trkpt lat="43.4964" lon="6.93408">
        <ele>72</ele>
        <time>2024-11-03T08:50:14Z</time>
      </trkpt>
      <trkpt lat="43.49632" lon="6.93399">
        <ele>71.7</ele>
        <time>2024-11-03T08:50:23Z</time>
      </trkpt>
      <trkpt lat="43.49626" lon="6.9339">
        <ele>71.9</ele>
        <time>2024-11-03T08:50:32Z</time>
      </trkpt>
      <trkpt lat="43.49618" lon="6.93382">
        <ele>72.5</ele>
        <time>2024-11-03T08:50:43Z</time>
      </trkpt>
      <trkpt lat="43.49609" lon="6.93376">
        <ele>73.1</ele>
        <time>2024-11-03T08:50:52Z</time>
      </trkpt>
      <trkpt lat="43.49601" lon="6.93371">
        <ele>73.4</ele>
        <time>2024-11-03T08:51:01Z</time>
      </trkpt>
      <trkpt lat="43.49591" lon="6.93368">
        <ele>73.9</ele>
        <time>2024-11-03T08:51:09Z</time>
      </trkpt>
      <trkpt lat="43.49582" lon="6.93366">
        <ele>73.9</ele>
        <time>2024-11-03T08:51:17Z</time>
      </trkpt>
      <trkpt lat="43.49572" lon="6.93362">
        <ele>74.1</ele>
        <time>2024-11-03T08:51:25Z</time>
      </trkpt>
      <trkpt lat="43.49567" lon="6.93352">
        <ele>75</ele>
        <time>2024-11-03T08:51:37Z</time>
      </trkpt>
      <trkpt lat="43.49574" lon="6.93341">
        <ele>75.8</ele>
        <time>2024-11-03T08:51:46Z</time>
      </trkpt>
      <trkpt lat="43.49581" lon="6.93332">
        <ele>76</ele>
        <time>2024-11-03T08:51:55Z</time>
      </trkpt>
      <trkpt lat="43.49589" lon="6.93325">
        <ele>76.3</ele>
        <time>2024-11-03T08:52:04Z</time>
      </trkpt>
      <trkpt lat="43.49599" lon="6.93322">
        <ele>76.8</ele>
        <time>2024-11-03T08:52:11Z</time>
      </trkpt>
      <trkpt lat="43.49608" lon="6.9332">
        <ele>78.2</ele>
        <time>2024-11-03T08:52:17Z</time>
      </trkpt>
      <trkpt lat="43.49616" lon="6.93314">
        <ele>79.1</ele>
        <time>2024-11-03T08:52:23Z</time>
      </trkpt>
      <trkpt lat="43.49623" lon="6.93304">
        <ele>80.5</ele>
        <time>2024-11-03T08:52:31Z</time>
      </trkpt>
      <trkpt lat="43.49623" lon="6.93291">
        <ele>81.7</ele>
        <time>2024-11-03T08:52:38Z</time>
      </trkpt>
      <trkpt lat="43.49622" lon="6.93276">
        <ele>83.3</ele>
        <time>2024-11-03T08:52:46Z</time>
      </trkpt>
      <trkpt lat="43.49621" lon="6.93263">
        <ele>83.8</ele>
        <time>2024-11-03T08:52:54Z</time>
      </trkpt>
      <trkpt lat="43.49616" lon="6.9325">
        <ele>84.1</ele>
        <time>2024-11-03T08:53:02Z</time>
      </trkpt>
      <trkpt lat="43.4961" lon="6.93239">
        <ele>84.7</ele>
        <time>2024-11-03T08:53:10Z</time>
      </trkpt>
      <trkpt lat="43.49602" lon="6.93232">
        <ele>85.1</ele>
        <time>2024-11-03T08:53:17Z</time>
      </trkpt>
      <trkpt lat="43.49595" lon="6.93226">
        <ele>85.9</ele>
        <time>2024-11-03T08:53:26Z</time>
      </trkpt>
      <trkpt lat="43.49587" lon="6.93218">
        <ele>86.7</ele>
        <time>2024-11-03T08:53:36Z</time>
      </trkpt>
      <trkpt lat="43.4958" lon="6.9321">
        <ele>87.1</ele>
        <time>2024-11-03T08:53:45Z</time>
      </trkpt>
      <trkpt lat="43.49576" lon="6.93199">
        <ele>87.6</ele>
        <time>2024-11-03T08:53:52Z</time>
      </trkpt>
      <trkpt lat="43.4958" lon="6.93189">
        <ele>88.8</ele>
        <time>2024-11-03T08:54:00Z</time>
      </trkpt>
      <trkpt lat="43.49588" lon="6.93181">
        <ele>90.3</ele>
        <time>2024-11-03T08:54:07Z</time>
      </trkpt>
      <trkpt lat="43.49596" lon="6.93175">
        <ele>90.9</ele>
        <time>2024-11-03T08:54:14Z</time>
      </trkpt>
      <trkpt lat="43.49604" lon="6.93165">
        <ele>91.4</ele>
        <time>2024-11-03T08:54:22Z</time>
      </trkpt>
      <trkpt lat="43.49612" lon="6.93157">
        <ele>91.8</ele>
        <time>2024-11-03T08:54:31Z</time>
      </trkpt>
      <trkpt lat="43.49619" lon="6.93149">
        <ele>93</ele>
        <time>2024-11-03T08:54:38Z</time>
      </trkpt>
      <trkpt lat="43.49625" lon="6.93138">
        <ele>93.8</ele>
        <time>2024-11-03T08:54:45Z</time>
      </trkpt>
      <trkpt lat="43.49629" lon="6.93127">
        <ele>95.4</ele>
        <time>2024-11-03T08:54:53Z</time>
      </trkpt>
      <trkpt lat="43.49632" lon="6.93115">
        <ele>96.3</ele>
        <time>2024-11-03T08:55:02Z</time>
      </trkpt>
      <trkpt lat="43.49633" lon="6.93102">
        <ele>96.9</ele>
        <time>2024-11-03T08:55:12Z</time>
      </trkpt>
      <trkpt lat="43.49634" lon="6.93089">
        <ele>97.9</ele>
        <time>2024-11-03T08:55:22Z</time>
      </trkpt>
      <trkpt lat="43.49638" lon="6.93077">
        <ele>98.5</ele>
        <time>2024-11-03T08:55:30Z</time>
      </trkpt>
      <trkpt lat="43.49636" lon="6.93063">
        <ele>99.7</ele>
        <time>2024-11-03T08:55:38Z</time>
      </trkpt>
      <trkpt lat="43.4963" lon="6.93053">
        <ele>100.4</ele>
        <time>2024-11-03T08:55:45Z</time>
      </trkpt>
      <trkpt lat="43.49623" lon="6.93045">
        <ele>101</ele>
        <time>2024-11-03T08:55:52Z</time>
      </trkpt>
      <trkpt lat="43.49614" lon="6.93037">
        <ele>100.9</ele>
        <time>2024-11-03T08:56:01Z</time>
      </trkpt>
      <trkpt lat="43.49606" lon="6.9303">
        <ele>101.1</ele>
        <time>2024-11-03T08:56:09Z</time>
      </trkpt>
      <trkpt lat="43.49598" lon="6.93022">
        <ele>101.5</ele>
        <time>2024-11-03T08:56:18Z</time>
      </trkpt>
      <trkpt lat="43.49594" lon="6.9301">
        <ele>102.1</ele>
        <time>2024-11-03T08:56:26Z</time>
      </trkpt>
      <trkpt lat="43.49597" lon="6.92997">
        <ele>103.6</ele>
        <time>2024-11-03T08:56:37Z</time>
      </trkpt>
      <trkpt lat="43.49597" lon="6.92984">
        <ele>104.4</ele>
        <time>2024-11-03T08:56:45Z</time>
      </trkpt>
      <trkpt lat="43.49592" lon="6.92974">
        <ele>104.6</ele>
        <time>2024-11-03T08:56:52Z</time>
      </trkpt>
      <trkpt lat="43.49588" lon="6.92962">
        <ele>104.9</ele>
        <time>2024-11-03T08:56:59Z</time>
      </trkpt>
      <trkpt lat="43.49585" lon="6.92949">
        <ele>104.7</ele>
        <time>2024-11-03T08:57:06Z</time>
      </trkpt>
      <trkpt lat="43.4958" lon="6.92938">
        <ele>105</ele>
        <time>2024-11-03T08:57:14Z</time>
      </trkpt>
      <trkpt lat="43.49574" lon="6.92926">
        <ele>105.6</ele>
        <time>2024-11-03T08:57:22Z</time>
      </trkpt>
      <trkpt lat="43.49568" lon="6.92916">
        <ele>105.8</ele>
        <time>2024-11-03T08:57:29Z</time>
      </trkpt>
      <trkpt lat="43.49563" lon="6.92905">
        <ele>106.5</ele>
        <time>2024-11-03T08:57:38Z</time>
      </trkpt>
      <trkpt lat="43.49557" lon="6.92895">
        <ele>107.1</ele>
        <time>2024-11-03T08:57:48Z</time>
      </trkpt>
      <trkpt lat="43.49549" lon="6.92887">
        <ele>107</ele>
        <time>2024-11-03T08:57:55Z</time>
      </trkpt>
      <trkpt lat="43.49542" lon="6.92878">
        <ele>107.4</ele>
        <time>2024-11-03T08:58:03Z</time>
      </trkpt>
      <trkpt lat="43.49535" lon="6.92868">
        <ele>107.8</ele>
        <time>2024-11-03T08:58:12Z</time>
      </trkpt>
      <trkpt lat="43.49529" lon="6.92858">
        <ele>108.7</ele>
        <time>2024-11-03T08:58:20Z</time>
      </trkpt>
      <trkpt lat="43.49521" lon="6.92849">
        <ele>108.5</ele>
        <time>2024-11-03T08:58:28Z</time>
      </trkpt>
      <trkpt lat="43.49513" lon="6.92841">
        <ele>108.9</ele>
        <time>2024-11-03T08:58:36Z</time>
      </trkpt>
      <trkpt lat="43.49506" lon="6.92831">
        <ele>109</ele>
        <time>2024-11-03T08:58:44Z</time>
      </trkpt>
      <trkpt lat="43.49499" lon="6.92821">
        <ele>109.8</ele>
        <time>2024-11-03T08:58:51Z</time>
      </trkpt>
      <trkpt lat="43.49496" lon="6.92807">
        <ele>111.2</ele>
        <time>2024-11-03T08:58:59Z</time>
      </trkpt>
      <trkpt lat="43.49494" lon="6.92795">
        <ele>112.3</ele>
        <time>2024-11-03T08:59:07Z</time>
      </trkpt>
      <trkpt lat="43.49491" lon="6.92782">
        <ele>114.9</ele>
        <time>2024-11-03T08:59:19Z</time>
      </trkpt>
      <trkpt lat="43.49487" lon="6.92776">
        <ele>115</ele>
        <time>2024-11-03T08:59:29Z</time>
      </trkpt>
      <trkpt lat="43.49487" lon="6.92775">
        <ele>115.2</ele>
        <time>2024-11-03T08:59:30Z</time>
      </trkpt>
      <trkpt lat="43.49486" lon="6.92763">
        <ele>115.9</ele>
        <time>2024-11-03T08:59:40Z</time>
      </trkpt>
      <trkpt lat="43.49493" lon="6.92756">
        <ele>119.1</ele>
        <time>2024-11-03T08:59:58Z</time>
      </trkpt>
      <trkpt lat="43.49493" lon="6.92756">
        <ele>119.2</ele>
        <time>2024-11-03T08:59:59Z</time>
      </trkpt>
      <trkpt lat="43.49496" lon="6.92755">
        <ele>120.2</ele>
        <time>2024-11-03T09:00:09Z</time>
      </trkpt>
      <trkpt lat="43.49496" lon="6.92755">
        <ele>120.3</ele>
        <time>2024-11-03T09:00:10Z</time>
      </trkpt>
      <trkpt lat="43.49496" lon="6.92755">
        <ele>120.3</ele>
        <time>2024-11-03T09:00:11Z</time>
      </trkpt>
      <trkpt lat="43.49496" lon="6.92755">
        <ele>120.2</ele>
        <time>2024-11-03T09:00:13Z</time>
      </trkpt>
      <trkpt lat="43.49494" lon="6.92755">
        <ele>120.6</ele>
        <time>2024-11-03T09:00:18Z</time>
      </trkpt>
      <trkpt lat="43.49495" lon="6.92756">
        <ele>120.7</ele>
        <time>2024-11-03T09:00:19Z</time>
      </trkpt>
      <trkpt lat="43.49495" lon="6.92756">
        <ele>120.9</ele>
        <time>2024-11-03T09:00:20Z</time>
      </trkpt>
      <trkpt lat="43.49495" lon="6.92756">
        <ele>121.1</ele>
        <time>2024-11-03T09:00:21Z</time>
      </trkpt>
      <trkpt lat="43.49495" lon="6.92756">
        <ele>121.1</ele>
        <time>2024-11-03T09:00:22Z</time>
      </trkpt>
      <trkpt lat="43.49496" lon="6.92756">
        <ele>121.3</ele>
        <time>2024-11-03T09:00:24Z</time>
      </trkpt>
      <trkpt lat="43.49498" lon="6.92756">
        <ele>122.4</ele>
        <time>2024-11-03T09:00:37Z</time>
      </trkpt>
      <trkpt lat="43.49498" lon="6.92756">
        <ele>122.4</ele>
        <time>2024-11-03T09:00:38Z</time>
      </trkpt>
      <trkpt lat="43.49496" lon="6.92755">
        <ele>122.3</ele>
        <time>2024-11-03T09:00:44Z</time>
      </trkpt>
      <trkpt lat="43.49496" lon="6.92755">
        <ele>122.3</ele>
        <time>2024-11-03T09:00:45Z</time>
      </trkpt>
      <trkpt lat="43.49496" lon="6.92755">
        <ele>122.3</ele>
        <time>2024-11-03T09:00:46Z</time>
      </trkpt>
      <trkpt lat="43.49496" lon="6.92754">
        <ele>122.3</ele>
        <time>2024-11-03T09:00:47Z</time>
      </trkpt>
      <trkpt lat="43.49493" lon="6.92752">
        <ele>122.8</ele>
        <time>2024-11-03T09:00:53Z</time>
      </trkpt>
      <trkpt lat="43.49493" lon="6.92751">
        <ele>122.8</ele>
        <time>2024-11-03T09:00:58Z</time>
      </trkpt>
      <trkpt lat="43.49493" lon="6.92752">
        <ele>122.8</ele>
        <time>2024-11-03T09:01:00Z</time>
      </trkpt>
      <trkpt lat="43.49493" lon="6.92752">
        <ele>122.7</ele>
        <time>2024-11-03T09:01:01Z</time>
      </trkpt>
      <trkpt lat="43.49492" lon="6.92751">
        <ele>122.8</ele>
        <time>2024-11-03T09:01:04Z</time>
      </trkpt>
      <trkpt lat="43.49492" lon="6.92751">
        <ele>122.7</ele>
        <time>2024-11-03T09:01:05Z</time>
      </trkpt>
      <trkpt lat="43.49493" lon="6.92752">
        <ele>122.5</ele>
        <time>2024-11-03T09:01:09Z</time>
      </trkpt>
      <trkpt lat="43.49492" lon="6.92752">
        <ele>122.3</ele>
        <time>2024-11-03T09:01:10Z</time>
      </trkpt>
      <trkpt lat="43.49492" lon="6.92752">
        <ele>122</ele>
        <time>2024-11-03T09:01:12Z</time>
      </trkpt>
      <trkpt lat="43.49492" lon="6.92752">
        <ele>121.8</ele>
        <time>2024-11-03T09:01:15Z</time>
      </trkpt>
      <trkpt lat="43.49493" lon="6.92753">
        <ele>121.2</ele>
        <time>2024-11-03T09:01:20Z</time>
      </trkpt>
      <trkpt lat="43.49493" lon="6.92753">
        <ele>121.3</ele>
        <time>2024-11-03T09:01:21Z</time>
      </trkpt>
      <trkpt lat="43.49492" lon="6.92748">
        <ele>121.6</ele>
        <time>2024-11-03T09:01:26Z</time>
      </trkpt>
      <trkpt lat="43.49492" lon="6.92748">
        <ele>121.7</ele>
        <time>2024-11-03T09:01:27Z</time>
      </trkpt>
      <trkpt lat="43.49489" lon="6.92758">
        <ele>123.5</ele>
        <time>2024-11-03T09:01:51Z</time>
      </trkpt>
      <trkpt lat="43.49489" lon="6.92758">
        <ele>123.6</ele>
        <time>2024-11-03T09:01:52Z</time>
      </trkpt>
      <trkpt lat="43.4949" lon="6.92761">
        <ele>123.8</ele>
        <time>2024-11-03T09:02:03Z</time>
      </trkpt>
      <trkpt lat="43.49491" lon="6.92761">
        <ele>123.8</ele>
        <time>2024-11-03T09:02:04Z</time>
      </trkpt>
      <trkpt lat="43.49491" lon="6.9276">
        <ele>123.8</ele>
        <time>2024-11-03T09:02:06Z</time>
      </trkpt>
      <trkpt lat="43.49491" lon="6.9276">
        <ele>123.9</ele>
        <time>2024-11-03T09:02:07Z</time>
      </trkpt>
      <trkpt lat="43.4949" lon="6.92757">
        <ele>125.3</ele>
        <time>2024-11-03T09:02:45Z</time>
      </trkpt>
      <trkpt lat="43.49491" lon="6.92758">
        <ele>125.4</ele>
        <time>2024-11-03T09:02:46Z</time>
      </trkpt>
      <trkpt lat="43.49491" lon="6.92758">
        <ele>125</ele>
        <time>2024-11-03T09:02:50Z</time>
      </trkpt>
      <trkpt lat="43.49491" lon="6.92758">
        <ele>125</ele>
        <time>2024-11-03T09:02:51Z</time>
      </trkpt>
      <trkpt lat="43.49492" lon="6.92751">
        <ele>126</ele>
        <time>2024-11-03T09:03:02Z</time>
      </trkpt>
      <trkpt lat="43.49492" lon="6.92751">
        <ele>126</ele>
        <time>2024-11-03T09:03:03Z</time>
      </trkpt>
      <trkpt lat="43.49495" lon="6.92753">
        <ele>125.2</ele>
        <time>2024-11-03T09:03:09Z</time>
      </trkpt>
      <trkpt lat="43.49495" lon="6.92752">
        <ele>125.3</ele>
        <time>2024-11-03T09:03:10Z</time>
      </trkpt>
      <trkpt lat="43.49493" lon="6.92752">
        <ele>126.1</ele>
        <time>2024-11-03T09:03:28Z</time>
      </trkpt>
      <trkpt lat="43.49493" lon="6.92752">
        <ele>126.2</ele>
        <time>2024-11-03T09:03:29Z</time>
      </trkpt>
      <trkpt lat="43.49492" lon="6.92748">
        <ele>127.5</ele>
        <time>2024-11-03T09:03:48Z</time>
      </trkpt>
      <trkpt lat="43.49492" lon="6.92748">
        <ele>127.5</ele>
        <time>2024-11-03T09:03:49Z</time>
      </trkpt>
      <trkpt lat="43.49491" lon="6.92747">
        <ele>127.7</ele>
        <time>2024-11-03T09:03:52Z</time>
      </trkpt>
      <trkpt lat="43.49491" lon="6.92748">
        <ele>127.7</ele>
        <time>2024-11-03T09:03:53Z</time>
      </trkpt>
      <trkpt lat="43.49492" lon="6.92748">
        <ele>127.6</ele>
        <time>2024-11-03T09:03:58Z</time>
      </trkpt>
      <trkpt lat="43.49492" lon="6.92749">
        <ele>127.7</ele>
        <time>2024-11-03T09:03:59Z</time>
      </trkpt>
      <trkpt lat="43.49493" lon="6.92753">
        <ele>129.1</ele>
        <time>2024-11-03T09:04:10Z</time>
      </trkpt>
      <trkpt lat="43.49493" lon="6.92753">
        <ele>129.1</ele>
        <time>2024-11-03T09:04:11Z</time>
      </trkpt>
      <trkpt lat="43.49492" lon="6.92753">
        <ele>129.6</ele>
        <time>2024-11-03T09:04:16Z</time>
      </trkpt>
      <trkpt lat="43.49492" lon="6.92753">
        <ele>129.7</ele>
        <time>2024-11-03T09:04:17Z</time>
      </trkpt>
      <trkpt lat="43.49492" lon="6.92753">
        <ele>129.6</ele>
        <time>2024-11-03T09:04:18Z</time>
      </trkpt>
      <trkpt lat="43.49493" lon="6.92752">
        <ele>129.6</ele>
        <time>2024-11-03T09:04:20Z</time>
      </trkpt>
      <trkpt lat="43.49493" lon="6.92752">
        <ele>129.7</ele>
        <time>2024-11-03T09:04:22Z</time>
      </trkpt>
      <trkpt lat="43.49493" lon="6.92751">
        <ele>129.7</ele>
        <time>2024-11-03T09:04:23Z</time>
      </trkpt>
      <trkpt lat="43.49493" lon="6.92751">
        <ele>129.7</ele>
        <time>2024-11-03T09:04:24Z</time>
      </trkpt>
      <trkpt lat="43.49494" lon="6.9275">
        <ele>129.6</ele>
        <time>2024-11-03T09:04:25Z</time>
      </trkpt>
      <trkpt lat="43.49494" lon="6.92748">
        <ele>129.5</ele>
        <time>2024-11-03T09:04:28Z</time>
      </trkpt>
      <trkpt lat="43.49494" lon="6.92749">
        <ele>129.4</ele>
        <time>2024-11-03T09:04:29Z</time>
      </trkpt>
      <trkpt lat="43.49495" lon="6.92753">
        <ele>129.8</ele>
        <time>2024-11-03T09:04:43Z</time>
      </trkpt>
      <trkpt lat="43.49495" lon="6.92752">
        <ele>129.9</ele>
        <time>2024-11-03T09:04:44Z</time>
      </trkpt>
      <trkpt lat="43.49495" lon="6.92753">
        <ele>130.2</ele>
        <time>2024-11-03T09:04:47Z</time>
      </trkpt>
      <trkpt lat="43.49495" lon="6.92753">
        <ele>130</ele>
        <time>2024-11-03T09:04:50Z</time>
      </trkpt>
      <trkpt lat="43.49495" lon="6.92753">
        <ele>130.1</ele>
        <time>2024-11-03T09:04:52Z</time>
      </trkpt>
      <trkpt lat="43.49495" lon="6.92753">
        <ele>130.1</ele>
        <time>2024-11-03T09:04:53Z</time>
      </trkpt>
      <trkpt lat="43.49495" lon="6.92753">
        <ele>130.1</ele>
        <time>2024-11-03T09:04:54Z</time>
      </trkpt>
      <trkpt lat="43.49495" lon="6.92753">
        <ele>130</ele>
        <time>2024-11-03T09:04:59Z</time>
      </trkpt>
      <trkpt lat="43.49495" lon="6.92753">
        <ele>130.2</ele>
        <time>2024-11-03T09:05:01Z</time>
      </trkpt>
      <trkpt lat="43.49495" lon="6.92754">
        <ele>130.3</ele>
        <time>2024-11-03T09:05:02Z</time>
      </trkpt>
      <trkpt lat="43.49495" lon="6.92756">
        <ele>130.2</ele>
        <time>2024-11-03T09:05:10Z</time>
      </trkpt>
      <trkpt lat="43.49494" lon="6.92754">
        <ele>130.2</ele>
        <time>2024-11-03T09:05:11Z</time>
      </trkpt>
      <trkpt lat="43.49491" lon="6.92754">
        <ele>129.8</ele>
        <time>2024-11-03T09:05:22Z</time>
      </trkpt>
      <trkpt lat="43.49491" lon="6.92754">
        <ele>129.8</ele>
        <time>2024-11-03T09:05:23Z</time>
      </trkpt>
      <trkpt lat="43.4949" lon="6.92756">
        <ele>130.3</ele>
        <time>2024-11-03T09:05:27Z</time>
      </trkpt>
      <trkpt lat="43.4949" lon="6.92755">
        <ele>130.3</ele>
        <time>2024-11-03T09:05:28Z</time>
      </trkpt>
      <trkpt lat="43.49494" lon="6.92751">
        <ele>130.2</ele>
        <time>2024-11-03T09:05:36Z</time>
      </trkpt>
      <trkpt lat="43.49494" lon="6.92751">
        <ele>130.2</ele>
        <time>2024-11-03T09:05:37Z</time>
      </trkpt>
      <trkpt lat="43.49491" lon="6.92753">
        <ele>130.2</ele>
        <time>2024-11-03T09:05:44Z</time>
      </trkpt>
      <trkpt lat="43.49491" lon="6.92754">
        <ele>130.3</ele>
        <time>2024-11-03T09:05:46Z</time>
      </trkpt>
      <trkpt lat="43.49492" lon="6.92753">
        <ele>129.9</ele>
        <time>2024-11-03T09:05:55Z</time>
      </trkpt>
      <trkpt lat="43.49492" lon="6.92753">
        <ele>129.8</ele>
        <time>2024-11-03T09:05:56Z</time>
      </trkpt>
      <trkpt lat="43.4949" lon="6.92753">
        <ele>129</ele>
        <time>2024-11-03T09:06:00Z</time>
      </trkpt>
      <trkpt lat="43.4949" lon="6.92753">
        <ele>129</ele>
        <time>2024-11-03T09:06:01Z</time>
      </trkpt>
      <trkpt lat="43.49491" lon="6.92753">
        <ele>126.7</ele>
        <time>2024-11-03T09:06:14Z</time>
      </trkpt>
      <trkpt lat="43.49491" lon="6.92753">
        <ele>126.5</ele>
        <time>2024-11-03T09:06:15Z</time>
      </trkpt>
      <trkpt lat="43.49491" lon="6.92752">
        <ele>126.3</ele>
        <time>2024-11-03T09:06:17Z</time>
      </trkpt>
      <trkpt lat="43.49491" lon="6.92752">
        <ele>126.2</ele>
        <time>2024-11-03T09:06:18Z</time>
      </trkpt>
      <trkpt lat="43.49495" lon="6.92741">
        <ele>127.1</ele>
        <time>2024-11-03T09:06:32Z</time>
      </trkpt>
      <trkpt lat="43.495" lon="6.92731">
        <ele>127.5</ele>
        <time>2024-11-03T09:06:45Z</time>
      </trkpt>
      <trkpt lat="43.49498" lon="6.92718">
        <ele>128.8</ele>
        <time>2024-11-03T09:07:17Z</time>
      </trkpt>
      <trkpt lat="43.49496" lon="6.92708">
        <ele>129.9</ele>
        <time>2024-11-03T09:07:41Z</time>
      </trkpt>
      <trkpt lat="43.49496" lon="6.92708">
        <ele>129.9</ele>
        <time>2024-11-03T09:07:42Z</time>
      </trkpt>
      <trkpt lat="43.49495" lon="6.92709">
        <ele>129.9</ele>
        <time>2024-11-03T09:07:49Z</time>
      </trkpt>
      <trkpt lat="43.49495" lon="6.92709">
        <ele>130.1</ele>
        <time>2024-11-03T09:07:50Z</time>
      </trkpt>
      <trkpt lat="43.49496" lon="6.92712">
        <ele>130.5</ele>
        <time>2024-11-03T09:07:55Z</time>
      </trkpt>
      <trkpt lat="43.49496" lon="6.92712">
        <ele>130.5</ele>
        <time>2024-11-03T09:07:56Z</time>
      </trkpt>
      <trkpt lat="43.49495" lon="6.92713">
        <ele>130.5</ele>
        <time>2024-11-03T09:07:58Z</time>
      </trkpt>
      <trkpt lat="43.49496" lon="6.92712">
        <ele>130.5</ele>
        <time>2024-11-03T09:08:15Z</time>
      </trkpt>
      <trkpt lat="43.49498" lon="6.927">
        <ele>130.4</ele>
        <time>2024-11-03T09:08:29Z</time>
      </trkpt>
      <trkpt lat="43.49503" lon="6.92689">
        <ele>132.9</ele>
        <time>2024-11-03T09:08:43Z</time>
      </trkpt>
      <trkpt lat="43.49502" lon="6.92676">
        <ele>132.6</ele>
        <time>2024-11-03T09:08:52Z</time>
      </trkpt>
      <trkpt lat="43.49501" lon="6.92663">
        <ele>132.8</ele>
        <time>2024-11-03T09:09:02Z</time>
      </trkpt>
      <trkpt lat="43.49501" lon="6.92656">
        <ele>133</ele>
        <time>2024-11-03T09:09:12Z</time>
      </trkpt>
      <trkpt lat="43.495" lon="6.92656">
        <ele>133.4</ele>
        <time>2024-11-03T09:09:44Z</time>
      </trkpt>
      <trkpt lat="43.495" lon="6.92656">
        <ele>133.7</ele>
        <time>2024-11-03T09:09:46Z</time>
      </trkpt>
      <trkpt lat="43.495" lon="6.92656">
        <ele>133.8</ele>
        <time>2024-11-03T09:09:48Z</time>
      </trkpt>
      <trkpt lat="43.495" lon="6.92656">
        <ele>134.2</ele>
        <time>2024-11-03T09:09:49Z</time>
      </trkpt>
      <trkpt lat="43.49501" lon="6.92656">
        <ele>134.6</ele>
        <time>2024-11-03T09:09:54Z</time>
      </trkpt>
      <trkpt lat="43.49501" lon="6.92656">
        <ele>134.6</ele>
        <time>2024-11-03T09:09:55Z</time>
      </trkpt>
      <trkpt lat="43.495" lon="6.92656">
        <ele>134.8</ele>
        <time>2024-11-03T09:09:57Z</time>
      </trkpt>
      <trkpt lat="43.495" lon="6.92656">
        <ele>134.9</ele>
        <time>2024-11-03T09:09:59Z</time>
      </trkpt>
      <trkpt lat="43.495" lon="6.92657">
        <ele>134.9</ele>
        <time>2024-11-03T09:10:08Z</time>
      </trkpt>
      <trkpt lat="43.49504" lon="6.92656">
        <ele>134.1</ele>
        <time>2024-11-03T09:10:21Z</time>
      </trkpt>
      <trkpt lat="43.49504" lon="6.92656">
        <ele>134.1</ele>
        <time>2024-11-03T09:10:23Z</time>
      </trkpt>
      <trkpt lat="43.49504" lon="6.92656">
        <ele>134.5</ele>
        <time>2024-11-03T09:10:27Z</time>
      </trkpt>
      <trkpt lat="43.49503" lon="6.92656">
        <ele>134.9</ele>
        <time>2024-11-03T09:10:29Z</time>
      </trkpt>
      <trkpt lat="43.49503" lon="6.92656">
        <ele>134.9</ele>
        <time>2024-11-03T09:10:30Z</time>
      </trkpt>
      <trkpt lat="43.49503" lon="6.92655">
        <ele>135.1</ele>
        <time>2024-11-03T09:10:33Z</time>
      </trkpt>
      <trkpt lat="43.49503" lon="6.92655">
        <ele>135.1</ele>
        <time>2024-11-03T09:10:34Z</time>
      </trkpt>
      <trkpt lat="43.49503" lon="6.92655">
        <ele>135.2</ele>
        <time>2024-11-03T09:10:35Z</time>
      </trkpt>
      <trkpt lat="43.49503" lon="6.92655">
        <ele>135.6</ele>
        <time>2024-11-03T09:10:39Z</time>
      </trkpt>
      <trkpt lat="43.49502" lon="6.92655">
        <ele>135.6</ele>
        <time>2024-11-03T09:10:42Z</time>
      </trkpt>
      <trkpt lat="43.49502" lon="6.92655">
        <ele>136</ele>
        <time>2024-11-03T09:10:46Z</time>
      </trkpt>
      <trkpt lat="43.49502" lon="6.92655">
        <ele>136</ele>
        <time>2024-11-03T09:10:48Z</time>
      </trkpt>
      <trkpt lat="43.49501" lon="6.92654">
        <ele>136</ele>
        <time>2024-11-03T09:10:50Z</time>
      </trkpt>
      <trkpt lat="43.49501" lon="6.92654">
        <ele>136</ele>
        <time>2024-11-03T09:10:56Z</time>
      </trkpt>
      <trkpt lat="43.49501" lon="6.92654">
        <ele>136</ele>
        <time>2024-11-03T09:10:58Z</time>
      </trkpt>
      <trkpt lat="43.49501" lon="6.92655">
        <ele>135.9</ele>
        <time>2024-11-03T09:10:59Z</time>
      </trkpt>
      <trkpt lat="43.495" lon="6.92655">
        <ele>136</ele>
        <time>2024-11-03T09:11:03Z</time>
      </trkpt>
      <trkpt lat="43.495" lon="6.92654">
        <ele>136.1</ele>
        <time>2024-11-03T09:11:04Z</time>
      </trkpt>
      <trkpt lat="43.49501" lon="6.92654">
        <ele>136.5</ele>
        <time>2024-11-03T09:11:07Z</time>
      </trkpt>
      <trkpt lat="43.49501" lon="6.92654">
        <ele>136.6</ele>
        <time>2024-11-03T09:11:17Z</time>
      </trkpt>
      <trkpt lat="43.49501" lon="6.92654">
        <ele>136.6</ele>
        <time>2024-11-03T09:11:18Z</time>
      </trkpt>
      <trkpt lat="43.49501" lon="6.92655">
        <ele>136.8</ele>
        <time>2024-11-03T09:11:24Z</time>
      </trkpt>
      <trkpt lat="43.49501" lon="6.92655">
        <ele>136.8</ele>
        <time>2024-11-03T09:11:27Z</time>
      </trkpt>
      <trkpt lat="43.495" lon="6.92655">
        <ele>136.9</ele>
        <time>2024-11-03T09:11:29Z</time>
      </trkpt>
      <trkpt lat="43.495" lon="6.92654">
        <ele>137.1</ele>
        <time>2024-11-03T09:11:31Z</time>
      </trkpt>
      <trkpt lat="43.495" lon="6.92654">
        <ele>137</ele>
        <time>2024-11-03T09:11:37Z</time>
      </trkpt>
      <trkpt lat="43.49502" lon="6.92654">
        <ele>137.5</ele>
        <time>2024-11-03T09:11:41Z</time>
      </trkpt>
      <trkpt lat="43.49502" lon="6.92655">
        <ele>137.3</ele>
        <time>2024-11-03T09:11:57Z</time>
      </trkpt>
      <trkpt lat="43.49502" lon="6.92655">
        <ele>137.1</ele>
        <time>2024-11-03T09:11:59Z</time>
      </trkpt>
      <trkpt lat="43.49502" lon="6.92655">
        <ele>137.1</ele>
        <time>2024-11-03T09:12:10Z</time>
      </trkpt>
      <trkpt lat="43.49503" lon="6.92653">
        <ele>137.2</ele>
        <time>2024-11-03T09:12:14Z</time>
      </trkpt>
      <trkpt lat="43.49503" lon="6.92654">
        <ele>137.2</ele>
        <time>2024-11-03T09:12:15Z</time>
      </trkpt>
      <trkpt lat="43.49503" lon="6.92654">
        <ele>137.2</ele>
        <time>2024-11-03T09:12:16Z</time>
      </trkpt>
      <trkpt lat="43.49503" lon="6.92653">
        <ele>137.2</ele>
        <time>2024-11-03T09:12:18Z</time>
      </trkpt>
      <trkpt lat="43.49503" lon="6.92651">
        <ele>137.3</ele>
        <time>2024-11-03T09:12:30Z</time>
      </trkpt>
      <trkpt lat="43.49503" lon="6.92651">
        <ele>137.3</ele>
        <time>2024-11-03T09:12:32Z</time>
      </trkpt>
      <trkpt lat="43.49509" lon="6.92641">
        <ele>136.6</ele>
        <time>2024-11-03T09:12:51Z</time>
      </trkpt>
      <trkpt lat="43.49516" lon="6.92631">
        <ele>137.1</ele>
        <time>2024-11-03T09:12:59Z</time>
      </trkpt>
      <trkpt lat="43.49525" lon="6.92626">
        <ele>137.1</ele>
        <time>2024-11-03T09:13:10Z</time>
      </trkpt>
      <trkpt lat="43.49534" lon="6.9262">
        <ele>137.7</ele>
        <time>2024-11-03T09:13:17Z</time>
      </trkpt>
      <trkpt lat="43.49543" lon="6.92613">
        <ele>138.1</ele>
        <time>2024-11-03T09:13:28Z</time>
      </trkpt>
      <trkpt lat="43.4955" lon="6.92606">
        <ele>138</ele>
        <time>2024-11-03T09:13:36Z</time>
      </trkpt>
      <trkpt lat="43.49557" lon="6.92597">
        <ele>138.6</ele>
        <time>2024-11-03T09:13:46Z</time>
      </trkpt>
      <trkpt lat="43.49563" lon="6.92586">
        <ele>138.9</ele>
        <time>2024-11-03T09:13:53Z</time>
      </trkpt>
      <trkpt lat="43.49567" lon="6.92574">
        <ele>139.1</ele>
        <time>2024-11-03T09:14:00Z</time>
      </trkpt>
      <trkpt lat="43.49568" lon="6.92561">
        <ele>138.8</ele>
        <time>2024-11-03T09:14:08Z</time>
      </trkpt>
      <trkpt lat="43.49575" lon="6.92553">
        <ele>139.4</ele>
        <time>2024-11-03T09:14:16Z</time>
      </trkpt>
      <trkpt lat="43.49582" lon="6.92543">
        <ele>139.3</ele>
        <time>2024-11-03T09:14:24Z</time>
      </trkpt>
      <trkpt lat="43.49588" lon="6.92532">
        <ele>138.8</ele>
        <time>2024-11-03T09:14:32Z</time>
      </trkpt>
      <trkpt lat="43.49584" lon="6.92521">
        <ele>138.8</ele>
        <time>2024-11-03T09:14:42Z</time>
      </trkpt>
      <trkpt lat="43.49582" lon="6.92508">
        <ele>139.1</ele>
        <time>2024-11-03T09:14:49Z</time>
      </trkpt>
      <trkpt lat="43.49587" lon="6.92493">
        <ele>139.1</ele>
        <time>2024-11-03T09:14:56Z</time>
      </trkpt>
      <trkpt lat="43.49589" lon="6.92482">
        <ele>137.2</ele>
        <time>2024-11-03T09:15:12Z</time>
      </trkpt>
      <trkpt lat="43.49588" lon="6.92482">
        <ele>137.1</ele>
        <time>2024-11-03T09:15:13Z</time>
      </trkpt>
      <trkpt lat="43.49584" lon="6.92471">
        <ele>136.3</ele>
        <time>2024-11-03T09:15:30Z</time>
      </trkpt>
      <trkpt lat="43.49586" lon="6.92458">
        <ele>136.2</ele>
        <time>2024-11-03T09:15:45Z</time>
      </trkpt>
      <trkpt lat="43.49595" lon="6.9245">
        <ele>135.6</ele>
        <time>2024-11-03T09:15:51Z</time>
      </trkpt>
      <trkpt lat="43.49605" lon="6.92448">
        <ele>135.5</ele>
        <time>2024-11-03T09:16:08Z</time>
      </trkpt>
      <trkpt lat="43.49614" lon="6.92447">
        <ele>135.4</ele>
        <time>2024-11-03T09:16:24Z</time>
      </trkpt>
      <trkpt lat="43.49615" lon="6.92454">
        <ele>135.1</ele>
        <time>2024-11-03T09:16:32Z</time>
      </trkpt>
      <trkpt lat="43.49614" lon="6.92456">
        <ele>135</ele>
        <time>2024-11-03T09:16:34Z</time>
      </trkpt>
      <trkpt lat="43.4962" lon="6.92468">
        <ele>133.5</ele>
        <time>2024-11-03T09:16:49Z</time>
      </trkpt>
      <trkpt lat="43.49624" lon="6.9248">
        <ele>133.5</ele>
        <time>2024-11-03T09:16:56Z</time>
      </trkpt>
      <trkpt lat="43.49627" lon="6.92493">
        <ele>132.5</ele>
        <time>2024-11-03T09:17:03Z</time>
      </trkpt>
      <trkpt lat="43.4963" lon="6.92506">
        <ele>133.2</ele>
        <time>2024-11-03T09:17:10Z</time>
      </trkpt>
      <trkpt lat="43.49633" lon="6.92519">
        <ele>132.5</ele>
        <time>2024-11-03T09:17:21Z</time>
      </trkpt>
      <trkpt lat="43.49635" lon="6.92532">
        <ele>132.4</ele>
        <time>2024-11-03T09:17:28Z</time>
      </trkpt>
      <trkpt lat="43.49639" lon="6.92544">
        <ele>132.7</ele>
        <time>2024-11-03T09:17:37Z</time>
      </trkpt>
      <trkpt lat="43.49645" lon="6.92553">
        <ele>133.2</ele>
        <time>2024-11-03T09:17:46Z</time>
      </trkpt>
      <trkpt lat="43.49652" lon="6.92562">
        <ele>133.4</ele>
        <time>2024-11-03T09:17:54Z</time>
      </trkpt>
      <trkpt lat="43.49659" lon="6.92571">
        <ele>134</ele>
        <time>2024-11-03T09:18:02Z</time>
      </trkpt>
      <trkpt lat="43.49664" lon="6.92582">
        <ele>135.2</ele>
        <time>2024-11-03T09:18:10Z</time>
      </trkpt>
      <trkpt lat="43.49669" lon="6.92592">
        <ele>135.4</ele>
        <time>2024-11-03T09:18:18Z</time>
      </trkpt>
      <trkpt lat="43.49677" lon="6.92601">
        <ele>135.9</ele>
        <time>2024-11-03T09:18:27Z</time>
      </trkpt>
      <trkpt lat="43.49686" lon="6.92604">
        <ele>136.4</ele>
        <time>2024-11-03T09:18:34Z</time>
      </trkpt>
      <trkpt lat="43.49693" lon="6.92613">
        <ele>136.8</ele>
        <time>2024-11-03T09:18:41Z</time>
      </trkpt>
      <trkpt lat="43.497" lon="6.92623">
        <ele>136.4</ele>
        <time>2024-11-03T09:18:51Z</time>
      </trkpt>
      <trkpt lat="43.49707" lon="6.92631">
        <ele>137.1</ele>
        <time>2024-11-03T09:19:01Z</time>
      </trkpt>
      <trkpt lat="43.49715" lon="6.92639">
        <ele>137.1</ele>
        <time>2024-11-03T09:19:09Z</time>
      </trkpt>
      <trkpt lat="43.49725" lon="6.92635">
        <ele>138.4</ele>
        <time>2024-11-03T09:19:19Z</time>
      </trkpt>
      <trkpt lat="43.49734" lon="6.92631">
        <ele>139.1</ele>
        <time>2024-11-03T09:19:25Z</time>
      </trkpt>
      <trkpt lat="43.49742" lon="6.92627">
        <ele>140.1</ele>
        <time>2024-11-03T09:19:32Z</time>
      </trkpt>
      <trkpt lat="43.49749" lon="6.92637">
        <ele>138.4</ele>
        <time>2024-11-03T09:19:50Z</time>
      </trkpt>
      <trkpt lat="43.49754" lon="6.92648">
        <ele>137.8</ele>
        <time>2024-11-03T09:19:59Z</time>
      </trkpt>
      <trkpt lat="43.49761" lon="6.92656">
        <ele>137.7</ele>
        <time>2024-11-03T09:20:06Z</time>
      </trkpt>
      <trkpt lat="43.49765" lon="6.9267">
        <ele>138.5</ele>
        <time>2024-11-03T09:20:12Z</time>
      </trkpt>
      <trkpt lat="43.49768" lon="6.92682">
        <ele>138.7</ele>
        <time>2024-11-03T09:20:21Z</time>
      </trkpt>
      <trkpt lat="43.49767" lon="6.92695">
        <ele>138.5</ele>
        <time>2024-11-03T09:20:31Z</time>
      </trkpt>
      <trkpt lat="43.49769" lon="6.92708">
        <ele>138.5</ele>
        <time>2024-11-03T09:20:40Z</time>
      </trkpt>
      <trkpt lat="43.49771" lon="6.92722">
        <ele>137.9</ele>
        <time>2024-11-03T09:20:49Z</time>
      </trkpt>
      <trkpt lat="43.49775" lon="6.92735">
        <ele>138</ele>
        <time>2024-11-03T09:20:56Z</time>
      </trkpt>
      <trkpt lat="43.49783" lon="6.92743">
        <ele>137.5</ele>
        <time>2024-11-03T09:21:04Z</time>
      </trkpt>
      <trkpt lat="43.49791" lon="6.92749">
        <ele>137.2</ele>
        <time>2024-11-03T09:21:11Z</time>
      </trkpt>
      <trkpt lat="43.498" lon="6.92757">
        <ele>136.3</ele>
        <time>2024-11-03T09:21:20Z</time>
      </trkpt>
      <trkpt lat="43.49804" lon="6.92769">
        <ele>135.3</ele>
        <time>2024-11-03T09:21:30Z</time>
      </trkpt>
      <trkpt lat="43.49806" lon="6.92781">
        <ele>135</ele>
        <time>2024-11-03T09:21:41Z</time>
      </trkpt>
      <trkpt lat="43.49815" lon="6.92788">
        <ele>135</ele>
        <time>2024-11-03T09:21:51Z</time>
      </trkpt>
      <trkpt lat="43.49823" lon="6.92796">
        <ele>133.9</ele>
        <time>2024-11-03T09:21:58Z</time>
      </trkpt>
      <trkpt lat="43.49828" lon="6.92807">
        <ele>133.8</ele>
        <time>2024-11-03T09:22:06Z</time>
      </trkpt>
      <trkpt lat="43.49832" lon="6.92818">
        <ele>135.2</ele>
        <time>2024-11-03T09:22:18Z</time>
      </trkpt>
      <trkpt lat="43.49836" lon="6.92829">
        <ele>135.2</ele>
        <time>2024-11-03T09:22:26Z</time>
      </trkpt>
      <trkpt lat="43.4984" lon="6.9284">
        <ele>135.1</ele>
        <time>2024-11-03T09:22:35Z</time>
      </trkpt>
      <trkpt lat="43.49842" lon="6.92852">
        <ele>134.7</ele>
        <time>2024-11-03T09:22:46Z</time>
      </trkpt>
      <trkpt lat="43.49844" lon="6.92865">
        <ele>132.8</ele>
        <time>2024-11-03T09:23:07Z</time>
      </trkpt>
      <trkpt lat="43.49851" lon="6.92876">
        <ele>132.2</ele>
        <time>2024-11-03T09:23:16Z</time>
      </trkpt>
      <trkpt lat="43.49853" lon="6.92888">
        <ele>131.6</ele>
        <time>2024-11-03T09:23:25Z</time>
      </trkpt>
      <trkpt lat="43.49854" lon="6.92892">
        <ele>130.5</ele>
        <time>2024-11-03T09:23:31Z</time>
      </trkpt>
      <trkpt lat="43.49854" lon="6.92892">
        <ele>130.5</ele>
        <time>2024-11-03T09:23:32Z</time>
      </trkpt>
      <trkpt lat="43.4986" lon="6.92901">
        <ele>129.9</ele>
        <time>2024-11-03T09:23:50Z</time>
      </trkpt>
      <trkpt lat="43.49868" lon="6.9291">
        <ele>131</ele>
        <time>2024-11-03T09:23:59Z</time>
      </trkpt>
      <trkpt lat="43.49875" lon="6.92919">
        <ele>130.6</ele>
        <time>2024-11-03T09:24:08Z</time>
      </trkpt>
      <trkpt lat="43.49883" lon="6.92926">
        <ele>130.6</ele>
        <time>2024-11-03T09:24:15Z</time>
      </trkpt>
      <trkpt lat="43.49886" lon="6.92939">
        <ele>130.7</ele>
        <time>2024-11-03T09:24:23Z</time>
      </trkpt>
      <trkpt lat="43.49893" lon="6.92947">
        <ele>130</ele>
        <time>2024-11-03T09:24:33Z</time>
      </trkpt>
      <trkpt lat="43.49894" lon="6.92961">
        <ele>130.1</ele>
        <time>2024-11-03T09:24:39Z</time>
      </trkpt>
      <trkpt lat="43.49898" lon="6.92973">
        <ele>129.9</ele>
        <time>2024-11-03T09:24:48Z</time>
      </trkpt>
      <trkpt lat="43.49902" lon="6.92984">
        <ele>128.6</ele>
        <time>2024-11-03T09:25:00Z</time>
      </trkpt>
      <trkpt lat="43.49904" lon="6.92998">
        <ele>128.9</ele>
        <time>2024-11-03T09:25:08Z</time>
      </trkpt>
      <trkpt lat="43.49906" lon="6.9301">
        <ele>129.7</ele>
        <time>2024-11-03T09:25:14Z</time>
      </trkpt>
      <trkpt lat="43.49909" lon="6.93023">
        <ele>129.8</ele>
        <time>2024-11-03T09:25:22Z</time>
      </trkpt>
      <trkpt lat="43.4991" lon="6.93036">
        <ele>130.8</ele>
        <time>2024-11-03T09:25:28Z</time>
      </trkpt>
      <trkpt lat="43.49913" lon="6.93048">
        <ele>132.3</ele>
        <time>2024-11-03T09:25:37Z</time>
      </trkpt>
      <trkpt lat="43.49918" lon="6.93059">
        <ele>133</ele>
        <time>2024-11-03T09:25:46Z</time>
      </trkpt>
      <trkpt lat="43.49922" lon="6.9307">
        <ele>133.7</ele>
        <time>2024-11-03T09:25:54Z</time>
      </trkpt>
      <trkpt lat="43.49921" lon="6.93083">
        <ele>135</ele>
        <time>2024-11-03T09:26:02Z</time>
      </trkpt>
      <trkpt lat="43.49925" lon="6.93095">
        <ele>135.3</ele>
        <time>2024-11-03T09:26:11Z</time>
      </trkpt>
      <trkpt lat="43.49929" lon="6.93106">
        <ele>136.6</ele>
        <time>2024-11-03T09:26:20Z</time>
      </trkpt>
      <trkpt lat="43.49936" lon="6.93115">
        <ele>137.8</ele>
        <time>2024-11-03T09:26:29Z</time>
      </trkpt>
      <trkpt lat="43.49943" lon="6.93125">
        <ele>137.3</ele>
        <time>2024-11-03T09:26:36Z</time>
      </trkpt>
      <trkpt lat="43.49951" lon="6.93131">
        <ele>137.2</ele>
        <time>2024-11-03T09:26:44Z</time>
      </trkpt>
      <trkpt lat="43.49955" lon="6.93143">
        <ele>137.8</ele>
        <time>2024-11-03T09:26:52Z</time>
      </trkpt>
      <trkpt lat="43.49957" lon="6.93156">
        <ele>138.7</ele>
        <time>2024-11-03T09:27:02Z</time>
      </trkpt>
      <trkpt lat="43.4996" lon="6.9317">
        <ele>140.6</ele>
        <time>2024-11-03T09:27:10Z</time>
      </trkpt>
      <trkpt lat="43.49967" lon="6.93177">
        <ele>140.9</ele>
        <time>2024-11-03T09:27:19Z</time>
      </trkpt>
      <trkpt lat="43.49973" lon="6.93187">
        <ele>142.4</ele>
        <time>2024-11-03T09:27:33Z</time>
      </trkpt>
      <trkpt lat="43.49973" lon="6.932">
        <ele>142.4</ele>
        <time>2024-11-03T09:27:44Z</time>
      </trkpt>
      <trkpt lat="43.49974" lon="6.93213">
        <ele>141.1</ele>
        <time>2024-11-03T09:27:53Z</time>
      </trkpt>
      <trkpt lat="43.49974" lon="6.93226">
        <ele>142.3</ele>
        <time>2024-11-03T09:28:03Z</time>
      </trkpt>
      <trkpt lat="43.49969" lon="6.93238">
        <ele>142.8</ele>
        <time>2024-11-03T09:28:16Z</time>
      </trkpt>
      <trkpt lat="43.49974" lon="6.93249">
        <ele>143.7</ele>
        <time>2024-11-03T09:28:40Z</time>
      </trkpt>
      <trkpt lat="43.49975" lon="6.93251">
        <ele>144.3</ele>
        <time>2024-11-03T09:28:46Z</time>
      </trkpt>
      <trkpt lat="43.49975" lon="6.93251">
        <ele>144.6</ele>
        <time>2024-11-03T09:28:49Z</time>
      </trkpt>
      <trkpt lat="43.49979" lon="6.93263">
        <ele>147.2</ele>
        <time>2024-11-03T09:29:01Z</time>
      </trkpt>
      <trkpt lat="43.49984" lon="6.93273">
        <ele>147.2</ele>
        <time>2024-11-03T09:29:12Z</time>
      </trkpt>
      <trkpt lat="43.49994" lon="6.93274">
        <ele>146.5</ele>
        <time>2024-11-03T09:29:33Z</time>
      </trkpt>
      <trkpt lat="43.50003" lon="6.93278">
        <ele>145.8</ele>
        <time>2024-11-03T09:29:45Z</time>
      </trkpt>
      <trkpt lat="43.50012" lon="6.93283">
        <ele>144.8</ele>
        <time>2024-11-03T09:29:57Z</time>
      </trkpt>
      <trkpt lat="43.50019" lon="6.9329">
        <ele>144</ele>
        <time>2024-11-03T09:30:05Z</time>
      </trkpt>
      <trkpt lat="43.50028" lon="6.93291">
        <ele>143.9</ele>
        <time>2024-11-03T09:30:13Z</time>
      </trkpt>
      <trkpt lat="43.50036" lon="6.93297">
        <ele>144</ele>
        <time>2024-11-03T09:30:25Z</time>
      </trkpt>
      <trkpt lat="43.50045" lon="6.93303">
        <ele>143.7</ele>
        <time>2024-11-03T09:30:35Z</time>
      </trkpt>
      <trkpt lat="43.50054" lon="6.93305">
        <ele>143.1</ele>
        <time>2024-11-03T09:30:43Z</time>
      </trkpt>
      <trkpt lat="43.50063" lon="6.93306">
        <ele>143.1</ele>
        <time>2024-11-03T09:30:51Z</time>
      </trkpt>
      <trkpt lat="43.50071" lon="6.93315">
        <ele>142.7</ele>
        <time>2024-11-03T09:31:01Z</time>
      </trkpt>
      <trkpt lat="43.50078" lon="6.93322">
        <ele>143</ele>
        <time>2024-11-03T09:31:10Z</time>
      </trkpt>
      <trkpt lat="43.50087" lon="6.93318">
        <ele>143</ele>
        <time>2024-11-03T09:31:15Z</time>
      </trkpt>
      <trkpt lat="43.50096" lon="6.93316">
        <ele>143</ele>
        <time>2024-11-03T09:31:20Z</time>
      </trkpt>
      <trkpt lat="43.50106" lon="6.93317">
        <ele>142.8</ele>
        <time>2024-11-03T09:31:27Z</time>
      </trkpt>
      <trkpt lat="43.50112" lon="6.93326">
        <ele>142.5</ele>
        <time>2024-11-03T09:31:37Z</time>
      </trkpt>
      <trkpt lat="43.5012" lon="6.93334">
        <ele>142.1</ele>
        <time>2024-11-03T09:31:48Z</time>
      </trkpt>
      <trkpt lat="43.50128" lon="6.93339">
        <ele>142.1</ele>
        <time>2024-11-03T09:31:57Z</time>
      </trkpt>
      <trkpt lat="43.50132" lon="6.93351">
        <ele>142.1</ele>
        <time>2024-11-03T09:32:06Z</time>
      </trkpt>
      <trkpt lat="43.5014" lon="6.93358">
        <ele>141.9</ele>
        <time>2024-11-03T09:32:16Z</time>
      </trkpt>
      <trkpt lat="43.50149" lon="6.93362">
        <ele>141.9</ele>
        <time>2024-11-03T09:32:24Z</time>
      </trkpt>
      <trkpt lat="43.50158" lon="6.93368">
        <ele>142.1</ele>
        <time>2024-11-03T09:32:33Z</time>
      </trkpt>
      <trkpt lat="43.50164" lon="6.93377">
        <ele>141.9</ele>
        <time>2024-11-03T09:32:41Z</time>
      </trkpt>
      <trkpt lat="43.50172" lon="6.93384">
        <ele>141.5</ele>
        <time>2024-11-03T09:32:50Z</time>
      </trkpt>
      <trkpt lat="43.5018" lon="6.9339">
        <ele>140.9</ele>
        <time>2024-11-03T09:33:03Z</time>
      </trkpt>
      <trkpt lat="43.50188" lon="6.93396">
        <ele>141.2</ele>
        <time>2024-11-03T09:33:12Z</time>
      </trkpt>
      <trkpt lat="43.50197" lon="6.93397">
        <ele>141.2</ele>
        <time>2024-11-03T09:33:20Z</time>
      </trkpt>
      <trkpt lat="43.50206" lon="6.93403">
        <ele>140.6</ele>
        <time>2024-11-03T09:33:31Z</time>
      </trkpt>
      <trkpt lat="43.50212" lon="6.93413">
        <ele>141</ele>
        <time>2024-11-03T09:33:40Z</time>
      </trkpt>
      <trkpt lat="43.50218" lon="6.93423">
        <ele>140.8</ele>
        <time>2024-11-03T09:33:49Z</time>
      </trkpt>
      <trkpt lat="43.50227" lon="6.93419">
        <ele>139.5</ele>
        <time>2024-11-03T09:34:02Z</time>
      </trkpt>
      <trkpt lat="43.50231" lon="6.93415">
        <ele>139.7</ele>
        <time>2024-11-03T09:34:10Z</time>
      </trkpt>
      <trkpt lat="43.50231" lon="6.93415">
        <ele>139.6</ele>
        <time>2024-11-03T09:34:11Z</time>
      </trkpt>
      <trkpt lat="43.50241" lon="6.93416">
        <ele>138.4</ele>
        <time>2024-11-03T09:34:22Z</time>
      </trkpt>
      <trkpt lat="43.5025" lon="6.93418">
        <ele>136.9</ele>
        <time>2024-11-03T09:34:30Z</time>
      </trkpt>
      <trkpt lat="43.5026" lon="6.93417">
        <ele>136.1</ele>
        <time>2024-11-03T09:34:37Z</time>
      </trkpt>
      <trkpt lat="43.50269" lon="6.93417">
        <ele>134.8</ele>
        <time>2024-11-03T09:34:48Z</time>
      </trkpt>
      <trkpt lat="43.50279" lon="6.93418">
        <ele>133.7</ele>
        <time>2024-11-03T09:34:55Z</time>
      </trkpt>
      <trkpt lat="43.50289" lon="6.9342">
        <ele>133.1</ele>
        <time>2024-11-03T09:35:03Z</time>
      </trkpt>
      <trkpt lat="43.50299" lon="6.9342">
        <ele>132.1</ele>
        <time>2024-11-03T09:35:11Z</time>
      </trkpt>
      <trkpt lat="43.50308" lon="6.93421">
        <ele>129.1</ele>
        <time>2024-11-03T09:35:21Z</time>
      </trkpt>
      <trkpt lat="43.50317" lon="6.93423">
        <ele>126.6</ele>
        <time>2024-11-03T09:35:30Z</time>
      </trkpt>
      <trkpt lat="43.50325" lon="6.93429">
        <ele>124.6</ele>
        <time>2024-11-03T09:35:38Z</time>
      </trkpt>
      <trkpt lat="43.50333" lon="6.93436">
        <ele>121.3</ele>
        <time>2024-11-03T09:35:51Z</time>
      </trkpt>
      <trkpt lat="43.50341" lon="6.93444">
        <ele>120.5</ele>
        <time>2024-11-03T09:35:59Z</time>
      </trkpt>
      <trkpt lat="43.50349" lon="6.9345">
        <ele>117.8</ele>
        <time>2024-11-03T09:36:10Z</time>
      </trkpt>
      <trkpt lat="43.50357" lon="6.93458">
        <ele>115</ele>
        <time>2024-11-03T09:36:22Z</time>
      </trkpt>
      <trkpt lat="43.50355" lon="6.93446">
        <ele>112.2</ele>
        <time>2024-11-03T09:36:47Z</time>
      </trkpt>
      <trkpt lat="43.5035" lon="6.93435">
        <ele>112.1</ele>
        <time>2024-11-03T09:37:05Z</time>
      </trkpt>
      <trkpt lat="43.50345" lon="6.93424">
        <ele>112.1</ele>
        <time>2024-11-03T09:37:16Z</time>
      </trkpt>
      <trkpt lat="43.50338" lon="6.93415">
        <ele>112.4</ele>
        <time>2024-11-03T09:37:29Z</time>
      </trkpt>
      <trkpt lat="43.50329" lon="6.93414">
        <ele>113.2</ele>
        <time>2024-11-03T09:37:41Z</time>
      </trkpt>
      <trkpt lat="43.5033" lon="6.934">
        <ele>114.6</ele>
        <time>2024-11-03T09:37:54Z</time>
      </trkpt>
      <trkpt lat="43.50326" lon="6.93389">
        <ele>114.5</ele>
        <time>2024-11-03T09:38:05Z</time>
      </trkpt>
      <trkpt lat="43.50325" lon="6.93376">
        <ele>115.5</ele>
        <time>2024-11-03T09:38:22Z</time>
      </trkpt>
      <trkpt lat="43.50318" lon="6.93367">
        <ele>118</ele>
        <time>2024-11-03T09:38:33Z</time>
      </trkpt>
      <trkpt lat="43.50311" lon="6.93359">
        <ele>119.6</ele>
        <time>2024-11-03T09:38:41Z</time>
      </trkpt>
      <trkpt lat="43.50303" lon="6.93352">
        <ele>122.8</ele>
        <time>2024-11-03T09:38:52Z</time>
      </trkpt>
      <trkpt lat="43.50297" lon="6.93341">
        <ele>124.4</ele>
        <time>2024-11-03T09:39:12Z</time>
      </trkpt>
      <trkpt lat="43.50288" lon="6.9334">
        <ele>124.8</ele>
        <time>2024-11-03T09:39:20Z</time>
      </trkpt>
      <trkpt lat="43.50285" lon="6.93341">
        <ele>125.1</ele>
        <time>2024-11-03T09:39:24Z</time>
      </trkpt>
      <trkpt lat="43.50284" lon="6.93341">
        <ele>125.2</ele>
        <time>2024-11-03T09:39:25Z</time>
      </trkpt>
      <trkpt lat="43.50275" lon="6.93342">
        <ele>129.4</ele>
        <time>2024-11-03T09:39:37Z</time>
      </trkpt>
      <trkpt lat="43.5027" lon="6.93342">
        <ele>130.4</ele>
        <time>2024-11-03T09:39:48Z</time>
      </trkpt>
      <trkpt lat="43.50271" lon="6.93342">
        <ele>130.7</ele>
        <time>2024-11-03T09:39:49Z</time>
      </trkpt>
      <trkpt lat="43.50271" lon="6.93343">
        <ele>131.1</ele>
        <time>2024-11-03T09:39:51Z</time>
      </trkpt>
      <trkpt lat="43.50271" lon="6.93343">
        <ele>131.2</ele>
        <time>2024-11-03T09:39:52Z</time>
      </trkpt>
      <trkpt lat="43.50264" lon="6.93352">
        <ele>132.3</ele>
        <time>2024-11-03T09:40:03Z</time>
      </trkpt>
      <trkpt lat="43.5026" lon="6.93339">
        <ele>139.8</ele>
        <time>2024-11-03T09:40:39Z</time>
      </trkpt>
      <trkpt lat="43.50251" lon="6.93339">
        <ele>141.4</ele>
        <time>2024-11-03T09:40:51Z</time>
      </trkpt>
      <trkpt lat="43.50242" lon="6.9334">
        <ele>143.2</ele>
        <time>2024-11-03T09:41:08Z</time>
      </trkpt>
      <trkpt lat="43.50242" lon="6.93339">
        <ele>143.4</ele>
        <time>2024-11-03T09:41:09Z</time>
      </trkpt>
      <trkpt lat="43.50243" lon="6.93339">
        <ele>143.7</ele>
        <time>2024-11-03T09:41:11Z</time>
      </trkpt>
      <trkpt lat="43.50238" lon="6.93328">
        <ele>147.3</ele>
        <time>2024-11-03T09:41:24Z</time>
      </trkpt>
      <trkpt lat="43.50234" lon="6.93322">
        <ele>150.2</ele>
        <time>2024-11-03T09:41:36Z</time>
      </trkpt>
      <trkpt lat="43.50234" lon="6.93322">
        <ele>150.5</ele>
        <time>2024-11-03T09:41:37Z</time>
      </trkpt>
      <trkpt lat="43.50234" lon="6.93322">
        <ele>150.7</ele>
        <time>2024-11-03T09:41:39Z</time>
      </trkpt>
      <trkpt lat="43.50234" lon="6.93323">
        <ele>150.8</ele>
        <time>2024-11-03T09:41:40Z</time>
      </trkpt>
      <trkpt lat="43.50234" lon="6.93323">
        <ele>151</ele>
        <time>2024-11-03T09:41:41Z</time>
      </trkpt>
      <trkpt lat="43.50234" lon="6.93323">
        <ele>151.2</ele>
        <time>2024-11-03T09:41:42Z</time>
      </trkpt>
      <trkpt lat="43.5023" lon="6.93311">
        <ele>152.8</ele>
        <time>2024-11-03T09:41:59Z</time>
      </trkpt>
      <trkpt lat="43.50224" lon="6.93301">
        <ele>155</ele>
        <time>2024-11-03T09:42:18Z</time>
      </trkpt>
      <trkpt lat="43.50216" lon="6.93295">
        <ele>157.8</ele>
        <time>2024-11-03T09:42:32Z</time>
      </trkpt>
      <trkpt lat="43.50208" lon="6.93288">
        <ele>157.7</ele>
        <time>2024-11-03T09:42:42Z</time>
      </trkpt>
      <trkpt lat="43.50203" lon="6.93278">
        <ele>158.5</ele>
        <time>2024-11-03T09:43:05Z</time>
      </trkpt>
      <trkpt lat="43.50197" lon="6.93269">
        <ele>160.5</ele>
        <time>2024-11-03T09:43:19Z</time>
      </trkpt>
      <trkpt lat="43.5019" lon="6.93259">
        <ele>163.5</ele>
        <time>2024-11-03T09:43:36Z</time>
      </trkpt>
      <trkpt lat="43.50183" lon="6.93251">
        <ele>165</ele>
        <time>2024-11-03T09:43:49Z</time>
      </trkpt>
      <trkpt lat="43.50179" lon="6.9324">
        <ele>167.2</ele>
        <time>2024-11-03T09:43:59Z</time>
      </trkpt>
      <trkpt lat="43.50173" lon="6.9323">
        <ele>168.8</ele>
        <time>2024-11-03T09:44:09Z</time>
      </trkpt>
      <trkpt lat="43.50167" lon="6.9322">
        <ele>170.7</ele>
        <time>2024-11-03T09:44:17Z</time>
      </trkpt>
      <trkpt lat="43.50161" lon="6.9321">
        <ele>172.7</ele>
        <time>2024-11-03T09:44:28Z</time>
      </trkpt>
      <trkpt lat="43.50157" lon="6.93199">
        <ele>175</ele>
        <time>2024-11-03T09:44:40Z</time>
      </trkpt>
      <trkpt lat="43.50151" lon="6.93188">
        <ele>179</ele>
        <time>2024-11-03T09:44:57Z</time>
      </trkpt>
      <trkpt lat="43.5015" lon="6.93176">
        <ele>182.6</ele>
        <time>2024-11-03T09:45:10Z</time>
      </trkpt>
      <trkpt lat="43.50141" lon="6.9317">
        <ele>184.1</ele>
        <time>2024-11-03T09:45:23Z</time>
      </trkpt>
      <trkpt lat="43.50132" lon="6.93166">
        <ele>185</ele>
        <time>2024-11-03T09:45:35Z</time>
      </trkpt>
      <trkpt lat="43.50123" lon="6.93164">
        <ele>187</ele>
        <time>2024-11-03T09:45:47Z</time>
      </trkpt>
      <trkpt lat="43.50114" lon="6.93163">
        <ele>187.3</ele>
        <time>2024-11-03T09:46:00Z</time>
      </trkpt>
      <trkpt lat="43.50112" lon="6.93164">
        <ele>187.9</ele>
        <time>2024-11-03T09:46:10Z</time>
      </trkpt>
      <trkpt lat="43.50112" lon="6.93164">
        <ele>187.9</ele>
        <time>2024-11-03T09:46:11Z</time>
      </trkpt>
      <trkpt lat="43.50111" lon="6.93164">
        <ele>188</ele>
        <time>2024-11-03T09:46:13Z</time>
      </trkpt>
      <trkpt lat="43.50111" lon="6.93164">
        <ele>188.1</ele>
        <time>2024-11-03T09:46:14Z</time>
      </trkpt>
      <trkpt lat="43.5011" lon="6.93162">
        <ele>188.7</ele>
        <time>2024-11-03T09:46:23Z</time>
      </trkpt>
      <trkpt lat="43.5011" lon="6.93162">
        <ele>188.8</ele>
        <time>2024-11-03T09:46:24Z</time>
      </trkpt>
      <trkpt lat="43.50109" lon="6.93162">
        <ele>189.2</ele>
        <time>2024-11-03T09:46:31Z</time>
      </trkpt>
      <trkpt lat="43.50108" lon="6.93163">
        <ele>189.2</ele>
        <time>2024-11-03T09:46:32Z</time>
      </trkpt>
      <trkpt lat="43.50108" lon="6.93163">
        <ele>189.2</ele>
        <time>2024-11-03T09:46:33Z</time>
      </trkpt>
      <trkpt lat="43.50108" lon="6.93162">
        <ele>189.3</ele>
        <time>2024-11-03T09:46:38Z</time>
      </trkpt>
      <trkpt lat="43.50108" lon="6.93162">
        <ele>189.3</ele>
        <time>2024-11-03T09:46:39Z</time>
      </trkpt>
      <trkpt lat="43.50108" lon="6.93162">
        <ele>189.4</ele>
        <time>2024-11-03T09:46:40Z</time>
      </trkpt>
      <trkpt lat="43.50108" lon="6.93162">
        <ele>189.4</ele>
        <time>2024-11-03T09:46:41Z</time>
      </trkpt>
      <trkpt lat="43.50108" lon="6.93162">
        <ele>189.4</ele>
        <time>2024-11-03T09:46:42Z</time>
      </trkpt>
      <trkpt lat="43.50108" lon="6.93162">
        <ele>189.4</ele>
        <time>2024-11-03T09:46:43Z</time>
      </trkpt>
      <trkpt lat="43.50108" lon="6.93162">
        <ele>189.5</ele>
        <time>2024-11-03T09:46:47Z</time>
      </trkpt>
      <trkpt lat="43.50109" lon="6.93161">
        <ele>189.9</ele>
        <time>2024-11-03T09:46:49Z</time>
      </trkpt>
      <trkpt lat="43.50109" lon="6.93161">
        <ele>190</ele>
        <time>2024-11-03T09:46:55Z</time>
      </trkpt>
      <trkpt lat="43.50109" lon="6.93161">
        <ele>190.2</ele>
        <time>2024-11-03T09:46:57Z</time>
      </trkpt>
      <trkpt lat="43.50109" lon="6.93161">
        <ele>190.2</ele>
        <time>2024-11-03T09:46:58Z</time>
      </trkpt>
      <trkpt lat="43.5011" lon="6.9316">
        <ele>190.3</ele>
        <time>2024-11-03T09:47:01Z</time>
      </trkpt>
      <trkpt lat="43.5011" lon="6.9316">
        <ele>190.4</ele>
        <time>2024-11-03T09:47:03Z</time>
      </trkpt>
      <trkpt lat="43.5011" lon="6.9316">
        <ele>190.6</ele>
        <time>2024-11-03T09:47:04Z</time>
      </trkpt>
      <trkpt lat="43.5011" lon="6.9316">
        <ele>190.7</ele>
        <time>2024-11-03T09:47:05Z</time>
      </trkpt>
      <trkpt lat="43.5011" lon="6.9316">
        <ele>190.7</ele>
        <time>2024-11-03T09:47:07Z</time>
      </trkpt>
      <trkpt lat="43.50109" lon="6.9316">
        <ele>190.6</ele>
        <time>2024-11-03T09:47:27Z</time>
      </trkpt>
      <trkpt lat="43.50109" lon="6.9316">
        <ele>190.6</ele>
        <time>2024-11-03T09:47:28Z</time>
      </trkpt>
      <trkpt lat="43.5011" lon="6.9316">
        <ele>190.7</ele>
        <time>2024-11-03T09:47:50Z</time>
      </trkpt>
      <trkpt lat="43.5011" lon="6.9316">
        <ele>190.7</ele>
        <time>2024-11-03T09:47:51Z</time>
      </trkpt>
      <trkpt lat="43.5011" lon="6.9316">
        <ele>190.7</ele>
        <time>2024-11-03T09:47:52Z</time>
      </trkpt>
      <trkpt lat="43.5011" lon="6.9316">
        <ele>190.7</ele>
        <time>2024-11-03T09:47:53Z</time>
      </trkpt>
      <trkpt lat="43.5011" lon="6.9316">
        <ele>190.6</ele>
        <time>2024-11-03T09:47:55Z</time>
      </trkpt>
      <trkpt lat="43.50101" lon="6.93162">
        <ele>189.6</ele>
        <time>2024-11-03T09:48:17Z</time>
      </trkpt>
      <trkpt lat="43.50106" lon="6.93168">
        <ele>190.2</ele>
        <time>2024-11-03T09:48:38Z</time>
      </trkpt>
      <trkpt lat="43.50105" lon="6.93168">
        <ele>190.2</ele>
        <time>2024-11-03T09:48:39Z</time>
      </trkpt>
      <trkpt lat="43.50102" lon="6.93169">
        <ele>191.7</ele>
        <time>2024-11-03T09:48:47Z</time>
      </trkpt>
      <trkpt lat="43.50102" lon="6.93169">
        <ele>191.7</ele>
        <time>2024-11-03T09:48:48Z</time>
      </trkpt>
      <trkpt lat="43.50103" lon="6.9317">
        <ele>191.7</ele>
        <time>2024-11-03T09:48:53Z</time>
      </trkpt>
      <trkpt lat="43.50102" lon="6.9317">
        <ele>191.9</ele>
        <time>2024-11-03T09:48:54Z</time>
      </trkpt>
      <trkpt lat="43.50105" lon="6.93171">
        <ele>191.6</ele>
        <time>2024-11-03T09:49:06Z</time>
      </trkpt>
      <trkpt lat="43.50104" lon="6.93171">
        <ele>191.6</ele>
        <time>2024-11-03T09:49:07Z</time>
      </trkpt>
      <trkpt lat="43.50099" lon="6.93168">
        <ele>189.8</ele>
        <time>2024-11-03T09:49:21Z</time>
      </trkpt>
      <trkpt lat="43.501" lon="6.93167">
        <ele>189.7</ele>
        <time>2024-11-03T09:49:22Z</time>
      </trkpt>
      <trkpt lat="43.501" lon="6.93167">
        <ele>190.2</ele>
        <time>2024-11-03T09:49:25Z</time>
      </trkpt>
      <trkpt lat="43.501" lon="6.93166">
        <ele>190.6</ele>
        <time>2024-11-03T09:49:26Z</time>
      </trkpt>
      <trkpt lat="43.501" lon="6.93166">
        <ele>191.4</ele>
        <time>2024-11-03T09:49:28Z</time>
      </trkpt>
      <trkpt lat="43.501" lon="6.93166">
        <ele>191.8</ele>
        <time>2024-11-03T09:49:31Z</time>
      </trkpt>
      <trkpt lat="43.50101" lon="6.93169">
        <ele>191.8</ele>
        <time>2024-11-03T09:49:36Z</time>
      </trkpt>
      <trkpt lat="43.50101" lon="6.93168">
        <ele>191.8</ele>
        <time>2024-11-03T09:49:37Z</time>
      </trkpt>
      <trkpt lat="43.50103" lon="6.93168">
        <ele>191.7</ele>
        <time>2024-11-03T09:49:58Z</time>
      </trkpt>
      <trkpt lat="43.50103" lon="6.93168">
        <ele>191.8</ele>
        <time>2024-11-03T09:49:59Z</time>
      </trkpt>
      <trkpt lat="43.50103" lon="6.93168">
        <ele>192</ele>
        <time>2024-11-03T09:50:03Z</time>
      </trkpt>
      <trkpt lat="43.50103" lon="6.93168">
        <ele>192.2</ele>
        <time>2024-11-03T09:50:05Z</time>
      </trkpt>
      <trkpt lat="43.50104" lon="6.93166">
        <ele>191.8</ele>
        <time>2024-11-03T09:50:08Z</time>
      </trkpt>
      <trkpt lat="43.50103" lon="6.93167">
        <ele>191.6</ele>
        <time>2024-11-03T09:50:09Z</time>
      </trkpt>
      <trkpt lat="43.50104" lon="6.93166">
        <ele>191.6</ele>
        <time>2024-11-03T09:50:11Z</time>
      </trkpt>
      <trkpt lat="43.50104" lon="6.93166">
        <ele>191.4</ele>
        <time>2024-11-03T09:50:13Z</time>
      </trkpt>
      <trkpt lat="43.50105" lon="6.93166">
        <ele>191.4</ele>
        <time>2024-11-03T09:50:21Z</time>
      </trkpt>
      <trkpt lat="43.50105" lon="6.93165">
        <ele>191.4</ele>
        <time>2024-11-03T09:50:22Z</time>
      </trkpt>
      <trkpt lat="43.50104" lon="6.93163">
        <ele>190.9</ele>
        <time>2024-11-03T09:50:38Z</time>
      </trkpt>
      <trkpt lat="43.50104" lon="6.93163">
        <ele>190.9</ele>
        <time>2024-11-03T09:50:39Z</time>
      </trkpt>
      <trkpt lat="43.50105" lon="6.93162">
        <ele>190.9</ele>
        <time>2024-11-03T09:50:41Z</time>
      </trkpt>
      <trkpt lat="43.50105" lon="6.93162">
        <ele>191.1</ele>
        <time>2024-11-03T09:50:42Z</time>
      </trkpt>
      <trkpt lat="43.50106" lon="6.93162">
        <ele>191.3</ele>
        <time>2024-11-03T09:50:52Z</time>
      </trkpt>
      <trkpt lat="43.50106" lon="6.93162">
        <ele>191.3</ele>
        <time>2024-11-03T09:50:53Z</time>
      </trkpt>
      <trkpt lat="43.50105" lon="6.93162">
        <ele>191.2</ele>
        <time>2024-11-03T09:50:57Z</time>
      </trkpt>
      <trkpt lat="43.50105" lon="6.93163">
        <ele>191.2</ele>
        <time>2024-11-03T09:50:58Z</time>
      </trkpt>
      <trkpt lat="43.50105" lon="6.93162">
        <ele>191.2</ele>
        <time>2024-11-03T09:50:59Z</time>
      </trkpt>
      <trkpt lat="43.50105" lon="6.93162">
        <ele>191.2</ele>
        <time>2024-11-03T09:51:00Z</time>
      </trkpt>
      <trkpt lat="43.50105" lon="6.93162">
        <ele>191.2</ele>
        <time>2024-11-03T09:51:01Z</time>
      </trkpt>
      <trkpt lat="43.50105" lon="6.93162">
        <ele>191.1</ele>
        <time>2024-11-03T09:51:03Z</time>
      </trkpt>
      <trkpt lat="43.50106" lon="6.93162">
        <ele>191.4</ele>
        <time>2024-11-03T09:51:07Z</time>
      </trkpt>
      <trkpt lat="43.50106" lon="6.93161">
        <ele>191.6</ele>
        <time>2024-11-03T09:51:08Z</time>
      </trkpt>
      <trkpt lat="43.50106" lon="6.93161">
        <ele>191.9</ele>
        <time>2024-11-03T09:51:10Z</time>
      </trkpt>
      <trkpt lat="43.50106" lon="6.93161">
        <ele>191.9</ele>
        <time>2024-11-03T09:51:12Z</time>
      </trkpt>
      <trkpt lat="43.50107" lon="6.93161">
        <ele>192</ele>
        <time>2024-11-03T09:51:16Z</time>
      </trkpt>
      <trkpt lat="43.50107" lon="6.93161">
        <ele>192.1</ele>
        <time>2024-11-03T09:51:23Z</time>
      </trkpt>
      <trkpt lat="43.50107" lon="6.93161">
        <ele>192</ele>
        <time>2024-11-03T09:51:24Z</time>
      </trkpt>
      <trkpt lat="43.50107" lon="6.93161">
        <ele>191.9</ele>
        <time>2024-11-03T09:51:25Z</time>
      </trkpt>
      <trkpt lat="43.50104" lon="6.93164">
        <ele>192.7</ele>
        <time>2024-11-03T09:51:32Z</time>
      </trkpt>
      <trkpt lat="43.50104" lon="6.93164">
        <ele>192.9</ele>
        <time>2024-11-03T09:51:33Z</time>
      </trkpt>
      <trkpt lat="43.50104" lon="6.93164">
        <ele>193.1</ele>
        <time>2024-11-03T09:51:34Z</time>
      </trkpt>
      <trkpt lat="43.50104" lon="6.93164">
        <ele>193.3</ele>
        <time>2024-11-03T09:51:35Z</time>
      </trkpt>
      <trkpt lat="43.50104" lon="6.93164">
        <ele>193.4</ele>
        <time>2024-11-03T09:51:36Z</time>
      </trkpt>
      <trkpt lat="43.50104" lon="6.93164">
        <ele>193.5</ele>
        <time>2024-11-03T09:51:37Z</time>
      </trkpt>
      <trkpt lat="43.50104" lon="6.93164">
        <ele>193.5</ele>
        <time>2024-11-03T09:51:38Z</time>
      </trkpt>
      <trkpt lat="43.50104" lon="6.93164">
        <ele>193.5</ele>
        <time>2024-11-03T09:51:40Z</time>
      </trkpt>
      <trkpt lat="43.50105" lon="6.93163">
        <ele>193.4</ele>
        <time>2024-11-03T09:51:50Z</time>
      </trkpt>
      <trkpt lat="43.50105" lon="6.93163">
        <ele>193.5</ele>
        <time>2024-11-03T09:51:51Z</time>
      </trkpt>
      <trkpt lat="43.50104" lon="6.93163">
        <ele>193.9</ele>
        <time>2024-11-03T09:51:54Z</time>
      </trkpt>
      <trkpt lat="43.50104" lon="6.93163">
        <ele>194</ele>
        <time>2024-11-03T09:51:57Z</time>
      </trkpt>
      <trkpt lat="43.50104" lon="6.93163">
        <ele>194</ele>
        <time>2024-11-03T09:51:58Z</time>
      </trkpt>
      <trkpt lat="43.50104" lon="6.93163">
        <ele>194.1</ele>
        <time>2024-11-03T09:52:04Z</time>
      </trkpt>
      <trkpt lat="43.50095" lon="6.9316">
        <ele>194.4</ele>
        <time>2024-11-03T09:52:17Z</time>
      </trkpt>
      <trkpt lat="43.50086" lon="6.93164">
        <ele>194.5</ele>
        <time>2024-11-03T09:52:26Z</time>
      </trkpt>
      <trkpt lat="43.50077" lon="6.93162">
        <ele>194.7</ele>
        <time>2024-11-03T09:52:37Z</time>
      </trkpt>
      <trkpt lat="43.50069" lon="6.93155">
        <ele>195.4</ele>
        <time>2024-11-03T09:52:48Z</time>
      </trkpt>
      <trkpt lat="43.50065" lon="6.93142">
        <ele>195.6</ele>
        <time>2024-11-03T09:52:58Z</time>
      </trkpt>
      <trkpt lat="43.50061" lon="6.93131">
        <ele>195.9</ele>
        <time>2024-11-03T09:53:08Z</time>
      </trkpt>
      <trkpt lat="43.50056" lon="6.9312">
        <ele>196</ele>
        <time>2024-11-03T09:53:15Z</time>
      </trkpt>
      <trkpt lat="43.50049" lon="6.93111">
        <ele>196.2</ele>
        <time>2024-11-03T09:53:23Z</time>
      </trkpt>
      <trkpt lat="43.50044" lon="6.931">
        <ele>195.8</ele>
        <time>2024-11-03T09:53:31Z</time>
      </trkpt>
      <trkpt lat="43.5004" lon="6.93088">
        <ele>195.3</ele>
        <time>2024-11-03T09:53:39Z</time>
      </trkpt>
      <trkpt lat="43.50038" lon="6.93074">
        <ele>195.6</ele>
        <time>2024-11-03T09:53:46Z</time>
      </trkpt>
      <trkpt lat="43.50033" lon="6.93064">
        <ele>195.6</ele>
        <time>2024-11-03T09:53:53Z</time>
      </trkpt>
      <trkpt lat="43.50029" lon="6.93052">
        <ele>196.2</ele>
        <time>2024-11-03T09:54:00Z</time>
      </trkpt>
      <trkpt lat="43.50028" lon="6.93039">
        <ele>196.6</ele>
        <time>2024-11-03T09:54:09Z</time>
      </trkpt>
      <trkpt lat="43.50028" lon="6.93026">
        <ele>196.4</ele>
        <time>2024-11-03T09:54:16Z</time>
      </trkpt>
      <trkpt lat="43.50025" lon="6.93014">
        <ele>196.3</ele>
        <time>2024-11-03T09:54:24Z</time>
      </trkpt>
      <trkpt lat="43.50024" lon="6.93001">
        <ele>196.5</ele>
        <time>2024-11-03T09:54:32Z</time>
      </trkpt>
      <trkpt lat="43.50022" lon="6.92988">
        <ele>196.5</ele>
        <time>2024-11-03T09:54:41Z</time>
      </trkpt>
      <trkpt lat="43.50019" lon="6.92975">
        <ele>195</ele>
        <time>2024-11-03T09:54:49Z</time>
      </trkpt>
      <trkpt lat="43.50018" lon="6.92962">
        <ele>194.9</ele>
        <time>2024-11-03T09:54:58Z</time>
      </trkpt>
      <trkpt lat="43.50019" lon="6.92948">
        <ele>194.5</ele>
        <time>2024-11-03T09:55:06Z</time>
      </trkpt>
      <trkpt lat="43.50021" lon="6.92936">
        <ele>194.6</ele>
        <time>2024-11-03T09:55:12Z</time>
      </trkpt>
      <trkpt lat="43.5002" lon="6.92923">
        <ele>194.7</ele>
        <time>2024-11-03T09:55:22Z</time>
      </trkpt>
      <trkpt lat="43.50021" lon="6.92909">
        <ele>195.5</ele>
        <time>2024-11-03T09:55:32Z</time>
      </trkpt>
      <trkpt lat="43.50021" lon="6.92895">
        <ele>196.8</ele>
        <time>2024-11-03T09:55:40Z</time>
      </trkpt>
      <trkpt lat="43.50021" lon="6.92882">
        <ele>197</ele>
        <time>2024-11-03T09:55:50Z</time>
      </trkpt>
      <trkpt lat="43.50023" lon="6.92868">
        <ele>197.1</ele>
        <time>2024-11-03T09:55:59Z</time>
      </trkpt>
      <trkpt lat="43.50024" lon="6.92855">
        <ele>197.5</ele>
        <time>2024-11-03T09:56:09Z</time>
      </trkpt>
      <trkpt lat="43.50022" lon="6.92843">
        <ele>198.2</ele>
        <time>2024-11-03T09:56:17Z</time>
      </trkpt>
      <trkpt lat="43.5002" lon="6.9283">
        <ele>197.9</ele>
        <time>2024-11-03T09:56:25Z</time>
      </trkpt>
      <trkpt lat="43.50018" lon="6.92817">
        <ele>199.6</ele>
        <time>2024-11-03T09:56:36Z</time>
      </trkpt>
      <trkpt lat="43.50016" lon="6.92805">
        <ele>201.1</ele>
        <time>2024-11-03T09:56:44Z</time>
      </trkpt>
      <trkpt lat="43.50013" lon="6.92792">
        <ele>201.5</ele>
        <time>2024-11-03T09:56:53Z</time>
      </trkpt>
      <trkpt lat="43.50011" lon="6.92779">
        <ele>202.5</ele>
        <time>2024-11-03T09:57:05Z</time>
      </trkpt>
      <trkpt lat="43.5001" lon="6.92767">
        <ele>202.8</ele>
        <time>2024-11-03T09:57:12Z</time>
      </trkpt>
      <trkpt lat="43.50008" lon="6.92753">
        <ele>203.6</ele>
        <time>2024-11-03T09:57:22Z</time>
      </trkpt>
      <trkpt lat="43.50005" lon="6.92741">
        <ele>205.2</ele>
        <time>2024-11-03T09:57:31Z</time>
      </trkpt>
      <trkpt lat="43.50001" lon="6.92728">
        <ele>206.4</ele>
        <time>2024-11-03T09:57:40Z</time>
      </trkpt>
      <trkpt lat="43.49993" lon="6.92717">
        <ele>206.3</ele>
        <time>2024-11-03T09:57:50Z</time>
      </trkpt>
      <trkpt lat="43.49984" lon="6.92714">
        <ele>206</ele>
        <time>2024-11-03T09:57:55Z</time>
      </trkpt>
      <trkpt lat="43.49977" lon="6.92706">
        <ele>206.4</ele>
        <time>2024-11-03T09:58:03Z</time>
      </trkpt>
      <trkpt lat="43.49969" lon="6.927">
        <ele>206.4</ele>
        <time>2024-11-03T09:58:14Z</time>
      </trkpt>
      <trkpt lat="43.4996" lon="6.92695">
        <ele>206.5</ele>
        <time>2024-11-03T09:58:22Z</time>
      </trkpt>
      <trkpt lat="43.49956" lon="6.92683">
        <ele>206.9</ele>
        <time>2024-11-03T09:58:31Z</time>
      </trkpt>
      <trkpt lat="43.49949" lon="6.92673">
        <ele>208</ele>
        <time>2024-11-03T09:58:42Z</time>
      </trkpt>
      <trkpt lat="43.49944" lon="6.92662">
        <ele>208.5</ele>
        <time>2024-11-03T09:58:52Z</time>
      </trkpt>
      <trkpt lat="43.49943" lon="6.9265">
        <ele>208.1</ele>
        <time>2024-11-03T09:58:58Z</time>
      </trkpt>
      <trkpt lat="43.49939" lon="6.92637">
        <ele>207.9</ele>
        <time>2024-11-03T09:59:07Z</time>
      </trkpt>
      <trkpt lat="43.49933" lon="6.92628">
        <ele>207.9</ele>
        <time>2024-11-03T09:59:16Z</time>
      </trkpt>
      <trkpt lat="43.49928" lon="6.92617">
        <ele>209.3</ele>
        <time>2024-11-03T09:59:23Z</time>
      </trkpt>
      <trkpt lat="43.49925" lon="6.92605">
        <ele>210.6</ele>
        <time>2024-11-03T09:59:31Z</time>
      </trkpt>
      <trkpt lat="43.49921" lon="6.92592">
        <ele>211.3</ele>
        <time>2024-11-03T09:59:40Z</time>
      </trkpt>
      <trkpt lat="43.49917" lon="6.92581">
        <ele>212.8</ele>
        <time>2024-11-03T09:59:48Z</time>
      </trkpt>
      <trkpt lat="43.49915" lon="6.92569">
        <ele>213.1</ele>
        <time>2024-11-03T09:59:55Z</time>
      </trkpt>
      <trkpt lat="43.49911" lon="6.92556">
        <ele>213.5</ele>
        <time>2024-11-03T10:00:03Z</time>
      </trkpt>
      <trkpt lat="43.49909" lon="6.92543">
        <ele>214.5</ele>
        <time>2024-11-03T10:00:15Z</time>
      </trkpt>
      <trkpt lat="43.49907" lon="6.9253">
        <ele>214.8</ele>
        <time>2024-11-03T10:00:24Z</time>
      </trkpt>
      <trkpt lat="43.49909" lon="6.92516">
        <ele>215.8</ele>
        <time>2024-11-03T10:00:34Z</time>
      </trkpt>
      <trkpt lat="43.49908" lon="6.92502">
        <ele>215.9</ele>
        <time>2024-11-03T10:00:44Z</time>
      </trkpt>
      <trkpt lat="43.49905" lon="6.9249">
        <ele>216.8</ele>
        <time>2024-11-03T10:00:51Z</time>
      </trkpt>
      <trkpt lat="43.49901" lon="6.92479">
        <ele>219.3</ele>
        <time>2024-11-03T10:01:03Z</time>
      </trkpt>
      <trkpt lat="43.49899" lon="6.92467">
        <ele>220.4</ele>
        <time>2024-11-03T10:01:19Z</time>
      </trkpt>
      <trkpt lat="43.499" lon="6.92454">
        <ele>220.2</ele>
        <time>2024-11-03T10:01:27Z</time>
      </trkpt>
      <trkpt lat="43.49899" lon="6.92442">
        <ele>221.2</ele>
        <time>2024-11-03T10:01:38Z</time>
      </trkpt>
      <trkpt lat="43.49896" lon="6.9243">
        <ele>221.7</ele>
        <time>2024-11-03T10:01:45Z</time>
      </trkpt>
      <trkpt lat="43.49895" lon="6.92417">
        <ele>220.6</ele>
        <time>2024-11-03T10:01:51Z</time>
      </trkpt>
      <trkpt lat="43.49888" lon="6.92408">
        <ele>220.3</ele>
        <time>2024-11-03T10:01:57Z</time>
      </trkpt>
      <trkpt lat="43.4988" lon="6.92398">
        <ele>219.8</ele>
        <time>2024-11-03T10:02:03Z</time>
      </trkpt>
      <trkpt lat="43.49872" lon="6.92391">
        <ele>219.7</ele>
        <time>2024-11-03T10:02:09Z</time>
      </trkpt>
      <trkpt lat="43.49866" lon="6.92381">
        <ele>220.2</ele>
        <time>2024-11-03T10:02:17Z</time>
      </trkpt>
      <trkpt lat="43.49866" lon="6.92367">
        <ele>221.1</ele>
        <time>2024-11-03T10:02:25Z</time>
      </trkpt>
      <trkpt lat="43.49867" lon="6.92353">
        <ele>222.3</ele>
        <time>2024-11-03T10:02:33Z</time>
      </trkpt>
      <trkpt lat="43.4987" lon="6.9234">
        <ele>223.2</ele>
        <time>2024-11-03T10:02:40Z</time>
      </trkpt>
      <trkpt lat="43.49872" lon="6.92326">
        <ele>224.3</ele>
        <time>2024-11-03T10:02:48Z</time>
      </trkpt>
      <trkpt lat="43.4987" lon="6.92314">
        <ele>224.6</ele>
        <time>2024-11-03T10:02:56Z</time>
      </trkpt>
      <trkpt lat="43.49866" lon="6.92303">
        <ele>224.9</ele>
        <time>2024-11-03T10:03:03Z</time>
      </trkpt>
      <trkpt lat="43.49862" lon="6.9229">
        <ele>225.2</ele>
        <time>2024-11-03T10:03:10Z</time>
      </trkpt>
      <trkpt lat="43.49861" lon="6.92276">
        <ele>226.1</ele>
        <time>2024-11-03T10:03:20Z</time>
      </trkpt>
      <trkpt lat="43.49857" lon="6.92263">
        <ele>226.7</ele>
        <time>2024-11-03T10:03:27Z</time>
      </trkpt>
      <trkpt lat="43.49854" lon="6.9225">
        <ele>227.5</ele>
        <time>2024-11-03T10:03:35Z</time>
      </trkpt>
      <trkpt lat="43.4985" lon="6.92237">
        <ele>229.1</ele>
        <time>2024-11-03T10:03:45Z</time>
      </trkpt>
      <trkpt lat="43.49843" lon="6.92229">
        <ele>229.8</ele>
        <time>2024-11-03T10:03:53Z</time>
      </trkpt>
      <trkpt lat="43.49836" lon="6.9222">
        <ele>230.1</ele>
        <time>2024-11-03T10:04:02Z</time>
      </trkpt>
      <trkpt lat="43.49829" lon="6.92212">
        <ele>230.2</ele>
        <time>2024-11-03T10:04:10Z</time>
      </trkpt>
      <trkpt lat="43.49825" lon="6.92209">
        <ele>229.5</ele>
        <time>2024-11-03T10:04:24Z</time>
      </trkpt>
      <trkpt lat="43.49826" lon="6.9221">
        <ele>229.6</ele>
        <time>2024-11-03T10:04:25Z</time>
      </trkpt>
      <trkpt lat="43.49825" lon="6.9221">
        <ele>230.1</ele>
        <time>2024-11-03T10:04:30Z</time>
      </trkpt>
      <trkpt lat="43.49824" lon="6.9221">
        <ele>230</ele>
        <time>2024-11-03T10:04:31Z</time>
      </trkpt>
      <trkpt lat="43.49824" lon="6.92206">
        <ele>231.1</ele>
        <time>2024-11-03T10:04:49Z</time>
      </trkpt>
      <trkpt lat="43.49824" lon="6.92206">
        <ele>231.3</ele>
        <time>2024-11-03T10:04:50Z</time>
      </trkpt>
      <trkpt lat="43.49824" lon="6.92206">
        <ele>231.2</ele>
        <time>2024-11-03T10:04:51Z</time>
      </trkpt>
      <trkpt lat="43.49825" lon="6.92206">
        <ele>231.2</ele>
        <time>2024-11-03T10:04:54Z</time>
      </trkpt>
      <trkpt lat="43.49825" lon="6.92206">
        <ele>231.3</ele>
        <time>2024-11-03T10:04:55Z</time>
      </trkpt>
      <trkpt lat="43.49825" lon="6.92206">
        <ele>231.4</ele>
        <time>2024-11-03T10:04:56Z</time>
      </trkpt>
      <trkpt lat="43.49825" lon="6.92206">
        <ele>232.2</ele>
        <time>2024-11-03T10:05:08Z</time>
      </trkpt>
      <trkpt lat="43.49825" lon="6.92207">
        <ele>231.9</ele>
        <time>2024-11-03T10:05:15Z</time>
      </trkpt>
      <trkpt lat="43.49825" lon="6.92207">
        <ele>231.9</ele>
        <time>2024-11-03T10:05:16Z</time>
      </trkpt>
      <trkpt lat="43.49825" lon="6.92206">
        <ele>232.1</ele>
        <time>2024-11-03T10:05:18Z</time>
      </trkpt>
      <trkpt lat="43.49825" lon="6.92206">
        <ele>232.1</ele>
        <time>2024-11-03T10:05:19Z</time>
      </trkpt>
      <trkpt lat="43.49824" lon="6.92206">
        <ele>232.2</ele>
        <time>2024-11-03T10:05:20Z</time>
      </trkpt>
      <trkpt lat="43.49817" lon="6.92202">
        <ele>233.5</ele>
        <time>2024-11-03T10:05:37Z</time>
      </trkpt>
      <trkpt lat="43.49817" lon="6.92201">
        <ele>233.5</ele>
        <time>2024-11-03T10:05:38Z</time>
      </trkpt>
      <trkpt lat="43.49817" lon="6.92201">
        <ele>233.4</ele>
        <time>2024-11-03T10:05:43Z</time>
      </trkpt>
      <trkpt lat="43.49817" lon="6.92201">
        <ele>233.4</ele>
        <time>2024-11-03T10:05:44Z</time>
      </trkpt>
      <trkpt lat="43.49817" lon="6.92201">
        <ele>233.2</ele>
        <time>2024-11-03T10:05:45Z</time>
      </trkpt>
      <trkpt lat="43.49817" lon="6.92202">
        <ele>233.3</ele>
        <time>2024-11-03T10:05:46Z</time>
      </trkpt>
      <trkpt lat="43.49817" lon="6.92202">
        <ele>233.1</ele>
        <time>2024-11-03T10:05:50Z</time>
      </trkpt>
      <trkpt lat="43.49817" lon="6.92202">
        <ele>233</ele>
        <time>2024-11-03T10:05:51Z</time>
      </trkpt>
      <trkpt lat="43.49817" lon="6.92202">
        <ele>233</ele>
        <time>2024-11-03T10:05:53Z</time>
      </trkpt>
      <trkpt lat="43.49817" lon="6.92202">
        <ele>233</ele>
        <time>2024-11-03T10:05:54Z</time>
      </trkpt>
      <trkpt lat="43.49817" lon="6.92202">
        <ele>232.9</ele>
        <time>2024-11-03T10:05:56Z</time>
      </trkpt>
      <trkpt lat="43.49817" lon="6.92201">
        <ele>233.1</ele>
        <time>2024-11-03T10:06:01Z</time>
      </trkpt>
      <trkpt lat="43.49818" lon="6.92198">
        <ele>232.8</ele>
        <time>2024-11-03T10:06:08Z</time>
      </trkpt>
      <trkpt lat="43.49818" lon="6.92197">
        <ele>232.7</ele>
        <time>2024-11-03T10:06:09Z</time>
      </trkpt>
      <trkpt lat="43.49819" lon="6.92196">
        <ele>232.6</ele>
        <time>2024-11-03T10:06:12Z</time>
      </trkpt>
      <trkpt lat="43.4982" lon="6.92196">
        <ele>232.7</ele>
        <time>2024-11-03T10:06:13Z</time>
      </trkpt>
      <trkpt lat="43.49821" lon="6.92195">
        <ele>231.6</ele>
        <time>2024-11-03T10:06:21Z</time>
      </trkpt>
      <trkpt lat="43.49821" lon="6.92195">
        <ele>231.4</ele>
        <time>2024-11-03T10:06:22Z</time>
      </trkpt>
      <trkpt lat="43.49816" lon="6.92189">
        <ele>230.4</ele>
        <time>2024-11-03T10:06:48Z</time>
      </trkpt>
      <trkpt lat="43.49816" lon="6.92189">
        <ele>229.8</ele>
        <time>2024-11-03T10:06:50Z</time>
      </trkpt>
      <trkpt lat="43.49816" lon="6.92189">
        <ele>229.7</ele>
        <time>2024-11-03T10:06:51Z</time>
      </trkpt>
      <trkpt lat="43.49816" lon="6.92189">
        <ele>229</ele>
        <time>2024-11-03T10:06:54Z</time>
      </trkpt>
      <trkpt lat="43.49816" lon="6.92189">
        <ele>228.8</ele>
        <time>2024-11-03T10:06:55Z</time>
      </trkpt>
      <trkpt lat="43.49816" lon="6.92189">
        <ele>228.5</ele>
        <time>2024-11-03T10:06:57Z</time>
      </trkpt>
      <trkpt lat="43.49816" lon="6.92188">
        <ele>228.3</ele>
        <time>2024-11-03T10:07:01Z</time>
      </trkpt>
      <trkpt lat="43.49816" lon="6.92188">
        <ele>228.4</ele>
        <time>2024-11-03T10:07:02Z</time>
      </trkpt>
      <trkpt lat="43.49807" lon="6.92181">
        <ele>229.1</ele>
        <time>2024-11-03T10:07:17Z</time>
      </trkpt>
      <trkpt lat="43.49806" lon="6.92179">
        <ele>229.3</ele>
        <time>2024-11-03T10:07:28Z</time>
      </trkpt>
      <trkpt lat="43.49806" lon="6.92179">
        <ele>229.3</ele>
        <time>2024-11-03T10:07:31Z</time>
      </trkpt>
      <trkpt lat="43.49806" lon="6.92179">
        <ele>229.7</ele>
        <time>2024-11-03T10:07:33Z</time>
      </trkpt>
      <trkpt lat="43.49806" lon="6.92179">
        <ele>229.8</ele>
        <time>2024-11-03T10:07:40Z</time>
      </trkpt>
      <trkpt lat="43.49806" lon="6.92179">
        <ele>229.9</ele>
        <time>2024-11-03T10:07:44Z</time>
      </trkpt>
      <trkpt lat="43.49806" lon="6.92179">
        <ele>229.9</ele>
        <time>2024-11-03T10:07:45Z</time>
      </trkpt>
      <trkpt lat="43.49805" lon="6.92172">
        <ele>230.1</ele>
        <time>2024-11-03T10:07:57Z</time>
      </trkpt>
      <trkpt lat="43.49805" lon="6.92171">
        <ele>230.1</ele>
        <time>2024-11-03T10:07:58Z</time>
      </trkpt>
      <trkpt lat="43.49804" lon="6.92171">
        <ele>230.1</ele>
        <time>2024-11-03T10:08:01Z</time>
      </trkpt>
      <trkpt lat="43.49804" lon="6.92172">
        <ele>230</ele>
        <time>2024-11-03T10:08:02Z</time>
      </trkpt>
      <trkpt lat="43.49805" lon="6.92172">
        <ele>230</ele>
        <time>2024-11-03T10:08:05Z</time>
      </trkpt>
      <trkpt lat="43.49805" lon="6.92172">
        <ele>230.1</ele>
        <time>2024-11-03T10:08:06Z</time>
      </trkpt>
      <trkpt lat="43.49806" lon="6.92171">
        <ele>230.2</ele>
        <time>2024-11-03T10:08:08Z</time>
      </trkpt>
      <trkpt lat="43.49806" lon="6.92171">
        <ele>230.2</ele>
        <time>2024-11-03T10:08:09Z</time>
      </trkpt>
      <trkpt lat="43.49806" lon="6.92172">
        <ele>230.3</ele>
        <time>2024-11-03T10:08:12Z</time>
      </trkpt>
      <trkpt lat="43.49805" lon="6.92173">
        <ele>230.4</ele>
        <time>2024-11-03T10:08:13Z</time>
      </trkpt>
      <trkpt lat="43.49805" lon="6.92174">
        <ele>230.6</ele>
        <time>2024-11-03T10:08:18Z</time>
      </trkpt>
      <trkpt lat="43.49805" lon="6.92174">
        <ele>230.5</ele>
        <time>2024-11-03T10:08:19Z</time>
      </trkpt>
      <trkpt lat="43.49805" lon="6.92174">
        <ele>230.4</ele>
        <time>2024-11-03T10:08:20Z</time>
      </trkpt>
      <trkpt lat="43.49806" lon="6.92174">
        <ele>230.3</ele>
        <time>2024-11-03T10:08:21Z</time>
      </trkpt>
      <trkpt lat="43.49806" lon="6.92174">
        <ele>230.3</ele>
        <time>2024-11-03T10:08:22Z</time>
      </trkpt>
      <trkpt lat="43.49805" lon="6.92174">
        <ele>230.2</ele>
        <time>2024-11-03T10:08:23Z</time>
      </trkpt>
      <trkpt lat="43.49805" lon="6.92174">
        <ele>230.4</ele>
        <time>2024-11-03T10:08:27Z</time>
      </trkpt>
      <trkpt lat="43.49806" lon="6.92173">
        <ele>230.5</ele>
        <time>2024-11-03T10:08:28Z</time>
      </trkpt>
      <trkpt lat="43.49806" lon="6.9217">
        <ele>232.5</ele>
        <time>2024-11-03T10:08:43Z</time>
      </trkpt>
      <trkpt lat="43.49805" lon="6.9217">
        <ele>232.8</ele>
        <time>2024-11-03T10:08:46Z</time>
      </trkpt>
      <trkpt lat="43.49805" lon="6.92171">
        <ele>232.9</ele>
        <time>2024-11-03T10:08:47Z</time>
      </trkpt>
      <trkpt lat="43.49805" lon="6.92171">
        <ele>232.9</ele>
        <time>2024-11-03T10:08:48Z</time>
      </trkpt>
      <trkpt lat="43.49805" lon="6.92171">
        <ele>232.9</ele>
        <time>2024-11-03T10:08:49Z</time>
      </trkpt>
      <trkpt lat="43.49806" lon="6.92171">
        <ele>232.8</ele>
        <time>2024-11-03T10:08:50Z</time>
      </trkpt>
      <trkpt lat="43.49808" lon="6.92171">
        <ele>232.9</ele>
        <time>2024-11-03T10:09:01Z</time>
      </trkpt>
      <trkpt lat="43.49808" lon="6.92171">
        <ele>232.7</ele>
        <time>2024-11-03T10:09:02Z</time>
      </trkpt>
      <trkpt lat="43.49808" lon="6.92171">
        <ele>232.3</ele>
        <time>2024-11-03T10:09:07Z</time>
      </trkpt>
      <trkpt lat="43.49808" lon="6.92171">
        <ele>232.4</ele>
        <time>2024-11-03T10:09:08Z</time>
      </trkpt>
      <trkpt lat="43.49807" lon="6.92171">
        <ele>232.5</ele>
        <time>2024-11-03T10:09:12Z</time>
      </trkpt>
      <trkpt lat="43.49807" lon="6.92171">
        <ele>232.5</ele>
        <time>2024-11-03T10:09:13Z</time>
      </trkpt>
      <trkpt lat="43.49807" lon="6.92171">
        <ele>232.5</ele>
        <time>2024-11-03T10:09:14Z</time>
      </trkpt>
      <trkpt lat="43.49807" lon="6.92171">
        <ele>232.6</ele>
        <time>2024-11-03T10:09:15Z</time>
      </trkpt>
      <trkpt lat="43.49806" lon="6.92169">
        <ele>232.6</ele>
        <time>2024-11-03T10:09:21Z</time>
      </trkpt>
      <trkpt lat="43.49806" lon="6.92168">
        <ele>232.6</ele>
        <time>2024-11-03T10:09:23Z</time>
      </trkpt>
      <trkpt lat="43.49806" lon="6.92169">
        <ele>232.7</ele>
        <time>2024-11-03T10:09:25Z</time>
      </trkpt>
      <trkpt lat="43.49805" lon="6.9217">
        <ele>232.8</ele>
        <time>2024-11-03T10:09:28Z</time>
      </trkpt>
      <trkpt lat="43.49799" lon="6.92159">
        <ele>233.1</ele>
        <time>2024-11-03T10:09:53Z</time>
      </trkpt>
      <trkpt lat="43.49792" lon="6.92151">
        <ele>232.8</ele>
        <time>2024-11-03T10:10:04Z</time>
      </trkpt>
      <trkpt lat="43.49791" lon="6.92151">
        <ele>232.6</ele>
        <time>2024-11-03T10:10:07Z</time>
      </trkpt>
      <trkpt lat="43.49791" lon="6.92151">
        <ele>232.7</ele>
        <time>2024-11-03T10:10:08Z</time>
      </trkpt>
      <trkpt lat="43.49788" lon="6.9214">
        <ele>233.3</ele>
        <time>2024-11-03T10:10:18Z</time>
      </trkpt>
      <trkpt lat="43.49785" lon="6.92127">
        <ele>233.6</ele>
        <time>2024-11-03T10:10:27Z</time>
      </trkpt>
      <trkpt lat="43.49782" lon="6.92123">
        <ele>233.6</ele>
        <time>2024-11-03T10:10:37Z</time>
      </trkpt>
      <trkpt lat="43.49782" lon="6.92123">
        <ele>233.6</ele>
        <time>2024-11-03T10:10:38Z</time>
      </trkpt>
      <trkpt lat="43.49782" lon="6.92123">
        <ele>233.6</ele>
        <time>2024-11-03T10:10:39Z</time>
      </trkpt>
      <trkpt lat="43.49781" lon="6.92123">
        <ele>233.8</ele>
        <time>2024-11-03T10:10:47Z</time>
      </trkpt>
      <trkpt lat="43.49781" lon="6.92123">
        <ele>233.8</ele>
        <time>2024-11-03T10:10:48Z</time>
      </trkpt>
      <trkpt lat="43.49781" lon="6.92123">
        <ele>233.9</ele>
        <time>2024-11-03T10:10:49Z</time>
      </trkpt>
      <trkpt lat="43.49781" lon="6.92123">
        <ele>234</ele>
        <time>2024-11-03T10:10:50Z</time>
      </trkpt>
      <trkpt lat="43.49781" lon="6.92123">
        <ele>234.1</ele>
        <time>2024-11-03T10:10:52Z</time>
      </trkpt>
      <trkpt lat="43.49781" lon="6.92123">
        <ele>234.3</ele>
        <time>2024-11-03T10:10:53Z</time>
      </trkpt>
      <trkpt lat="43.49781" lon="6.92123">
        <ele>234.3</ele>
        <time>2024-11-03T10:10:56Z</time>
      </trkpt>
      <trkpt lat="43.49781" lon="6.92123">
        <ele>234.4</ele>
        <time>2024-11-03T10:10:57Z</time>
      </trkpt>
      <trkpt lat="43.49781" lon="6.92122">
        <ele>234.5</ele>
        <time>2024-11-03T10:10:58Z</time>
      </trkpt>
      <trkpt lat="43.49779" lon="6.9211">
        <ele>234.3</ele>
        <time>2024-11-03T10:11:11Z</time>
      </trkpt>
      <trkpt lat="43.49777" lon="6.92098">
        <ele>234.1</ele>
        <time>2024-11-03T10:11:21Z</time>
      </trkpt>
      <trkpt lat="43.49771" lon="6.92088">
        <ele>235</ele>
        <time>2024-11-03T10:11:30Z</time>
      </trkpt>
      <trkpt lat="43.49767" lon="6.92076">
        <ele>234.2</ele>
        <time>2024-11-03T10:11:41Z</time>
      </trkpt>
      <trkpt lat="43.49765" lon="6.92064">
        <ele>234.2</ele>
        <time>2024-11-03T10:11:50Z</time>
      </trkpt>
      <trkpt lat="43.49762" lon="6.92051">
        <ele>233.3</ele>
        <time>2024-11-03T10:12:03Z</time>
      </trkpt>
      <trkpt lat="43.49759" lon="6.92046">
        <ele>234</ele>
        <time>2024-11-03T10:12:15Z</time>
      </trkpt>
      <trkpt lat="43.49759" lon="6.92046">
        <ele>234.1</ele>
        <time>2024-11-03T10:12:16Z</time>
      </trkpt>
      <trkpt lat="43.49758" lon="6.92046">
        <ele>234.3</ele>
        <time>2024-11-03T10:12:19Z</time>
      </trkpt>
      <trkpt lat="43.49758" lon="6.92046">
        <ele>234.6</ele>
        <time>2024-11-03T10:12:20Z</time>
      </trkpt>
      <trkpt lat="43.49758" lon="6.92045">
        <ele>234.9</ele>
        <time>2024-11-03T10:12:22Z</time>
      </trkpt>
      <trkpt lat="43.49758" lon="6.92045">
        <ele>235.1</ele>
        <time>2024-11-03T10:12:24Z</time>
      </trkpt>
      <trkpt lat="43.49758" lon="6.92045">
        <ele>235.2</ele>
        <time>2024-11-03T10:12:25Z</time>
      </trkpt>
      <trkpt lat="43.49758" lon="6.92045">
        <ele>235.3</ele>
        <time>2024-11-03T10:12:26Z</time>
      </trkpt>
      <trkpt lat="43.49758" lon="6.92044">
        <ele>235.8</ele>
        <time>2024-11-03T10:12:30Z</time>
      </trkpt>
      <trkpt lat="43.49758" lon="6.92044">
        <ele>236.1</ele>
        <time>2024-11-03T10:12:31Z</time>
      </trkpt>
      <trkpt lat="43.49758" lon="6.92042">
        <ele>237</ele>
        <time>2024-11-03T10:12:38Z</time>
      </trkpt>
      <trkpt lat="43.49758" lon="6.92042">
        <ele>236.9</ele>
        <time>2024-11-03T10:12:41Z</time>
      </trkpt>
      <trkpt lat="43.49758" lon="6.92042">
        <ele>236.7</ele>
        <time>2024-11-03T10:12:43Z</time>
      </trkpt>
      <trkpt lat="43.49758" lon="6.92042">
        <ele>236.8</ele>
        <time>2024-11-03T10:12:44Z</time>
      </trkpt>
      <trkpt lat="43.49758" lon="6.92044">
        <ele>236.9</ele>
        <time>2024-11-03T10:12:47Z</time>
      </trkpt>
      <trkpt lat="43.49758" lon="6.92044">
        <ele>237</ele>
        <time>2024-11-03T10:12:48Z</time>
      </trkpt>
      <trkpt lat="43.49758" lon="6.92044">
        <ele>236.9</ele>
        <time>2024-11-03T10:12:49Z</time>
      </trkpt>
      <trkpt lat="43.49758" lon="6.92044">
        <ele>236.8</ele>
        <time>2024-11-03T10:12:51Z</time>
      </trkpt>
      <trkpt lat="43.49758" lon="6.92044">
        <ele>236.7</ele>
        <time>2024-11-03T10:12:52Z</time>
      </trkpt>
      <trkpt lat="43.49758" lon="6.92045">
        <ele>236.6</ele>
        <time>2024-11-03T10:12:53Z</time>
      </trkpt>
      <trkpt lat="43.49758" lon="6.92045">
        <ele>236.7</ele>
        <time>2024-11-03T10:12:55Z</time>
      </trkpt>
      <trkpt lat="43.49758" lon="6.92044">
        <ele>236.8</ele>
        <time>2024-11-03T10:12:58Z</time>
      </trkpt>
      <trkpt lat="43.49758" lon="6.92042">
        <ele>236.7</ele>
        <time>2024-11-03T10:13:05Z</time>
      </trkpt>
      <trkpt lat="43.49757" lon="6.92042">
        <ele>236.5</ele>
        <time>2024-11-03T10:13:07Z</time>
      </trkpt>
      <trkpt lat="43.49757" lon="6.92041">
        <ele>236.7</ele>
        <time>2024-11-03T10:13:09Z</time>
      </trkpt>
      <trkpt lat="43.49758" lon="6.92042">
        <ele>236.7</ele>
        <time>2024-11-03T10:13:10Z</time>
      </trkpt>
      <trkpt lat="43.49758" lon="6.92039">
        <ele>236.8</ele>
        <time>2024-11-03T10:13:19Z</time>
      </trkpt>
      <trkpt lat="43.49759" lon="6.92039">
        <ele>236.6</ele>
        <time>2024-11-03T10:13:35Z</time>
      </trkpt>
      <trkpt lat="43.49759" lon="6.92039">
        <ele>236.5</ele>
        <time>2024-11-03T10:13:38Z</time>
      </trkpt>
      <trkpt lat="43.49759" lon="6.92039">
        <ele>236.3</ele>
        <time>2024-11-03T10:13:40Z</time>
      </trkpt>
      <trkpt lat="43.49759" lon="6.92039">
        <ele>236.4</ele>
        <time>2024-11-03T10:13:41Z</time>
      </trkpt>
      <trkpt lat="43.49759" lon="6.92039">
        <ele>236.4</ele>
        <time>2024-11-03T10:13:42Z</time>
      </trkpt>
      <trkpt lat="43.49757" lon="6.92039">
        <ele>236.9</ele>
        <time>2024-11-03T10:13:48Z</time>
      </trkpt>
      <trkpt lat="43.49758" lon="6.92038">
        <ele>236.8</ele>
        <time>2024-11-03T10:13:49Z</time>
      </trkpt>
      <trkpt lat="43.49757" lon="6.92038">
        <ele>236.8</ele>
        <time>2024-11-03T10:13:51Z</time>
      </trkpt>
      <trkpt lat="43.49758" lon="6.92038">
        <ele>236</ele>
        <time>2024-11-03T10:13:58Z</time>
      </trkpt>
      <trkpt lat="43.49758" lon="6.92038">
        <ele>235.9</ele>
        <time>2024-11-03T10:13:59Z</time>
      </trkpt>
      <trkpt lat="43.49757" lon="6.92039">
        <ele>235.9</ele>
        <time>2024-11-03T10:14:17Z</time>
      </trkpt>
      <trkpt lat="43.49757" lon="6.92039">
        <ele>235.9</ele>
        <time>2024-11-03T10:14:18Z</time>
      </trkpt>
      <trkpt lat="43.49757" lon="6.92039">
        <ele>235.9</ele>
        <time>2024-11-03T10:14:24Z</time>
      </trkpt>
      <trkpt lat="43.49757" lon="6.92039">
        <ele>236</ele>
        <time>2024-11-03T10:14:26Z</time>
      </trkpt>
      <trkpt lat="43.49757" lon="6.92039">
        <ele>235.9</ele>
        <time>2024-11-03T10:14:27Z</time>
      </trkpt>
      <trkpt lat="43.49758" lon="6.92042">
        <ele>235.5</ele>
        <time>2024-11-03T10:14:33Z</time>
      </trkpt>
      <trkpt lat="43.49759" lon="6.92042">
        <ele>235.4</ele>
        <time>2024-11-03T10:14:34Z</time>
      </trkpt>
      <trkpt lat="43.49759" lon="6.92042">
        <ele>235.3</ele>
        <time>2024-11-03T10:14:35Z</time>
      </trkpt>
      <trkpt lat="43.49759" lon="6.92042">
        <ele>235.3</ele>
        <time>2024-11-03T10:14:36Z</time>
      </trkpt>
      <trkpt lat="43.49759" lon="6.92042">
        <ele>235.2</ele>
        <time>2024-11-03T10:14:38Z</time>
      </trkpt>
      <trkpt lat="43.49759" lon="6.92042">
        <ele>235.2</ele>
        <time>2024-11-03T10:14:49Z</time>
      </trkpt>
      <trkpt lat="43.49758" lon="6.92042">
        <ele>235.2</ele>
        <time>2024-11-03T10:14:52Z</time>
      </trkpt>
      <trkpt lat="43.49758" lon="6.92042">
        <ele>235.3</ele>
        <time>2024-11-03T10:14:53Z</time>
      </trkpt>
      <trkpt lat="43.49758" lon="6.92042">
        <ele>235.4</ele>
        <time>2024-11-03T10:14:54Z</time>
      </trkpt>
      <trkpt lat="43.49758" lon="6.92042">
        <ele>235.3</ele>
        <time>2024-11-03T10:14:55Z</time>
      </trkpt>
      <trkpt lat="43.49758" lon="6.92042">
        <ele>235.4</ele>
        <time>2024-11-03T10:14:56Z</time>
      </trkpt>
      <trkpt lat="43.49758" lon="6.92042">
        <ele>235.5</ele>
        <time>2024-11-03T10:14:57Z</time>
      </trkpt>
      <trkpt lat="43.49758" lon="6.92042">
        <ele>235.5</ele>
        <time>2024-11-03T10:14:59Z</time>
      </trkpt>
      <trkpt lat="43.49758" lon="6.92042">
        <ele>235.5</ele>
        <time>2024-11-03T10:15:00Z</time>
      </trkpt>
      <trkpt lat="43.49758" lon="6.92042">
        <ele>235.6</ele>
        <time>2024-11-03T10:15:02Z</time>
      </trkpt>
      <trkpt lat="43.49758" lon="6.92042">
        <ele>235.6</ele>
        <time>2024-11-03T10:15:03Z</time>
      </trkpt>
      <trkpt lat="43.49759" lon="6.92042">
        <ele>235.6</ele>
        <time>2024-11-03T10:15:08Z</time>
      </trkpt>
      <trkpt lat="43.4976" lon="6.92042">
        <ele>235.7</ele>
        <time>2024-11-03T10:15:09Z</time>
      </trkpt>
      <trkpt lat="43.49757" lon="6.92029">
        <ele>234.9</ele>
        <time>2024-11-03T10:15:22Z</time>
      </trkpt>
      <trkpt lat="43.49755" lon="6.92017">
        <ele>235.2</ele>
        <time>2024-11-03T10:15:30Z</time>
      </trkpt>
      <trkpt lat="43.49751" lon="6.92006">
        <ele>235.5</ele>
        <time>2024-11-03T10:15:39Z</time>
      </trkpt>
      <trkpt lat="43.49746" lon="6.91994">
        <ele>235.6</ele>
        <time>2024-11-03T10:15:47Z</time>
      </trkpt>
      <trkpt lat="43.49744" lon="6.91981">
        <ele>236.2</ele>
        <time>2024-11-03T10:15:55Z</time>
      </trkpt>
      <trkpt lat="43.49738" lon="6.91971">
        <ele>235.8</ele>
        <time>2024-11-03T10:16:03Z</time>
      </trkpt>
      <trkpt lat="43.4973" lon="6.91961">
        <ele>234.9</ele>
        <time>2024-11-03T10:16:11Z</time>
      </trkpt>
      <trkpt lat="43.49725" lon="6.9195">
        <ele>235.5</ele>
        <time>2024-11-03T10:16:18Z</time>
      </trkpt>
      <trkpt lat="43.49721" lon="6.91937">
        <ele>235.5</ele>
        <time>2024-11-03T10:16:25Z</time>
      </trkpt>
      <trkpt lat="43.49716" lon="6.91926">
        <ele>236</ele>
        <time>2024-11-03T10:16:32Z</time>
      </trkpt>
      <trkpt lat="43.49709" lon="6.91917">
        <ele>236.5</ele>
        <time>2024-11-03T10:16:38Z</time>
      </trkpt>
      <trkpt lat="43.49703" lon="6.91906">
        <ele>237.1</ele>
        <time>2024-11-03T10:16:45Z</time>
      </trkpt>
      <trkpt lat="43.49699" lon="6.91895">
        <ele>236.6</ele>
        <time>2024-11-03T10:16:52Z</time>
      </trkpt>
      <trkpt lat="43.49694" lon="6.91883">
        <ele>236.8</ele>
        <time>2024-11-03T10:16:59Z</time>
      </trkpt>
      <trkpt lat="43.49691" lon="6.9187">
        <ele>236.8</ele>
        <time>2024-11-03T10:17:07Z</time>
      </trkpt>
      <trkpt lat="43.49685" lon="6.91859">
        <ele>237.2</ele>
        <time>2024-11-03T10:17:14Z</time>
      </trkpt>
      <trkpt lat="43.49682" lon="6.91847">
        <ele>237.7</ele>
        <time>2024-11-03T10:17:22Z</time>
      </trkpt>
      <trkpt lat="43.49677" lon="6.91836">
        <ele>238.7</ele>
        <time>2024-11-03T10:17:30Z</time>
      </trkpt>
      <trkpt lat="43.49672" lon="6.91823">
        <ele>240.5</ele>
        <time>2024-11-03T10:17:39Z</time>
      </trkpt>
      <trkpt lat="43.49668" lon="6.91812">
        <ele>241.2</ele>
        <time>2024-11-03T10:17:47Z</time>
      </trkpt>
      <trkpt lat="43.49664" lon="6.91799">
        <ele>241.3</ele>
        <time>2024-11-03T10:17:55Z</time>
      </trkpt>
      <trkpt lat="43.49659" lon="6.91788">
        <ele>241.3</ele>
        <time>2024-11-03T10:18:02Z</time>
      </trkpt>
      <trkpt lat="43.49654" lon="6.91777">
        <ele>240.9</ele>
        <time>2024-11-03T10:18:09Z</time>
      </trkpt>
      <trkpt lat="43.49653" lon="6.91764">
        <ele>241</ele>
        <time>2024-11-03T10:18:17Z</time>
      </trkpt>
      <trkpt lat="43.49653" lon="6.91751">
        <ele>241.2</ele>
        <time>2024-11-03T10:18:26Z</time>
      </trkpt>
      <trkpt lat="43.4965" lon="6.91739">
        <ele>241</ele>
        <time>2024-11-03T10:18:35Z</time>
      </trkpt>
      <trkpt lat="43.49648" lon="6.91726">
        <ele>242.1</ele>
        <time>2024-11-03T10:18:45Z</time>
      </trkpt>
      <trkpt lat="43.49652" lon="6.91714">
        <ele>242.4</ele>
        <time>2024-11-03T10:18:53Z</time>
      </trkpt>
      <trkpt lat="43.49656" lon="6.91703">
        <ele>242</ele>
        <time>2024-11-03T10:19:00Z</time>
      </trkpt>
      <trkpt lat="43.49657" lon="6.9169">
        <ele>242.3</ele>
        <time>2024-11-03T10:19:07Z</time>
      </trkpt>
      <trkpt lat="43.49658" lon="6.91677">
        <ele>243.2</ele>
        <time>2024-11-03T10:19:15Z</time>
      </trkpt>
      <trkpt lat="43.49663" lon="6.91665">
        <ele>244</ele>
        <time>2024-11-03T10:19:23Z</time>
      </trkpt>
      <trkpt lat="43.49669" lon="6.91656">
        <ele>244.5</ele>
        <time>2024-11-03T10:19:30Z</time>
      </trkpt>
      <trkpt lat="43.49673" lon="6.91644">
        <ele>245</ele>
        <time>2024-11-03T10:19:37Z</time>
      </trkpt>
      <trkpt lat="43.49679" lon="6.91634">
        <ele>246.3</ele>
        <time>2024-11-03T10:19:44Z</time>
      </trkpt>
      <trkpt lat="43.49685" lon="6.91625">
        <ele>246.7</ele>
        <time>2024-11-03T10:19:50Z</time>
      </trkpt>
      <trkpt lat="43.4969" lon="6.91614">
        <ele>248.1</ele>
        <time>2024-11-03T10:19:59Z</time>
      </trkpt>
      <trkpt lat="43.49696" lon="6.91603">
        <ele>248.5</ele>
        <time>2024-11-03T10:20:08Z</time>
      </trkpt>
      <trkpt lat="43.49704" lon="6.91596">
        <ele>248.6</ele>
        <time>2024-11-03T10:20:14Z</time>
      </trkpt>
      <trkpt lat="43.49706" lon="6.91583">
        <ele>249.5</ele>
        <time>2024-11-03T10:20:24Z</time>
      </trkpt>
      <trkpt lat="43.49715" lon="6.91573">
        <ele>250.3</ele>
        <time>2024-11-03T10:20:33Z</time>
      </trkpt>
      <trkpt lat="43.4972" lon="6.91563">
        <ele>250.6</ele>
        <time>2024-11-03T10:20:41Z</time>
      </trkpt>
      <trkpt lat="43.49725" lon="6.91556">
        <ele>251.1</ele>
        <time>2024-11-03T10:20:53Z</time>
      </trkpt>
      <trkpt lat="43.49724" lon="6.91556">
        <ele>251</ele>
        <time>2024-11-03T10:20:54Z</time>
      </trkpt>
      <trkpt lat="43.49733" lon="6.91559">
        <ele>250.8</ele>
        <time>2024-11-03T10:21:02Z</time>
      </trkpt>
      <trkpt lat="43.49742" lon="6.91559">
        <ele>250.8</ele>
        <time>2024-11-03T10:21:07Z</time>
      </trkpt>
      <trkpt lat="43.49752" lon="6.91559">
        <ele>252.2</ele>
        <time>2024-11-03T10:21:15Z</time>
      </trkpt>
      <trkpt lat="43.49761" lon="6.91559">
        <ele>251.2</ele>
        <time>2024-11-03T10:21:26Z</time>
      </trkpt>
      <trkpt lat="43.4977" lon="6.91554">
        <ele>250.2</ele>
        <time>2024-11-03T10:21:38Z</time>
      </trkpt>
      <trkpt lat="43.4978" lon="6.91552">
        <ele>249.9</ele>
        <time>2024-11-03T10:21:45Z</time>
      </trkpt>
      <trkpt lat="43.49789" lon="6.91558">
        <ele>250.2</ele>
        <time>2024-11-03T10:21:51Z</time>
      </trkpt>
      <trkpt lat="43.49799" lon="6.91561">
        <ele>250</ele>
        <time>2024-11-03T10:21:57Z</time>
      </trkpt>
      <trkpt lat="43.49808" lon="6.91566">
        <ele>250</ele>
        <time>2024-11-03T10:22:03Z</time>
      </trkpt>
      <trkpt lat="43.49817" lon="6.9157">
        <ele>249.3</ele>
        <time>2024-11-03T10:22:11Z</time>
      </trkpt>
      <trkpt lat="43.49826" lon="6.91578">
        <ele>249.5</ele>
        <time>2024-11-03T10:22:18Z</time>
      </trkpt>
      <trkpt lat="43.49834" lon="6.91586">
        <ele>249.2</ele>
        <time>2024-11-03T10:22:26Z</time>
      </trkpt>
      <trkpt lat="43.49844" lon="6.91588">
        <ele>248.8</ele>
        <time>2024-11-03T10:22:33Z</time>
      </trkpt>
      <trkpt lat="43.49854" lon="6.91591">
        <ele>248.8</ele>
        <time>2024-11-03T10:22:39Z</time>
      </trkpt>
      <trkpt lat="43.49863" lon="6.91593">
        <ele>249.4</ele>
        <time>2024-11-03T10:22:46Z</time>
      </trkpt>
      <trkpt lat="43.49872" lon="6.91592">
        <ele>249.6</ele>
        <time>2024-11-03T10:22:54Z</time>
      </trkpt>
      <trkpt lat="43.4988" lon="6.91584">
        <ele>249.3</ele>
        <time>2024-11-03T10:23:01Z</time>
      </trkpt>
      <trkpt lat="43.49886" lon="6.91573">
        <ele>249.9</ele>
        <time>2024-11-03T10:23:10Z</time>
      </trkpt>
      <trkpt lat="43.49892" lon="6.91562">
        <ele>249.6</ele>
        <time>2024-11-03T10:23:15Z</time>
      </trkpt>
      <trkpt lat="43.49898" lon="6.91551">
        <ele>249.6</ele>
        <time>2024-11-03T10:23:20Z</time>
      </trkpt>
      <trkpt lat="43.49901" lon="6.91538">
        <ele>248.8</ele>
        <time>2024-11-03T10:23:29Z</time>
      </trkpt>
      <trkpt lat="43.49903" lon="6.91525">
        <ele>248.5</ele>
        <time>2024-11-03T10:23:38Z</time>
      </trkpt>
      <trkpt lat="43.49908" lon="6.91514">
        <ele>247.2</ele>
        <time>2024-11-03T10:23:47Z</time>
      </trkpt>
      <trkpt lat="43.49913" lon="6.91503">
        <ele>247.4</ele>
        <time>2024-11-03T10:23:55Z</time>
      </trkpt>
      <trkpt lat="43.49915" lon="6.9149">
        <ele>245.7</ele>
        <time>2024-11-03T10:24:02Z</time>
      </trkpt>
      <trkpt lat="43.49914" lon="6.91476">
        <ele>244.5</ele>
        <time>2024-11-03T10:24:09Z</time>
      </trkpt>
      <trkpt lat="43.4991" lon="6.91463">
        <ele>242.9</ele>
        <time>2024-11-03T10:24:15Z</time>
      </trkpt>
      <trkpt lat="43.49904" lon="6.91452">
        <ele>242.6</ele>
        <time>2024-11-03T10:24:21Z</time>
      </trkpt>
      <trkpt lat="43.49897" lon="6.91444">
        <ele>242.7</ele>
        <time>2024-11-03T10:24:26Z</time>
      </trkpt>
      <trkpt lat="43.49891" lon="6.91433">
        <ele>242.1</ele>
        <time>2024-11-03T10:24:34Z</time>
      </trkpt>
      <trkpt lat="43.49885" lon="6.91422">
        <ele>241.1</ele>
        <time>2024-11-03T10:24:44Z</time>
      </trkpt>
      <trkpt lat="43.49877" lon="6.91416">
        <ele>240.8</ele>
        <time>2024-11-03T10:24:51Z</time>
      </trkpt>
      <trkpt lat="43.49872" lon="6.91405">
        <ele>241</ele>
        <time>2024-11-03T10:24:58Z</time>
      </trkpt>
      <trkpt lat="43.49863" lon="6.91397">
        <ele>242.1</ele>
        <time>2024-11-03T10:25:06Z</time>
      </trkpt>
      <trkpt lat="43.49858" lon="6.91386">
        <ele>242.7</ele>
        <time>2024-11-03T10:25:14Z</time>
      </trkpt>
      <trkpt lat="43.49853" lon="6.91375">
        <ele>243.1</ele>
        <time>2024-11-03T10:25:25Z</time>
      </trkpt>
      <trkpt lat="43.49848" lon="6.91364">
        <ele>244</ele>
        <time>2024-11-03T10:25:34Z</time>
      </trkpt>
      <trkpt lat="43.49839" lon="6.91358">
        <ele>243.9</ele>
        <time>2024-11-03T10:25:41Z</time>
      </trkpt>
      <trkpt lat="43.49834" lon="6.91348">
        <ele>244.3</ele>
        <time>2024-11-03T10:25:47Z</time>
      </trkpt>
      <trkpt lat="43.49828" lon="6.91337">
        <ele>244.1</ele>
        <time>2024-11-03T10:25:52Z</time>
      </trkpt>
      <trkpt lat="43.49822" lon="6.91328">
        <ele>244</ele>
        <time>2024-11-03T10:25:59Z</time>
      </trkpt>
      <trkpt lat="43.49819" lon="6.91315">
        <ele>242.3</ele>
        <time>2024-11-03T10:26:06Z</time>
      </trkpt>
      <trkpt lat="43.49813" lon="6.91305">
        <ele>241.8</ele>
        <time>2024-11-03T10:26:12Z</time>
      </trkpt>
      <trkpt lat="43.49807" lon="6.91296">
        <ele>241.8</ele>
        <time>2024-11-03T10:26:19Z</time>
      </trkpt>
      <trkpt lat="43.49797" lon="6.91291">
        <ele>241.7</ele>
        <time>2024-11-03T10:26:25Z</time>
      </trkpt>
      <trkpt lat="43.49789" lon="6.91289">
        <ele>241.8</ele>
        <time>2024-11-03T10:26:32Z</time>
      </trkpt>
      <trkpt lat="43.49779" lon="6.91285">
        <ele>242</ele>
        <time>2024-11-03T10:26:39Z</time>
      </trkpt>
      <trkpt lat="43.49772" lon="6.91276">
        <ele>242.7</ele>
        <time>2024-11-03T10:26:51Z</time>
      </trkpt>
      <trkpt lat="43.49764" lon="6.9127">
        <ele>243</ele>
        <time>2024-11-03T10:26:59Z</time>
      </trkpt>
      <trkpt lat="43.49754" lon="6.91266">
        <ele>242.2</ele>
        <time>2024-11-03T10:27:04Z</time>
      </trkpt>
      <trkpt lat="43.49744" lon="6.91261">
        <ele>242</ele>
        <time>2024-11-03T10:27:11Z</time>
      </trkpt>
      <trkpt lat="43.49736" lon="6.91253">
        <ele>242.1</ele>
        <time>2024-11-03T10:27:17Z</time>
      </trkpt>
      <trkpt lat="43.49732" lon="6.9124">
        <ele>243</ele>
        <time>2024-11-03T10:27:25Z</time>
      </trkpt>
      <trkpt lat="43.49724" lon="6.91233">
        <ele>242.3</ele>
        <time>2024-11-03T10:27:33Z</time>
      </trkpt>
      <trkpt lat="43.49719" lon="6.91221">
        <ele>242.5</ele>
        <time>2024-11-03T10:27:43Z</time>
      </trkpt>
      <trkpt lat="43.49721" lon="6.91208">
        <ele>242.9</ele>
        <time>2024-11-03T10:27:50Z</time>
      </trkpt>
      <trkpt lat="43.49717" lon="6.91196">
        <ele>244</ele>
        <time>2024-11-03T10:28:02Z</time>
      </trkpt>
      <trkpt lat="43.49715" lon="6.91183">
        <ele>244.2</ele>
        <time>2024-11-03T10:28:10Z</time>
      </trkpt>
      <trkpt lat="43.49718" lon="6.9117">
        <ele>243.2</ele>
        <time>2024-11-03T10:28:16Z</time>
      </trkpt>
      <trkpt lat="43.49717" lon="6.91157">
        <ele>243.2</ele>
        <time>2024-11-03T10:28:23Z</time>
      </trkpt>
      <trkpt lat="43.49715" lon="6.91144">
        <ele>244.8</ele>
        <time>2024-11-03T10:28:32Z</time>
      </trkpt>
      <trkpt lat="43.49713" lon="6.91139">
        <ele>245</ele>
        <time>2024-11-03T10:28:38Z</time>
      </trkpt>
      <trkpt lat="43.49712" lon="6.9114">
        <ele>244.9</ele>
        <time>2024-11-03T10:28:39Z</time>
      </trkpt>
      <trkpt lat="43.49705" lon="6.91149">
        <ele>244.6</ele>
        <time>2024-11-03T10:28:52Z</time>
      </trkpt>
      <trkpt lat="43.49702" lon="6.9115">
        <ele>244.3</ele>
        <time>2024-11-03T10:29:01Z</time>
      </trkpt>
      <trkpt lat="43.49703" lon="6.9115">
        <ele>244.4</ele>
        <time>2024-11-03T10:29:02Z</time>
      </trkpt>
      <trkpt lat="43.49702" lon="6.91149">
        <ele>244.4</ele>
        <time>2024-11-03T10:29:08Z</time>
      </trkpt>
      <trkpt lat="43.49703" lon="6.91148">
        <ele>244.4</ele>
        <time>2024-11-03T10:29:09Z</time>
      </trkpt>
      <trkpt lat="43.49704" lon="6.91135">
        <ele>246.1</ele>
        <time>2024-11-03T10:30:03Z</time>
      </trkpt>
      <trkpt lat="43.497" lon="6.91124">
        <ele>245.4</ele>
        <time>2024-11-03T10:30:11Z</time>
      </trkpt>
      <trkpt lat="43.49698" lon="6.9111">
        <ele>244.7</ele>
        <time>2024-11-03T10:30:20Z</time>
      </trkpt>
      <trkpt lat="43.49699" lon="6.91097">
        <ele>244.5</ele>
        <time>2024-11-03T10:30:27Z</time>
      </trkpt>
      <trkpt lat="43.49698" lon="6.91082">
        <ele>244.2</ele>
        <time>2024-11-03T10:30:34Z</time>
      </trkpt>
      <trkpt lat="43.49694" lon="6.9107">
        <ele>244.3</ele>
        <time>2024-11-03T10:30:41Z</time>
      </trkpt>
      <trkpt lat="43.49692" lon="6.91058">
        <ele>245.1</ele>
        <time>2024-11-03T10:30:49Z</time>
      </trkpt>
      <trkpt lat="43.49693" lon="6.91044">
        <ele>245.5</ele>
        <time>2024-11-03T10:30:56Z</time>
      </trkpt>
      <trkpt lat="43.4969" lon="6.91031">
        <ele>244.7</ele>
        <time>2024-11-03T10:31:03Z</time>
      </trkpt>
      <trkpt lat="43.49686" lon="6.91019">
        <ele>244.7</ele>
        <time>2024-11-03T10:31:11Z</time>
      </trkpt>
      <trkpt lat="43.49683" lon="6.91006">
        <ele>243.8</ele>
        <time>2024-11-03T10:31:21Z</time>
      </trkpt>
      <trkpt lat="43.49685" lon="6.90994">
        <ele>243</ele>
        <time>2024-11-03T10:31:32Z</time>
      </trkpt>
      <trkpt lat="43.49694" lon="6.9099">
        <ele>243.8</ele>
        <time>2024-11-03T10:31:42Z</time>
      </trkpt>
      <trkpt lat="43.49702" lon="6.90983">
        <ele>244.4</ele>
        <time>2024-11-03T10:31:47Z</time>
      </trkpt>
      <trkpt lat="43.49709" lon="6.90974">
        <ele>244.5</ele>
        <time>2024-11-03T10:31:52Z</time>
      </trkpt>
      <trkpt lat="43.49712" lon="6.90962">
        <ele>244.2</ele>
        <time>2024-11-03T10:31:59Z</time>
      </trkpt>
      <trkpt lat="43.49711" lon="6.90949">
        <ele>243.6</ele>
        <time>2024-11-03T10:32:05Z</time>
      </trkpt>
      <trkpt lat="43.49705" lon="6.90937">
        <ele>243.7</ele>
        <time>2024-11-03T10:32:09Z</time>
      </trkpt>
      <trkpt lat="43.49702" lon="6.90925">
        <ele>244.6</ele>
        <time>2024-11-03T10:32:18Z</time>
      </trkpt>
      <trkpt lat="43.49699" lon="6.90912">
        <ele>245</ele>
        <time>2024-11-03T10:32:27Z</time>
      </trkpt>
      <trkpt lat="43.497" lon="6.90898">
        <ele>244.6</ele>
        <time>2024-11-03T10:32:34Z</time>
      </trkpt>
      <trkpt lat="43.49698" lon="6.90884">
        <ele>244.3</ele>
        <time>2024-11-03T10:32:41Z</time>
      </trkpt>
      <trkpt lat="43.49697" lon="6.90871">
        <ele>244.4</ele>
        <time>2024-11-03T10:32:48Z</time>
      </trkpt>
      <trkpt lat="43.4969" lon="6.9086">
        <ele>244.1</ele>
        <time>2024-11-03T10:32:57Z</time>
      </trkpt>
      <trkpt lat="43.49689" lon="6.90847">
        <ele>244.5</ele>
        <time>2024-11-03T10:33:06Z</time>
      </trkpt>
      <trkpt lat="43.4969" lon="6.90835">
        <ele>243.9</ele>
        <time>2024-11-03T10:33:13Z</time>
      </trkpt>
      <trkpt lat="43.49687" lon="6.90822">
        <ele>243.6</ele>
        <time>2024-11-03T10:33:20Z</time>
      </trkpt>
      <trkpt lat="43.49682" lon="6.90811">
        <ele>244.2</ele>
        <time>2024-11-03T10:33:27Z</time>
      </trkpt>
      <trkpt lat="43.49677" lon="6.908">
        <ele>244.8</ele>
        <time>2024-11-03T10:33:35Z</time>
      </trkpt>
      <trkpt lat="43.49674" lon="6.90787">
        <ele>244.6</ele>
        <time>2024-11-03T10:33:43Z</time>
      </trkpt>
      <trkpt lat="43.49667" lon="6.90778">
        <ele>244.3</ele>
        <time>2024-11-03T10:33:49Z</time>
      </trkpt>
      <trkpt lat="43.49661" lon="6.90766">
        <ele>244.5</ele>
        <time>2024-11-03T10:33:56Z</time>
      </trkpt>
      <trkpt lat="43.49653" lon="6.90757">
        <ele>243.3</ele>
        <time>2024-11-03T10:34:05Z</time>
      </trkpt>
      <trkpt lat="43.49646" lon="6.90748">
        <ele>243.5</ele>
        <time>2024-11-03T10:34:12Z</time>
      </trkpt>
      <trkpt lat="43.49639" lon="6.90739">
        <ele>243.2</ele>
        <time>2024-11-03T10:34:21Z</time>
      </trkpt>
      <trkpt lat="43.49636" lon="6.90726">
        <ele>242.5</ele>
        <time>2024-11-03T10:34:30Z</time>
      </trkpt>
      <trkpt lat="43.49626" lon="6.90721">
        <ele>242</ele>
        <time>2024-11-03T10:34:35Z</time>
      </trkpt>
      <trkpt lat="43.4962" lon="6.90711">
        <ele>242.4</ele>
        <time>2024-11-03T10:34:42Z</time>
      </trkpt>
      <trkpt lat="43.49613" lon="6.90702">
        <ele>242.6</ele>
        <time>2024-11-03T10:34:49Z</time>
      </trkpt>
      <trkpt lat="43.49606" lon="6.90692">
        <ele>241.6</ele>
        <time>2024-11-03T10:34:57Z</time>
      </trkpt>
      <trkpt lat="43.49598" lon="6.90684">
        <ele>242.1</ele>
        <time>2024-11-03T10:35:03Z</time>
      </trkpt>
      <trkpt lat="43.49589" lon="6.90679">
        <ele>242.1</ele>
        <time>2024-11-03T10:35:10Z</time>
      </trkpt>
      <trkpt lat="43.4958" lon="6.90678">
        <ele>240.8</ele>
        <time>2024-11-03T10:35:15Z</time>
      </trkpt>
      <trkpt lat="43.49573" lon="6.9067">
        <ele>240.1</ele>
        <time>2024-11-03T10:35:23Z</time>
      </trkpt>
      <trkpt lat="43.49569" lon="6.90658">
        <ele>238.7</ele>
        <time>2024-11-03T10:35:32Z</time>
      </trkpt>
      <trkpt lat="43.49561" lon="6.90651">
        <ele>238.2</ele>
        <time>2024-11-03T10:35:38Z</time>
      </trkpt>
      <trkpt lat="43.49556" lon="6.90639">
        <ele>237.8</ele>
        <time>2024-11-03T10:35:47Z</time>
      </trkpt>
      <trkpt lat="43.49548" lon="6.90633">
        <ele>237.7</ele>
        <time>2024-11-03T10:35:53Z</time>
      </trkpt>
      <trkpt lat="43.49541" lon="6.90624">
        <ele>238</ele>
        <time>2024-11-03T10:36:05Z</time>
      </trkpt>
      <trkpt lat="43.49533" lon="6.90617">
        <ele>238.6</ele>
        <time>2024-11-03T10:36:15Z</time>
      </trkpt>
      <trkpt lat="43.49529" lon="6.90606">
        <ele>239.7</ele>
        <time>2024-11-03T10:36:24Z</time>
      </trkpt>
      <trkpt lat="43.49528" lon="6.90593">
        <ele>240.4</ele>
        <time>2024-11-03T10:36:33Z</time>
      </trkpt>
      <trkpt lat="43.49524" lon="6.9058">
        <ele>241.8</ele>
        <time>2024-11-03T10:36:44Z</time>
      </trkpt>
      <trkpt lat="43.49524" lon="6.90566">
        <ele>242.8</ele>
        <time>2024-11-03T10:36:51Z</time>
      </trkpt>
      <trkpt lat="43.49517" lon="6.90557">
        <ele>242.9</ele>
        <time>2024-11-03T10:37:01Z</time>
      </trkpt>
      <trkpt lat="43.49514" lon="6.90545">
        <ele>242.7</ele>
        <time>2024-11-03T10:37:10Z</time>
      </trkpt>
      <trkpt lat="43.49519" lon="6.90534">
        <ele>242.5</ele>
        <time>2024-11-03T10:37:16Z</time>
      </trkpt>
      <trkpt lat="43.4952" lon="6.9052">
        <ele>242.3</ele>
        <time>2024-11-03T10:37:25Z</time>
      </trkpt>
      <trkpt lat="43.49521" lon="6.90506">
        <ele>242.1</ele>
        <time>2024-11-03T10:37:31Z</time>
      </trkpt>
      <trkpt lat="43.49521" lon="6.90493">
        <ele>242</ele>
        <time>2024-11-03T10:37:36Z</time>
      </trkpt>
      <trkpt lat="43.49515" lon="6.90483">
        <ele>242.6</ele>
        <time>2024-11-03T10:37:44Z</time>
      </trkpt>
      <trkpt lat="43.49509" lon="6.90471">
        <ele>242.5</ele>
        <time>2024-11-03T10:37:56Z</time>
      </trkpt>
      <trkpt lat="43.49506" lon="6.90459">
        <ele>242.8</ele>
        <time>2024-11-03T10:38:05Z</time>
      </trkpt>
      <trkpt lat="43.49506" lon="6.90446">
        <ele>243.3</ele>
        <time>2024-11-03T10:38:11Z</time>
      </trkpt>
      <trkpt lat="43.49507" lon="6.90432">
        <ele>243.9</ele>
        <time>2024-11-03T10:38:16Z</time>
      </trkpt>
      <trkpt lat="43.49508" lon="6.90419">
        <ele>244</ele>
        <time>2024-11-03T10:38:22Z</time>
      </trkpt>
      <trkpt lat="43.495" lon="6.90414">
        <ele>242</ele>
        <time>2024-11-03T10:38:37Z</time>
      </trkpt>
      <trkpt lat="43.49493" lon="6.9042">
        <ele>239.4</ele>
        <time>2024-11-03T10:39:02Z</time>
      </trkpt>
      <trkpt lat="43.49493" lon="6.9042">
        <ele>239.5</ele>
        <time>2024-11-03T10:39:03Z</time>
      </trkpt>
      <trkpt lat="43.49492" lon="6.9042">
        <ele>240.6</ele>
        <time>2024-11-03T10:39:07Z</time>
      </trkpt>
      <trkpt lat="43.49492" lon="6.9042">
        <ele>240.6</ele>
        <time>2024-11-03T10:39:09Z</time>
      </trkpt>
      <trkpt lat="43.49493" lon="6.90421">
        <ele>240.3</ele>
        <time>2024-11-03T10:39:13Z</time>
      </trkpt>
      <trkpt lat="43.49493" lon="6.90421">
        <ele>240.4</ele>
        <time>2024-11-03T10:39:14Z</time>
      </trkpt>
      <trkpt lat="43.49495" lon="6.9042">
        <ele>240.8</ele>
        <time>2024-11-03T10:39:20Z</time>
      </trkpt>
      <trkpt lat="43.49495" lon="6.90421">
        <ele>240.8</ele>
        <time>2024-11-03T10:39:21Z</time>
      </trkpt>
      <trkpt lat="43.49496" lon="6.9042">
        <ele>240.6</ele>
        <time>2024-11-03T10:39:26Z</time>
      </trkpt>
      <trkpt lat="43.49496" lon="6.90421">
        <ele>240.5</ele>
        <time>2024-11-03T10:39:27Z</time>
      </trkpt>
      <trkpt lat="43.49495" lon="6.90422">
        <ele>239.8</ele>
        <time>2024-11-03T10:39:38Z</time>
      </trkpt>
      <trkpt lat="43.49495" lon="6.90422">
        <ele>239.7</ele>
        <time>2024-11-03T10:39:39Z</time>
      </trkpt>
      <trkpt lat="43.49495" lon="6.90422">
        <ele>239.2</ele>
        <time>2024-11-03T10:39:42Z</time>
      </trkpt>
      <trkpt lat="43.49495" lon="6.90421">
        <ele>239.1</ele>
        <time>2024-11-03T10:39:43Z</time>
      </trkpt>
      <trkpt lat="43.49496" lon="6.90421">
        <ele>239.3</ele>
        <time>2024-11-03T10:39:48Z</time>
      </trkpt>
      <trkpt lat="43.49496" lon="6.90421">
        <ele>239.3</ele>
        <time>2024-11-03T10:39:49Z</time>
      </trkpt>
      <trkpt lat="43.49497" lon="6.90421">
        <ele>239.5</ele>
        <time>2024-11-03T10:39:53Z</time>
      </trkpt>
      <trkpt lat="43.49497" lon="6.90421">
        <ele>239.5</ele>
        <time>2024-11-03T10:39:54Z</time>
      </trkpt>
      <trkpt lat="43.49498" lon="6.90421">
        <ele>239.2</ele>
        <time>2024-11-03T10:40:08Z</time>
      </trkpt>
      <trkpt lat="43.49499" lon="6.9042">
        <ele>239.3</ele>
        <time>2024-11-03T10:40:09Z</time>
      </trkpt>
      <trkpt lat="43.49496" lon="6.90425">
        <ele>238.3</ele>
        <time>2024-11-03T10:40:36Z</time>
      </trkpt>
      <trkpt lat="43.49496" lon="6.90425">
        <ele>238.6</ele>
        <time>2024-11-03T10:40:38Z</time>
      </trkpt>
      <trkpt lat="43.49497" lon="6.90422">
        <ele>237.6</ele>
        <time>2024-11-03T10:40:51Z</time>
      </trkpt>
      <trkpt lat="43.49497" lon="6.90423">
        <ele>237.6</ele>
        <time>2024-11-03T10:40:52Z</time>
      </trkpt>
      <trkpt lat="43.49497" lon="6.90423">
        <ele>237.8</ele>
        <time>2024-11-03T10:40:53Z</time>
      </trkpt>
      <trkpt lat="43.49497" lon="6.90423">
        <ele>238.2</ele>
        <time>2024-11-03T10:40:55Z</time>
      </trkpt>
      <trkpt lat="43.49503" lon="6.90434">
        <ele>238.2</ele>
        <time>2024-11-03T10:41:15Z</time>
      </trkpt>
      <trkpt lat="43.49499" lon="6.90447">
        <ele>238</ele>
        <time>2024-11-03T10:41:24Z</time>
      </trkpt>
      <trkpt lat="43.49496" lon="6.90459">
        <ele>238.4</ele>
        <time>2024-11-03T10:41:37Z</time>
      </trkpt>
      <trkpt lat="43.49488" lon="6.90466">
        <ele>237.2</ele>
        <time>2024-11-03T10:41:47Z</time>
      </trkpt>
      <trkpt lat="43.49482" lon="6.90477">
        <ele>237.2</ele>
        <time>2024-11-03T10:41:57Z</time>
      </trkpt>
      <trkpt lat="43.49477" lon="6.90487">
        <ele>237.5</ele>
        <time>2024-11-03T10:42:06Z</time>
      </trkpt>
      <trkpt lat="43.49472" lon="6.90499">
        <ele>238.5</ele>
        <time>2024-11-03T10:42:17Z</time>
      </trkpt>
      <trkpt lat="43.4947" lon="6.90512">
        <ele>240.8</ele>
        <time>2024-11-03T10:42:28Z</time>
      </trkpt>
      <trkpt lat="43.49464" lon="6.90523">
        <ele>243.5</ele>
        <time>2024-11-03T10:42:40Z</time>
      </trkpt>
      <trkpt lat="43.49459" lon="6.90533">
        <ele>245</ele>
        <time>2024-11-03T10:42:51Z</time>
      </trkpt>
      <trkpt lat="43.49457" lon="6.90546">
        <ele>245.3</ele>
        <time>2024-11-03T10:43:01Z</time>
      </trkpt>
      <trkpt lat="43.49457" lon="6.90559">
        <ele>245.8</ele>
        <time>2024-11-03T10:43:08Z</time>
      </trkpt>
      <trkpt lat="43.49458" lon="6.90572">
        <ele>246.2</ele>
        <time>2024-11-03T10:43:17Z</time>
      </trkpt>
      <trkpt lat="43.49462" lon="6.90584">
        <ele>247.6</ele>
        <time>2024-11-03T10:43:27Z</time>
      </trkpt>
      <trkpt lat="43.49462" lon="6.90598">
        <ele>249.3</ele>
        <time>2024-11-03T10:43:41Z</time>
      </trkpt>
      <trkpt lat="43.49462" lon="6.90611">
        <ele>249.2</ele>
        <time>2024-11-03T10:43:51Z</time>
      </trkpt>
      <trkpt lat="43.49464" lon="6.90624">
        <ele>249.4</ele>
        <time>2024-11-03T10:44:02Z</time>
      </trkpt>
      <trkpt lat="43.49465" lon="6.90636">
        <ele>251.3</ele>
        <time>2024-11-03T10:44:14Z</time>
      </trkpt>
      <trkpt lat="43.49468" lon="6.90648">
        <ele>255.1</ele>
        <time>2024-11-03T10:44:27Z</time>
      </trkpt>
      <trkpt lat="43.49468" lon="6.90658">
        <ele>257</ele>
        <time>2024-11-03T10:44:38Z</time>
      </trkpt>
      <trkpt lat="43.49468" lon="6.90659">
        <ele>257.2</ele>
        <time>2024-11-03T10:44:39Z</time>
      </trkpt>
      <trkpt lat="43.49467" lon="6.90661">
        <ele>258.5</ele>
        <time>2024-11-03T10:44:45Z</time>
      </trkpt>
      <trkpt lat="43.49467" lon="6.9066">
        <ele>258.7</ele>
        <time>2024-11-03T10:44:46Z</time>
      </trkpt>
      <trkpt lat="43.4946" lon="6.9067">
        <ele>261.7</ele>
        <time>2024-11-03T10:45:02Z</time>
      </trkpt>
      <trkpt lat="43.49454" lon="6.9068">
        <ele>263.8</ele>
        <time>2024-11-03T10:45:11Z</time>
      </trkpt>
      <trkpt lat="43.49453" lon="6.90693">
        <ele>265.9</ele>
        <time>2024-11-03T10:45:23Z</time>
      </trkpt>
      <trkpt lat="43.49445" lon="6.90701">
        <ele>269.9</ele>
        <time>2024-11-03T10:45:32Z</time>
      </trkpt>
      <trkpt lat="43.4944" lon="6.90712">
        <ele>273.4</ele>
        <time>2024-11-03T10:45:41Z</time>
      </trkpt>
      <trkpt lat="43.49446" lon="6.90721">
        <ele>275.4</ele>
        <time>2024-11-03T10:45:50Z</time>
      </trkpt>
      <trkpt lat="43.49455" lon="6.90727">
        <ele>275.6</ele>
        <time>2024-11-03T10:45:59Z</time>
      </trkpt>
      <trkpt lat="43.49464" lon="6.90725">
        <ele>275.3</ele>
        <time>2024-11-03T10:46:11Z</time>
      </trkpt>
      <trkpt lat="43.49473" lon="6.90725">
        <ele>276.3</ele>
        <time>2024-11-03T10:46:21Z</time>
      </trkpt>
      <trkpt lat="43.49465" lon="6.90732">
        <ele>282.6</ele>
        <time>2024-11-03T10:46:55Z</time>
      </trkpt>
      <trkpt lat="43.49456" lon="6.90737">
        <ele>283.7</ele>
        <time>2024-11-03T10:47:02Z</time>
      </trkpt>
      <trkpt lat="43.49448" lon="6.90746">
        <ele>285.6</ele>
        <time>2024-11-03T10:47:10Z</time>
      </trkpt>
      <trkpt lat="43.49444" lon="6.90757">
        <ele>286.7</ele>
        <time>2024-11-03T10:47:19Z</time>
      </trkpt>
      <trkpt lat="43.4945" lon="6.90768">
        <ele>288.6</ele>
        <time>2024-11-03T10:47:32Z</time>
      </trkpt>
      <trkpt lat="43.49459" lon="6.90768">
        <ele>289.2</ele>
        <time>2024-11-03T10:47:43Z</time>
      </trkpt>
      <trkpt lat="43.49469" lon="6.90767">
        <ele>290.3</ele>
        <time>2024-11-03T10:47:53Z</time>
      </trkpt>
      <trkpt lat="43.49478" lon="6.90764">
        <ele>291.2</ele>
        <time>2024-11-03T10:48:02Z</time>
      </trkpt>
      <trkpt lat="43.4947" lon="6.90773">
        <ele>298.1</ele>
        <time>2024-11-03T10:48:38Z</time>
      </trkpt>
      <trkpt lat="43.49464" lon="6.90782">
        <ele>299.9</ele>
        <time>2024-11-03T10:48:47Z</time>
      </trkpt>
      <trkpt lat="43.49459" lon="6.90793">
        <ele>301.9</ele>
        <time>2024-11-03T10:48:56Z</time>
      </trkpt>
      <trkpt lat="43.49453" lon="6.90803">
        <ele>303.1</ele>
        <time>2024-11-03T10:49:07Z</time>
      </trkpt>
      <trkpt lat="43.49454" lon="6.90816">
        <ele>304.2</ele>
        <time>2024-11-03T10:49:19Z</time>
      </trkpt>
      <trkpt lat="43.49463" lon="6.90819">
        <ele>304.9</ele>
        <time>2024-11-03T10:49:26Z</time>
      </trkpt>
      <trkpt lat="43.49472" lon="6.90822">
        <ele>305.8</ele>
        <time>2024-11-03T10:49:34Z</time>
      </trkpt>
      <trkpt lat="43.49481" lon="6.90819">
        <ele>307</ele>
        <time>2024-11-03T10:49:49Z</time>
      </trkpt>
      <trkpt lat="43.49489" lon="6.90813">
        <ele>307.4</ele>
        <time>2024-11-03T10:49:59Z</time>
      </trkpt>
      <trkpt lat="43.49495" lon="6.90824">
        <ele>310.8</ele>
        <time>2024-11-03T10:50:30Z</time>
      </trkpt>
      <trkpt lat="43.495" lon="6.90834">
        <ele>315.7</ele>
        <time>2024-11-03T10:50:47Z</time>
      </trkpt>
      <trkpt lat="43.49495" lon="6.90845">
        <ele>321</ele>
        <time>2024-11-03T10:51:11Z</time>
      </trkpt>
      <trkpt lat="43.49493" lon="6.9085">
        <ele>324.7</ele>
        <time>2024-11-03T10:51:29Z</time>
      </trkpt>
      <trkpt lat="43.49494" lon="6.9085">
        <ele>325.1</ele>
        <time>2024-11-03T10:51:30Z</time>
      </trkpt>
      <trkpt lat="43.49494" lon="6.90851">
        <ele>326.1</ele>
        <time>2024-11-03T10:51:33Z</time>
      </trkpt>
      <trkpt lat="43.49495" lon="6.90851">
        <ele>326.4</ele>
        <time>2024-11-03T10:51:34Z</time>
      </trkpt>
      <trkpt lat="43.49493" lon="6.90851">
        <ele>327.5</ele>
        <time>2024-11-03T10:51:42Z</time>
      </trkpt>
      <trkpt lat="43.49492" lon="6.9085">
        <ele>327.9</ele>
        <time>2024-11-03T10:51:43Z</time>
      </trkpt>
      <trkpt lat="43.49492" lon="6.90849">
        <ele>328.6</ele>
        <time>2024-11-03T10:51:46Z</time>
      </trkpt>
      <trkpt lat="43.49492" lon="6.90849">
        <ele>328.6</ele>
        <time>2024-11-03T10:51:47Z</time>
      </trkpt>
      <trkpt lat="43.49492" lon="6.90849">
        <ele>329.2</ele>
        <time>2024-11-03T10:51:49Z</time>
      </trkpt>
      <trkpt lat="43.49492" lon="6.90849">
        <ele>329.5</ele>
        <time>2024-11-03T10:51:50Z</time>
      </trkpt>
      <trkpt lat="43.49491" lon="6.90849">
        <ele>329.6</ele>
        <time>2024-11-03T10:51:52Z</time>
      </trkpt>
      <trkpt lat="43.49492" lon="6.90849">
        <ele>329.7</ele>
        <time>2024-11-03T10:51:53Z</time>
      </trkpt>
      <trkpt lat="43.49491" lon="6.90848">
        <ele>330</ele>
        <time>2024-11-03T10:51:55Z</time>
      </trkpt>
      <trkpt lat="43.49492" lon="6.90848">
        <ele>330.2</ele>
        <time>2024-11-03T10:51:56Z</time>
      </trkpt>
      <trkpt lat="43.49492" lon="6.90849">
        <ele>330.6</ele>
        <time>2024-11-03T10:51:59Z</time>
      </trkpt>
      <trkpt lat="43.49492" lon="6.90849">
        <ele>330.7</ele>
        <time>2024-11-03T10:52:00Z</time>
      </trkpt>
      <trkpt lat="43.49492" lon="6.90848">
        <ele>330.9</ele>
        <time>2024-11-03T10:52:02Z</time>
      </trkpt>
      <trkpt lat="43.49492" lon="6.90849">
        <ele>331.1</ele>
        <time>2024-11-03T10:52:06Z</time>
      </trkpt>
      <trkpt lat="43.49486" lon="6.90859">
        <ele>332.4</ele>
        <time>2024-11-03T10:52:19Z</time>
      </trkpt>
      <trkpt lat="43.49489" lon="6.90872">
        <ele>334.4</ele>
        <time>2024-11-03T10:52:33Z</time>
      </trkpt>
      <trkpt lat="43.49492" lon="6.90876">
        <ele>335.8</ele>
        <time>2024-11-03T10:52:42Z</time>
      </trkpt>
      <trkpt lat="43.49492" lon="6.90877">
        <ele>336.1</ele>
        <time>2024-11-03T10:52:43Z</time>
      </trkpt>
      <trkpt lat="43.49496" lon="6.9089">
        <ele>336.3</ele>
        <time>2024-11-03T10:53:07Z</time>
      </trkpt>
      <trkpt lat="43.49499" lon="6.90903">
        <ele>341</ele>
        <time>2024-11-03T10:53:29Z</time>
      </trkpt>
      <trkpt lat="43.495" lon="6.90913">
        <ele>343.2</ele>
        <time>2024-11-03T10:53:42Z</time>
      </trkpt>
      <trkpt lat="43.495" lon="6.90913">
        <ele>343.5</ele>
        <time>2024-11-03T10:53:43Z</time>
      </trkpt>
      <trkpt lat="43.495" lon="6.90926">
        <ele>348.2</ele>
        <time>2024-11-03T10:54:04Z</time>
      </trkpt>
      <trkpt lat="43.49493" lon="6.90934">
        <ele>353.3</ele>
        <time>2024-11-03T10:54:20Z</time>
      </trkpt>
      <trkpt lat="43.49488" lon="6.90939">
        <ele>355.1</ele>
        <time>2024-11-03T10:54:29Z</time>
      </trkpt>
      <trkpt lat="43.49488" lon="6.9094">
        <ele>355.4</ele>
        <time>2024-11-03T10:54:30Z</time>
      </trkpt>
      <trkpt lat="43.49482" lon="6.90949">
        <ele>360.6</ele>
        <time>2024-11-03T10:54:51Z</time>
      </trkpt>
      <trkpt lat="43.49479" lon="6.9096">
        <ele>364.1</ele>
        <time>2024-11-03T10:55:09Z</time>
      </trkpt>
      <trkpt lat="43.49472" lon="6.90969">
        <ele>369.7</ele>
        <time>2024-11-03T10:55:28Z</time>
      </trkpt>
      <trkpt lat="43.49465" lon="6.90974">
        <ele>373.8</ele>
        <time>2024-11-03T10:55:45Z</time>
      </trkpt>
      <trkpt lat="43.49465" lon="6.90974">
        <ele>374</ele>
        <time>2024-11-03T10:55:46Z</time>
      </trkpt>
      <trkpt lat="43.49461" lon="6.90987">
        <ele>377.1</ele>
        <time>2024-11-03T10:55:59Z</time>
      </trkpt>
      <trkpt lat="43.49461" lon="6.90989">
        <ele>377.7</ele>
        <time>2024-11-03T10:56:02Z</time>
      </trkpt>
      <trkpt lat="43.4946" lon="6.90989">
        <ele>378</ele>
        <time>2024-11-03T10:56:03Z</time>
      </trkpt>
      <trkpt lat="43.4946" lon="6.9099">
        <ele>378.4</ele>
        <time>2024-11-03T10:56:05Z</time>
      </trkpt>
      <trkpt lat="43.4946" lon="6.90989">
        <ele>378.5</ele>
        <time>2024-11-03T10:56:06Z</time>
      </trkpt>
      <trkpt lat="43.49456" lon="6.9099">
        <ele>379.5</ele>
        <time>2024-11-03T10:56:15Z</time>
      </trkpt>
      <trkpt lat="43.49455" lon="6.90991">
        <ele>379.4</ele>
        <time>2024-11-03T10:56:16Z</time>
      </trkpt>
      <trkpt lat="43.49459" lon="6.90998">
        <ele>380.1</ele>
        <time>2024-11-03T10:56:27Z</time>
      </trkpt>
      <trkpt lat="43.49458" lon="6.90999">
        <ele>380</ele>
        <time>2024-11-03T10:56:28Z</time>
      </trkpt>
      <trkpt lat="43.49456" lon="6.91001">
        <ele>380.3</ele>
        <time>2024-11-03T10:56:33Z</time>
      </trkpt>
      <trkpt lat="43.49455" lon="6.91002">
        <ele>380.6</ele>
        <time>2024-11-03T10:56:34Z</time>
      </trkpt>
      <trkpt lat="43.4945" lon="6.91013">
        <ele>384.7</ele>
        <time>2024-11-03T10:56:56Z</time>
      </trkpt>
      <trkpt lat="43.49448" lon="6.91015">
        <ele>385</ele>
        <time>2024-11-03T10:57:00Z</time>
      </trkpt>
      <trkpt lat="43.49448" lon="6.91015">
        <ele>385.1</ele>
        <time>2024-11-03T10:57:01Z</time>
      </trkpt>
      <trkpt lat="43.49439" lon="6.91017">
        <ele>388.6</ele>
        <time>2024-11-03T10:57:18Z</time>
      </trkpt>
      <trkpt lat="43.49437" lon="6.91024">
        <ele>390.4</ele>
        <time>2024-11-03T10:57:29Z</time>
      </trkpt>
      <trkpt lat="43.49437" lon="6.91024">
        <ele>390.5</ele>
        <time>2024-11-03T10:57:30Z</time>
      </trkpt>
      <trkpt lat="43.49437" lon="6.91037">
        <ele>392.3</ele>
        <time>2024-11-03T10:57:44Z</time>
      </trkpt>
      <trkpt lat="43.49438" lon="6.9105">
        <ele>393.7</ele>
        <time>2024-11-03T10:57:54Z</time>
      </trkpt>
      <trkpt lat="43.49438" lon="6.91051">
        <ele>394.4</ele>
        <time>2024-11-03T10:57:56Z</time>
      </trkpt>
      <trkpt lat="43.49439" lon="6.91052">
        <ele>394.7</ele>
        <time>2024-11-03T10:57:57Z</time>
      </trkpt>
      <trkpt lat="43.49436" lon="6.91055">
        <ele>396.6</ele>
        <time>2024-11-03T10:58:11Z</time>
      </trkpt>
      <trkpt lat="43.49436" lon="6.91056">
        <ele>396.7</ele>
        <time>2024-11-03T10:58:12Z</time>
      </trkpt>
      <trkpt lat="43.49436" lon="6.91058">
        <ele>397.1</ele>
        <time>2024-11-03T10:58:19Z</time>
      </trkpt>
      <trkpt lat="43.49436" lon="6.91057">
        <ele>397.4</ele>
        <time>2024-11-03T10:58:20Z</time>
      </trkpt>
      <trkpt lat="43.49429" lon="6.91066">
        <ele>399.3</ele>
        <time>2024-11-03T10:58:30Z</time>
      </trkpt>
      <trkpt lat="43.49424" lon="6.91077">
        <ele>400.1</ele>
        <time>2024-11-03T10:58:40Z</time>
      </trkpt>
      <trkpt lat="43.49422" lon="6.91089">
        <ele>400.9</ele>
        <time>2024-11-03T10:58:55Z</time>
      </trkpt>
      <trkpt lat="43.4942" lon="6.91093">
        <ele>401.1</ele>
        <time>2024-11-03T10:59:02Z</time>
      </trkpt>
      <trkpt lat="43.49419" lon="6.91094">
        <ele>401</ele>
        <time>2024-11-03T10:59:03Z</time>
      </trkpt>
      <trkpt lat="43.49418" lon="6.91106">
        <ele>401.9</ele>
        <time>2024-11-03T10:59:17Z</time>
      </trkpt>
      <trkpt lat="43.49412" lon="6.91117">
        <ele>404.7</ele>
        <time>2024-11-03T10:59:32Z</time>
      </trkpt>
      <trkpt lat="43.49413" lon="6.9113">
        <ele>406.6</ele>
        <time>2024-11-03T10:59:44Z</time>
      </trkpt>
      <trkpt lat="43.4941" lon="6.91143">
        <ele>409.2</ele>
        <time>2024-11-03T10:59:57Z</time>
      </trkpt>
      <trkpt lat="43.49408" lon="6.91155">
        <ele>411.2</ele>
        <time>2024-11-03T11:00:12Z</time>
      </trkpt>
      <trkpt lat="43.49407" lon="6.91168">
        <ele>416.3</ele>
        <time>2024-11-03T11:00:24Z</time>
      </trkpt>
      <trkpt lat="43.49401" lon="6.91178">
        <ele>420</ele>
        <time>2024-11-03T11:00:40Z</time>
      </trkpt>
      <trkpt lat="43.49397" lon="6.9119">
        <ele>422.3</ele>
        <time>2024-11-03T11:00:55Z</time>
      </trkpt>
      <trkpt lat="43.49393" lon="6.91201">
        <ele>429.1</ele>
        <time>2024-11-03T11:01:13Z</time>
      </trkpt>
      <trkpt lat="43.49392" lon="6.91214">
        <ele>430.7</ele>
        <time>2024-11-03T11:01:29Z</time>
      </trkpt>
      <trkpt lat="43.49392" lon="6.91211">
        <ele>433.2</ele>
        <time>2024-11-03T11:01:43Z</time>
      </trkpt>
      <trkpt lat="43.49392" lon="6.91211">
        <ele>433.2</ele>
        <time>2024-11-03T11:01:46Z</time>
      </trkpt>
      <trkpt lat="43.49392" lon="6.91211">
        <ele>433.2</ele>
        <time>2024-11-03T11:01:47Z</time>
      </trkpt>
      <trkpt lat="43.49392" lon="6.91211">
        <ele>433.4</ele>
        <time>2024-11-03T11:01:54Z</time>
      </trkpt>
      <trkpt lat="43.49391" lon="6.91211">
        <ele>433.7</ele>
        <time>2024-11-03T11:01:57Z</time>
      </trkpt>
      <trkpt lat="43.49391" lon="6.9121">
        <ele>433.7</ele>
        <time>2024-11-03T11:01:59Z</time>
      </trkpt>
      <trkpt lat="43.49392" lon="6.91223">
        <ele>437.6</ele>
        <time>2024-11-03T11:02:17Z</time>
      </trkpt>
      <trkpt lat="43.49391" lon="6.91223">
        <ele>437.9</ele>
        <time>2024-11-03T11:02:19Z</time>
      </trkpt>
      <trkpt lat="43.49391" lon="6.91223">
        <ele>437.9</ele>
        <time>2024-11-03T11:02:20Z</time>
      </trkpt>
      <trkpt lat="43.49392" lon="6.91223">
        <ele>437.8</ele>
        <time>2024-11-03T11:02:22Z</time>
      </trkpt>
      <trkpt lat="43.49391" lon="6.91223">
        <ele>438</ele>
        <time>2024-11-03T11:02:23Z</time>
      </trkpt>
      <trkpt lat="43.49391" lon="6.91223">
        <ele>438</ele>
        <time>2024-11-03T11:02:25Z</time>
      </trkpt>
      <trkpt lat="43.49391" lon="6.91223">
        <ele>437.9</ele>
        <time>2024-11-03T11:02:30Z</time>
      </trkpt>
      <trkpt lat="43.49391" lon="6.91223">
        <ele>437.9</ele>
        <time>2024-11-03T11:02:31Z</time>
      </trkpt>
      <trkpt lat="43.49391" lon="6.91222">
        <ele>438</ele>
        <time>2024-11-03T11:02:34Z</time>
      </trkpt>
      <trkpt lat="43.49391" lon="6.91222">
        <ele>438</ele>
        <time>2024-11-03T11:02:35Z</time>
      </trkpt>
      <trkpt lat="43.49391" lon="6.91222">
        <ele>438.1</ele>
        <time>2024-11-03T11:02:37Z</time>
      </trkpt>
      <trkpt lat="43.49391" lon="6.91222">
        <ele>438.2</ele>
        <time>2024-11-03T11:02:38Z</time>
      </trkpt>
      <trkpt lat="43.49391" lon="6.91222">
        <ele>438.3</ele>
        <time>2024-11-03T11:02:46Z</time>
      </trkpt>
      <trkpt lat="43.49391" lon="6.91222">
        <ele>438.3</ele>
        <time>2024-11-03T11:02:47Z</time>
      </trkpt>
      <trkpt lat="43.49391" lon="6.91221">
        <ele>438.5</ele>
        <time>2024-11-03T11:02:56Z</time>
      </trkpt>
      <trkpt lat="43.49391" lon="6.91221">
        <ele>438.5</ele>
        <time>2024-11-03T11:02:57Z</time>
      </trkpt>
      <trkpt lat="43.4939" lon="6.91221">
        <ele>438.5</ele>
        <time>2024-11-03T11:03:04Z</time>
      </trkpt>
      <trkpt lat="43.4939" lon="6.91221">
        <ele>438.4</ele>
        <time>2024-11-03T11:03:05Z</time>
      </trkpt>
      <trkpt lat="43.4939" lon="6.91221">
        <ele>438.5</ele>
        <time>2024-11-03T11:03:08Z</time>
      </trkpt>
      <trkpt lat="43.4939" lon="6.91221">
        <ele>438.5</ele>
        <time>2024-11-03T11:03:09Z</time>
      </trkpt>
      <trkpt lat="43.49391" lon="6.91221">
        <ele>438.5</ele>
        <time>2024-11-03T11:03:10Z</time>
      </trkpt>
      <trkpt lat="43.49389" lon="6.91233">
        <ele>439.6</ele>
        <time>2024-11-03T11:03:25Z</time>
      </trkpt>
      <trkpt lat="43.49389" lon="6.91234">
        <ele>440.8</ele>
        <time>2024-11-03T11:03:36Z</time>
      </trkpt>
      <trkpt lat="43.49389" lon="6.91234">
        <ele>440.9</ele>
        <time>2024-11-03T11:03:37Z</time>
      </trkpt>
      <trkpt lat="43.49393" lon="6.9124">
        <ele>440.8</ele>
        <time>2024-11-03T11:04:03Z</time>
      </trkpt>
      <trkpt lat="43.49393" lon="6.91239">
        <ele>440.8</ele>
        <time>2024-11-03T11:04:04Z</time>
      </trkpt>
      <trkpt lat="43.49392" lon="6.91242">
        <ele>442.2</ele>
        <time>2024-11-03T11:04:28Z</time>
      </trkpt>
      <trkpt lat="43.49392" lon="6.91242">
        <ele>442.1</ele>
        <time>2024-11-03T11:04:29Z</time>
      </trkpt>
      <trkpt lat="43.49393" lon="6.91253">
        <ele>441.8</ele>
        <time>2024-11-03T11:04:56Z</time>
      </trkpt>
      <trkpt lat="43.49393" lon="6.91253">
        <ele>441.8</ele>
        <time>2024-11-03T11:04:57Z</time>
      </trkpt>
      <trkpt lat="43.49395" lon="6.9126">
        <ele>441.7</ele>
        <time>2024-11-03T11:05:06Z</time>
      </trkpt>
      <trkpt lat="43.49396" lon="6.9126">
        <ele>441.8</ele>
        <time>2024-11-03T11:05:07Z</time>
      </trkpt>
      <trkpt lat="43.49401" lon="6.91269">
        <ele>440.7</ele>
        <time>2024-11-03T11:05:26Z</time>
      </trkpt>
      <trkpt lat="43.49402" lon="6.91269">
        <ele>440.6</ele>
        <time>2024-11-03T11:05:27Z</time>
      </trkpt>
      <trkpt lat="43.49407" lon="6.9126">
        <ele>439.7</ele>
        <time>2024-11-03T11:05:44Z</time>
      </trkpt>
      <trkpt lat="43.49408" lon="6.9126">
        <ele>439.5</ele>
        <time>2024-11-03T11:05:46Z</time>
      </trkpt>
      <trkpt lat="43.49407" lon="6.91265">
        <ele>438.6</ele>
        <time>2024-11-03T11:06:04Z</time>
      </trkpt>
      <trkpt lat="43.49408" lon="6.91265">
        <ele>438.7</ele>
        <time>2024-11-03T11:06:06Z</time>
      </trkpt>
      <trkpt lat="43.49408" lon="6.91264">
        <ele>439.2</ele>
        <time>2024-11-03T11:06:17Z</time>
      </trkpt>
      <trkpt lat="43.49408" lon="6.91263">
        <ele>439.2</ele>
        <time>2024-11-03T11:06:21Z</time>
      </trkpt>
      <trkpt lat="43.49407" lon="6.91256">
        <ele>439.7</ele>
        <time>2024-11-03T11:06:35Z</time>
      </trkpt>
      <trkpt lat="43.49407" lon="6.91256">
        <ele>439.7</ele>
        <time>2024-11-03T11:06:36Z</time>
      </trkpt>
      <trkpt lat="43.49406" lon="6.91254">
        <ele>439.4</ele>
        <time>2024-11-03T11:06:42Z</time>
      </trkpt>
      <trkpt lat="43.49406" lon="6.91254">
        <ele>439.3</ele>
        <time>2024-11-03T11:06:43Z</time>
      </trkpt>
      <trkpt lat="43.49406" lon="6.91254">
        <ele>439.2</ele>
        <time>2024-11-03T11:06:45Z</time>
      </trkpt>
      <trkpt lat="43.49406" lon="6.91254">
        <ele>439.2</ele>
        <time>2024-11-03T11:06:46Z</time>
      </trkpt>
      <trkpt lat="43.49406" lon="6.91253">
        <ele>439.3</ele>
        <time>2024-11-03T11:06:49Z</time>
      </trkpt>
      <trkpt lat="43.49406" lon="6.91253">
        <ele>439.4</ele>
        <time>2024-11-03T11:06:51Z</time>
      </trkpt>
      <trkpt lat="43.49406" lon="6.91252">
        <ele>439.6</ele>
        <time>2024-11-03T11:06:53Z</time>
      </trkpt>
      <trkpt lat="43.49405" lon="6.91252">
        <ele>439.7</ele>
        <time>2024-11-03T11:06:54Z</time>
      </trkpt>
      <trkpt lat="43.49405" lon="6.91252">
        <ele>439.6</ele>
        <time>2024-11-03T11:06:57Z</time>
      </trkpt>
      <trkpt lat="43.49404" lon="6.91251">
        <ele>439.4</ele>
        <time>2024-11-03T11:06:58Z</time>
      </trkpt>
      <trkpt lat="43.49404" lon="6.91251">
        <ele>439.1</ele>
        <time>2024-11-03T11:07:01Z</time>
      </trkpt>
      <trkpt lat="43.49405" lon="6.91252">
        <ele>439.2</ele>
        <time>2024-11-03T11:07:02Z</time>
      </trkpt>
      <trkpt lat="43.49406" lon="6.91252">
        <ele>438.7</ele>
        <time>2024-11-03T11:07:07Z</time>
      </trkpt>
      <trkpt lat="43.49406" lon="6.91252">
        <ele>438.6</ele>
        <time>2024-11-03T11:07:08Z</time>
      </trkpt>
      <trkpt lat="43.49407" lon="6.91254">
        <ele>438.2</ele>
        <time>2024-11-03T11:07:16Z</time>
      </trkpt>
      <trkpt lat="43.49408" lon="6.91254">
        <ele>438.2</ele>
        <time>2024-11-03T11:07:18Z</time>
      </trkpt>
      <trkpt lat="43.49408" lon="6.91255">
        <ele>438.3</ele>
        <time>2024-11-03T11:07:21Z</time>
      </trkpt>
      <trkpt lat="43.49408" lon="6.91255">
        <ele>438.4</ele>
        <time>2024-11-03T11:07:22Z</time>
      </trkpt>
      <trkpt lat="43.49408" lon="6.91255">
        <ele>438.4</ele>
        <time>2024-11-03T11:07:23Z</time>
      </trkpt>
      <trkpt lat="43.49408" lon="6.91255">
        <ele>438.5</ele>
        <time>2024-11-03T11:07:25Z</time>
      </trkpt>
      <trkpt lat="43.49408" lon="6.91256">
        <ele>438.8</ele>
        <time>2024-11-03T11:07:33Z</time>
      </trkpt>
      <trkpt lat="43.49409" lon="6.91256">
        <ele>438.8</ele>
        <time>2024-11-03T11:07:34Z</time>
      </trkpt>
      <trkpt lat="43.49409" lon="6.91256">
        <ele>438.8</ele>
        <time>2024-11-03T11:07:37Z</time>
      </trkpt>
      <trkpt lat="43.49409" lon="6.91256">
        <ele>438.7</ele>
        <time>2024-11-03T11:07:38Z</time>
      </trkpt>
      <trkpt lat="43.49408" lon="6.91259">
        <ele>438.2</ele>
        <time>2024-11-03T11:07:50Z</time>
      </trkpt>
      <trkpt lat="43.49408" lon="6.91259">
        <ele>438.2</ele>
        <time>2024-11-03T11:07:59Z</time>
      </trkpt>
      <trkpt lat="43.49408" lon="6.91259">
        <ele>438.2</ele>
        <time>2024-11-03T11:08:00Z</time>
      </trkpt>
      <trkpt lat="43.49408" lon="6.91259">
        <ele>438.2</ele>
        <time>2024-11-03T11:08:05Z</time>
      </trkpt>
      <trkpt lat="43.49408" lon="6.91259">
        <ele>438.2</ele>
        <time>2024-11-03T11:08:06Z</time>
      </trkpt>
      <trkpt lat="43.49408" lon="6.91258">
        <ele>438.4</ele>
        <time>2024-11-03T11:08:12Z</time>
      </trkpt>
      <trkpt lat="43.49408" lon="6.91258">
        <ele>438.4</ele>
        <time>2024-11-03T11:08:13Z</time>
      </trkpt>
      <trkpt lat="43.49408" lon="6.91258">
        <ele>438.4</ele>
        <time>2024-11-03T11:08:18Z</time>
      </trkpt>
      <trkpt lat="43.49408" lon="6.91258">
        <ele>438.4</ele>
        <time>2024-11-03T11:08:19Z</time>
      </trkpt>
      <trkpt lat="43.49408" lon="6.91258">
        <ele>438.2</ele>
        <time>2024-11-03T11:09:13Z</time>
      </trkpt>
      <trkpt lat="43.49408" lon="6.91258">
        <ele>438.4</ele>
        <time>2024-11-03T11:09:14Z</time>
      </trkpt>
      <trkpt lat="43.49408" lon="6.91258">
        <ele>438.3</ele>
        <time>2024-11-03T11:09:15Z</time>
      </trkpt>
      <trkpt lat="43.49408" lon="6.91258">
        <ele>438.3</ele>
        <time>2024-11-03T11:09:16Z</time>
      </trkpt>
      <trkpt lat="43.49408" lon="6.91258">
        <ele>438.3</ele>
        <time>2024-11-03T11:09:17Z</time>
      </trkpt>
      <trkpt lat="43.49408" lon="6.91258">
        <ele>438.2</ele>
        <time>2024-11-03T11:09:18Z</time>
      </trkpt>
      <trkpt lat="43.49408" lon="6.91258">
        <ele>438.2</ele>
        <time>2024-11-03T11:09:20Z</time>
      </trkpt>
      <trkpt lat="43.49408" lon="6.91258">
        <ele>438.3</ele>
        <time>2024-11-03T11:09:21Z</time>
      </trkpt>
      <trkpt lat="43.49407" lon="6.91258">
        <ele>438.2</ele>
        <time>2024-11-03T11:09:22Z</time>
      </trkpt>
      <trkpt lat="43.49407" lon="6.91258">
        <ele>438</ele>
        <time>2024-11-03T11:09:24Z</time>
      </trkpt>
      <trkpt lat="43.49407" lon="6.91257">
        <ele>437.8</ele>
        <time>2024-11-03T11:09:30Z</time>
      </trkpt>
      <trkpt lat="43.49407" lon="6.91257">
        <ele>437.7</ele>
        <time>2024-11-03T11:09:31Z</time>
      </trkpt>
      <trkpt lat="43.49407" lon="6.91257">
        <ele>437.6</ele>
        <time>2024-11-03T11:09:38Z</time>
      </trkpt>
      <trkpt lat="43.49407" lon="6.91257">
        <ele>437.6</ele>
        <time>2024-11-03T11:09:39Z</time>
      </trkpt>
      <trkpt lat="43.49408" lon="6.91257">
        <ele>437.6</ele>
        <time>2024-11-03T11:09:44Z</time>
      </trkpt>
      <trkpt lat="43.49409" lon="6.91256">
        <ele>437.8</ele>
        <time>2024-11-03T11:09:48Z</time>
      </trkpt>
      <trkpt lat="43.49409" lon="6.91256">
        <ele>437.8</ele>
        <time>2024-11-03T11:09:49Z</time>
      </trkpt>
      <trkpt lat="43.49408" lon="6.91256">
        <ele>437.9</ele>
        <time>2024-11-03T11:09:54Z</time>
      </trkpt>
      <trkpt lat="43.49408" lon="6.91256">
        <ele>437.9</ele>
        <time>2024-11-03T11:09:58Z</time>
      </trkpt>
      <trkpt lat="43.49417" lon="6.9126">
        <ele>437.9</ele>
        <time>2024-11-03T11:10:30Z</time>
      </trkpt>
      <trkpt lat="43.49419" lon="6.91261">
        <ele>438</ele>
        <time>2024-11-03T11:10:40Z</time>
      </trkpt>
      <trkpt lat="43.49419" lon="6.91261">
        <ele>438</ele>
        <time>2024-11-03T11:10:41Z</time>
      </trkpt>
      <trkpt lat="43.49411" lon="6.91254">
        <ele>437.1</ele>
        <time>2024-11-03T11:10:56Z</time>
      </trkpt>
      <trkpt lat="43.49404" lon="6.91259">
        <ele>436</ele>
        <time>2024-11-03T11:11:44Z</time>
      </trkpt>
      <trkpt lat="43.49405" lon="6.91258">
        <ele>435.9</ele>
        <time>2024-11-03T11:11:45Z</time>
      </trkpt>
      <trkpt lat="43.49395" lon="6.91251">
        <ele>436</ele>
        <time>2024-11-03T11:12:31Z</time>
      </trkpt>
      <trkpt lat="43.49401" lon="6.91262">
        <ele>436.1</ele>
        <time>2024-11-03T11:12:54Z</time>
      </trkpt>
      <trkpt lat="43.49404" lon="6.91259">
        <ele>436</ele>
        <time>2024-11-03T11:13:01Z</time>
      </trkpt>
      <trkpt lat="43.49404" lon="6.91259">
        <ele>436</ele>
        <time>2024-11-03T11:13:02Z</time>
      </trkpt>
      <trkpt lat="43.49406" lon="6.91261">
        <ele>436</ele>
        <time>2024-11-03T11:13:08Z</time>
      </trkpt>
      <trkpt lat="43.49405" lon="6.91261">
        <ele>436</ele>
        <time>2024-11-03T11:13:09Z</time>
      </trkpt>
      <trkpt lat="43.4941" lon="6.91265">
        <ele>436.5</ele>
        <time>2024-11-03T11:13:23Z</time>
      </trkpt>
      <trkpt lat="43.4941" lon="6.91265">
        <ele>436.6</ele>
        <time>2024-11-03T11:13:24Z</time>
      </trkpt>
      <trkpt lat="43.49408" lon="6.91262">
        <ele>436.3</ele>
        <time>2024-11-03T11:13:29Z</time>
      </trkpt>
      <trkpt lat="43.49406" lon="6.91263">
        <ele>436.2</ele>
        <time>2024-11-03T11:13:30Z</time>
      </trkpt>
      <trkpt lat="43.49403" lon="6.91264">
        <ele>435.9</ele>
        <time>2024-11-03T11:13:37Z</time>
      </trkpt>
      <trkpt lat="43.49404" lon="6.91264">
        <ele>436</ele>
        <time>2024-11-03T11:13:38Z</time>
      </trkpt>
      <trkpt lat="43.49406" lon="6.91256">
        <ele>436.1</ele>
        <time>2024-11-03T11:13:51Z</time>
      </trkpt>
      <trkpt lat="43.49406" lon="6.91257">
        <ele>436</ele>
        <time>2024-11-03T11:13:52Z</time>
      </trkpt>
      <trkpt lat="43.49406" lon="6.91257">
        <ele>436.2</ele>
        <time>2024-11-03T11:14:00Z</time>
      </trkpt>
      <trkpt lat="43.49406" lon="6.91257">
        <ele>436.3</ele>
        <time>2024-11-03T11:14:01Z</time>
      </trkpt>
      <trkpt lat="43.49397" lon="6.91257">
        <ele>435.6</ele>
        <time>2024-11-03T11:14:23Z</time>
      </trkpt>
      <trkpt lat="43.49406" lon="6.91252">
        <ele>436.6</ele>
        <time>2024-11-03T11:14:55Z</time>
      </trkpt>
      <trkpt lat="43.49415" lon="6.91254">
        <ele>436.8</ele>
        <time>2024-11-03T11:15:01Z</time>
      </trkpt>
      <trkpt lat="43.49413" lon="6.91259">
        <ele>439.3</ele>
        <time>2024-11-03T11:15:26Z</time>
      </trkpt>
      <trkpt lat="43.49414" lon="6.91259">
        <ele>439.4</ele>
        <time>2024-11-03T11:15:27Z</time>
      </trkpt>
      <trkpt lat="43.49414" lon="6.91258">
        <ele>439.4</ele>
        <time>2024-11-03T11:15:29Z</time>
      </trkpt>
      <trkpt lat="43.49415" lon="6.91258">
        <ele>439.6</ele>
        <time>2024-11-03T11:15:30Z</time>
      </trkpt>
      <trkpt lat="43.49413" lon="6.91255">
        <ele>440</ele>
        <time>2024-11-03T11:15:57Z</time>
      </trkpt>
      <trkpt lat="43.49413" lon="6.91255">
        <ele>439.9</ele>
        <time>2024-11-03T11:15:58Z</time>
      </trkpt>
      <trkpt lat="43.49411" lon="6.91253">
        <ele>440</ele>
        <time>2024-11-03T11:16:06Z</time>
      </trkpt>
      <trkpt lat="43.49411" lon="6.91253">
        <ele>440</ele>
        <time>2024-11-03T11:16:07Z</time>
      </trkpt>
      <trkpt lat="43.49401" lon="6.91253">
        <ele>442.5</ele>
        <time>2024-11-03T11:16:54Z</time>
      </trkpt>
      <trkpt lat="43.49402" lon="6.91252">
        <ele>442.7</ele>
        <time>2024-11-03T11:16:56Z</time>
      </trkpt>
      <trkpt lat="43.49402" lon="6.91253">
        <ele>442.7</ele>
        <time>2024-11-03T11:16:57Z</time>
      </trkpt>
      <trkpt lat="43.49405" lon="6.91252">
        <ele>443.7</ele>
        <time>2024-11-03T11:17:07Z</time>
      </trkpt>
      <trkpt lat="43.49406" lon="6.91253">
        <ele>443.8</ele>
        <time>2024-11-03T11:17:08Z</time>
      </trkpt>
      <trkpt lat="43.49408" lon="6.91251">
        <ele>444</ele>
        <time>2024-11-03T11:17:20Z</time>
      </trkpt>
      <trkpt lat="43.49408" lon="6.91251">
        <ele>443.8</ele>
        <time>2024-11-03T11:17:21Z</time>
      </trkpt>
      <trkpt lat="43.49406" lon="6.91255">
        <ele>441.2</ele>
        <time>2024-11-03T11:18:13Z</time>
      </trkpt>
      <trkpt lat="43.49407" lon="6.91256">
        <ele>441.1</ele>
        <time>2024-11-03T11:18:14Z</time>
      </trkpt>
      <trkpt lat="43.4941" lon="6.91258">
        <ele>438.2</ele>
        <time>2024-11-03T11:18:33Z</time>
      </trkpt>
      <trkpt lat="43.4941" lon="6.91258">
        <ele>438.2</ele>
        <time>2024-11-03T11:18:34Z</time>
      </trkpt>
      <trkpt lat="43.49399" lon="6.91261">
        <ele>438.7</ele>
        <time>2024-11-03T11:18:44Z</time>
      </trkpt>
      <trkpt lat="43.4939" lon="6.9126">
        <ele>438.3</ele>
        <time>2024-11-03T11:18:50Z</time>
      </trkpt>
      <trkpt lat="43.4938" lon="6.9126">
        <ele>437.4</ele>
        <time>2024-11-03T11:18:57Z</time>
      </trkpt>
      <trkpt lat="43.49373" lon="6.91263">
        <ele>436.9</ele>
        <time>2024-11-03T11:19:07Z</time>
      </trkpt>
      <trkpt lat="43.49374" lon="6.91263">
        <ele>436.8</ele>
        <time>2024-11-03T11:19:08Z</time>
      </trkpt>
      <trkpt lat="43.49383" lon="6.91258">
        <ele>437.2</ele>
        <time>2024-11-03T11:19:16Z</time>
      </trkpt>
      <trkpt lat="43.49393" lon="6.91252">
        <ele>437.1</ele>
        <time>2024-11-03T11:19:22Z</time>
      </trkpt>
      <trkpt lat="43.49401" lon="6.91245">
        <ele>438.7</ele>
        <time>2024-11-03T11:19:30Z</time>
      </trkpt>
      <trkpt lat="43.49405" lon="6.91234">
        <ele>439.7</ele>
        <time>2024-11-03T11:19:38Z</time>
      </trkpt>
      <trkpt lat="43.49409" lon="6.9123">
        <ele>440.4</ele>
        <time>2024-11-03T11:19:44Z</time>
      </trkpt>
      <trkpt lat="43.49409" lon="6.9123">
        <ele>440.5</ele>
        <time>2024-11-03T11:19:45Z</time>
      </trkpt>
      <trkpt lat="43.49399" lon="6.91238">
        <ele>440.8</ele>
        <time>2024-11-03T11:19:49Z</time>
      </trkpt>
      <trkpt lat="43.49401" lon="6.91252">
        <ele>439.6</ele>
        <time>2024-11-03T11:20:02Z</time>
      </trkpt>
      <trkpt lat="43.49404" lon="6.91255">
        <ele>439.8</ele>
        <time>2024-11-03T11:20:07Z</time>
      </trkpt>
      <trkpt lat="43.49404" lon="6.91256">
        <ele>439.7</ele>
        <time>2024-11-03T11:20:08Z</time>
      </trkpt>
      <trkpt lat="43.49405" lon="6.91257">
        <ele>439.1</ele>
        <time>2024-11-03T11:20:16Z</time>
      </trkpt>
      <trkpt lat="43.49406" lon="6.91257">
        <ele>439.2</ele>
        <time>2024-11-03T11:20:17Z</time>
      </trkpt>
      <trkpt lat="43.49407" lon="6.9126">
        <ele>439.3</ele>
        <time>2024-11-03T11:20:22Z</time>
      </trkpt>
      <trkpt lat="43.49407" lon="6.9126">
        <ele>439.2</ele>
        <time>2024-11-03T11:20:23Z</time>
      </trkpt>
      <trkpt lat="43.49402" lon="6.91258">
        <ele>435.9</ele>
        <time>2024-11-03T11:21:08Z</time>
      </trkpt>
      <trkpt lat="43.49403" lon="6.91258">
        <ele>435.9</ele>
        <time>2024-11-03T11:21:09Z</time>
      </trkpt>
      <trkpt lat="43.49406" lon="6.91256">
        <ele>435.1</ele>
        <time>2024-11-03T11:21:18Z</time>
      </trkpt>
      <trkpt lat="43.49406" lon="6.91257">
        <ele>435</ele>
        <time>2024-11-03T11:21:19Z</time>
      </trkpt>
      <trkpt lat="43.49403" lon="6.91258">
        <ele>434.7</ele>
        <time>2024-11-03T11:21:24Z</time>
      </trkpt>
      <trkpt lat="43.49403" lon="6.91256">
        <ele>434.8</ele>
        <time>2024-11-03T11:21:25Z</time>
      </trkpt>
      <trkpt lat="43.49408" lon="6.91245">
        <ele>434.2</ele>
        <time>2024-11-03T11:22:10Z</time>
      </trkpt>
      <trkpt lat="43.49403" lon="6.91253">
        <ele>433.5</ele>
        <time>2024-11-03T11:22:34Z</time>
      </trkpt>
      <trkpt lat="43.49402" lon="6.91252">
        <ele>433.5</ele>
        <time>2024-11-03T11:22:35Z</time>
      </trkpt>
      <trkpt lat="43.49408" lon="6.91241">
        <ele>431.4</ele>
        <time>2024-11-03T11:22:45Z</time>
      </trkpt>
      <trkpt lat="43.49411" lon="6.91227">
        <ele>428.1</ele>
        <time>2024-11-03T11:22:58Z</time>
      </trkpt>
      <trkpt lat="43.49409" lon="6.91239">
        <ele>427.3</ele>
        <time>2024-11-03T11:23:21Z</time>
      </trkpt>
      <trkpt lat="43.49412" lon="6.91242">
        <ele>427.4</ele>
        <time>2024-11-03T11:23:26Z</time>
      </trkpt>
      <trkpt lat="43.49412" lon="6.91242">
        <ele>427.3</ele>
        <time>2024-11-03T11:23:27Z</time>
      </trkpt>
      <trkpt lat="43.49414" lon="6.9125">
        <ele>427.9</ele>
        <time>2024-11-03T11:23:42Z</time>
      </trkpt>
      <trkpt lat="43.49413" lon="6.9125">
        <ele>428</ele>
        <time>2024-11-03T11:23:43Z</time>
      </trkpt>
      <trkpt lat="43.49406" lon="6.91258">
        <ele>428.5</ele>
        <time>2024-11-03T11:24:08Z</time>
      </trkpt>
      <trkpt lat="43.49417" lon="6.91255">
        <ele>427.8</ele>
        <time>2024-11-03T11:24:47Z</time>
      </trkpt>
      <trkpt lat="43.49421" lon="6.91255">
        <ele>427.2</ele>
        <time>2024-11-03T11:24:54Z</time>
      </trkpt>
      <trkpt lat="43.49419" lon="6.91257">
        <ele>427.1</ele>
        <time>2024-11-03T11:24:55Z</time>
      </trkpt>
      <trkpt lat="43.49409" lon="6.91253">
        <ele>426.9</ele>
        <time>2024-11-03T11:25:04Z</time>
      </trkpt>
      <trkpt lat="43.49408" lon="6.91266">
        <ele>427.5</ele>
        <time>2024-11-03T11:25:33Z</time>
      </trkpt>
      <trkpt lat="43.49398" lon="6.91263">
        <ele>427</ele>
        <time>2024-11-03T11:25:41Z</time>
      </trkpt>
      <trkpt lat="43.49402" lon="6.91255">
        <ele>427.3</ele>
        <time>2024-11-03T11:26:01Z</time>
      </trkpt>
      <trkpt lat="43.49403" lon="6.91256">
        <ele>427.3</ele>
        <time>2024-11-03T11:26:02Z</time>
      </trkpt>
      <trkpt lat="43.49394" lon="6.9125">
        <ele>427.3</ele>
        <time>2024-11-03T11:26:21Z</time>
      </trkpt>
      <trkpt lat="43.49385" lon="6.91242">
        <ele>427.3</ele>
        <time>2024-11-03T11:26:29Z</time>
      </trkpt>
      <trkpt lat="43.49396" lon="6.91241">
        <ele>427.2</ele>
        <time>2024-11-03T11:26:39Z</time>
      </trkpt>
      <trkpt lat="43.4939" lon="6.91255">
        <ele>427</ele>
        <time>2024-11-03T11:26:55Z</time>
      </trkpt>
      <trkpt lat="43.49381" lon="6.91255">
        <ele>426.9</ele>
        <time>2024-11-03T11:27:11Z</time>
      </trkpt>
      <trkpt lat="43.4939" lon="6.91256">
        <ele>427.1</ele>
        <time>2024-11-03T11:27:35Z</time>
      </trkpt>
      <trkpt lat="43.494" lon="6.91255">
        <ele>426.9</ele>
        <time>2024-11-03T11:27:40Z</time>
      </trkpt>
      <trkpt lat="43.49409" lon="6.91261">
        <ele>426.8</ele>
        <time>2024-11-03T11:27:54Z</time>
      </trkpt>
      <trkpt lat="43.49409" lon="6.91274">
        <ele>426.7</ele>
        <time>2024-11-03T11:27:59Z</time>
      </trkpt>
      <trkpt lat="43.494" lon="6.91282">
        <ele>426.9</ele>
        <time>2024-11-03T11:28:04Z</time>
      </trkpt>
      <trkpt lat="43.49394" lon="6.91283">
        <ele>427.1</ele>
        <time>2024-11-03T11:28:12Z</time>
      </trkpt>
      <trkpt lat="43.49394" lon="6.91282">
        <ele>427.1</ele>
        <time>2024-11-03T11:28:13Z</time>
      </trkpt>
      <trkpt lat="43.4939" lon="6.9128">
        <ele>426.9</ele>
        <time>2024-11-03T11:28:24Z</time>
      </trkpt>
      <trkpt lat="43.49388" lon="6.9128">
        <ele>426.9</ele>
        <time>2024-11-03T11:28:25Z</time>
      </trkpt>
      <trkpt lat="43.49392" lon="6.91269">
        <ele>426.9</ele>
        <time>2024-11-03T11:28:36Z</time>
      </trkpt>
      <trkpt lat="43.494" lon="6.91261">
        <ele>426.6</ele>
        <time>2024-11-03T11:28:46Z</time>
      </trkpt>
      <trkpt lat="43.4941" lon="6.9126">
        <ele>426.5</ele>
        <time>2024-11-03T11:28:53Z</time>
      </trkpt>
      <trkpt lat="43.49413" lon="6.91272">
        <ele>426.6</ele>
        <time>2024-11-03T11:28:58Z</time>
      </trkpt>
      <trkpt lat="43.49421" lon="6.91263">
        <ele>426.7</ele>
        <time>2024-11-03T11:29:06Z</time>
      </trkpt>
      <trkpt lat="43.49424" lon="6.9125">
        <ele>426.3</ele>
        <time>2024-11-03T11:29:12Z</time>
      </trkpt>
      <trkpt lat="43.49426" lon="6.91246">
        <ele>426.5</ele>
        <time>2024-11-03T11:29:16Z</time>
      </trkpt>
      <trkpt lat="43.49427" lon="6.91248">
        <ele>426.6</ele>
        <time>2024-11-03T11:29:17Z</time>
      </trkpt>
      <trkpt lat="43.49427" lon="6.91248">
        <ele>426.7</ele>
        <time>2024-11-03T11:29:18Z</time>
      </trkpt>
      <trkpt lat="43.49427" lon="6.91249">
        <ele>426.8</ele>
        <time>2024-11-03T11:29:19Z</time>
      </trkpt>
      <trkpt lat="43.49419" lon="6.91255">
        <ele>427</ele>
        <time>2024-11-03T11:29:25Z</time>
      </trkpt>
      <trkpt lat="43.4941" lon="6.91262">
        <ele>427.1</ele>
        <time>2024-11-03T11:29:38Z</time>
      </trkpt>
      <trkpt lat="43.494" lon="6.91263">
        <ele>427</ele>
        <time>2024-11-03T11:29:42Z</time>
      </trkpt>
      <trkpt lat="43.49409" lon="6.91252">
        <ele>426.1</ele>
        <time>2024-11-03T11:30:16Z</time>
      </trkpt>
      <trkpt lat="43.49406" lon="6.91249">
        <ele>426.7</ele>
        <time>2024-11-03T11:30:43Z</time>
      </trkpt>
      <trkpt lat="43.49406" lon="6.9125">
        <ele>426.7</ele>
        <time>2024-11-03T11:30:44Z</time>
      </trkpt>
      <trkpt lat="43.49407" lon="6.9125">
        <ele>426.6</ele>
        <time>2024-11-03T11:30:46Z</time>
      </trkpt>
      <trkpt lat="43.49408" lon="6.9125">
        <ele>426.7</ele>
        <time>2024-11-03T11:30:47Z</time>
      </trkpt>
      <trkpt lat="43.49409" lon="6.91261">
        <ele>426.8</ele>
        <time>2024-11-03T11:31:12Z</time>
      </trkpt>
      <trkpt lat="43.49408" lon="6.91261">
        <ele>426.8</ele>
        <time>2024-11-03T11:31:13Z</time>
      </trkpt>
      <trkpt lat="43.494" lon="6.91257">
        <ele>429</ele>
        <time>2024-11-03T11:31:46Z</time>
      </trkpt>
      <trkpt lat="43.49399" lon="6.91257">
        <ele>428.2</ele>
        <time>2024-11-03T11:31:50Z</time>
      </trkpt>
      <trkpt lat="43.49398" lon="6.91256">
        <ele>428.2</ele>
        <time>2024-11-03T11:31:51Z</time>
      </trkpt>
      <trkpt lat="43.49398" lon="6.91256">
        <ele>428.2</ele>
        <time>2024-11-03T11:31:52Z</time>
      </trkpt>
      <trkpt lat="43.49398" lon="6.91256">
        <ele>428.1</ele>
        <time>2024-11-03T11:31:53Z</time>
      </trkpt>
      <trkpt lat="43.49406" lon="6.91266">
        <ele>428.4</ele>
        <time>2024-11-03T11:32:37Z</time>
      </trkpt>
      <trkpt lat="43.49415" lon="6.91263">
        <ele>428.6</ele>
        <time>2024-11-03T11:32:43Z</time>
      </trkpt>
      <trkpt lat="43.49426" lon="6.91257">
        <ele>429.2</ele>
        <time>2024-11-03T11:32:53Z</time>
      </trkpt>
      <trkpt lat="43.49424" lon="6.9127">
        <ele>429.1</ele>
        <time>2024-11-03T11:33:04Z</time>
      </trkpt>
      <trkpt lat="43.49416" lon="6.91277">
        <ele>429.2</ele>
        <time>2024-11-03T11:33:09Z</time>
      </trkpt>
      <trkpt lat="43.49407" lon="6.91271">
        <ele>429.3</ele>
        <time>2024-11-03T11:33:16Z</time>
      </trkpt>
      <trkpt lat="43.49411" lon="6.91259">
        <ele>428.6</ele>
        <time>2024-11-03T11:33:35Z</time>
      </trkpt>
      <trkpt lat="43.49412" lon="6.91256">
        <ele>428.5</ele>
        <time>2024-11-03T11:33:38Z</time>
      </trkpt>
      <trkpt lat="43.4941" lon="6.91255">
        <ele>428.5</ele>
        <time>2024-11-03T11:33:40Z</time>
      </trkpt>
      <trkpt lat="43.49399" lon="6.91259">
        <ele>428.8</ele>
        <time>2024-11-03T11:33:50Z</time>
      </trkpt>
      <trkpt lat="43.49405" lon="6.91256">
        <ele>432.3</ele>
        <time>2024-11-03T11:34:16Z</time>
      </trkpt>
      <trkpt lat="43.49405" lon="6.91256">
        <ele>432.6</ele>
        <time>2024-11-03T11:34:17Z</time>
      </trkpt>
      <trkpt lat="43.49405" lon="6.91255">
        <ele>432.8</ele>
        <time>2024-11-03T11:34:18Z</time>
      </trkpt>
      <trkpt lat="43.49405" lon="6.91256">
        <ele>432.8</ele>
        <time>2024-11-03T11:34:19Z</time>
      </trkpt>
      <trkpt lat="43.49406" lon="6.91256">
        <ele>434</ele>
        <time>2024-11-03T11:34:24Z</time>
      </trkpt>
      <trkpt lat="43.49406" lon="6.91257">
        <ele>433.9</ele>
        <time>2024-11-03T11:34:42Z</time>
      </trkpt>
      <trkpt lat="43.49406" lon="6.91257">
        <ele>434.1</ele>
        <time>2024-11-03T11:34:45Z</time>
      </trkpt>
      <trkpt lat="43.49406" lon="6.91257">
        <ele>434.3</ele>
        <time>2024-11-03T11:34:52Z</time>
      </trkpt>
      <trkpt lat="43.49406" lon="6.91257">
        <ele>434.4</ele>
        <time>2024-11-03T11:34:53Z</time>
      </trkpt>
      <trkpt lat="43.49407" lon="6.91257">
        <ele>434.5</ele>
        <time>2024-11-03T11:35:00Z</time>
      </trkpt>
      <trkpt lat="43.49407" lon="6.91257">
        <ele>434.5</ele>
        <time>2024-11-03T11:35:01Z</time>
      </trkpt>
      <trkpt lat="43.49406" lon="6.91257">
        <ele>434.4</ele>
        <time>2024-11-03T11:35:03Z</time>
      </trkpt>
      <trkpt lat="43.49408" lon="6.91259">
        <ele>432.7</ele>
        <time>2024-11-03T11:35:21Z</time>
      </trkpt>
      <trkpt lat="43.49408" lon="6.9126">
        <ele>432.5</ele>
        <time>2024-11-03T11:35:22Z</time>
      </trkpt>
      <trkpt lat="43.49411" lon="6.9126">
        <ele>432.3</ele>
        <time>2024-11-03T11:35:38Z</time>
      </trkpt>
      <trkpt lat="43.49411" lon="6.9126">
        <ele>432.3</ele>
        <time>2024-11-03T11:35:39Z</time>
      </trkpt>
      <trkpt lat="43.49411" lon="6.9126">
        <ele>432.3</ele>
        <time>2024-11-03T11:35:40Z</time>
      </trkpt>
      <trkpt lat="43.49411" lon="6.9126">
        <ele>432.3</ele>
        <time>2024-11-03T11:35:41Z</time>
      </trkpt>
      <trkpt lat="43.4941" lon="6.91256">
        <ele>431.9</ele>
        <time>2024-11-03T11:36:15Z</time>
      </trkpt>
      <trkpt lat="43.49409" lon="6.91256">
        <ele>431.8</ele>
        <time>2024-11-03T11:36:16Z</time>
      </trkpt>
      <trkpt lat="43.49412" lon="6.91259">
        <ele>430.8</ele>
        <time>2024-11-03T11:36:39Z</time>
      </trkpt>
      <trkpt lat="43.49412" lon="6.91259">
        <ele>430.8</ele>
        <time>2024-11-03T11:36:40Z</time>
      </trkpt>
      <trkpt lat="43.49408" lon="6.91258">
        <ele>431.6</ele>
        <time>2024-11-03T11:36:53Z</time>
      </trkpt>
      <trkpt lat="43.49408" lon="6.91258">
        <ele>431.8</ele>
        <time>2024-11-03T11:37:06Z</time>
      </trkpt>
      <trkpt lat="43.49408" lon="6.91258">
        <ele>431.8</ele>
        <time>2024-11-03T11:37:07Z</time>
      </trkpt>
      <trkpt lat="43.49408" lon="6.91258">
        <ele>432.1</ele>
        <time>2024-11-03T11:37:37Z</time>
      </trkpt>
      <trkpt lat="43.49408" lon="6.91258">
        <ele>432.1</ele>
        <time>2024-11-03T11:37:38Z</time>
      </trkpt>
      <trkpt lat="43.49408" lon="6.91258">
        <ele>432.2</ele>
        <time>2024-11-03T11:37:58Z</time>
      </trkpt>
      <trkpt lat="43.49408" lon="6.91258">
        <ele>432.2</ele>
        <time>2024-11-03T11:37:59Z</time>
      </trkpt>
      <trkpt lat="43.49408" lon="6.91258">
        <ele>432.8</ele>
        <time>2024-11-03T11:39:06Z</time>
      </trkpt>
      <trkpt lat="43.49408" lon="6.91258">
        <ele>432.8</ele>
        <time>2024-11-03T11:39:07Z</time>
      </trkpt>
      <trkpt lat="43.49408" lon="6.91258">
        <ele>433.5</ele>
        <time>2024-11-03T11:39:51Z</time>
      </trkpt>
      <trkpt lat="43.49408" lon="6.91258">
        <ele>433.9</ele>
        <time>2024-11-03T11:39:52Z</time>
      </trkpt>
      <trkpt lat="43.49408" lon="6.91258">
        <ele>434.2</ele>
        <time>2024-11-03T11:40:04Z</time>
      </trkpt>
      <trkpt lat="43.49408" lon="6.91258">
        <ele>434.2</ele>
        <time>2024-11-03T11:40:05Z</time>
      </trkpt>
      <trkpt lat="43.49408" lon="6.91258">
        <ele>434.3</ele>
        <time>2024-11-03T11:40:09Z</time>
      </trkpt>
      <trkpt lat="43.49407" lon="6.91258">
        <ele>434.5</ele>
        <time>2024-11-03T11:40:13Z</time>
      </trkpt>
      <trkpt lat="43.49407" lon="6.91258">
        <ele>434.4</ele>
        <time>2024-11-03T11:40:14Z</time>
      </trkpt>
      <trkpt lat="43.49404" lon="6.91258">
        <ele>434.8</ele>
        <time>2024-11-03T11:40:20Z</time>
      </trkpt>
      <trkpt lat="43.49405" lon="6.91257">
        <ele>434.9</ele>
        <time>2024-11-03T11:40:43Z</time>
      </trkpt>
      <trkpt lat="43.49405" lon="6.91257">
        <ele>435</ele>
        <time>2024-11-03T11:40:45Z</time>
      </trkpt>
      <trkpt lat="43.49405" lon="6.91257">
        <ele>435.1</ele>
        <time>2024-11-03T11:40:57Z</time>
      </trkpt>
      <trkpt lat="43.49405" lon="6.91257">
        <ele>435.1</ele>
        <time>2024-11-03T11:40:58Z</time>
      </trkpt>
      <trkpt lat="43.49405" lon="6.91257">
        <ele>435.1</ele>
        <time>2024-11-03T11:41:31Z</time>
      </trkpt>
      <trkpt lat="43.49405" lon="6.91257">
        <ele>435.1</ele>
        <time>2024-11-03T11:41:32Z</time>
      </trkpt>
      <trkpt lat="43.49405" lon="6.91257">
        <ele>435.2</ele>
        <time>2024-11-03T11:41:48Z</time>
      </trkpt>
      <trkpt lat="43.49405" lon="6.91257">
        <ele>435.2</ele>
        <time>2024-11-03T11:41:49Z</time>
      </trkpt>
      <trkpt lat="43.49406" lon="6.91257">
        <ele>435.2</ele>
        <time>2024-11-03T11:42:30Z</time>
      </trkpt>
      <trkpt lat="43.49406" lon="6.91257">
        <ele>435.2</ele>
        <time>2024-11-03T11:42:31Z</time>
      </trkpt>
      <trkpt lat="43.49406" lon="6.91257">
        <ele>435.4</ele>
        <time>2024-11-03T11:43:03Z</time>
      </trkpt>
      <trkpt lat="43.49406" lon="6.91257">
        <ele>435.6</ele>
        <time>2024-11-03T11:43:04Z</time>
      </trkpt>
      <trkpt lat="43.49406" lon="6.91257">
        <ele>435.8</ele>
        <time>2024-11-03T11:43:09Z</time>
      </trkpt>
      <trkpt lat="43.49406" lon="6.91257">
        <ele>435.8</ele>
        <time>2024-11-03T11:43:10Z</time>
      </trkpt>
      <trkpt lat="43.49406" lon="6.91257">
        <ele>435.9</ele>
        <time>2024-11-03T11:43:43Z</time>
      </trkpt>
      <trkpt lat="43.49406" lon="6.91257">
        <ele>435.9</ele>
        <time>2024-11-03T11:43:44Z</time>
      </trkpt>
      <trkpt lat="43.49406" lon="6.91257">
        <ele>436.1</ele>
        <time>2024-11-03T11:44:14Z</time>
      </trkpt>
      <trkpt lat="43.49406" lon="6.91257">
        <ele>436.1</ele>
        <time>2024-11-03T11:44:15Z</time>
      </trkpt>
      <trkpt lat="43.49406" lon="6.91257">
        <ele>436.1</ele>
        <time>2024-11-03T11:44:16Z</time>
      </trkpt>
      <trkpt lat="43.49406" lon="6.91257">
        <ele>436.1</ele>
        <time>2024-11-03T11:44:17Z</time>
      </trkpt>
      <trkpt lat="43.49407" lon="6.91257">
        <ele>436.3</ele>
        <time>2024-11-03T11:44:20Z</time>
      </trkpt>
      <trkpt lat="43.49407" lon="6.91257">
        <ele>436.6</ele>
        <time>2024-11-03T11:44:22Z</time>
      </trkpt>
      <trkpt lat="43.49407" lon="6.91256">
        <ele>436.7</ele>
        <time>2024-11-03T11:44:24Z</time>
      </trkpt>
      <trkpt lat="43.49407" lon="6.91256">
        <ele>436.8</ele>
        <time>2024-11-03T11:44:25Z</time>
      </trkpt>
      <trkpt lat="43.49407" lon="6.91256">
        <ele>436.8</ele>
        <time>2024-11-03T11:44:33Z</time>
      </trkpt>
      <trkpt lat="43.49407" lon="6.91256">
        <ele>436.8</ele>
        <time>2024-11-03T11:44:34Z</time>
      </trkpt>
      <trkpt lat="43.49407" lon="6.91256">
        <ele>437</ele>
        <time>2024-11-03T11:44:41Z</time>
      </trkpt>
      <trkpt lat="43.49407" lon="6.91256">
        <ele>437</ele>
        <time>2024-11-03T11:44:42Z</time>
      </trkpt>
      <trkpt lat="43.49407" lon="6.91256">
        <ele>437.3</ele>
        <time>2024-11-03T11:46:03Z</time>
      </trkpt>
      <trkpt lat="43.49407" lon="6.91256">
        <ele>437.3</ele>
        <time>2024-11-03T11:46:05Z</time>
      </trkpt>
      <trkpt lat="43.49407" lon="6.91256">
        <ele>437.4</ele>
        <time>2024-11-03T11:46:07Z</time>
      </trkpt>
      <trkpt lat="43.49406" lon="6.91255">
        <ele>437.5</ele>
        <time>2024-11-03T11:46:12Z</time>
      </trkpt>
      <trkpt lat="43.49406" lon="6.91255">
        <ele>437.5</ele>
        <time>2024-11-03T11:46:26Z</time>
      </trkpt>
      <trkpt lat="43.49405" lon="6.91255">
        <ele>437.4</ele>
        <time>2024-11-03T11:46:33Z</time>
      </trkpt>
      <trkpt lat="43.49405" lon="6.91255">
        <ele>437.5</ele>
        <time>2024-11-03T11:46:37Z</time>
      </trkpt>
      <trkpt lat="43.49405" lon="6.91255">
        <ele>437.4</ele>
        <time>2024-11-03T11:46:39Z</time>
      </trkpt>
      <trkpt lat="43.49405" lon="6.91255">
        <ele>437.3</ele>
        <time>2024-11-03T11:46:42Z</time>
      </trkpt>
      <trkpt lat="43.49405" lon="6.91255">
        <ele>437.3</ele>
        <time>2024-11-03T11:46:43Z</time>
      </trkpt>
      <trkpt lat="43.49405" lon="6.91255">
        <ele>437.2</ele>
        <time>2024-11-03T11:46:44Z</time>
      </trkpt>
      <trkpt lat="43.49405" lon="6.91255">
        <ele>437.2</ele>
        <time>2024-11-03T11:46:45Z</time>
      </trkpt>
      <trkpt lat="43.49404" lon="6.91255">
        <ele>437.2</ele>
        <time>2024-11-03T11:46:47Z</time>
      </trkpt>
      <trkpt lat="43.49404" lon="6.91255">
        <ele>437.1</ele>
        <time>2024-11-03T11:46:48Z</time>
      </trkpt>
      <trkpt lat="43.49405" lon="6.91255">
        <ele>437.1</ele>
        <time>2024-11-03T11:46:49Z</time>
      </trkpt>
      <trkpt lat="43.49405" lon="6.91257">
        <ele>437.1</ele>
        <time>2024-11-03T11:46:54Z</time>
      </trkpt>
      <trkpt lat="43.49405" lon="6.91257">
        <ele>437</ele>
        <time>2024-11-03T11:46:55Z</time>
      </trkpt>
      <trkpt lat="43.49405" lon="6.91256">
        <ele>437</ele>
        <time>2024-11-03T11:46:57Z</time>
      </trkpt>
      <trkpt lat="43.49405" lon="6.91256">
        <ele>437.1</ele>
        <time>2024-11-03T11:46:58Z</time>
      </trkpt>
      <trkpt lat="43.49404" lon="6.91256">
        <ele>437.1</ele>
        <time>2024-11-03T11:47:01Z</time>
      </trkpt>
      <trkpt lat="43.49404" lon="6.91256">
        <ele>437.1</ele>
        <time>2024-11-03T11:47:02Z</time>
      </trkpt>
      <trkpt lat="43.49404" lon="6.91256">
        <ele>437.2</ele>
        <time>2024-11-03T11:47:08Z</time>
      </trkpt>
      <trkpt lat="43.49404" lon="6.91256">
        <ele>437.2</ele>
        <time>2024-11-03T11:47:10Z</time>
      </trkpt>
      <trkpt lat="43.49403" lon="6.91255">
        <ele>437.4</ele>
        <time>2024-11-03T11:47:16Z</time>
      </trkpt>
      <trkpt lat="43.49403" lon="6.91256">
        <ele>437.5</ele>
        <time>2024-11-03T11:47:19Z</time>
      </trkpt>
      <trkpt lat="43.49403" lon="6.91256">
        <ele>437.5</ele>
        <time>2024-11-03T11:47:21Z</time>
      </trkpt>
      <trkpt lat="43.49403" lon="6.91256">
        <ele>437.6</ele>
        <time>2024-11-03T11:47:23Z</time>
      </trkpt>
      <trkpt lat="43.49403" lon="6.91252">
        <ele>437.6</ele>
        <time>2024-11-03T11:47:34Z</time>
      </trkpt>
      <trkpt lat="43.49403" lon="6.91253">
        <ele>437.6</ele>
        <time>2024-11-03T11:47:36Z</time>
      </trkpt>
      <trkpt lat="43.49403" lon="6.91254">
        <ele>437.4</ele>
        <time>2024-11-03T11:47:39Z</time>
      </trkpt>
      <trkpt lat="43.49403" lon="6.91253">
        <ele>437.4</ele>
        <time>2024-11-03T11:47:42Z</time>
      </trkpt>
      <trkpt lat="43.49403" lon="6.91253">
        <ele>437.3</ele>
        <time>2024-11-03T11:47:43Z</time>
      </trkpt>
      <trkpt lat="43.49403" lon="6.91253">
        <ele>437.4</ele>
        <time>2024-11-03T11:47:44Z</time>
      </trkpt>
      <trkpt lat="43.49402" lon="6.91254">
        <ele>437.2</ele>
        <time>2024-11-03T11:47:48Z</time>
      </trkpt>
      <trkpt lat="43.49402" lon="6.91254">
        <ele>437.3</ele>
        <time>2024-11-03T11:47:51Z</time>
      </trkpt>
      <trkpt lat="43.49402" lon="6.91254">
        <ele>436.9</ele>
        <time>2024-11-03T11:47:56Z</time>
      </trkpt>
      <trkpt lat="43.49402" lon="6.91254">
        <ele>436.9</ele>
        <time>2024-11-03T11:47:57Z</time>
      </trkpt>
      <trkpt lat="43.49402" lon="6.91254">
        <ele>436.9</ele>
        <time>2024-11-03T11:47:58Z</time>
      </trkpt>
      <trkpt lat="43.49402" lon="6.91254">
        <ele>436.9</ele>
        <time>2024-11-03T11:48:02Z</time>
      </trkpt>
      <trkpt lat="43.49402" lon="6.91254">
        <ele>437</ele>
        <time>2024-11-03T11:48:03Z</time>
      </trkpt>
      <trkpt lat="43.49403" lon="6.91255">
        <ele>437</ele>
        <time>2024-11-03T11:48:04Z</time>
      </trkpt>
      <trkpt lat="43.49403" lon="6.91255">
        <ele>437</ele>
        <time>2024-11-03T11:48:05Z</time>
      </trkpt>
      <trkpt lat="43.49403" lon="6.91255">
        <ele>437</ele>
        <time>2024-11-03T11:48:21Z</time>
      </trkpt>
      <trkpt lat="43.49403" lon="6.91255">
        <ele>437</ele>
        <time>2024-11-03T11:48:22Z</time>
      </trkpt>
      <trkpt lat="43.49402" lon="6.91254">
        <ele>437.2</ele>
        <time>2024-11-03T11:48:27Z</time>
      </trkpt>
      <trkpt lat="43.49402" lon="6.91254">
        <ele>437.1</ele>
        <time>2024-11-03T11:48:29Z</time>
      </trkpt>
      <trkpt lat="43.49402" lon="6.91254">
        <ele>437.1</ele>
        <time>2024-11-03T11:48:30Z</time>
      </trkpt>
      <trkpt lat="43.49402" lon="6.91254">
        <ele>437.1</ele>
        <time>2024-11-03T11:48:33Z</time>
      </trkpt>
      <trkpt lat="43.49403" lon="6.91254">
        <ele>437</ele>
        <time>2024-11-03T11:48:35Z</time>
      </trkpt>
      <trkpt lat="43.49406" lon="6.91258">
        <ele>436</ele>
        <time>2024-11-03T11:48:48Z</time>
      </trkpt>
      <trkpt lat="43.49406" lon="6.91257">
        <ele>436.1</ele>
        <time>2024-11-03T11:48:49Z</time>
      </trkpt>
      <trkpt lat="43.49405" lon="6.91257">
        <ele>435.9</ele>
        <time>2024-11-03T11:48:53Z</time>
      </trkpt>
      <trkpt lat="43.49405" lon="6.91257">
        <ele>435.8</ele>
        <time>2024-11-03T11:48:55Z</time>
      </trkpt>
      <trkpt lat="43.49406" lon="6.91257">
        <ele>435.6</ele>
        <time>2024-11-03T11:48:57Z</time>
      </trkpt>
      <trkpt lat="43.49406" lon="6.91257">
        <ele>435.6</ele>
        <time>2024-11-03T11:48:58Z</time>
      </trkpt>
      <trkpt lat="43.49406" lon="6.91257">
        <ele>435.8</ele>
        <time>2024-11-03T11:49:00Z</time>
      </trkpt>
      <trkpt lat="43.49406" lon="6.91256">
        <ele>435.8</ele>
        <time>2024-11-03T11:49:02Z</time>
      </trkpt>
      <trkpt lat="43.49405" lon="6.91256">
        <ele>435.7</ele>
        <time>2024-11-03T11:49:07Z</time>
      </trkpt>
      <trkpt lat="43.49405" lon="6.91256">
        <ele>435.7</ele>
        <time>2024-11-03T11:49:11Z</time>
      </trkpt>
      <trkpt lat="43.49405" lon="6.91256">
        <ele>435.7</ele>
        <time>2024-11-03T11:49:12Z</time>
      </trkpt>
      <trkpt lat="43.49405" lon="6.91257">
        <ele>435.8</ele>
        <time>2024-11-03T11:49:19Z</time>
      </trkpt>
      <trkpt lat="43.49405" lon="6.91257">
        <ele>436.2</ele>
        <time>2024-11-03T11:49:23Z</time>
      </trkpt>
      <trkpt lat="43.49405" lon="6.91258">
        <ele>436.3</ele>
        <time>2024-11-03T11:49:29Z</time>
      </trkpt>
      <trkpt lat="43.49405" lon="6.91258">
        <ele>436.2</ele>
        <time>2024-11-03T11:49:31Z</time>
      </trkpt>
      <trkpt lat="43.49405" lon="6.91258">
        <ele>436.4</ele>
        <time>2024-11-03T11:49:36Z</time>
      </trkpt>
      <trkpt lat="43.49405" lon="6.91258">
        <ele>436.5</ele>
        <time>2024-11-03T11:49:37Z</time>
      </trkpt>
      <trkpt lat="43.49405" lon="6.91258">
        <ele>436.6</ele>
        <time>2024-11-03T11:49:39Z</time>
      </trkpt>
      <trkpt lat="43.49399" lon="6.91261">
        <ele>437.3</ele>
        <time>2024-11-03T11:50:08Z</time>
      </trkpt>
      <trkpt lat="43.49398" lon="6.91261">
        <ele>437.4</ele>
        <time>2024-11-03T11:50:09Z</time>
      </trkpt>
      <trkpt lat="43.49398" lon="6.91261">
        <ele>437.6</ele>
        <time>2024-11-03T11:50:11Z</time>
      </trkpt>
      <trkpt lat="43.49398" lon="6.91261">
        <ele>437.7</ele>
        <time>2024-11-03T11:50:12Z</time>
      </trkpt>
      <trkpt lat="43.49398" lon="6.91261">
        <ele>437.8</ele>
        <time>2024-11-03T11:50:14Z</time>
      </trkpt>
      <trkpt lat="43.49398" lon="6.91261">
        <ele>437.8</ele>
        <time>2024-11-03T11:50:42Z</time>
      </trkpt>
      <trkpt lat="43.49401" lon="6.91266">
        <ele>437.9</ele>
        <time>2024-11-03T11:50:55Z</time>
      </trkpt>
      <trkpt lat="43.49402" lon="6.91267">
        <ele>437.9</ele>
        <time>2024-11-03T11:51:00Z</time>
      </trkpt>
      <trkpt lat="43.49402" lon="6.91267">
        <ele>437.9</ele>
        <time>2024-11-03T11:51:01Z</time>
      </trkpt>
      <trkpt lat="43.49402" lon="6.91267">
        <ele>437.9</ele>
        <time>2024-11-03T11:51:02Z</time>
      </trkpt>
      <trkpt lat="43.49402" lon="6.91267">
        <ele>438</ele>
        <time>2024-11-03T11:51:03Z</time>
      </trkpt>
      <trkpt lat="43.49402" lon="6.91267">
        <ele>438.1</ele>
        <time>2024-11-03T11:51:04Z</time>
      </trkpt>
      <trkpt lat="43.49402" lon="6.91267">
        <ele>438</ele>
        <time>2024-11-03T11:51:05Z</time>
      </trkpt>
      <trkpt lat="43.49401" lon="6.91266">
        <ele>437.7</ele>
        <time>2024-11-03T11:51:13Z</time>
      </trkpt>
      <trkpt lat="43.49401" lon="6.91265">
        <ele>437.4</ele>
        <time>2024-11-03T11:51:15Z</time>
      </trkpt>
      <trkpt lat="43.49401" lon="6.91265">
        <ele>437.2</ele>
        <time>2024-11-03T11:51:18Z</time>
      </trkpt>
      <trkpt lat="43.49401" lon="6.91265">
        <ele>437.1</ele>
        <time>2024-11-03T11:51:21Z</time>
      </trkpt>
      <trkpt lat="43.49401" lon="6.91265">
        <ele>437</ele>
        <time>2024-11-03T11:51:24Z</time>
      </trkpt>
      <trkpt lat="43.494" lon="6.91264">
        <ele>436.9</ele>
        <time>2024-11-03T11:51:30Z</time>
      </trkpt>
      <trkpt lat="43.494" lon="6.91264">
        <ele>436.7</ele>
        <time>2024-11-03T11:51:36Z</time>
      </trkpt>
      <trkpt lat="43.494" lon="6.91264">
        <ele>436.6</ele>
        <time>2024-11-03T11:51:37Z</time>
      </trkpt>
      <trkpt lat="43.494" lon="6.91264">
        <ele>436.6</ele>
        <time>2024-11-03T11:51:43Z</time>
      </trkpt>
      <trkpt lat="43.494" lon="6.91264">
        <ele>436.6</ele>
        <time>2024-11-03T11:51:44Z</time>
      </trkpt>
      <trkpt lat="43.49401" lon="6.91264">
        <ele>436.5</ele>
        <time>2024-11-03T11:52:03Z</time>
      </trkpt>
      <trkpt lat="43.49401" lon="6.91264">
        <ele>436.6</ele>
        <time>2024-11-03T11:52:04Z</time>
      </trkpt>
      <trkpt lat="43.494" lon="6.91264">
        <ele>436.7</ele>
        <time>2024-11-03T11:52:05Z</time>
      </trkpt>
      <trkpt lat="43.494" lon="6.91264">
        <ele>436.7</ele>
        <time>2024-11-03T11:52:06Z</time>
      </trkpt>
      <trkpt lat="43.49401" lon="6.91264">
        <ele>436.8</ele>
        <time>2024-11-03T11:52:11Z</time>
      </trkpt>
      <trkpt lat="43.49401" lon="6.91264">
        <ele>436.8</ele>
        <time>2024-11-03T11:52:12Z</time>
      </trkpt>
      <trkpt lat="43.49401" lon="6.91264">
        <ele>436.8</ele>
        <time>2024-11-03T11:52:46Z</time>
      </trkpt>
      <trkpt lat="43.49401" lon="6.91264">
        <ele>436.8</ele>
        <time>2024-11-03T11:52:47Z</time>
      </trkpt>
      <trkpt lat="43.49401" lon="6.91264">
        <ele>436.8</ele>
        <time>2024-11-03T11:52:52Z</time>
      </trkpt>
      <trkpt lat="43.49401" lon="6.91264">
        <ele>436.8</ele>
        <time>2024-11-03T11:52:53Z</time>
      </trkpt>
      <trkpt lat="43.49401" lon="6.91264">
        <ele>436.8</ele>
        <time>2024-11-03T11:53:00Z</time>
      </trkpt>
      <trkpt lat="43.49401" lon="6.91264">
        <ele>436.8</ele>
        <time>2024-11-03T11:53:01Z</time>
      </trkpt>
      <trkpt lat="43.49401" lon="6.91264">
        <ele>436.7</ele>
        <time>2024-11-03T11:53:05Z</time>
      </trkpt>
      <trkpt lat="43.49401" lon="6.91264">
        <ele>436.7</ele>
        <time>2024-11-03T11:53:06Z</time>
      </trkpt>
      <trkpt lat="43.494" lon="6.91263">
        <ele>436.7</ele>
        <time>2024-11-03T11:54:16Z</time>
      </trkpt>
      <trkpt lat="43.494" lon="6.91263">
        <ele>436.6</ele>
        <time>2024-11-03T11:54:17Z</time>
      </trkpt>
      <trkpt lat="43.49401" lon="6.91263">
        <ele>436.6</ele>
        <time>2024-11-03T11:54:19Z</time>
      </trkpt>
      <trkpt lat="43.49401" lon="6.91262">
        <ele>436.6</ele>
        <time>2024-11-03T11:54:21Z</time>
      </trkpt>
      <trkpt lat="43.494" lon="6.91262">
        <ele>436.5</ele>
        <time>2024-11-03T11:54:53Z</time>
      </trkpt>
      <trkpt lat="43.49401" lon="6.91262">
        <ele>436.6</ele>
        <time>2024-11-03T11:54:55Z</time>
      </trkpt>
      <trkpt lat="43.494" lon="6.91262">
        <ele>436.5</ele>
        <time>2024-11-03T11:54:57Z</time>
      </trkpt>
      <trkpt lat="43.494" lon="6.91262">
        <ele>436.5</ele>
        <time>2024-11-03T11:54:58Z</time>
      </trkpt>
      <trkpt lat="43.494" lon="6.91262">
        <ele>436.5</ele>
        <time>2024-11-03T11:55:01Z</time>
      </trkpt>
      <trkpt lat="43.494" lon="6.91262">
        <ele>436.3</ele>
        <time>2024-11-03T11:55:03Z</time>
      </trkpt>
      <trkpt lat="43.494" lon="6.91262">
        <ele>436.3</ele>
        <time>2024-11-03T11:55:04Z</time>
      </trkpt>
      <trkpt lat="43.494" lon="6.91262">
        <ele>436.3</ele>
        <time>2024-11-03T11:55:05Z</time>
      </trkpt>
      <trkpt lat="43.494" lon="6.91262">
        <ele>436.3</ele>
        <time>2024-11-03T11:55:07Z</time>
      </trkpt>
      <trkpt lat="43.494" lon="6.91261">
        <ele>436.2</ele>
        <time>2024-11-03T11:55:09Z</time>
      </trkpt>
      <trkpt lat="43.494" lon="6.91261">
        <ele>436.3</ele>
        <time>2024-11-03T11:55:13Z</time>
      </trkpt>
      <trkpt lat="43.494" lon="6.91261">
        <ele>436.4</ele>
        <time>2024-11-03T11:55:15Z</time>
      </trkpt>
      <trkpt lat="43.494" lon="6.9126">
        <ele>436.5</ele>
        <time>2024-11-03T11:55:19Z</time>
      </trkpt>
      <trkpt lat="43.494" lon="6.9126">
        <ele>436.5</ele>
        <time>2024-11-03T11:55:21Z</time>
      </trkpt>
      <trkpt lat="43.494" lon="6.9126">
        <ele>436.5</ele>
        <time>2024-11-03T11:55:23Z</time>
      </trkpt>
      <trkpt lat="43.494" lon="6.9126">
        <ele>436.5</ele>
        <time>2024-11-03T11:55:24Z</time>
      </trkpt>
      <trkpt lat="43.494" lon="6.9126">
        <ele>436.5</ele>
        <time>2024-11-03T11:55:35Z</time>
      </trkpt>
      <trkpt lat="43.494" lon="6.9126">
        <ele>436.5</ele>
        <time>2024-11-03T11:55:36Z</time>
      </trkpt>
      <trkpt lat="43.494" lon="6.9126">
        <ele>436.5</ele>
        <time>2024-11-03T11:55:40Z</time>
      </trkpt>
      <trkpt lat="43.494" lon="6.9126">
        <ele>436.5</ele>
        <time>2024-11-03T11:55:41Z</time>
      </trkpt>
      <trkpt lat="43.494" lon="6.9126">
        <ele>436.5</ele>
        <time>2024-11-03T11:55:43Z</time>
      </trkpt>
      <trkpt lat="43.494" lon="6.9126">
        <ele>436.4</ele>
        <time>2024-11-03T11:55:46Z</time>
      </trkpt>
      <trkpt lat="43.494" lon="6.9126">
        <ele>436.4</ele>
        <time>2024-11-03T11:55:59Z</time>
      </trkpt>
      <trkpt lat="43.494" lon="6.9126">
        <ele>436.4</ele>
        <time>2024-11-03T11:56:00Z</time>
      </trkpt>
      <trkpt lat="43.494" lon="6.9126">
        <ele>436.3</ele>
        <time>2024-11-03T11:56:03Z</time>
      </trkpt>
      <trkpt lat="43.494" lon="6.9126">
        <ele>436.3</ele>
        <time>2024-11-03T11:56:06Z</time>
      </trkpt>
      <trkpt lat="43.49401" lon="6.9126">
        <ele>436.3</ele>
        <time>2024-11-03T11:56:17Z</time>
      </trkpt>
      <trkpt lat="43.49401" lon="6.9126">
        <ele>436.3</ele>
        <time>2024-11-03T11:56:18Z</time>
      </trkpt>
      <trkpt lat="43.49401" lon="6.9126">
        <ele>436.3</ele>
        <time>2024-11-03T11:56:22Z</time>
      </trkpt>
      <trkpt lat="43.49401" lon="6.9126">
        <ele>436.3</ele>
        <time>2024-11-03T11:56:23Z</time>
      </trkpt>
      <trkpt lat="43.49401" lon="6.91261">
        <ele>436.2</ele>
        <time>2024-11-03T11:56:25Z</time>
      </trkpt>
      <trkpt lat="43.49402" lon="6.91264">
        <ele>435.5</ele>
        <time>2024-11-03T11:56:38Z</time>
      </trkpt>
      <trkpt lat="43.49401" lon="6.91263">
        <ele>435.6</ele>
        <time>2024-11-03T11:56:39Z</time>
      </trkpt>
      <trkpt lat="43.49402" lon="6.91263">
        <ele>435.6</ele>
        <time>2024-11-03T11:56:41Z</time>
      </trkpt>
      <trkpt lat="43.49402" lon="6.91263">
        <ele>435.7</ele>
        <time>2024-11-03T11:56:42Z</time>
      </trkpt>
      <trkpt lat="43.49403" lon="6.91266">
        <ele>435.4</ele>
        <time>2024-11-03T11:56:57Z</time>
      </trkpt>
      <trkpt lat="43.49403" lon="6.91266">
        <ele>435.4</ele>
        <time>2024-11-03T11:56:58Z</time>
      </trkpt>
      <trkpt lat="43.49402" lon="6.91265">
        <ele>435.3</ele>
        <time>2024-11-03T11:57:01Z</time>
      </trkpt>
      <trkpt lat="43.49402" lon="6.91265">
        <ele>435.3</ele>
        <time>2024-11-03T11:57:02Z</time>
      </trkpt>
      <trkpt lat="43.49399" lon="6.91268">
        <ele>436.2</ele>
        <time>2024-11-03T11:57:20Z</time>
      </trkpt>
      <trkpt lat="43.49399" lon="6.91268">
        <ele>436.4</ele>
        <time>2024-11-03T11:57:21Z</time>
      </trkpt>
      <trkpt lat="43.49398" lon="6.91266">
        <ele>436.8</ele>
        <time>2024-11-03T11:57:27Z</time>
      </trkpt>
      <trkpt lat="43.49398" lon="6.91266">
        <ele>436.9</ele>
        <time>2024-11-03T11:57:29Z</time>
      </trkpt>
      <trkpt lat="43.49403" lon="6.91277">
        <ele>436.2</ele>
        <time>2024-11-03T11:57:46Z</time>
      </trkpt>
      <trkpt lat="43.49403" lon="6.91291">
        <ele>435.6</ele>
        <time>2024-11-03T11:57:56Z</time>
      </trkpt>
      <trkpt lat="43.49406" lon="6.91303">
        <ele>435.8</ele>
        <time>2024-11-03T11:58:11Z</time>
      </trkpt>
      <trkpt lat="43.49407" lon="6.91317">
        <ele>435.9</ele>
        <time>2024-11-03T11:58:20Z</time>
      </trkpt>
      <trkpt lat="43.49407" lon="6.9133">
        <ele>436.4</ele>
        <time>2024-11-03T11:58:35Z</time>
      </trkpt>
      <trkpt lat="43.49408" lon="6.91344">
        <ele>436.1</ele>
        <time>2024-11-03T11:58:46Z</time>
      </trkpt>
      <trkpt lat="43.49403" lon="6.91345">
        <ele>435.2</ele>
        <time>2024-11-03T11:59:02Z</time>
      </trkpt>
      <trkpt lat="43.49403" lon="6.91345">
        <ele>435.2</ele>
        <time>2024-11-03T11:59:03Z</time>
      </trkpt>
      <trkpt lat="43.49401" lon="6.91347">
        <ele>434.3</ele>
        <time>2024-11-03T11:59:19Z</time>
      </trkpt>
      <trkpt lat="43.494" lon="6.91347">
        <ele>434.3</ele>
        <time>2024-11-03T11:59:20Z</time>
      </trkpt>
      <trkpt lat="43.494" lon="6.91348">
        <ele>433.8</ele>
        <time>2024-11-03T11:59:23Z</time>
      </trkpt>
      <trkpt lat="43.49399" lon="6.91348">
        <ele>433.8</ele>
        <time>2024-11-03T11:59:24Z</time>
      </trkpt>
      <trkpt lat="43.49394" lon="6.91336">
        <ele>431</ele>
        <time>2024-11-03T12:00:04Z</time>
      </trkpt>
      <trkpt lat="43.49394" lon="6.91336">
        <ele>431</ele>
        <time>2024-11-03T12:00:05Z</time>
      </trkpt>
      <trkpt lat="43.49393" lon="6.91336">
        <ele>431</ele>
        <time>2024-11-03T12:00:06Z</time>
      </trkpt>
      <trkpt lat="43.49384" lon="6.91332">
        <ele>429.7</ele>
        <time>2024-11-03T12:00:19Z</time>
      </trkpt>
      <trkpt lat="43.49382" lon="6.91333">
        <ele>429.8</ele>
        <time>2024-11-03T12:00:23Z</time>
      </trkpt>
      <trkpt lat="43.49382" lon="6.91332">
        <ele>430.1</ele>
        <time>2024-11-03T12:00:25Z</time>
      </trkpt>
      <trkpt lat="43.49373" lon="6.91327">
        <ele>428.1</ele>
        <time>2024-11-03T12:00:55Z</time>
      </trkpt>
      <trkpt lat="43.49371" lon="6.9133">
        <ele>426.6</ele>
        <time>2024-11-03T12:01:03Z</time>
      </trkpt>
      <trkpt lat="43.49371" lon="6.9133">
        <ele>426.4</ele>
        <time>2024-11-03T12:01:04Z</time>
      </trkpt>
      <trkpt lat="43.49369" lon="6.9133">
        <ele>425.8</ele>
        <time>2024-11-03T12:01:14Z</time>
      </trkpt>
      <trkpt lat="43.4937" lon="6.9133">
        <ele>425.8</ele>
        <time>2024-11-03T12:01:15Z</time>
      </trkpt>
      <trkpt lat="43.49366" lon="6.9133">
        <ele>424</ele>
        <time>2024-11-03T12:01:27Z</time>
      </trkpt>
      <trkpt lat="43.49367" lon="6.9133">
        <ele>423.7</ele>
        <time>2024-11-03T12:01:28Z</time>
      </trkpt>
      <trkpt lat="43.49358" lon="6.91334">
        <ele>420.6</ele>
        <time>2024-11-03T12:01:57Z</time>
      </trkpt>
      <trkpt lat="43.49351" lon="6.91326">
        <ele>417.7</ele>
        <time>2024-11-03T12:02:28Z</time>
      </trkpt>
      <trkpt lat="43.49352" lon="6.91325">
        <ele>417.8</ele>
        <time>2024-11-03T12:02:34Z</time>
      </trkpt>
      <trkpt lat="43.49351" lon="6.91325">
        <ele>417.9</ele>
        <time>2024-11-03T12:02:35Z</time>
      </trkpt>
      <trkpt lat="43.49352" lon="6.91324">
        <ele>418.1</ele>
        <time>2024-11-03T12:02:41Z</time>
      </trkpt>
      <trkpt lat="43.49353" lon="6.91323">
        <ele>418.2</ele>
        <time>2024-11-03T12:02:42Z</time>
      </trkpt>
      <trkpt lat="43.49353" lon="6.91321">
        <ele>418</ele>
        <time>2024-11-03T12:02:51Z</time>
      </trkpt>
      <trkpt lat="43.49353" lon="6.91321">
        <ele>417.9</ele>
        <time>2024-11-03T12:02:52Z</time>
      </trkpt>
      <trkpt lat="43.49347" lon="6.91313">
        <ele>415.4</ele>
        <time>2024-11-03T12:03:12Z</time>
      </trkpt>
      <trkpt lat="43.49338" lon="6.91319">
        <ele>414.5</ele>
        <time>2024-11-03T12:03:21Z</time>
      </trkpt>
      <trkpt lat="43.49338" lon="6.9132">
        <ele>413.8</ele>
        <time>2024-11-03T12:03:30Z</time>
      </trkpt>
      <trkpt lat="43.49337" lon="6.9132">
        <ele>413.7</ele>
        <time>2024-11-03T12:03:31Z</time>
      </trkpt>
      <trkpt lat="43.49333" lon="6.91327">
        <ele>411.5</ele>
        <time>2024-11-03T12:03:41Z</time>
      </trkpt>
      <trkpt lat="43.49333" lon="6.91328">
        <ele>411.4</ele>
        <time>2024-11-03T12:03:42Z</time>
      </trkpt>
      <trkpt lat="43.49332" lon="6.9134">
        <ele>408.5</ele>
        <time>2024-11-03T12:04:15Z</time>
      </trkpt>
      <trkpt lat="43.49332" lon="6.91341">
        <ele>408.3</ele>
        <time>2024-11-03T12:04:18Z</time>
      </trkpt>
      <trkpt lat="43.49332" lon="6.91341">
        <ele>408</ele>
        <time>2024-11-03T12:04:19Z</time>
      </trkpt>
      <trkpt lat="43.49333" lon="6.91341">
        <ele>407.8</ele>
        <time>2024-11-03T12:04:21Z</time>
      </trkpt>
      <trkpt lat="43.49333" lon="6.91341">
        <ele>407.9</ele>
        <time>2024-11-03T12:04:22Z</time>
      </trkpt>
      <trkpt lat="43.49329" lon="6.91343">
        <ele>408</ele>
        <time>2024-11-03T12:04:29Z</time>
      </trkpt>
      <trkpt lat="43.49329" lon="6.91343">
        <ele>408</ele>
        <time>2024-11-03T12:04:30Z</time>
      </trkpt>
      <trkpt lat="43.49329" lon="6.91343">
        <ele>407.9</ele>
        <time>2024-11-03T12:04:31Z</time>
      </trkpt>
      <trkpt lat="43.49329" lon="6.91344">
        <ele>407.7</ele>
        <time>2024-11-03T12:04:32Z</time>
      </trkpt>
      <trkpt lat="43.49327" lon="6.91331">
        <ele>406.5</ele>
        <time>2024-11-03T12:04:51Z</time>
      </trkpt>
      <trkpt lat="43.49325" lon="6.91333">
        <ele>405.4</ele>
        <time>2024-11-03T12:05:13Z</time>
      </trkpt>
      <trkpt lat="43.49325" lon="6.91333">
        <ele>405.5</ele>
        <time>2024-11-03T12:05:14Z</time>
      </trkpt>
      <trkpt lat="43.49325" lon="6.91334">
        <ele>405.5</ele>
        <time>2024-11-03T12:05:17Z</time>
      </trkpt>
      <trkpt lat="43.49325" lon="6.91334">
        <ele>405.5</ele>
        <time>2024-11-03T12:05:18Z</time>
      </trkpt>
      <trkpt lat="43.49324" lon="6.91336">
        <ele>405.2</ele>
        <time>2024-11-03T12:05:24Z</time>
      </trkpt>
      <trkpt lat="43.49324" lon="6.91335">
        <ele>404.6</ele>
        <time>2024-11-03T12:05:25Z</time>
      </trkpt>
      <trkpt lat="43.49324" lon="6.91335">
        <ele>403.8</ele>
        <time>2024-11-03T12:05:26Z</time>
      </trkpt>
      <trkpt lat="43.49324" lon="6.91335">
        <ele>403.2</ele>
        <time>2024-11-03T12:05:27Z</time>
      </trkpt>
      <trkpt lat="43.49319" lon="6.91328">
        <ele>402.1</ele>
        <time>2024-11-03T12:05:43Z</time>
      </trkpt>
      <trkpt lat="43.49319" lon="6.91328">
        <ele>402.1</ele>
        <time>2024-11-03T12:05:44Z</time>
      </trkpt>
      <trkpt lat="43.49319" lon="6.91328">
        <ele>401.9</ele>
        <time>2024-11-03T12:05:47Z</time>
      </trkpt>
      <trkpt lat="43.49319" lon="6.91328">
        <ele>401.9</ele>
        <time>2024-11-03T12:05:48Z</time>
      </trkpt>
      <trkpt lat="43.49319" lon="6.91328">
        <ele>401.9</ele>
        <time>2024-11-03T12:05:49Z</time>
      </trkpt>
      <trkpt lat="43.49319" lon="6.91327">
        <ele>401.8</ele>
        <time>2024-11-03T12:05:51Z</time>
      </trkpt>
      <trkpt lat="43.49314" lon="6.91325">
        <ele>399.9</ele>
        <time>2024-11-03T12:06:07Z</time>
      </trkpt>
      <trkpt lat="43.49314" lon="6.91325">
        <ele>399.9</ele>
        <time>2024-11-03T12:06:09Z</time>
      </trkpt>
      <trkpt lat="43.49314" lon="6.91325">
        <ele>399.8</ele>
        <time>2024-11-03T12:06:11Z</time>
      </trkpt>
      <trkpt lat="43.49314" lon="6.91325">
        <ele>399.7</ele>
        <time>2024-11-03T12:06:12Z</time>
      </trkpt>
      <trkpt lat="43.49315" lon="6.91338">
        <ele>396.5</ele>
        <time>2024-11-03T12:06:45Z</time>
      </trkpt>
      <trkpt lat="43.49315" lon="6.91341">
        <ele>396.1</ele>
        <time>2024-11-03T12:06:58Z</time>
      </trkpt>
      <trkpt lat="43.49316" lon="6.91341">
        <ele>396</ele>
        <time>2024-11-03T12:07:00Z</time>
      </trkpt>
      <trkpt lat="43.49316" lon="6.9134">
        <ele>396</ele>
        <time>2024-11-03T12:07:01Z</time>
      </trkpt>
      <trkpt lat="43.49316" lon="6.9134">
        <ele>396.1</ele>
        <time>2024-11-03T12:07:03Z</time>
      </trkpt>
      <trkpt lat="43.49316" lon="6.91332">
        <ele>395.6</ele>
        <time>2024-11-03T12:07:12Z</time>
      </trkpt>
      <trkpt lat="43.49316" lon="6.91332">
        <ele>395.5</ele>
        <time>2024-11-03T12:07:13Z</time>
      </trkpt>
      <trkpt lat="43.49311" lon="6.91329">
        <ele>394.4</ele>
        <time>2024-11-03T12:07:24Z</time>
      </trkpt>
      <trkpt lat="43.4931" lon="6.91329">
        <ele>394.3</ele>
        <time>2024-11-03T12:07:25Z</time>
      </trkpt>
      <trkpt lat="43.49307" lon="6.91329">
        <ele>394.1</ele>
        <time>2024-11-03T12:07:32Z</time>
      </trkpt>
      <trkpt lat="43.49307" lon="6.9133">
        <ele>394.1</ele>
        <time>2024-11-03T12:07:33Z</time>
      </trkpt>
      <trkpt lat="43.49312" lon="6.91327">
        <ele>392.4</ele>
        <time>2024-11-03T12:07:43Z</time>
      </trkpt>
      <trkpt lat="43.49312" lon="6.91327">
        <ele>392.4</ele>
        <time>2024-11-03T12:07:44Z</time>
      </trkpt>
      <trkpt lat="43.49311" lon="6.91328">
        <ele>392.2</ele>
        <time>2024-11-03T12:07:47Z</time>
      </trkpt>
      <trkpt lat="43.49311" lon="6.91328">
        <ele>392.1</ele>
        <time>2024-11-03T12:07:48Z</time>
      </trkpt>
      <trkpt lat="43.49307" lon="6.91333">
        <ele>391.2</ele>
        <time>2024-11-03T12:07:55Z</time>
      </trkpt>
      <trkpt lat="43.49307" lon="6.91333">
        <ele>390.7</ele>
        <time>2024-11-03T12:08:02Z</time>
      </trkpt>
      <trkpt lat="43.49306" lon="6.91338">
        <ele>388.7</ele>
        <time>2024-11-03T12:08:12Z</time>
      </trkpt>
      <trkpt lat="43.49306" lon="6.91338">
        <ele>388.3</ele>
        <time>2024-11-03T12:08:15Z</time>
      </trkpt>
      <trkpt lat="43.49306" lon="6.91338">
        <ele>388.2</ele>
        <time>2024-11-03T12:08:18Z</time>
      </trkpt>
      <trkpt lat="43.49306" lon="6.91338">
        <ele>388.3</ele>
        <time>2024-11-03T12:08:19Z</time>
      </trkpt>
      <trkpt lat="43.49302" lon="6.9134">
        <ele>388.1</ele>
        <time>2024-11-03T12:08:29Z</time>
      </trkpt>
      <trkpt lat="43.49302" lon="6.9134">
        <ele>388.1</ele>
        <time>2024-11-03T12:08:30Z</time>
      </trkpt>
      <trkpt lat="43.49302" lon="6.91341">
        <ele>388</ele>
        <time>2024-11-03T12:08:33Z</time>
      </trkpt>
      <trkpt lat="43.49302" lon="6.91341">
        <ele>388</ele>
        <time>2024-11-03T12:08:36Z</time>
      </trkpt>
      <trkpt lat="43.49302" lon="6.91341">
        <ele>388</ele>
        <time>2024-11-03T12:08:37Z</time>
      </trkpt>
      <trkpt lat="43.49302" lon="6.91341">
        <ele>387.9</ele>
        <time>2024-11-03T12:08:38Z</time>
      </trkpt>
      <trkpt lat="43.49302" lon="6.91341">
        <ele>387.7</ele>
        <time>2024-11-03T12:08:39Z</time>
      </trkpt>
      <trkpt lat="43.49302" lon="6.91341">
        <ele>387.6</ele>
        <time>2024-11-03T12:08:40Z</time>
      </trkpt>
      <trkpt lat="43.49302" lon="6.91341">
        <ele>387.5</ele>
        <time>2024-11-03T12:08:41Z</time>
      </trkpt>
      <trkpt lat="43.49303" lon="6.91341">
        <ele>387.4</ele>
        <time>2024-11-03T12:08:42Z</time>
      </trkpt>
      <trkpt lat="43.49299" lon="6.91338">
        <ele>386</ele>
        <time>2024-11-03T12:09:09Z</time>
      </trkpt>
      <trkpt lat="43.493" lon="6.91339">
        <ele>386.1</ele>
        <time>2024-11-03T12:09:10Z</time>
      </trkpt>
      <trkpt lat="43.49291" lon="6.91342">
        <ele>385.4</ele>
        <time>2024-11-03T12:09:26Z</time>
      </trkpt>
      <trkpt lat="43.49289" lon="6.91347">
        <ele>383.5</ele>
        <time>2024-11-03T12:09:48Z</time>
      </trkpt>
      <trkpt lat="43.49289" lon="6.91346">
        <ele>383.5</ele>
        <time>2024-11-03T12:09:49Z</time>
      </trkpt>
      <trkpt lat="43.49292" lon="6.91348">
        <ele>382.7</ele>
        <time>2024-11-03T12:09:58Z</time>
      </trkpt>
      <trkpt lat="43.49293" lon="6.91348">
        <ele>382.6</ele>
        <time>2024-11-03T12:09:59Z</time>
      </trkpt>
      <trkpt lat="43.49287" lon="6.91334">
        <ele>380.4</ele>
        <time>2024-11-03T12:10:27Z</time>
      </trkpt>
      <trkpt lat="43.49278" lon="6.91335">
        <ele>380.2</ele>
        <time>2024-11-03T12:10:39Z</time>
      </trkpt>
      <trkpt lat="43.49267" lon="6.91335">
        <ele>379.6</ele>
        <time>2024-11-03T12:10:45Z</time>
      </trkpt>
      <trkpt lat="43.49261" lon="6.91336">
        <ele>377.2</ele>
        <time>2024-11-03T12:11:21Z</time>
      </trkpt>
      <trkpt lat="43.49261" lon="6.91335">
        <ele>376.9</ele>
        <time>2024-11-03T12:11:22Z</time>
      </trkpt>
      <trkpt lat="43.4926" lon="6.91344">
        <ele>369.7</ele>
        <time>2024-11-03T12:11:44Z</time>
      </trkpt>
      <trkpt lat="43.49259" lon="6.91343">
        <ele>369.9</ele>
        <time>2024-11-03T12:11:45Z</time>
      </trkpt>
      <trkpt lat="43.49266" lon="6.91334">
        <ele>370</ele>
        <time>2024-11-03T12:12:07Z</time>
      </trkpt>
      <trkpt lat="43.49272" lon="6.91324">
        <ele>369</ele>
        <time>2024-11-03T12:12:25Z</time>
      </trkpt>
      <trkpt lat="43.4927" lon="6.91332">
        <ele>368.5</ele>
        <time>2024-11-03T12:12:44Z</time>
      </trkpt>
      <trkpt lat="43.49271" lon="6.91333">
        <ele>368.5</ele>
        <time>2024-11-03T12:12:45Z</time>
      </trkpt>
      <trkpt lat="43.49262" lon="6.9133">
        <ele>367.6</ele>
        <time>2024-11-03T12:12:57Z</time>
      </trkpt>
      <trkpt lat="43.49253" lon="6.91333">
        <ele>367.2</ele>
        <time>2024-11-03T12:13:04Z</time>
      </trkpt>
      <trkpt lat="43.49247" lon="6.91343">
        <ele>366.8</ele>
        <time>2024-11-03T12:13:10Z</time>
      </trkpt>
      <trkpt lat="43.49238" lon="6.91341">
        <ele>364.9</ele>
        <time>2024-11-03T12:13:26Z</time>
      </trkpt>
      <trkpt lat="43.49233" lon="6.91338">
        <ele>365.3</ele>
        <time>2024-11-03T12:13:39Z</time>
      </trkpt>
      <trkpt lat="43.49234" lon="6.91338">
        <ele>365.4</ele>
        <time>2024-11-03T12:13:40Z</time>
      </trkpt>
      <trkpt lat="43.49226" lon="6.91331">
        <ele>362.5</ele>
        <time>2024-11-03T12:14:00Z</time>
      </trkpt>
      <trkpt lat="43.49228" lon="6.91338">
        <ele>354.7</ele>
        <time>2024-11-03T12:14:11Z</time>
      </trkpt>
      <trkpt lat="43.49228" lon="6.91338">
        <ele>353.4</ele>
        <time>2024-11-03T12:14:15Z</time>
      </trkpt>
      <trkpt lat="43.49228" lon="6.91337">
        <ele>351.6</ele>
        <time>2024-11-03T12:14:18Z</time>
      </trkpt>
      <trkpt lat="43.49228" lon="6.91337">
        <ele>351.2</ele>
        <time>2024-11-03T12:14:19Z</time>
      </trkpt>
      <trkpt lat="43.49228" lon="6.91337">
        <ele>350.8</ele>
        <time>2024-11-03T12:14:20Z</time>
      </trkpt>
      <trkpt lat="43.49228" lon="6.91337">
        <ele>350.5</ele>
        <time>2024-11-03T12:14:21Z</time>
      </trkpt>
      <trkpt lat="43.49228" lon="6.91337">
        <ele>350.1</ele>
        <time>2024-11-03T12:14:23Z</time>
      </trkpt>
      <trkpt lat="43.49228" lon="6.91337">
        <ele>349.9</ele>
        <time>2024-11-03T12:14:24Z</time>
      </trkpt>
      <trkpt lat="43.49222" lon="6.91339">
        <ele>341.2</ele>
        <time>2024-11-03T12:14:59Z</time>
      </trkpt>
      <trkpt lat="43.49223" lon="6.91339">
        <ele>340.8</ele>
        <time>2024-11-03T12:15:00Z</time>
      </trkpt>
      <trkpt lat="43.49223" lon="6.91339">
        <ele>340.2</ele>
        <time>2024-11-03T12:15:03Z</time>
      </trkpt>
      <trkpt lat="43.49224" lon="6.9134">
        <ele>340</ele>
        <time>2024-11-03T12:15:04Z</time>
      </trkpt>
      <trkpt lat="43.49224" lon="6.9134">
        <ele>339.8</ele>
        <time>2024-11-03T12:15:05Z</time>
      </trkpt>
      <trkpt lat="43.49224" lon="6.9134">
        <ele>339.5</ele>
        <time>2024-11-03T12:15:06Z</time>
      </trkpt>
      <trkpt lat="43.4922" lon="6.91337">
        <ele>338.3</ele>
        <time>2024-11-03T12:15:16Z</time>
      </trkpt>
      <trkpt lat="43.4922" lon="6.91337">
        <ele>338.3</ele>
        <time>2024-11-03T12:15:19Z</time>
      </trkpt>
      <trkpt lat="43.49219" lon="6.9134">
        <ele>336.2</ele>
        <time>2024-11-03T12:15:27Z</time>
      </trkpt>
      <trkpt lat="43.49219" lon="6.9134">
        <ele>336</ele>
        <time>2024-11-03T12:15:29Z</time>
      </trkpt>
      <trkpt lat="43.49219" lon="6.9134">
        <ele>335.9</ele>
        <time>2024-11-03T12:15:30Z</time>
      </trkpt>
      <trkpt lat="43.49219" lon="6.9134">
        <ele>335.8</ele>
        <time>2024-11-03T12:15:38Z</time>
      </trkpt>
      <trkpt lat="43.49219" lon="6.9134">
        <ele>335.8</ele>
        <time>2024-11-03T12:15:39Z</time>
      </trkpt>
      <trkpt lat="43.49218" lon="6.91341">
        <ele>335.7</ele>
        <time>2024-11-03T12:15:52Z</time>
      </trkpt>
      <trkpt lat="43.49219" lon="6.91341">
        <ele>335.7</ele>
        <time>2024-11-03T12:15:57Z</time>
      </trkpt>
      <trkpt lat="43.49219" lon="6.91341">
        <ele>335.7</ele>
        <time>2024-11-03T12:16:08Z</time>
      </trkpt>
      <trkpt lat="43.49218" lon="6.91341">
        <ele>335.5</ele>
        <time>2024-11-03T12:16:11Z</time>
      </trkpt>
      <trkpt lat="43.49218" lon="6.91341">
        <ele>335.4</ele>
        <time>2024-11-03T12:16:14Z</time>
      </trkpt>
      <trkpt lat="43.49219" lon="6.91341">
        <ele>334.9</ele>
        <time>2024-11-03T12:16:23Z</time>
      </trkpt>
      <trkpt lat="43.49219" lon="6.91341">
        <ele>334.7</ele>
        <time>2024-11-03T12:16:24Z</time>
      </trkpt>
      <trkpt lat="43.49219" lon="6.91342">
        <ele>334.4</ele>
        <time>2024-11-03T12:16:28Z</time>
      </trkpt>
      <trkpt lat="43.49219" lon="6.91342">
        <ele>334.2</ele>
        <time>2024-11-03T12:16:29Z</time>
      </trkpt>
      <trkpt lat="43.49219" lon="6.91343">
        <ele>333.9</ele>
        <time>2024-11-03T12:16:31Z</time>
      </trkpt>
      <trkpt lat="43.49219" lon="6.91342">
        <ele>333.7</ele>
        <time>2024-11-03T12:16:34Z</time>
      </trkpt>
      <trkpt lat="43.49222" lon="6.91341">
        <ele>333.7</ele>
        <time>2024-11-03T12:17:10Z</time>
      </trkpt>
      <trkpt lat="43.49222" lon="6.91341">
        <ele>333.6</ele>
        <time>2024-11-03T12:17:11Z</time>
      </trkpt>
      <trkpt lat="43.49214" lon="6.91342">
        <ele>332.8</ele>
        <time>2024-11-03T12:17:30Z</time>
      </trkpt>
      <trkpt lat="43.49215" lon="6.91343">
        <ele>332.6</ele>
        <time>2024-11-03T12:17:31Z</time>
      </trkpt>
      <trkpt lat="43.49216" lon="6.91339">
        <ele>332.4</ele>
        <time>2024-11-03T12:17:46Z</time>
      </trkpt>
      <trkpt lat="43.49215" lon="6.91341">
        <ele>332.3</ele>
        <time>2024-11-03T12:17:48Z</time>
      </trkpt>
      <trkpt lat="43.49206" lon="6.91344">
        <ele>330.7</ele>
        <time>2024-11-03T12:18:29Z</time>
      </trkpt>
      <trkpt lat="43.49206" lon="6.91347">
        <ele>327</ele>
        <time>2024-11-03T12:19:25Z</time>
      </trkpt>
      <trkpt lat="43.49206" lon="6.91347">
        <ele>327</ele>
        <time>2024-11-03T12:19:38Z</time>
      </trkpt>
      <trkpt lat="43.49206" lon="6.91347">
        <ele>327</ele>
        <time>2024-11-03T12:19:39Z</time>
      </trkpt>
      <trkpt lat="43.49206" lon="6.91347">
        <ele>326.9</ele>
        <time>2024-11-03T12:20:04Z</time>
      </trkpt>
      <trkpt lat="43.49206" lon="6.91347">
        <ele>326.9</ele>
        <time>2024-11-03T12:20:05Z</time>
      </trkpt>
      <trkpt lat="43.49206" lon="6.91348">
        <ele>326.8</ele>
        <time>2024-11-03T12:20:07Z</time>
      </trkpt>
      <trkpt lat="43.49206" lon="6.91348">
        <ele>326.8</ele>
        <time>2024-11-03T12:20:08Z</time>
      </trkpt>
      <trkpt lat="43.49206" lon="6.91348">
        <ele>326.8</ele>
        <time>2024-11-03T12:20:24Z</time>
      </trkpt>
      <trkpt lat="43.49206" lon="6.91348">
        <ele>326.8</ele>
        <time>2024-11-03T12:20:25Z</time>
      </trkpt>
      <trkpt lat="43.49206" lon="6.91348">
        <ele>325.7</ele>
        <time>2024-11-03T12:21:02Z</time>
      </trkpt>
      <trkpt lat="43.49206" lon="6.91348">
        <ele>325.1</ele>
        <time>2024-11-03T12:21:04Z</time>
      </trkpt>
      <trkpt lat="43.49206" lon="6.91348">
        <ele>325</ele>
        <time>2024-11-03T12:21:06Z</time>
      </trkpt>
      <trkpt lat="43.49206" lon="6.91349">
        <ele>324.7</ele>
        <time>2024-11-03T12:21:07Z</time>
      </trkpt>
      <trkpt lat="43.49206" lon="6.91349">
        <ele>324.2</ele>
        <time>2024-11-03T12:21:27Z</time>
      </trkpt>
      <trkpt lat="43.49206" lon="6.91349">
        <ele>324.2</ele>
        <time>2024-11-03T12:21:28Z</time>
      </trkpt>
      <trkpt lat="43.49206" lon="6.91349">
        <ele>324.3</ele>
        <time>2024-11-03T12:21:31Z</time>
      </trkpt>
      <trkpt lat="43.49206" lon="6.9135">
        <ele>324.7</ele>
        <time>2024-11-03T12:21:33Z</time>
      </trkpt>
      <trkpt lat="43.49206" lon="6.9135">
        <ele>324.7</ele>
        <time>2024-11-03T12:21:34Z</time>
      </trkpt>
      <trkpt lat="43.49206" lon="6.91351">
        <ele>324.7</ele>
        <time>2024-11-03T12:21:36Z</time>
      </trkpt>
      <trkpt lat="43.49206" lon="6.91351">
        <ele>324.6</ele>
        <time>2024-11-03T12:21:37Z</time>
      </trkpt>
      <trkpt lat="43.49206" lon="6.91354">
        <ele>322.5</ele>
        <time>2024-11-03T12:21:58Z</time>
      </trkpt>
      <trkpt lat="43.49206" lon="6.91354">
        <ele>322.4</ele>
        <time>2024-11-03T12:21:59Z</time>
      </trkpt>
      <trkpt lat="43.49206" lon="6.91355">
        <ele>321.9</ele>
        <time>2024-11-03T12:22:04Z</time>
      </trkpt>
      <trkpt lat="43.49206" lon="6.91355">
        <ele>321.9</ele>
        <time>2024-11-03T12:22:05Z</time>
      </trkpt>
      <trkpt lat="43.49207" lon="6.91357">
        <ele>321.5</ele>
        <time>2024-11-03T12:22:14Z</time>
      </trkpt>
      <trkpt lat="43.49206" lon="6.91358">
        <ele>321.4</ele>
        <time>2024-11-03T12:22:15Z</time>
      </trkpt>
      <trkpt lat="43.49207" lon="6.91358">
        <ele>321.4</ele>
        <time>2024-11-03T12:22:17Z</time>
      </trkpt>
      <trkpt lat="43.49206" lon="6.91358">
        <ele>321</ele>
        <time>2024-11-03T12:22:21Z</time>
      </trkpt>
      <trkpt lat="43.49206" lon="6.9136">
        <ele>321.5</ele>
        <time>2024-11-03T12:22:26Z</time>
      </trkpt>
      <trkpt lat="43.49206" lon="6.91361">
        <ele>321.4</ele>
        <time>2024-11-03T12:22:28Z</time>
      </trkpt>
      <trkpt lat="43.49206" lon="6.91362">
        <ele>321.2</ele>
        <time>2024-11-03T12:22:31Z</time>
      </trkpt>
      <trkpt lat="43.49206" lon="6.91361">
        <ele>321.1</ele>
        <time>2024-11-03T12:22:32Z</time>
      </trkpt>
      <trkpt lat="43.49206" lon="6.91361">
        <ele>321.1</ele>
        <time>2024-11-03T12:22:33Z</time>
      </trkpt>
      <trkpt lat="43.49206" lon="6.91362">
        <ele>321.1</ele>
        <time>2024-11-03T12:22:35Z</time>
      </trkpt>
      <trkpt lat="43.49203" lon="6.91359">
        <ele>320</ele>
        <time>2024-11-03T12:22:55Z</time>
      </trkpt>
      <trkpt lat="43.49203" lon="6.91359">
        <ele>319.9</ele>
        <time>2024-11-03T12:23:03Z</time>
      </trkpt>
      <trkpt lat="43.49203" lon="6.91359">
        <ele>319.9</ele>
        <time>2024-11-03T12:23:04Z</time>
      </trkpt>
      <trkpt lat="43.49203" lon="6.9136">
        <ele>319.9</ele>
        <time>2024-11-03T12:23:05Z</time>
      </trkpt>
      <trkpt lat="43.49206" lon="6.91358">
        <ele>319.9</ele>
        <time>2024-11-03T12:23:11Z</time>
      </trkpt>
      <trkpt lat="43.49207" lon="6.91358">
        <ele>319.7</ele>
        <time>2024-11-03T12:23:13Z</time>
      </trkpt>
      <trkpt lat="43.49207" lon="6.91358">
        <ele>319.6</ele>
        <time>2024-11-03T12:23:14Z</time>
      </trkpt>
      <trkpt lat="43.49207" lon="6.91358">
        <ele>319.6</ele>
        <time>2024-11-03T12:23:15Z</time>
      </trkpt>
      <trkpt lat="43.49207" lon="6.91357">
        <ele>319.6</ele>
        <time>2024-11-03T12:23:18Z</time>
      </trkpt>
      <trkpt lat="43.49206" lon="6.91357">
        <ele>319.8</ele>
        <time>2024-11-03T12:23:21Z</time>
      </trkpt>
      <trkpt lat="43.49206" lon="6.91359">
        <ele>319.9</ele>
        <time>2024-11-03T12:23:25Z</time>
      </trkpt>
      <trkpt lat="43.49206" lon="6.91359">
        <ele>319.9</ele>
        <time>2024-11-03T12:23:26Z</time>
      </trkpt>
      <trkpt lat="43.49206" lon="6.91358">
        <ele>320</ele>
        <time>2024-11-03T12:23:29Z</time>
      </trkpt>
      <trkpt lat="43.49206" lon="6.91358">
        <ele>320.1</ele>
        <time>2024-11-03T12:23:30Z</time>
      </trkpt>
      <trkpt lat="43.49204" lon="6.91359">
        <ele>320.7</ele>
        <time>2024-11-03T12:23:38Z</time>
      </trkpt>
      <trkpt lat="43.49204" lon="6.91359">
        <ele>320.8</ele>
        <time>2024-11-03T12:23:39Z</time>
      </trkpt>
      <trkpt lat="43.49206" lon="6.91357">
        <ele>320.7</ele>
        <time>2024-11-03T12:23:53Z</time>
      </trkpt>
      <trkpt lat="43.49206" lon="6.91357">
        <ele>320.6</ele>
        <time>2024-11-03T12:23:54Z</time>
      </trkpt>
      <trkpt lat="43.49206" lon="6.91358">
        <ele>320.1</ele>
        <time>2024-11-03T12:23:58Z</time>
      </trkpt>
      <trkpt lat="43.49205" lon="6.91358">
        <ele>320</ele>
        <time>2024-11-03T12:23:59Z</time>
      </trkpt>
      <trkpt lat="43.49205" lon="6.91359">
        <ele>320.7</ele>
        <time>2024-11-03T12:24:10Z</time>
      </trkpt>
      <trkpt lat="43.49204" lon="6.91359">
        <ele>320.7</ele>
        <time>2024-11-03T12:24:11Z</time>
      </trkpt>
      <trkpt lat="43.49203" lon="6.9136">
        <ele>321.1</ele>
        <time>2024-11-03T12:24:19Z</time>
      </trkpt>
      <trkpt lat="43.49203" lon="6.91359">
        <ele>321.1</ele>
        <time>2024-11-03T12:24:20Z</time>
      </trkpt>
      <trkpt lat="43.49203" lon="6.91359">
        <ele>321</ele>
        <time>2024-11-03T12:24:21Z</time>
      </trkpt>
      <trkpt lat="43.49204" lon="6.91359">
        <ele>320.9</ele>
        <time>2024-11-03T12:24:22Z</time>
      </trkpt>
      <trkpt lat="43.49203" lon="6.91359">
        <ele>321.2</ele>
        <time>2024-11-03T12:24:36Z</time>
      </trkpt>
      <trkpt lat="43.49203" lon="6.9136">
        <ele>321.2</ele>
        <time>2024-11-03T12:24:37Z</time>
      </trkpt>
      <trkpt lat="43.49203" lon="6.91359">
        <ele>321</ele>
        <time>2024-11-03T12:24:40Z</time>
      </trkpt>
      <trkpt lat="43.49203" lon="6.91361">
        <ele>320.9</ele>
        <time>2024-11-03T12:24:41Z</time>
      </trkpt>
      <trkpt lat="43.49203" lon="6.91361">
        <ele>320.9</ele>
        <time>2024-11-03T12:24:42Z</time>
      </trkpt>
      <trkpt lat="43.49203" lon="6.91361">
        <ele>320.9</ele>
        <time>2024-11-03T12:24:43Z</time>
      </trkpt>
      <trkpt lat="43.49203" lon="6.91361">
        <ele>321</ele>
        <time>2024-11-03T12:24:46Z</time>
      </trkpt>
      <trkpt lat="43.49203" lon="6.9136">
        <ele>320.9</ele>
        <time>2024-11-03T12:24:47Z</time>
      </trkpt>
      <trkpt lat="43.49205" lon="6.9136">
        <ele>320.3</ele>
        <time>2024-11-03T12:24:52Z</time>
      </trkpt>
      <trkpt lat="43.49205" lon="6.9136">
        <ele>320.1</ele>
        <time>2024-11-03T12:24:53Z</time>
      </trkpt>
      <trkpt lat="43.49206" lon="6.91359">
        <ele>319.7</ele>
        <time>2024-11-03T12:24:59Z</time>
      </trkpt>
      <trkpt lat="43.49207" lon="6.91359">
        <ele>319.6</ele>
        <time>2024-11-03T12:25:00Z</time>
      </trkpt>
      <trkpt lat="43.49206" lon="6.9136">
        <ele>319.3</ele>
        <time>2024-11-03T12:25:04Z</time>
      </trkpt>
      <trkpt lat="43.49207" lon="6.91359">
        <ele>319.2</ele>
        <time>2024-11-03T12:25:05Z</time>
      </trkpt>
      <trkpt lat="43.49208" lon="6.91356">
        <ele>318.9</ele>
        <time>2024-11-03T12:25:18Z</time>
      </trkpt>
      <trkpt lat="43.49208" lon="6.91356">
        <ele>319</ele>
        <time>2024-11-03T12:25:24Z</time>
      </trkpt>
      <trkpt lat="43.49208" lon="6.91357">
        <ele>319</ele>
        <time>2024-11-03T12:25:27Z</time>
      </trkpt>
      <trkpt lat="43.49208" lon="6.91357">
        <ele>319</ele>
        <time>2024-11-03T12:25:28Z</time>
      </trkpt>
      <trkpt lat="43.49208" lon="6.91357">
        <ele>319</ele>
        <time>2024-11-03T12:25:29Z</time>
      </trkpt>
      <trkpt lat="43.49208" lon="6.91357">
        <ele>319.1</ele>
        <time>2024-11-03T12:25:30Z</time>
      </trkpt>
      <trkpt lat="43.49207" lon="6.91358">
        <ele>319.4</ele>
        <time>2024-11-03T12:25:39Z</time>
      </trkpt>
      <trkpt lat="43.49206" lon="6.91359">
        <ele>319.3</ele>
        <time>2024-11-03T12:25:40Z</time>
      </trkpt>
      <trkpt lat="43.49206" lon="6.91358">
        <ele>318.9</ele>
        <time>2024-11-03T12:25:51Z</time>
      </trkpt>
      <trkpt lat="43.49205" lon="6.91358">
        <ele>318.9</ele>
        <time>2024-11-03T12:25:52Z</time>
      </trkpt>
      <trkpt lat="43.49205" lon="6.91358">
        <ele>318.9</ele>
        <time>2024-11-03T12:25:53Z</time>
      </trkpt>
      <trkpt lat="43.49205" lon="6.91358">
        <ele>318.9</ele>
        <time>2024-11-03T12:25:54Z</time>
      </trkpt>
      <trkpt lat="43.49205" lon="6.91358">
        <ele>318.9</ele>
        <time>2024-11-03T12:25:55Z</time>
      </trkpt>
      <trkpt lat="43.49205" lon="6.91358">
        <ele>318.9</ele>
        <time>2024-11-03T12:25:56Z</time>
      </trkpt>
      <trkpt lat="43.49204" lon="6.91358">
        <ele>319.3</ele>
        <time>2024-11-03T12:26:04Z</time>
      </trkpt>
      <trkpt lat="43.49203" lon="6.91359">
        <ele>319.4</ele>
        <time>2024-11-03T12:26:05Z</time>
      </trkpt>
      <trkpt lat="43.49203" lon="6.91362">
        <ele>319.9</ele>
        <time>2024-11-03T12:26:14Z</time>
      </trkpt>
      <trkpt lat="43.49203" lon="6.91361">
        <ele>320.2</ele>
        <time>2024-11-03T12:26:21Z</time>
      </trkpt>
      <trkpt lat="43.49203" lon="6.91362">
        <ele>320</ele>
        <time>2024-11-03T12:26:27Z</time>
      </trkpt>
      <trkpt lat="43.49203" lon="6.91363">
        <ele>320</ele>
        <time>2024-11-03T12:26:29Z</time>
      </trkpt>
      <trkpt lat="43.49201" lon="6.91365">
        <ele>318.8</ele>
        <time>2024-11-03T12:26:40Z</time>
      </trkpt>
      <trkpt lat="43.492" lon="6.91365">
        <ele>318.8</ele>
        <time>2024-11-03T12:26:41Z</time>
      </trkpt>
      <trkpt lat="43.49201" lon="6.91366">
        <ele>318.1</ele>
        <time>2024-11-03T12:26:45Z</time>
      </trkpt>
      <trkpt lat="43.49201" lon="6.91365">
        <ele>317.9</ele>
        <time>2024-11-03T12:26:46Z</time>
      </trkpt>
      <trkpt lat="43.49202" lon="6.91364">
        <ele>317.3</ele>
        <time>2024-11-03T12:26:50Z</time>
      </trkpt>
      <trkpt lat="43.49202" lon="6.91364">
        <ele>317.4</ele>
        <time>2024-11-03T12:26:51Z</time>
      </trkpt>
      <trkpt lat="43.49201" lon="6.91364">
        <ele>317.5</ele>
        <time>2024-11-03T12:26:54Z</time>
      </trkpt>
      <trkpt lat="43.49201" lon="6.91364">
        <ele>317.7</ele>
        <time>2024-11-03T12:26:56Z</time>
      </trkpt>
      <trkpt lat="43.492" lon="6.91366">
        <ele>317.3</ele>
        <time>2024-11-03T12:27:03Z</time>
      </trkpt>
      <trkpt lat="43.49201" lon="6.91366">
        <ele>317.1</ele>
        <time>2024-11-03T12:27:04Z</time>
      </trkpt>
      <trkpt lat="43.49195" lon="6.91371">
        <ele>314.9</ele>
        <time>2024-11-03T12:27:21Z</time>
      </trkpt>
      <trkpt lat="43.49195" lon="6.9137">
        <ele>314.7</ele>
        <time>2024-11-03T12:27:22Z</time>
      </trkpt>
      <trkpt lat="43.49194" lon="6.91372">
        <ele>313.5</ele>
        <time>2024-11-03T12:27:31Z</time>
      </trkpt>
      <trkpt lat="43.49194" lon="6.91372">
        <ele>313.6</ele>
        <time>2024-11-03T12:27:32Z</time>
      </trkpt>
      <trkpt lat="43.49188" lon="6.91373">
        <ele>312.3</ele>
        <time>2024-11-03T12:27:52Z</time>
      </trkpt>
      <trkpt lat="43.49188" lon="6.91373">
        <ele>312.3</ele>
        <time>2024-11-03T12:27:53Z</time>
      </trkpt>
      <trkpt lat="43.49188" lon="6.91373">
        <ele>311.7</ele>
        <time>2024-11-03T12:27:55Z</time>
      </trkpt>
      <trkpt lat="43.49188" lon="6.91373">
        <ele>311.6</ele>
        <time>2024-11-03T12:27:56Z</time>
      </trkpt>
      <trkpt lat="43.49191" lon="6.91385">
        <ele>306.9</ele>
        <time>2024-11-03T12:28:19Z</time>
      </trkpt>
      <trkpt lat="43.4919" lon="6.91385">
        <ele>306.7</ele>
        <time>2024-11-03T12:28:20Z</time>
      </trkpt>
      <trkpt lat="43.4919" lon="6.91384">
        <ele>306.1</ele>
        <time>2024-11-03T12:28:22Z</time>
      </trkpt>
      <trkpt lat="43.49189" lon="6.91384">
        <ele>305.7</ele>
        <time>2024-11-03T12:28:23Z</time>
      </trkpt>
      <trkpt lat="43.49188" lon="6.91384">
        <ele>304.6</ele>
        <time>2024-11-03T12:28:30Z</time>
      </trkpt>
      <trkpt lat="43.49188" lon="6.91384">
        <ele>304.6</ele>
        <time>2024-11-03T12:28:31Z</time>
      </trkpt>
      <trkpt lat="43.49187" lon="6.91388">
        <ele>303.8</ele>
        <time>2024-11-03T12:28:41Z</time>
      </trkpt>
      <trkpt lat="43.49187" lon="6.91387">
        <ele>303.9</ele>
        <time>2024-11-03T12:28:42Z</time>
      </trkpt>
      <trkpt lat="43.49186" lon="6.91389">
        <ele>303</ele>
        <time>2024-11-03T12:28:50Z</time>
      </trkpt>
      <trkpt lat="43.49186" lon="6.9139">
        <ele>302.8</ele>
        <time>2024-11-03T12:28:51Z</time>
      </trkpt>
      <trkpt lat="43.49185" lon="6.9139">
        <ele>302.5</ele>
        <time>2024-11-03T12:28:54Z</time>
      </trkpt>
      <trkpt lat="43.49185" lon="6.9139">
        <ele>302.3</ele>
        <time>2024-11-03T12:28:55Z</time>
      </trkpt>
      <trkpt lat="43.4918" lon="6.91392">
        <ele>299.3</ele>
        <time>2024-11-03T12:29:28Z</time>
      </trkpt>
      <trkpt lat="43.4918" lon="6.91392">
        <ele>299.1</ele>
        <time>2024-11-03T12:29:29Z</time>
      </trkpt>
      <trkpt lat="43.49174" lon="6.91402">
        <ele>296.9</ele>
        <time>2024-11-03T12:29:54Z</time>
      </trkpt>
      <trkpt lat="43.49175" lon="6.91407">
        <ele>296.3</ele>
        <time>2024-11-03T12:30:12Z</time>
      </trkpt>
      <trkpt lat="43.49175" lon="6.91407">
        <ele>296.2</ele>
        <time>2024-11-03T12:30:13Z</time>
      </trkpt>
      <trkpt lat="43.49175" lon="6.91407">
        <ele>296</ele>
        <time>2024-11-03T12:30:17Z</time>
      </trkpt>
      <trkpt lat="43.49175" lon="6.91407">
        <ele>296</ele>
        <time>2024-11-03T12:30:18Z</time>
      </trkpt>
      <trkpt lat="43.49172" lon="6.91407">
        <ele>295.1</ele>
        <time>2024-11-03T12:30:28Z</time>
      </trkpt>
      <trkpt lat="43.49172" lon="6.91407">
        <ele>295</ele>
        <time>2024-11-03T12:30:29Z</time>
      </trkpt>
      <trkpt lat="43.49172" lon="6.91408">
        <ele>294.9</ele>
        <time>2024-11-03T12:30:31Z</time>
      </trkpt>
      <trkpt lat="43.49171" lon="6.91408">
        <ele>294.7</ele>
        <time>2024-11-03T12:30:32Z</time>
      </trkpt>
      <trkpt lat="43.4917" lon="6.91417">
        <ele>291.8</ele>
        <time>2024-11-03T12:30:47Z</time>
      </trkpt>
      <trkpt lat="43.4917" lon="6.91417">
        <ele>291.6</ele>
        <time>2024-11-03T12:30:48Z</time>
      </trkpt>
      <trkpt lat="43.4917" lon="6.91417">
        <ele>291.6</ele>
        <time>2024-11-03T12:30:49Z</time>
      </trkpt>
      <trkpt lat="43.4917" lon="6.91418">
        <ele>291.6</ele>
        <time>2024-11-03T12:30:50Z</time>
      </trkpt>
      <trkpt lat="43.49171" lon="6.91418">
        <ele>291.5</ele>
        <time>2024-11-03T12:31:01Z</time>
      </trkpt>
      <trkpt lat="43.4917" lon="6.91419">
        <ele>291.5</ele>
        <time>2024-11-03T12:31:04Z</time>
      </trkpt>
      <trkpt lat="43.49176" lon="6.91427">
        <ele>289.7</ele>
        <time>2024-11-03T12:31:22Z</time>
      </trkpt>
      <trkpt lat="43.49176" lon="6.91427">
        <ele>289.6</ele>
        <time>2024-11-03T12:31:23Z</time>
      </trkpt>
      <trkpt lat="43.49177" lon="6.91426">
        <ele>288.6</ele>
        <time>2024-11-03T12:31:26Z</time>
      </trkpt>
      <trkpt lat="43.49177" lon="6.91427">
        <ele>288.8</ele>
        <time>2024-11-03T12:31:34Z</time>
      </trkpt>
      <trkpt lat="43.49169" lon="6.91434">
        <ele>284.9</ele>
        <time>2024-11-03T12:32:54Z</time>
      </trkpt>
      <trkpt lat="43.49168" lon="6.91436">
        <ele>285.1</ele>
        <time>2024-11-03T12:33:01Z</time>
      </trkpt>
      <trkpt lat="43.49169" lon="6.91436">
        <ele>285</ele>
        <time>2024-11-03T12:33:02Z</time>
      </trkpt>
      <trkpt lat="43.49167" lon="6.91439">
        <ele>285.9</ele>
        <time>2024-11-03T12:33:16Z</time>
      </trkpt>
      <trkpt lat="43.49167" lon="6.91439">
        <ele>285.9</ele>
        <time>2024-11-03T12:33:17Z</time>
      </trkpt>
      <trkpt lat="43.49166" lon="6.9145">
        <ele>286.9</ele>
        <time>2024-11-03T12:33:40Z</time>
      </trkpt>
      <trkpt lat="43.49166" lon="6.91451">
        <ele>286.8</ele>
        <time>2024-11-03T12:33:41Z</time>
      </trkpt>
      <trkpt lat="43.49168" lon="6.91457">
        <ele>284.8</ele>
        <time>2024-11-03T12:33:57Z</time>
      </trkpt>
      <trkpt lat="43.49167" lon="6.91457">
        <ele>284.6</ele>
        <time>2024-11-03T12:33:58Z</time>
      </trkpt>
      <trkpt lat="43.49174" lon="6.91458">
        <ele>283.5</ele>
        <time>2024-11-03T12:34:10Z</time>
      </trkpt>
      <trkpt lat="43.49174" lon="6.91458">
        <ele>283.6</ele>
        <time>2024-11-03T12:34:11Z</time>
      </trkpt>
      <trkpt lat="43.49165" lon="6.91463">
        <ele>281.5</ele>
        <time>2024-11-03T12:34:51Z</time>
      </trkpt>
      <trkpt lat="43.49163" lon="6.91463">
        <ele>283.6</ele>
        <time>2024-11-03T12:34:59Z</time>
      </trkpt>
      <trkpt lat="43.49163" lon="6.91464">
        <ele>283.7</ele>
        <time>2024-11-03T12:35:04Z</time>
      </trkpt>
      <trkpt lat="43.49166" lon="6.91476">
        <ele>284.4</ele>
        <time>2024-11-03T12:35:31Z</time>
      </trkpt>
      <trkpt lat="43.49166" lon="6.91478">
        <ele>284.2</ele>
        <time>2024-11-03T12:35:34Z</time>
      </trkpt>
      <trkpt lat="43.49166" lon="6.91478">
        <ele>283.8</ele>
        <time>2024-11-03T12:35:35Z</time>
      </trkpt>
      <trkpt lat="43.49164" lon="6.91479">
        <ele>282.7</ele>
        <time>2024-11-03T12:35:43Z</time>
      </trkpt>
      <trkpt lat="43.49165" lon="6.91479">
        <ele>282.8</ele>
        <time>2024-11-03T12:35:44Z</time>
      </trkpt>
      <trkpt lat="43.49167" lon="6.91479">
        <ele>282.7</ele>
        <time>2024-11-03T12:35:50Z</time>
      </trkpt>
      <trkpt lat="43.49168" lon="6.91479">
        <ele>282.7</ele>
        <time>2024-11-03T12:35:51Z</time>
      </trkpt>
      <trkpt lat="43.49166" lon="6.91479">
        <ele>282.5</ele>
        <time>2024-11-03T12:35:55Z</time>
      </trkpt>
      <trkpt lat="43.49166" lon="6.91479">
        <ele>282.6</ele>
        <time>2024-11-03T12:35:56Z</time>
      </trkpt>
      <trkpt lat="43.49167" lon="6.91478">
        <ele>283</ele>
        <time>2024-11-03T12:35:58Z</time>
      </trkpt>
      <trkpt lat="43.49166" lon="6.91479">
        <ele>283.2</ele>
        <time>2024-11-03T12:35:59Z</time>
      </trkpt>
      <trkpt lat="43.49167" lon="6.9148">
        <ele>281.6</ele>
        <time>2024-11-03T12:36:12Z</time>
      </trkpt>
      <trkpt lat="43.49167" lon="6.9148">
        <ele>281.5</ele>
        <time>2024-11-03T12:36:13Z</time>
      </trkpt>
      <trkpt lat="43.49168" lon="6.91481">
        <ele>281.2</ele>
        <time>2024-11-03T12:36:15Z</time>
      </trkpt>
      <trkpt lat="43.49168" lon="6.91481">
        <ele>280.9</ele>
        <time>2024-11-03T12:36:17Z</time>
      </trkpt>
      <trkpt lat="43.49169" lon="6.91486">
        <ele>279.6</ele>
        <time>2024-11-03T12:36:33Z</time>
      </trkpt>
      <trkpt lat="43.49168" lon="6.91486">
        <ele>279.4</ele>
        <time>2024-11-03T12:36:34Z</time>
      </trkpt>
      <trkpt lat="43.49166" lon="6.91484">
        <ele>278.1</ele>
        <time>2024-11-03T12:36:40Z</time>
      </trkpt>
      <trkpt lat="43.49166" lon="6.91484">
        <ele>278</ele>
        <time>2024-11-03T12:36:41Z</time>
      </trkpt>
      <trkpt lat="43.49166" lon="6.91487">
        <ele>274.6</ele>
        <time>2024-11-03T12:36:52Z</time>
      </trkpt>
      <trkpt lat="43.49166" lon="6.91486">
        <ele>274.5</ele>
        <time>2024-11-03T12:36:53Z</time>
      </trkpt>
      <trkpt lat="43.49166" lon="6.91486">
        <ele>273.8</ele>
        <time>2024-11-03T12:36:56Z</time>
      </trkpt>
      <trkpt lat="43.49166" lon="6.91487">
        <ele>273.6</ele>
        <time>2024-11-03T12:36:58Z</time>
      </trkpt>
      <trkpt lat="43.49166" lon="6.91487">
        <ele>273.7</ele>
        <time>2024-11-03T12:36:59Z</time>
      </trkpt>
      <trkpt lat="43.49165" lon="6.91487">
        <ele>273.8</ele>
        <time>2024-11-03T12:37:01Z</time>
      </trkpt>
      <trkpt lat="43.49165" lon="6.91488">
        <ele>273.1</ele>
        <time>2024-11-03T12:37:04Z</time>
      </trkpt>
      <trkpt lat="43.49165" lon="6.91488">
        <ele>273.1</ele>
        <time>2024-11-03T12:37:05Z</time>
      </trkpt>
      <trkpt lat="43.49165" lon="6.91489">
        <ele>272.4</ele>
        <time>2024-11-03T12:37:07Z</time>
      </trkpt>
      <trkpt lat="43.49165" lon="6.91489">
        <ele>272.6</ele>
        <time>2024-11-03T12:37:08Z</time>
      </trkpt>
      <trkpt lat="43.49165" lon="6.91489">
        <ele>272.6</ele>
        <time>2024-11-03T12:37:09Z</time>
      </trkpt>
      <trkpt lat="43.49165" lon="6.91489">
        <ele>272.7</ele>
        <time>2024-11-03T12:37:10Z</time>
      </trkpt>
      <trkpt lat="43.49171" lon="6.91497">
        <ele>267.7</ele>
        <time>2024-11-03T12:37:42Z</time>
      </trkpt>
      <trkpt lat="43.49171" lon="6.91497">
        <ele>267.8</ele>
        <time>2024-11-03T12:37:43Z</time>
      </trkpt>
      <trkpt lat="43.49172" lon="6.91496">
        <ele>268</ele>
        <time>2024-11-03T12:37:47Z</time>
      </trkpt>
      <trkpt lat="43.49172" lon="6.91496">
        <ele>268.2</ele>
        <time>2024-11-03T12:37:48Z</time>
      </trkpt>
      <trkpt lat="43.49172" lon="6.91498">
        <ele>267.6</ele>
        <time>2024-11-03T12:38:00Z</time>
      </trkpt>
      <trkpt lat="43.49172" lon="6.91498">
        <ele>267.6</ele>
        <time>2024-11-03T12:38:01Z</time>
      </trkpt>
      <trkpt lat="43.49172" lon="6.91498">
        <ele>267.5</ele>
        <time>2024-11-03T12:38:02Z</time>
      </trkpt>
      <trkpt lat="43.49173" lon="6.91498">
        <ele>267.4</ele>
        <time>2024-11-03T12:38:03Z</time>
      </trkpt>
      <trkpt lat="43.49173" lon="6.91498">
        <ele>267.3</ele>
        <time>2024-11-03T12:38:05Z</time>
      </trkpt>
      <trkpt lat="43.49172" lon="6.91498">
        <ele>267.1</ele>
        <time>2024-11-03T12:38:06Z</time>
      </trkpt>
      <trkpt lat="43.49173" lon="6.91498">
        <ele>267.1</ele>
        <time>2024-11-03T12:38:12Z</time>
      </trkpt>
      <trkpt lat="43.49173" lon="6.91498">
        <ele>266.8</ele>
        <time>2024-11-03T12:38:14Z</time>
      </trkpt>
      <trkpt lat="43.49173" lon="6.91499">
        <ele>266.7</ele>
        <time>2024-11-03T12:38:15Z</time>
      </trkpt>
      <trkpt lat="43.49173" lon="6.91499">
        <ele>266.7</ele>
        <time>2024-11-03T12:38:16Z</time>
      </trkpt>
      <trkpt lat="43.49173" lon="6.91498">
        <ele>266.1</ele>
        <time>2024-11-03T12:38:28Z</time>
      </trkpt>
      <trkpt lat="43.49173" lon="6.91497">
        <ele>266.1</ele>
        <time>2024-11-03T12:38:29Z</time>
      </trkpt>
      <trkpt lat="43.49173" lon="6.91498">
        <ele>265.8</ele>
        <time>2024-11-03T12:38:34Z</time>
      </trkpt>
      <trkpt lat="43.49173" lon="6.91498">
        <ele>265.7</ele>
        <time>2024-11-03T12:38:35Z</time>
      </trkpt>
      <trkpt lat="43.49173" lon="6.91498">
        <ele>265.1</ele>
        <time>2024-11-03T12:38:39Z</time>
      </trkpt>
      <trkpt lat="43.49173" lon="6.91498">
        <ele>265</ele>
        <time>2024-11-03T12:38:40Z</time>
      </trkpt>
      <trkpt lat="43.49176" lon="6.915">
        <ele>264.3</ele>
        <time>2024-11-03T12:38:50Z</time>
      </trkpt>
      <trkpt lat="43.49176" lon="6.915">
        <ele>264.2</ele>
        <time>2024-11-03T12:38:51Z</time>
      </trkpt>
      <trkpt lat="43.49176" lon="6.91499">
        <ele>263.9</ele>
        <time>2024-11-03T12:39:03Z</time>
      </trkpt>
      <trkpt lat="43.49176" lon="6.91499">
        <ele>263.8</ele>
        <time>2024-11-03T12:39:04Z</time>
      </trkpt>
      <trkpt lat="43.49174" lon="6.91497">
        <ele>261.9</ele>
        <time>2024-11-03T12:39:28Z</time>
      </trkpt>
      <trkpt lat="43.49173" lon="6.91497">
        <ele>261.9</ele>
        <time>2024-11-03T12:39:29Z</time>
      </trkpt>
      <trkpt lat="43.49172" lon="6.91497">
        <ele>261.8</ele>
        <time>2024-11-03T12:39:33Z</time>
      </trkpt>
      <trkpt lat="43.49171" lon="6.91497">
        <ele>261.8</ele>
        <time>2024-11-03T12:39:34Z</time>
      </trkpt>
      <trkpt lat="43.49175" lon="6.91494">
        <ele>261.6</ele>
        <time>2024-11-03T12:40:05Z</time>
      </trkpt>
      <trkpt lat="43.49175" lon="6.91494">
        <ele>261.5</ele>
        <time>2024-11-03T12:40:06Z</time>
      </trkpt>
      <trkpt lat="43.49174" lon="6.91492">
        <ele>261.2</ele>
        <time>2024-11-03T12:40:10Z</time>
      </trkpt>
      <trkpt lat="43.49174" lon="6.91492">
        <ele>261</ele>
        <time>2024-11-03T12:40:11Z</time>
      </trkpt>
      <trkpt lat="43.49174" lon="6.91492">
        <ele>260.2</ele>
        <time>2024-11-03T12:40:18Z</time>
      </trkpt>
      <trkpt lat="43.49174" lon="6.91492">
        <ele>259.9</ele>
        <time>2024-11-03T12:40:19Z</time>
      </trkpt>
      <trkpt lat="43.49175" lon="6.91492">
        <ele>258.8</ele>
        <time>2024-11-03T12:40:24Z</time>
      </trkpt>
      <trkpt lat="43.49175" lon="6.91493">
        <ele>258.7</ele>
        <time>2024-11-03T12:40:26Z</time>
      </trkpt>
      <trkpt lat="43.49176" lon="6.91494">
        <ele>258.8</ele>
        <time>2024-11-03T12:40:32Z</time>
      </trkpt>
      <trkpt lat="43.49176" lon="6.91494">
        <ele>258.7</ele>
        <time>2024-11-03T12:40:33Z</time>
      </trkpt>
      <trkpt lat="43.49176" lon="6.91499">
        <ele>257.3</ele>
        <time>2024-11-03T12:40:59Z</time>
      </trkpt>
      <trkpt lat="43.49176" lon="6.91499">
        <ele>257.4</ele>
        <time>2024-11-03T12:41:00Z</time>
      </trkpt>
      <trkpt lat="43.49177" lon="6.91499">
        <ele>256.7</ele>
        <time>2024-11-03T12:41:09Z</time>
      </trkpt>
      <trkpt lat="43.49177" lon="6.91499">
        <ele>256.7</ele>
        <time>2024-11-03T12:41:10Z</time>
      </trkpt>
      <trkpt lat="43.49177" lon="6.915">
        <ele>256.6</ele>
        <time>2024-11-03T12:41:13Z</time>
      </trkpt>
      <trkpt lat="43.49177" lon="6.91499">
        <ele>256.7</ele>
        <time>2024-11-03T12:41:14Z</time>
      </trkpt>
      <trkpt lat="43.49176" lon="6.91499">
        <ele>257</ele>
        <time>2024-11-03T12:41:17Z</time>
      </trkpt>
      <trkpt lat="43.49175" lon="6.91499">
        <ele>257</ele>
        <time>2024-11-03T12:41:18Z</time>
      </trkpt>
      <trkpt lat="43.49175" lon="6.91499">
        <ele>257</ele>
        <time>2024-11-03T12:41:20Z</time>
      </trkpt>
      <trkpt lat="43.49175" lon="6.91498">
        <ele>257</ele>
        <time>2024-11-03T12:41:21Z</time>
      </trkpt>
      <trkpt lat="43.49171" lon="6.91499">
        <ele>256.1</ele>
        <time>2024-11-03T12:41:34Z</time>
      </trkpt>
      <trkpt lat="43.49171" lon="6.91499">
        <ele>255.9</ele>
        <time>2024-11-03T12:41:35Z</time>
      </trkpt>
      <trkpt lat="43.49171" lon="6.91498">
        <ele>255.3</ele>
        <time>2024-11-03T12:41:38Z</time>
      </trkpt>
      <trkpt lat="43.49171" lon="6.91497">
        <ele>255.1</ele>
        <time>2024-11-03T12:41:39Z</time>
      </trkpt>
      <trkpt lat="43.49172" lon="6.91498">
        <ele>254.8</ele>
        <time>2024-11-03T12:41:44Z</time>
      </trkpt>
      <trkpt lat="43.49172" lon="6.91498">
        <ele>254.8</ele>
        <time>2024-11-03T12:41:45Z</time>
      </trkpt>
      <trkpt lat="43.49169" lon="6.91495">
        <ele>256.4</ele>
        <time>2024-11-03T12:42:12Z</time>
      </trkpt>
      <trkpt lat="43.49169" lon="6.91494">
        <ele>256.5</ele>
        <time>2024-11-03T12:42:16Z</time>
      </trkpt>
      <trkpt lat="43.49169" lon="6.91494">
        <ele>256.5</ele>
        <time>2024-11-03T12:42:17Z</time>
      </trkpt>
      <trkpt lat="43.49169" lon="6.91494">
        <ele>256.5</ele>
        <time>2024-11-03T12:42:19Z</time>
      </trkpt>
      <trkpt lat="43.49169" lon="6.91494">
        <ele>256.5</ele>
        <time>2024-11-03T12:42:20Z</time>
      </trkpt>
      <trkpt lat="43.49169" lon="6.91494">
        <ele>256.8</ele>
        <time>2024-11-03T12:42:22Z</time>
      </trkpt>
      <trkpt lat="43.4917" lon="6.91489">
        <ele>256.6</ele>
        <time>2024-11-03T12:42:30Z</time>
      </trkpt>
      <trkpt lat="43.4917" lon="6.91489">
        <ele>256.6</ele>
        <time>2024-11-03T12:42:31Z</time>
      </trkpt>
      <trkpt lat="43.4917" lon="6.9149">
        <ele>256</ele>
        <time>2024-11-03T12:42:36Z</time>
      </trkpt>
      <trkpt lat="43.4917" lon="6.9149">
        <ele>256</ele>
        <time>2024-11-03T12:42:37Z</time>
      </trkpt>
      <trkpt lat="43.49169" lon="6.91489">
        <ele>256.2</ele>
        <time>2024-11-03T12:42:43Z</time>
      </trkpt>
      <trkpt lat="43.49169" lon="6.9149">
        <ele>256.1</ele>
        <time>2024-11-03T12:42:45Z</time>
      </trkpt>
      <trkpt lat="43.49169" lon="6.91491">
        <ele>256.1</ele>
        <time>2024-11-03T12:42:48Z</time>
      </trkpt>
      <trkpt lat="43.49169" lon="6.91491">
        <ele>256.2</ele>
        <time>2024-11-03T12:42:56Z</time>
      </trkpt>
      <trkpt lat="43.4917" lon="6.91494">
        <ele>254.8</ele>
        <time>2024-11-03T12:43:05Z</time>
      </trkpt>
      <trkpt lat="43.49169" lon="6.91494">
        <ele>254.5</ele>
        <time>2024-11-03T12:43:09Z</time>
      </trkpt>
      <trkpt lat="43.49169" lon="6.91494">
        <ele>254.4</ele>
        <time>2024-11-03T12:43:10Z</time>
      </trkpt>
      <trkpt lat="43.49169" lon="6.91495">
        <ele>254.4</ele>
        <time>2024-11-03T12:43:20Z</time>
      </trkpt>
      <trkpt lat="43.49169" lon="6.91497">
        <ele>254.6</ele>
        <time>2024-11-03T12:43:29Z</time>
      </trkpt>
      <trkpt lat="43.49168" lon="6.91497">
        <ele>254.6</ele>
        <time>2024-11-03T12:43:30Z</time>
      </trkpt>
      <trkpt lat="43.49168" lon="6.91497">
        <ele>254.6</ele>
        <time>2024-11-03T12:43:32Z</time>
      </trkpt>
      <trkpt lat="43.49168" lon="6.91497">
        <ele>254.4</ele>
        <time>2024-11-03T12:43:34Z</time>
      </trkpt>
      <trkpt lat="43.49169" lon="6.91497">
        <ele>254.5</ele>
        <time>2024-11-03T12:43:37Z</time>
      </trkpt>
      <trkpt lat="43.49169" lon="6.91497">
        <ele>254.3</ele>
        <time>2024-11-03T12:43:38Z</time>
      </trkpt>
      <trkpt lat="43.4917" lon="6.91497">
        <ele>255.4</ele>
        <time>2024-11-03T12:43:43Z</time>
      </trkpt>
      <trkpt lat="43.4917" lon="6.91497">
        <ele>255.3</ele>
        <time>2024-11-03T12:43:44Z</time>
      </trkpt>
      <trkpt lat="43.4917" lon="6.91499">
        <ele>255.9</ele>
        <time>2024-11-03T12:43:49Z</time>
      </trkpt>
      <trkpt lat="43.4917" lon="6.915">
        <ele>256.1</ele>
        <time>2024-11-03T12:43:51Z</time>
      </trkpt>
      <trkpt lat="43.49171" lon="6.91502">
        <ele>256</ele>
        <time>2024-11-03T12:43:58Z</time>
      </trkpt>
      <trkpt lat="43.49171" lon="6.91502">
        <ele>256</ele>
        <time>2024-11-03T12:44:00Z</time>
      </trkpt>
      <trkpt lat="43.49171" lon="6.91502">
        <ele>256</ele>
        <time>2024-11-03T12:44:03Z</time>
      </trkpt>
      <trkpt lat="43.49171" lon="6.91501">
        <ele>256</ele>
        <time>2024-11-03T12:44:05Z</time>
      </trkpt>
      <trkpt lat="43.49172" lon="6.915">
        <ele>255.5</ele>
        <time>2024-11-03T12:44:09Z</time>
      </trkpt>
      <trkpt lat="43.49172" lon="6.915">
        <ele>255.3</ele>
        <time>2024-11-03T12:44:10Z</time>
      </trkpt>
      <trkpt lat="43.49172" lon="6.91501">
        <ele>255.3</ele>
        <time>2024-11-03T12:44:15Z</time>
      </trkpt>
      <trkpt lat="43.49172" lon="6.91502">
        <ele>255.4</ele>
        <time>2024-11-03T12:44:16Z</time>
      </trkpt>
      <trkpt lat="43.49173" lon="6.91503">
        <ele>255.7</ele>
        <time>2024-11-03T12:44:19Z</time>
      </trkpt>
      <trkpt lat="43.49173" lon="6.91504">
        <ele>255.7</ele>
        <time>2024-11-03T12:44:20Z</time>
      </trkpt>
      <trkpt lat="43.49173" lon="6.91506">
        <ele>256.2</ele>
        <time>2024-11-03T12:44:26Z</time>
      </trkpt>
      <trkpt lat="43.49174" lon="6.91507">
        <ele>256.4</ele>
        <time>2024-11-03T12:44:27Z</time>
      </trkpt>
      <trkpt lat="43.49173" lon="6.91508">
        <ele>256.3</ele>
        <time>2024-11-03T12:44:32Z</time>
      </trkpt>
      <trkpt lat="43.49173" lon="6.91508">
        <ele>256.3</ele>
        <time>2024-11-03T12:44:35Z</time>
      </trkpt>
      <trkpt lat="43.49173" lon="6.9151">
        <ele>256.3</ele>
        <time>2024-11-03T12:44:39Z</time>
      </trkpt>
      <trkpt lat="43.49173" lon="6.9151">
        <ele>256.3</ele>
        <time>2024-11-03T12:44:42Z</time>
      </trkpt>
      <trkpt lat="43.4917" lon="6.91514">
        <ele>256.6</ele>
        <time>2024-11-03T12:44:58Z</time>
      </trkpt>
      <trkpt lat="43.4917" lon="6.91515">
        <ele>256.7</ele>
        <time>2024-11-03T12:45:00Z</time>
      </trkpt>
      <trkpt lat="43.4917" lon="6.91515">
        <ele>256.6</ele>
        <time>2024-11-03T12:45:02Z</time>
      </trkpt>
      <trkpt lat="43.4917" lon="6.91515">
        <ele>256.5</ele>
        <time>2024-11-03T12:45:04Z</time>
      </trkpt>
      <trkpt lat="43.4917" lon="6.91515">
        <ele>256.5</ele>
        <time>2024-11-03T12:45:06Z</time>
      </trkpt>
      <trkpt lat="43.4917" lon="6.91515">
        <ele>256.4</ele>
        <time>2024-11-03T12:45:07Z</time>
      </trkpt>
      <trkpt lat="43.4917" lon="6.91515">
        <ele>256.2</ele>
        <time>2024-11-03T12:45:08Z</time>
      </trkpt>
      <trkpt lat="43.4917" lon="6.91516">
        <ele>255.9</ele>
        <time>2024-11-03T12:45:09Z</time>
      </trkpt>
      <trkpt lat="43.49168" lon="6.91518">
        <ele>254.8</ele>
        <time>2024-11-03T12:45:16Z</time>
      </trkpt>
      <trkpt lat="43.49168" lon="6.91518">
        <ele>254.7</ele>
        <time>2024-11-03T12:45:18Z</time>
      </trkpt>
      <trkpt lat="43.49168" lon="6.91518">
        <ele>254.6</ele>
        <time>2024-11-03T12:45:19Z</time>
      </trkpt>
      <trkpt lat="43.49168" lon="6.91519">
        <ele>254.7</ele>
        <time>2024-11-03T12:45:21Z</time>
      </trkpt>
      <trkpt lat="43.49168" lon="6.91519">
        <ele>254.7</ele>
        <time>2024-11-03T12:45:22Z</time>
      </trkpt>
      <trkpt lat="43.49168" lon="6.91519">
        <ele>254.8</ele>
        <time>2024-11-03T12:45:23Z</time>
      </trkpt>
      <trkpt lat="43.49168" lon="6.9152">
        <ele>254.7</ele>
        <time>2024-11-03T12:45:26Z</time>
      </trkpt>
      <trkpt lat="43.49169" lon="6.9152">
        <ele>254.7</ele>
        <time>2024-11-03T12:45:28Z</time>
      </trkpt>
      <trkpt lat="43.49169" lon="6.9152">
        <ele>254.5</ele>
        <time>2024-11-03T12:45:31Z</time>
      </trkpt>
      <trkpt lat="43.49169" lon="6.9152">
        <ele>254.5</ele>
        <time>2024-11-03T12:45:34Z</time>
      </trkpt>
      <trkpt lat="43.49169" lon="6.9152">
        <ele>254.4</ele>
        <time>2024-11-03T12:45:35Z</time>
      </trkpt>
      <trkpt lat="43.49169" lon="6.9152">
        <ele>254.5</ele>
        <time>2024-11-03T12:45:48Z</time>
      </trkpt>
      <trkpt lat="43.49166" lon="6.91517">
        <ele>254.3</ele>
        <time>2024-11-03T12:45:58Z</time>
      </trkpt>
      <trkpt lat="43.49166" lon="6.91517">
        <ele>254.4</ele>
        <time>2024-11-03T12:45:59Z</time>
      </trkpt>
      <trkpt lat="43.49165" lon="6.91516">
        <ele>254.5</ele>
        <time>2024-11-03T12:46:13Z</time>
      </trkpt>
      <trkpt lat="43.49165" lon="6.91516">
        <ele>254.6</ele>
        <time>2024-11-03T12:46:14Z</time>
      </trkpt>
      <trkpt lat="43.49167" lon="6.91517">
        <ele>255.1</ele>
        <time>2024-11-03T12:46:20Z</time>
      </trkpt>
      <trkpt lat="43.49167" lon="6.91517">
        <ele>255.1</ele>
        <time>2024-11-03T12:46:23Z</time>
      </trkpt>
      <trkpt lat="43.49167" lon="6.91517">
        <ele>255.1</ele>
        <time>2024-11-03T12:46:24Z</time>
      </trkpt>
      <trkpt lat="43.49167" lon="6.91517">
        <ele>255.2</ele>
        <time>2024-11-03T12:46:25Z</time>
      </trkpt>
      <trkpt lat="43.49166" lon="6.91519">
        <ele>254.9</ele>
        <time>2024-11-03T12:46:33Z</time>
      </trkpt>
      <trkpt lat="43.49166" lon="6.91519">
        <ele>254.9</ele>
        <time>2024-11-03T12:46:35Z</time>
      </trkpt>
      <trkpt lat="43.49166" lon="6.91519">
        <ele>254.9</ele>
        <time>2024-11-03T12:46:36Z</time>
      </trkpt>
      <trkpt lat="43.49165" lon="6.91518">
        <ele>254.8</ele>
        <time>2024-11-03T12:46:38Z</time>
      </trkpt>
      <trkpt lat="43.49165" lon="6.91518">
        <ele>254.8</ele>
        <time>2024-11-03T12:46:39Z</time>
      </trkpt>
      <trkpt lat="43.49165" lon="6.91518">
        <ele>254.8</ele>
        <time>2024-11-03T12:46:40Z</time>
      </trkpt>
      <trkpt lat="43.49164" lon="6.9152">
        <ele>255</ele>
        <time>2024-11-03T12:46:49Z</time>
      </trkpt>
      <trkpt lat="43.49164" lon="6.9152">
        <ele>255.1</ele>
        <time>2024-11-03T12:46:50Z</time>
      </trkpt>
      <trkpt lat="43.49164" lon="6.9152">
        <ele>255.1</ele>
        <time>2024-11-03T12:46:51Z</time>
      </trkpt>
      <trkpt lat="43.49164" lon="6.9152">
        <ele>255.1</ele>
        <time>2024-11-03T12:46:52Z</time>
      </trkpt>
      <trkpt lat="43.49164" lon="6.91521">
        <ele>255.3</ele>
        <time>2024-11-03T12:46:55Z</time>
      </trkpt>
      <trkpt lat="43.49163" lon="6.91521">
        <ele>255.3</ele>
        <time>2024-11-03T12:46:57Z</time>
      </trkpt>
      <trkpt lat="43.49163" lon="6.9152">
        <ele>254.6</ele>
        <time>2024-11-03T12:47:01Z</time>
      </trkpt>
      <trkpt lat="43.49163" lon="6.91521">
        <ele>254.6</ele>
        <time>2024-11-03T12:47:05Z</time>
      </trkpt>
      <trkpt lat="43.49163" lon="6.91521">
        <ele>254.4</ele>
        <time>2024-11-03T12:47:09Z</time>
      </trkpt>
      <trkpt lat="43.49163" lon="6.91521">
        <ele>254.4</ele>
        <time>2024-11-03T12:47:16Z</time>
      </trkpt>
      <trkpt lat="43.49163" lon="6.91522">
        <ele>254.5</ele>
        <time>2024-11-03T12:47:18Z</time>
      </trkpt>
      <trkpt lat="43.49163" lon="6.91522">
        <ele>254.3</ele>
        <time>2024-11-03T12:47:20Z</time>
      </trkpt>
      <trkpt lat="43.49163" lon="6.91522">
        <ele>254.2</ele>
        <time>2024-11-03T12:47:21Z</time>
      </trkpt>
      <trkpt lat="43.49163" lon="6.91521">
        <ele>254</ele>
        <time>2024-11-03T12:47:23Z</time>
      </trkpt>
      <trkpt lat="43.49163" lon="6.9152">
        <ele>253.2</ele>
        <time>2024-11-03T12:47:27Z</time>
      </trkpt>
      <trkpt lat="43.49163" lon="6.91521">
        <ele>253.1</ele>
        <time>2024-11-03T12:47:33Z</time>
      </trkpt>
      <trkpt lat="43.49164" lon="6.91534">
        <ele>250.8</ele>
        <time>2024-11-03T12:47:45Z</time>
      </trkpt>
      <trkpt lat="43.49167" lon="6.91544">
        <ele>249.1</ele>
        <time>2024-11-03T12:47:58Z</time>
      </trkpt>
      <trkpt lat="43.49167" lon="6.91544">
        <ele>248.9</ele>
        <time>2024-11-03T12:48:00Z</time>
      </trkpt>
      <trkpt lat="43.49167" lon="6.91544">
        <ele>248.8</ele>
        <time>2024-11-03T12:48:01Z</time>
      </trkpt>
      <trkpt lat="43.49167" lon="6.91544">
        <ele>248.8</ele>
        <time>2024-11-03T12:48:03Z</time>
      </trkpt>
      <trkpt lat="43.49167" lon="6.91544">
        <ele>248.7</ele>
        <time>2024-11-03T12:48:04Z</time>
      </trkpt>
      <trkpt lat="43.49168" lon="6.91544">
        <ele>248.3</ele>
        <time>2024-11-03T12:48:05Z</time>
      </trkpt>
      <trkpt lat="43.49168" lon="6.91544">
        <ele>248.1</ele>
        <time>2024-11-03T12:48:07Z</time>
      </trkpt>
      <trkpt lat="43.49168" lon="6.91544">
        <ele>248</ele>
        <time>2024-11-03T12:48:08Z</time>
      </trkpt>
      <trkpt lat="43.49169" lon="6.91545">
        <ele>247.6</ele>
        <time>2024-11-03T12:48:13Z</time>
      </trkpt>
      <trkpt lat="43.49169" lon="6.91545">
        <ele>247.4</ele>
        <time>2024-11-03T12:48:17Z</time>
      </trkpt>
      <trkpt lat="43.49168" lon="6.9154">
        <ele>246.8</ele>
        <time>2024-11-03T12:48:24Z</time>
      </trkpt>
      <trkpt lat="43.49168" lon="6.91539">
        <ele>246.8</ele>
        <time>2024-11-03T12:48:25Z</time>
      </trkpt>
      <trkpt lat="43.49169" lon="6.91541">
        <ele>246.6</ele>
        <time>2024-11-03T12:48:28Z</time>
      </trkpt>
      <trkpt lat="43.49168" lon="6.91541">
        <ele>246.6</ele>
        <time>2024-11-03T12:48:29Z</time>
      </trkpt>
      <trkpt lat="43.49168" lon="6.91541">
        <ele>246.4</ele>
        <time>2024-11-03T12:48:32Z</time>
      </trkpt>
      <trkpt lat="43.49169" lon="6.91541">
        <ele>246.4</ele>
        <time>2024-11-03T12:48:33Z</time>
      </trkpt>
      <trkpt lat="43.49166" lon="6.91533">
        <ele>247.5</ele>
        <time>2024-11-03T12:48:50Z</time>
      </trkpt>
      <trkpt lat="43.49166" lon="6.91534">
        <ele>247.3</ele>
        <time>2024-11-03T12:48:51Z</time>
      </trkpt>
      <trkpt lat="43.49166" lon="6.91534">
        <ele>247.4</ele>
        <time>2024-11-03T12:48:56Z</time>
      </trkpt>
      <trkpt lat="43.49166" lon="6.91534">
        <ele>247.4</ele>
        <time>2024-11-03T12:48:57Z</time>
      </trkpt>
      <trkpt lat="43.49166" lon="6.91534">
        <ele>247.4</ele>
        <time>2024-11-03T12:48:58Z</time>
      </trkpt>
      <trkpt lat="43.49166" lon="6.91534">
        <ele>247.3</ele>
        <time>2024-11-03T12:48:59Z</time>
      </trkpt>
      <trkpt lat="43.49167" lon="6.91532">
        <ele>247.2</ele>
        <time>2024-11-03T12:49:09Z</time>
      </trkpt>
      <trkpt lat="43.49167" lon="6.91531">
        <ele>247.2</ele>
        <time>2024-11-03T12:49:10Z</time>
      </trkpt>
      <trkpt lat="43.49167" lon="6.9153">
        <ele>247.4</ele>
        <time>2024-11-03T12:49:18Z</time>
      </trkpt>
      <trkpt lat="43.49167" lon="6.9153">
        <ele>247.4</ele>
        <time>2024-11-03T12:49:20Z</time>
      </trkpt>
      <trkpt lat="43.49167" lon="6.9153">
        <ele>247.4</ele>
        <time>2024-11-03T12:49:21Z</time>
      </trkpt>
      <trkpt lat="43.49166" lon="6.9153">
        <ele>247.3</ele>
        <time>2024-11-03T12:49:36Z</time>
      </trkpt>
      <trkpt lat="43.49166" lon="6.91539">
        <ele>246.7</ele>
        <time>2024-11-03T12:49:48Z</time>
      </trkpt>
      <trkpt lat="43.49166" lon="6.9154">
        <ele>246.7</ele>
        <time>2024-11-03T12:49:49Z</time>
      </trkpt>
      <trkpt lat="43.49166" lon="6.91542">
        <ele>247.2</ele>
        <time>2024-11-03T12:49:52Z</time>
      </trkpt>
      <trkpt lat="43.49166" lon="6.91542">
        <ele>247.1</ele>
        <time>2024-11-03T12:49:53Z</time>
      </trkpt>
      <trkpt lat="43.49173" lon="6.91551">
        <ele>245.8</ele>
        <time>2024-11-03T12:50:13Z</time>
      </trkpt>
      <trkpt lat="43.49173" lon="6.9155">
        <ele>245.6</ele>
        <time>2024-11-03T12:50:15Z</time>
      </trkpt>
      <trkpt lat="43.49173" lon="6.91551">
        <ele>245.5</ele>
        <time>2024-11-03T12:50:17Z</time>
      </trkpt>
      <trkpt lat="43.49173" lon="6.91551">
        <ele>245.6</ele>
        <time>2024-11-03T12:50:19Z</time>
      </trkpt>
      <trkpt lat="43.49173" lon="6.91552">
        <ele>245.6</ele>
        <time>2024-11-03T12:50:20Z</time>
      </trkpt>
      <trkpt lat="43.49172" lon="6.91553">
        <ele>246</ele>
        <time>2024-11-03T12:50:25Z</time>
      </trkpt>
      <trkpt lat="43.49172" lon="6.91552">
        <ele>246</ele>
        <time>2024-11-03T12:50:26Z</time>
      </trkpt>
      <trkpt lat="43.49172" lon="6.91551">
        <ele>245.6</ele>
        <time>2024-11-03T12:50:31Z</time>
      </trkpt>
      <trkpt lat="43.49172" lon="6.91552">
        <ele>245.6</ele>
        <time>2024-11-03T12:50:32Z</time>
      </trkpt>
      <trkpt lat="43.49171" lon="6.91552">
        <ele>245.6</ele>
        <time>2024-11-03T12:50:34Z</time>
      </trkpt>
      <trkpt lat="43.49171" lon="6.91552">
        <ele>245.5</ele>
        <time>2024-11-03T12:50:41Z</time>
      </trkpt>
      <trkpt lat="43.4917" lon="6.91551">
        <ele>245.8</ele>
        <time>2024-11-03T12:50:47Z</time>
      </trkpt>
      <trkpt lat="43.4917" lon="6.91552">
        <ele>246.2</ele>
        <time>2024-11-03T12:51:01Z</time>
      </trkpt>
      <trkpt lat="43.49169" lon="6.91553">
        <ele>246.6</ele>
        <time>2024-11-03T12:51:07Z</time>
      </trkpt>
      <trkpt lat="43.4917" lon="6.91552">
        <ele>246.5</ele>
        <time>2024-11-03T12:51:08Z</time>
      </trkpt>
      <trkpt lat="43.49169" lon="6.91549">
        <ele>244.2</ele>
        <time>2024-11-03T12:51:17Z</time>
      </trkpt>
      <trkpt lat="43.49169" lon="6.91548">
        <ele>244.2</ele>
        <time>2024-11-03T12:51:18Z</time>
      </trkpt>
      <trkpt lat="43.49167" lon="6.91549">
        <ele>244.7</ele>
        <time>2024-11-03T12:51:28Z</time>
      </trkpt>
      <trkpt lat="43.49167" lon="6.91549">
        <ele>244.6</ele>
        <time>2024-11-03T12:51:34Z</time>
      </trkpt>
      <trkpt lat="43.49167" lon="6.9155">
        <ele>244.8</ele>
        <time>2024-11-03T12:51:36Z</time>
      </trkpt>
      <trkpt lat="43.49167" lon="6.9155">
        <ele>244.9</ele>
        <time>2024-11-03T12:51:39Z</time>
      </trkpt>
      <trkpt lat="43.49167" lon="6.9155">
        <ele>244.9</ele>
        <time>2024-11-03T12:51:40Z</time>
      </trkpt>
      <trkpt lat="43.49167" lon="6.9155">
        <ele>244.9</ele>
        <time>2024-11-03T12:51:49Z</time>
      </trkpt>
      <trkpt lat="43.49167" lon="6.9155">
        <ele>244.9</ele>
        <time>2024-11-03T12:51:50Z</time>
      </trkpt>
      <trkpt lat="43.49167" lon="6.91551">
        <ele>245.1</ele>
        <time>2024-11-03T12:52:05Z</time>
      </trkpt>
      <trkpt lat="43.49167" lon="6.91551">
        <ele>245.3</ele>
        <time>2024-11-03T12:52:07Z</time>
      </trkpt>
      <trkpt lat="43.49167" lon="6.91551">
        <ele>245.3</ele>
        <time>2024-11-03T12:52:18Z</time>
      </trkpt>
      <trkpt lat="43.49171" lon="6.91556">
        <ele>247</ele>
        <time>2024-11-03T12:52:42Z</time>
      </trkpt>
      <trkpt lat="43.49171" lon="6.91557">
        <ele>247</ele>
        <time>2024-11-03T12:52:47Z</time>
      </trkpt>
      <trkpt lat="43.49171" lon="6.91557">
        <ele>247.1</ele>
        <time>2024-11-03T12:52:48Z</time>
      </trkpt>
      <trkpt lat="43.49171" lon="6.91557">
        <ele>247.3</ele>
        <time>2024-11-03T12:52:49Z</time>
      </trkpt>
      <trkpt lat="43.4917" lon="6.91556">
        <ele>248.2</ele>
        <time>2024-11-03T12:52:53Z</time>
      </trkpt>
      <trkpt lat="43.49171" lon="6.91556">
        <ele>248</ele>
        <time>2024-11-03T12:52:54Z</time>
      </trkpt>
      <trkpt lat="43.49171" lon="6.91556">
        <ele>248</ele>
        <time>2024-11-03T12:52:55Z</time>
      </trkpt>
      <trkpt lat="43.49171" lon="6.91556">
        <ele>248.1</ele>
        <time>2024-11-03T12:53:00Z</time>
      </trkpt>
      <trkpt lat="43.4917" lon="6.91556">
        <ele>248.1</ele>
        <time>2024-11-03T12:53:02Z</time>
      </trkpt>
      <trkpt lat="43.4917" lon="6.91556">
        <ele>248</ele>
        <time>2024-11-03T12:53:03Z</time>
      </trkpt>
      <trkpt lat="43.4917" lon="6.91556">
        <ele>248</ele>
        <time>2024-11-03T12:53:04Z</time>
      </trkpt>
      <trkpt lat="43.4917" lon="6.91556">
        <ele>248.2</ele>
        <time>2024-11-03T12:53:07Z</time>
      </trkpt>
      <trkpt lat="43.49167" lon="6.91552">
        <ele>246.4</ele>
        <time>2024-11-03T12:53:15Z</time>
      </trkpt>
      <trkpt lat="43.49166" lon="6.91551">
        <ele>246.3</ele>
        <time>2024-11-03T12:53:17Z</time>
      </trkpt>
      <trkpt lat="43.49165" lon="6.91551">
        <ele>246.1</ele>
        <time>2024-11-03T12:53:19Z</time>
      </trkpt>
      <trkpt lat="43.49165" lon="6.91551">
        <ele>246.2</ele>
        <time>2024-11-03T12:53:20Z</time>
      </trkpt>
      <trkpt lat="43.49165" lon="6.91551">
        <ele>246.3</ele>
        <time>2024-11-03T12:53:21Z</time>
      </trkpt>
      <trkpt lat="43.49165" lon="6.91551">
        <ele>246.4</ele>
        <time>2024-11-03T12:53:23Z</time>
      </trkpt>
      <trkpt lat="43.49165" lon="6.91551">
        <ele>246.2</ele>
        <time>2024-11-03T12:53:25Z</time>
      </trkpt>
      <trkpt lat="43.49165" lon="6.91551">
        <ele>246.3</ele>
        <time>2024-11-03T12:53:28Z</time>
      </trkpt>
      <trkpt lat="43.49165" lon="6.91551">
        <ele>246.3</ele>
        <time>2024-11-03T12:53:29Z</time>
      </trkpt>
      <trkpt lat="43.49164" lon="6.91551">
        <ele>246.5</ele>
        <time>2024-11-03T12:53:31Z</time>
      </trkpt>
      <trkpt lat="43.49167" lon="6.91545">
        <ele>244.4</ele>
        <time>2024-11-03T12:53:42Z</time>
      </trkpt>
      <trkpt lat="43.49167" lon="6.91545">
        <ele>244.8</ele>
        <time>2024-11-03T12:54:06Z</time>
      </trkpt>
      <trkpt lat="43.49167" lon="6.91545">
        <ele>244.8</ele>
        <time>2024-11-03T12:54:08Z</time>
      </trkpt>
      <trkpt lat="43.49167" lon="6.91545">
        <ele>245</ele>
        <time>2024-11-03T12:54:18Z</time>
      </trkpt>
      <trkpt lat="43.49167" lon="6.91545">
        <ele>245</ele>
        <time>2024-11-03T12:54:19Z</time>
      </trkpt>
      <trkpt lat="43.49167" lon="6.91545">
        <ele>244.9</ele>
        <time>2024-11-03T12:54:38Z</time>
      </trkpt>
      <trkpt lat="43.49167" lon="6.91545">
        <ele>244.9</ele>
        <time>2024-11-03T12:54:39Z</time>
      </trkpt>
      <trkpt lat="43.49167" lon="6.91545">
        <ele>244.8</ele>
        <time>2024-11-03T12:55:04Z</time>
      </trkpt>
      <trkpt lat="43.49168" lon="6.91547">
        <ele>244.5</ele>
        <time>2024-11-03T12:55:25Z</time>
      </trkpt>
      <trkpt lat="43.49167" lon="6.91547">
        <ele>244.4</ele>
        <time>2024-11-03T12:55:26Z</time>
      </trkpt>
      <trkpt lat="43.4917" lon="6.91547">
        <ele>244</ele>
        <time>2024-11-03T12:55:38Z</time>
      </trkpt>
      <trkpt lat="43.4917" lon="6.91547">
        <ele>243.9</ele>
        <time>2024-11-03T12:55:39Z</time>
      </trkpt>
      <trkpt lat="43.49169" lon="6.91536">
        <ele>241.8</ele>
        <time>2024-11-03T12:56:03Z</time>
      </trkpt>
      <trkpt lat="43.49169" lon="6.91537">
        <ele>241.9</ele>
        <time>2024-11-03T12:56:04Z</time>
      </trkpt>
      <trkpt lat="43.49169" lon="6.91539">
        <ele>242.2</ele>
        <time>2024-11-03T12:56:14Z</time>
      </trkpt>
      <trkpt lat="43.49169" lon="6.91541">
        <ele>242.3</ele>
        <time>2024-11-03T12:56:15Z</time>
      </trkpt>
      <trkpt lat="43.49163" lon="6.91545">
        <ele>243.1</ele>
        <time>2024-11-03T12:56:23Z</time>
      </trkpt>
      <trkpt lat="43.49163" lon="6.91544">
        <ele>243.3</ele>
        <time>2024-11-03T12:56:24Z</time>
      </trkpt>
      <trkpt lat="43.49159" lon="6.91557">
        <ele>243.4</ele>
        <time>2024-11-03T12:56:32Z</time>
      </trkpt>
      <trkpt lat="43.49163" lon="6.91546">
        <ele>242</ele>
        <time>2024-11-03T12:56:46Z</time>
      </trkpt>
      <trkpt lat="43.49172" lon="6.91542">
        <ele>242.4</ele>
        <time>2024-11-03T12:57:15Z</time>
      </trkpt>
      <trkpt lat="43.49166" lon="6.91537">
        <ele>242.1</ele>
        <time>2024-11-03T12:57:42Z</time>
      </trkpt>
      <trkpt lat="43.49167" lon="6.91539">
        <ele>242</ele>
        <time>2024-11-03T12:57:43Z</time>
      </trkpt>
      <trkpt lat="43.49168" lon="6.9154">
        <ele>241.6</ele>
        <time>2024-11-03T12:57:54Z</time>
      </trkpt>
      <trkpt lat="43.49167" lon="6.91542">
        <ele>241.6</ele>
        <time>2024-11-03T12:57:55Z</time>
      </trkpt>
      <trkpt lat="43.49166" lon="6.91541">
        <ele>242.7</ele>
        <time>2024-11-03T12:57:59Z</time>
      </trkpt>
      <trkpt lat="43.49166" lon="6.91541">
        <ele>243.1</ele>
        <time>2024-11-03T12:58:00Z</time>
      </trkpt>
      <trkpt lat="43.49158" lon="6.91544">
        <ele>245.1</ele>
        <time>2024-11-03T12:58:11Z</time>
      </trkpt>
      <trkpt lat="43.49162" lon="6.91541">
        <ele>245.1</ele>
        <time>2024-11-03T12:58:17Z</time>
      </trkpt>
      <trkpt lat="43.49163" lon="6.9154">
        <ele>245.5</ele>
        <time>2024-11-03T12:58:21Z</time>
      </trkpt>
      <trkpt lat="43.49164" lon="6.91536">
        <ele>243</ele>
        <time>2024-11-03T12:58:29Z</time>
      </trkpt>
      <trkpt lat="43.49164" lon="6.91536">
        <ele>243.1</ele>
        <time>2024-11-03T12:58:30Z</time>
      </trkpt>
      <trkpt lat="43.49163" lon="6.91536">
        <ele>242.5</ele>
        <time>2024-11-03T12:58:36Z</time>
      </trkpt>
      <trkpt lat="43.49165" lon="6.91537">
        <ele>242.3</ele>
        <time>2024-11-03T12:58:37Z</time>
      </trkpt>
      <trkpt lat="43.49166" lon="6.91537">
        <ele>242.5</ele>
        <time>2024-11-03T12:58:40Z</time>
      </trkpt>
      <trkpt lat="43.49166" lon="6.91537">
        <ele>242.6</ele>
        <time>2024-11-03T12:58:44Z</time>
      </trkpt>
      <trkpt lat="43.49167" lon="6.91535">
        <ele>242</ele>
        <time>2024-11-03T12:58:48Z</time>
      </trkpt>
      <trkpt lat="43.49167" lon="6.91535">
        <ele>241.8</ele>
        <time>2024-11-03T12:59:01Z</time>
      </trkpt>
      <trkpt lat="43.4917" lon="6.91541">
        <ele>241.8</ele>
        <time>2024-11-03T12:59:11Z</time>
      </trkpt>
      <trkpt lat="43.4917" lon="6.91541">
        <ele>242.2</ele>
        <time>2024-11-03T12:59:12Z</time>
      </trkpt>
      <trkpt lat="43.49171" lon="6.91544">
        <ele>242.6</ele>
        <time>2024-11-03T12:59:19Z</time>
      </trkpt>
      <trkpt lat="43.49171" lon="6.91544">
        <ele>242.7</ele>
        <time>2024-11-03T12:59:20Z</time>
      </trkpt>
      <trkpt lat="43.49171" lon="6.91544">
        <ele>242.8</ele>
        <time>2024-11-03T12:59:21Z</time>
      </trkpt>
      <trkpt lat="43.49171" lon="6.91544">
        <ele>242.8</ele>
        <time>2024-11-03T12:59:29Z</time>
      </trkpt>
      <trkpt lat="43.49164" lon="6.91538">
        <ele>243.7</ele>
        <time>2024-11-03T12:59:43Z</time>
      </trkpt>
      <trkpt lat="43.49165" lon="6.91539">
        <ele>243.8</ele>
        <time>2024-11-03T12:59:44Z</time>
      </trkpt>
      <trkpt lat="43.49165" lon="6.91539">
        <ele>243.7</ele>
        <time>2024-11-03T12:59:47Z</time>
      </trkpt>
      <trkpt lat="43.49165" lon="6.91539">
        <ele>243.6</ele>
        <time>2024-11-03T12:59:56Z</time>
      </trkpt>
      <trkpt lat="43.49165" lon="6.91539">
        <ele>243.6</ele>
        <time>2024-11-03T12:59:57Z</time>
      </trkpt>
      <trkpt lat="43.49166" lon="6.91539">
        <ele>243.5</ele>
        <time>2024-11-03T12:59:58Z</time>
      </trkpt>
      <trkpt lat="43.49166" lon="6.9154">
        <ele>243.6</ele>
        <time>2024-11-03T13:00:00Z</time>
      </trkpt>
      <trkpt lat="43.49166" lon="6.91539">
        <ele>243.6</ele>
        <time>2024-11-03T13:00:01Z</time>
      </trkpt>
      <trkpt lat="43.49164" lon="6.91552">
        <ele>243.5</ele>
        <time>2024-11-03T13:00:16Z</time>
      </trkpt>
      <trkpt lat="43.49166" lon="6.91554">
        <ele>242.7</ele>
        <time>2024-11-03T13:00:31Z</time>
      </trkpt>
      <trkpt lat="43.49166" lon="6.91554">
        <ele>242.5</ele>
        <time>2024-11-03T13:00:33Z</time>
      </trkpt>
      <trkpt lat="43.49166" lon="6.91555">
        <ele>242.5</ele>
        <time>2024-11-03T13:00:34Z</time>
      </trkpt>
      <trkpt lat="43.49166" lon="6.91555">
        <ele>242.6</ele>
        <time>2024-11-03T13:00:36Z</time>
      </trkpt>
      <trkpt lat="43.49172" lon="6.91565">
        <ele>243.1</ele>
        <time>2024-11-03T13:01:05Z</time>
      </trkpt>
      <trkpt lat="43.49175" lon="6.91577">
        <ele>243.9</ele>
        <time>2024-11-03T13:01:16Z</time>
      </trkpt>
      <trkpt lat="43.49181" lon="6.91589">
        <ele>244.5</ele>
        <time>2024-11-03T13:01:30Z</time>
      </trkpt>
      <trkpt lat="43.49185" lon="6.916">
        <ele>244.8</ele>
        <time>2024-11-03T13:01:37Z</time>
      </trkpt>
      <trkpt lat="43.49187" lon="6.91613">
        <ele>244.9</ele>
        <time>2024-11-03T13:01:47Z</time>
      </trkpt>
      <trkpt lat="43.49191" lon="6.91625">
        <ele>245.8</ele>
        <time>2024-11-03T13:01:58Z</time>
      </trkpt>
      <trkpt lat="43.49197" lon="6.91634">
        <ele>244</ele>
        <time>2024-11-03T13:02:08Z</time>
      </trkpt>
      <trkpt lat="43.49203" lon="6.91645">
        <ele>243.8</ele>
        <time>2024-11-03T13:02:17Z</time>
      </trkpt>
      <trkpt lat="43.49206" lon="6.91657">
        <ele>244.1</ele>
        <time>2024-11-03T13:02:28Z</time>
      </trkpt>
      <trkpt lat="43.49211" lon="6.9167">
        <ele>245.2</ele>
        <time>2024-11-03T13:02:36Z</time>
      </trkpt>
      <trkpt lat="43.49213" lon="6.91682">
        <ele>245.8</ele>
        <time>2024-11-03T13:02:44Z</time>
      </trkpt>
      <trkpt lat="43.49215" lon="6.91695">
        <ele>247.2</ele>
        <time>2024-11-03T13:02:54Z</time>
      </trkpt>
      <trkpt lat="43.49216" lon="6.91707">
        <ele>248.7</ele>
        <time>2024-11-03T13:03:04Z</time>
      </trkpt>
      <trkpt lat="43.49219" lon="6.91719">
        <ele>249.4</ele>
        <time>2024-11-03T13:03:12Z</time>
      </trkpt>
      <trkpt lat="43.49224" lon="6.9173">
        <ele>248.6</ele>
        <time>2024-11-03T13:03:21Z</time>
      </trkpt>
      <trkpt lat="43.49229" lon="6.91741">
        <ele>248.4</ele>
        <time>2024-11-03T13:03:30Z</time>
      </trkpt>
      <trkpt lat="43.49235" lon="6.91752">
        <ele>248.9</ele>
        <time>2024-11-03T13:03:39Z</time>
      </trkpt>
      <trkpt lat="43.49244" lon="6.91754">
        <ele>247.6</ele>
        <time>2024-11-03T13:03:48Z</time>
      </trkpt>
      <trkpt lat="43.49253" lon="6.9176">
        <ele>247.3</ele>
        <time>2024-11-03T13:03:58Z</time>
      </trkpt>
      <trkpt lat="43.49262" lon="6.91766">
        <ele>247.8</ele>
        <time>2024-11-03T13:04:05Z</time>
      </trkpt>
      <trkpt lat="43.49272" lon="6.91768">
        <ele>247.5</ele>
        <time>2024-11-03T13:04:13Z</time>
      </trkpt>
      <trkpt lat="43.49281" lon="6.91768">
        <ele>247.3</ele>
        <time>2024-11-03T13:04:21Z</time>
      </trkpt>
      <trkpt lat="43.49289" lon="6.91775">
        <ele>246.3</ele>
        <time>2024-11-03T13:04:32Z</time>
      </trkpt>
      <trkpt lat="43.49298" lon="6.9178">
        <ele>247.2</ele>
        <time>2024-11-03T13:04:41Z</time>
      </trkpt>
      <trkpt lat="43.49308" lon="6.9178">
        <ele>247.9</ele>
        <time>2024-11-03T13:04:52Z</time>
      </trkpt>
      <trkpt lat="43.49317" lon="6.91782">
        <ele>249.3</ele>
        <time>2024-11-03T13:05:04Z</time>
      </trkpt>
      <trkpt lat="43.49326" lon="6.91785">
        <ele>251</ele>
        <time>2024-11-03T13:05:14Z</time>
      </trkpt>
      <trkpt lat="43.49335" lon="6.9179">
        <ele>250.1</ele>
        <time>2024-11-03T13:05:22Z</time>
      </trkpt>
      <trkpt lat="43.49344" lon="6.91797">
        <ele>249.6</ele>
        <time>2024-11-03T13:05:33Z</time>
      </trkpt>
      <trkpt lat="43.49353" lon="6.91801">
        <ele>246.9</ele>
        <time>2024-11-03T13:05:42Z</time>
      </trkpt>
      <trkpt lat="43.49361" lon="6.91806">
        <ele>245.7</ele>
        <time>2024-11-03T13:05:50Z</time>
      </trkpt>
      <trkpt lat="43.49371" lon="6.9181">
        <ele>243.9</ele>
        <time>2024-11-03T13:05:57Z</time>
      </trkpt>
      <trkpt lat="43.4938" lon="6.91814">
        <ele>242.4</ele>
        <time>2024-11-03T13:06:06Z</time>
      </trkpt>
      <trkpt lat="43.49389" lon="6.91818">
        <ele>242.3</ele>
        <time>2024-11-03T13:06:16Z</time>
      </trkpt>
      <trkpt lat="43.49398" lon="6.91824">
        <ele>243.7</ele>
        <time>2024-11-03T13:06:26Z</time>
      </trkpt>
      <trkpt lat="43.49406" lon="6.91828">
        <ele>245.2</ele>
        <time>2024-11-03T13:06:37Z</time>
      </trkpt>
      <trkpt lat="43.49414" lon="6.91835">
        <ele>244.4</ele>
        <time>2024-11-03T13:06:43Z</time>
      </trkpt>
      <trkpt lat="43.49422" lon="6.9184">
        <ele>244.2</ele>
        <time>2024-11-03T13:06:51Z</time>
      </trkpt>
      <trkpt lat="43.49432" lon="6.91844">
        <ele>243.2</ele>
        <time>2024-11-03T13:06:59Z</time>
      </trkpt>
      <trkpt lat="43.49442" lon="6.91845">
        <ele>243.6</ele>
        <time>2024-11-03T13:07:07Z</time>
      </trkpt>
      <trkpt lat="43.49451" lon="6.91841">
        <ele>244.2</ele>
        <time>2024-11-03T13:07:14Z</time>
      </trkpt>
      <trkpt lat="43.4946" lon="6.91839">
        <ele>245.2</ele>
        <time>2024-11-03T13:07:22Z</time>
      </trkpt>
      <trkpt lat="43.4947" lon="6.9184">
        <ele>244.5</ele>
        <time>2024-11-03T13:07:28Z</time>
      </trkpt>
      <trkpt lat="43.4948" lon="6.91836">
        <ele>243.8</ele>
        <time>2024-11-03T13:07:38Z</time>
      </trkpt>
      <trkpt lat="43.49488" lon="6.9183">
        <ele>243.3</ele>
        <time>2024-11-03T13:07:46Z</time>
      </trkpt>
      <trkpt lat="43.49497" lon="6.91825">
        <ele>244.3</ele>
        <time>2024-11-03T13:07:53Z</time>
      </trkpt>
      <trkpt lat="43.49505" lon="6.91821">
        <ele>244.5</ele>
        <time>2024-11-03T13:07:59Z</time>
      </trkpt>
      <trkpt lat="43.49512" lon="6.91813">
        <ele>243.6</ele>
        <time>2024-11-03T13:08:06Z</time>
      </trkpt>
      <trkpt lat="43.49521" lon="6.91805">
        <ele>242.5</ele>
        <time>2024-11-03T13:08:14Z</time>
      </trkpt>
      <trkpt lat="43.49528" lon="6.91796">
        <ele>241.9</ele>
        <time>2024-11-03T13:08:21Z</time>
      </trkpt>
      <trkpt lat="43.49536" lon="6.91788">
        <ele>242.1</ele>
        <time>2024-11-03T13:08:30Z</time>
      </trkpt>
      <trkpt lat="43.49542" lon="6.91779">
        <ele>244</ele>
        <time>2024-11-03T13:08:40Z</time>
      </trkpt>
      <trkpt lat="43.49551" lon="6.91778">
        <ele>245.6</ele>
        <time>2024-11-03T13:08:49Z</time>
      </trkpt>
      <trkpt lat="43.49561" lon="6.91775">
        <ele>245.9</ele>
        <time>2024-11-03T13:08:59Z</time>
      </trkpt>
      <trkpt lat="43.4957" lon="6.91771">
        <ele>245.7</ele>
        <time>2024-11-03T13:09:07Z</time>
      </trkpt>
      <trkpt lat="43.49578" lon="6.91765">
        <ele>246.2</ele>
        <time>2024-11-03T13:09:15Z</time>
      </trkpt>
      <trkpt lat="43.49587" lon="6.91766">
        <ele>246.6</ele>
        <time>2024-11-03T13:09:31Z</time>
      </trkpt>
      <trkpt lat="43.49592" lon="6.91761">
        <ele>243.2</ele>
        <time>2024-11-03T13:09:43Z</time>
      </trkpt>
      <trkpt lat="43.49592" lon="6.91761">
        <ele>243</ele>
        <time>2024-11-03T13:09:49Z</time>
      </trkpt>
      <trkpt lat="43.49593" lon="6.91761">
        <ele>242.4</ele>
        <time>2024-11-03T13:09:52Z</time>
      </trkpt>
      <trkpt lat="43.49592" lon="6.9176">
        <ele>242.3</ele>
        <time>2024-11-03T13:09:53Z</time>
      </trkpt>
      <trkpt lat="43.49593" lon="6.91763">
        <ele>242.7</ele>
        <time>2024-11-03T13:09:57Z</time>
      </trkpt>
      <trkpt lat="43.49592" lon="6.91763">
        <ele>242.6</ele>
        <time>2024-11-03T13:09:59Z</time>
      </trkpt>
      <trkpt lat="43.49592" lon="6.91763">
        <ele>242.6</ele>
        <time>2024-11-03T13:10:00Z</time>
      </trkpt>
      <trkpt lat="43.49593" lon="6.91762">
        <ele>242.5</ele>
        <time>2024-11-03T13:10:03Z</time>
      </trkpt>
      <trkpt lat="43.49594" lon="6.91766">
        <ele>243.6</ele>
        <time>2024-11-03T13:10:15Z</time>
      </trkpt>
      <trkpt lat="43.49594" lon="6.91766">
        <ele>243</ele>
        <time>2024-11-03T13:10:17Z</time>
      </trkpt>
      <trkpt lat="43.49594" lon="6.91766">
        <ele>242.9</ele>
        <time>2024-11-03T13:10:18Z</time>
      </trkpt>
      <trkpt lat="43.49594" lon="6.91766">
        <ele>242.8</ele>
        <time>2024-11-03T13:10:19Z</time>
      </trkpt>
      <trkpt lat="43.49594" lon="6.91766">
        <ele>242.4</ele>
        <time>2024-11-03T13:10:21Z</time>
      </trkpt>
      <trkpt lat="43.49594" lon="6.91766">
        <ele>242.2</ele>
        <time>2024-11-03T13:10:22Z</time>
      </trkpt>
      <trkpt lat="43.49595" lon="6.91764">
        <ele>241.2</ele>
        <time>2024-11-03T13:10:31Z</time>
      </trkpt>
      <trkpt lat="43.49596" lon="6.91764">
        <ele>241.1</ele>
        <time>2024-11-03T13:10:35Z</time>
      </trkpt>
      <trkpt lat="43.49596" lon="6.91765">
        <ele>241</ele>
        <time>2024-11-03T13:10:36Z</time>
      </trkpt>
      <trkpt lat="43.49596" lon="6.91765">
        <ele>240.7</ele>
        <time>2024-11-03T13:10:37Z</time>
      </trkpt>
      <trkpt lat="43.49596" lon="6.91765">
        <ele>240.3</ele>
        <time>2024-11-03T13:10:39Z</time>
      </trkpt>
      <trkpt lat="43.49596" lon="6.91765">
        <ele>240.1</ele>
        <time>2024-11-03T13:10:41Z</time>
      </trkpt>
      <trkpt lat="43.49599" lon="6.91765">
        <ele>239.6</ele>
        <time>2024-11-03T13:10:50Z</time>
      </trkpt>
      <trkpt lat="43.49599" lon="6.91765">
        <ele>239.6</ele>
        <time>2024-11-03T13:10:53Z</time>
      </trkpt>
      <trkpt lat="43.49599" lon="6.91765">
        <ele>239.7</ele>
        <time>2024-11-03T13:10:54Z</time>
      </trkpt>
      <trkpt lat="43.49599" lon="6.91765">
        <ele>239.7</ele>
        <time>2024-11-03T13:10:55Z</time>
      </trkpt>
      <trkpt lat="43.49599" lon="6.91765">
        <ele>239.2</ele>
        <time>2024-11-03T13:10:59Z</time>
      </trkpt>
      <trkpt lat="43.49599" lon="6.91765">
        <ele>238.9</ele>
        <time>2024-11-03T13:11:05Z</time>
      </trkpt>
      <trkpt lat="43.49599" lon="6.91764">
        <ele>238.8</ele>
        <time>2024-11-03T13:11:08Z</time>
      </trkpt>
      <trkpt lat="43.496" lon="6.91765">
        <ele>238.8</ele>
        <time>2024-11-03T13:11:24Z</time>
      </trkpt>
      <trkpt lat="43.496" lon="6.91765">
        <ele>238.8</ele>
        <time>2024-11-03T13:11:26Z</time>
      </trkpt>
      <trkpt lat="43.496" lon="6.91765">
        <ele>238.9</ele>
        <time>2024-11-03T13:11:29Z</time>
      </trkpt>
      <trkpt lat="43.49599" lon="6.91763">
        <ele>239.3</ele>
        <time>2024-11-03T13:11:34Z</time>
      </trkpt>
      <trkpt lat="43.49598" lon="6.91763">
        <ele>239.3</ele>
        <time>2024-11-03T13:11:35Z</time>
      </trkpt>
      <trkpt lat="43.49598" lon="6.91763">
        <ele>239.5</ele>
        <time>2024-11-03T13:11:37Z</time>
      </trkpt>
      <trkpt lat="43.49598" lon="6.91763">
        <ele>239.3</ele>
        <time>2024-11-03T13:11:45Z</time>
      </trkpt>
      <trkpt lat="43.49589" lon="6.91764">
        <ele>238.8</ele>
        <time>2024-11-03T13:12:03Z</time>
      </trkpt>
      <trkpt lat="43.4958" lon="6.91771">
        <ele>239.1</ele>
        <time>2024-11-03T13:12:13Z</time>
      </trkpt>
      <trkpt lat="43.49574" lon="6.9178">
        <ele>238.1</ele>
        <time>2024-11-03T13:12:30Z</time>
      </trkpt>
      <trkpt lat="43.49566" lon="6.91788">
        <ele>237</ele>
        <time>2024-11-03T13:12:46Z</time>
      </trkpt>
      <trkpt lat="43.49556" lon="6.91795">
        <ele>237</ele>
        <time>2024-11-03T13:12:55Z</time>
      </trkpt>
      <trkpt lat="43.49549" lon="6.91805">
        <ele>236</ele>
        <time>2024-11-03T13:13:04Z</time>
      </trkpt>
      <trkpt lat="43.49541" lon="6.91814">
        <ele>234.2</ele>
        <time>2024-11-03T13:13:13Z</time>
      </trkpt>
      <trkpt lat="43.49534" lon="6.91823">
        <ele>233</ele>
        <time>2024-11-03T13:13:21Z</time>
      </trkpt>
      <trkpt lat="43.49524" lon="6.9183">
        <ele>232.4</ele>
        <time>2024-11-03T13:13:26Z</time>
      </trkpt>
      <trkpt lat="43.49525" lon="6.91844">
        <ele>231.1</ele>
        <time>2024-11-03T13:13:38Z</time>
      </trkpt>
      <trkpt lat="43.49519" lon="6.91855">
        <ele>230.8</ele>
        <time>2024-11-03T13:13:49Z</time>
      </trkpt>
      <trkpt lat="43.4951" lon="6.9186">
        <ele>230.8</ele>
        <time>2024-11-03T13:13:56Z</time>
      </trkpt>
      <trkpt lat="43.49505" lon="6.9187">
        <ele>228.4</ele>
        <time>2024-11-03T13:14:11Z</time>
      </trkpt>
      <trkpt lat="43.49498" lon="6.91878">
        <ele>227.5</ele>
        <time>2024-11-03T13:14:22Z</time>
      </trkpt>
      <trkpt lat="43.4949" lon="6.91884">
        <ele>227.9</ele>
        <time>2024-11-03T13:14:30Z</time>
      </trkpt>
      <trkpt lat="43.49483" lon="6.91893">
        <ele>226.1</ele>
        <time>2024-11-03T13:14:42Z</time>
      </trkpt>
      <trkpt lat="43.49476" lon="6.91901">
        <ele>226</ele>
        <time>2024-11-03T13:14:52Z</time>
      </trkpt>
      <trkpt lat="43.49468" lon="6.9191">
        <ele>225.6</ele>
        <time>2024-11-03T13:15:05Z</time>
      </trkpt>
      <trkpt lat="43.49462" lon="6.91921">
        <ele>224.7</ele>
        <time>2024-11-03T13:15:13Z</time>
      </trkpt>
      <trkpt lat="43.49454" lon="6.91928">
        <ele>222.2</ele>
        <time>2024-11-03T13:15:18Z</time>
      </trkpt>
      <trkpt lat="43.4945" lon="6.9194">
        <ele>220.5</ele>
        <time>2024-11-03T13:15:26Z</time>
      </trkpt>
      <trkpt lat="43.49447" lon="6.91951">
        <ele>219.1</ele>
        <time>2024-11-03T13:15:39Z</time>
      </trkpt>
      <trkpt lat="43.49439" lon="6.91957">
        <ele>217.2</ele>
        <time>2024-11-03T13:15:50Z</time>
      </trkpt>
      <trkpt lat="43.49434" lon="6.91968">
        <ele>215.4</ele>
        <time>2024-11-03T13:15:59Z</time>
      </trkpt>
      <trkpt lat="43.49434" lon="6.91981">
        <ele>214.1</ele>
        <time>2024-11-03T13:16:05Z</time>
      </trkpt>
      <trkpt lat="43.49432" lon="6.91994">
        <ele>211.3</ele>
        <time>2024-11-03T13:16:14Z</time>
      </trkpt>
      <trkpt lat="43.49426" lon="6.92004">
        <ele>210.1</ele>
        <time>2024-11-03T13:16:23Z</time>
      </trkpt>
      <trkpt lat="43.49421" lon="6.92015">
        <ele>205.9</ele>
        <time>2024-11-03T13:16:35Z</time>
      </trkpt>
      <trkpt lat="43.49419" lon="6.92029">
        <ele>204.6</ele>
        <time>2024-11-03T13:16:46Z</time>
      </trkpt>
      <trkpt lat="43.49415" lon="6.92041">
        <ele>205.8</ele>
        <time>2024-11-03T13:16:54Z</time>
      </trkpt>
      <trkpt lat="43.49414" lon="6.92055">
        <ele>203.3</ele>
        <time>2024-11-03T13:17:03Z</time>
      </trkpt>
      <trkpt lat="43.49419" lon="6.92066">
        <ele>197.7</ele>
        <time>2024-11-03T13:17:14Z</time>
      </trkpt>
      <trkpt lat="43.49425" lon="6.92074">
        <ele>192.4</ele>
        <time>2024-11-03T13:17:29Z</time>
      </trkpt>
      <trkpt lat="43.49425" lon="6.92073">
        <ele>192</ele>
        <time>2024-11-03T13:17:35Z</time>
      </trkpt>
      <trkpt lat="43.49425" lon="6.92073">
        <ele>191.9</ele>
        <time>2024-11-03T13:17:36Z</time>
      </trkpt>
      <trkpt lat="43.49425" lon="6.92073">
        <ele>191.8</ele>
        <time>2024-11-03T13:17:40Z</time>
      </trkpt>
      <trkpt lat="43.49426" lon="6.92075">
        <ele>190.9</ele>
        <time>2024-11-03T13:17:48Z</time>
      </trkpt>
      <trkpt lat="43.49426" lon="6.92074">
        <ele>190.9</ele>
        <time>2024-11-03T13:17:49Z</time>
      </trkpt>
      <trkpt lat="43.49426" lon="6.92075">
        <ele>190.8</ele>
        <time>2024-11-03T13:17:50Z</time>
      </trkpt>
      <trkpt lat="43.49426" lon="6.92075">
        <ele>190.8</ele>
        <time>2024-11-03T13:17:51Z</time>
      </trkpt>
      <trkpt lat="43.49425" lon="6.92075">
        <ele>190.7</ele>
        <time>2024-11-03T13:17:54Z</time>
      </trkpt>
      <trkpt lat="43.49425" lon="6.92075">
        <ele>190.7</ele>
        <time>2024-11-03T13:17:55Z</time>
      </trkpt>
      <trkpt lat="43.49425" lon="6.92076">
        <ele>190.7</ele>
        <time>2024-11-03T13:17:57Z</time>
      </trkpt>
      <trkpt lat="43.49425" lon="6.92076">
        <ele>190.7</ele>
        <time>2024-11-03T13:17:59Z</time>
      </trkpt>
      <trkpt lat="43.49425" lon="6.92075">
        <ele>190.7</ele>
        <time>2024-11-03T13:18:00Z</time>
      </trkpt>
      <trkpt lat="43.49424" lon="6.92075">
        <ele>190.4</ele>
        <time>2024-11-03T13:18:04Z</time>
      </trkpt>
      <trkpt lat="43.49424" lon="6.92076">
        <ele>190.5</ele>
        <time>2024-11-03T13:18:05Z</time>
      </trkpt>
      <trkpt lat="43.49424" lon="6.92076">
        <ele>190.4</ele>
        <time>2024-11-03T13:18:07Z</time>
      </trkpt>
      <trkpt lat="43.49426" lon="6.92078">
        <ele>189.7</ele>
        <time>2024-11-03T13:18:20Z</time>
      </trkpt>
      <trkpt lat="43.49425" lon="6.92078">
        <ele>189.7</ele>
        <time>2024-11-03T13:18:21Z</time>
      </trkpt>
      <trkpt lat="43.49424" lon="6.92076">
        <ele>189.1</ele>
        <time>2024-11-03T13:18:30Z</time>
      </trkpt>
      <trkpt lat="43.49423" lon="6.92075">
        <ele>189.1</ele>
        <time>2024-11-03T13:18:39Z</time>
      </trkpt>
      <trkpt lat="43.4942" lon="6.92075">
        <ele>188.3</ele>
        <time>2024-11-03T13:18:49Z</time>
      </trkpt>
      <trkpt lat="43.4942" lon="6.92076">
        <ele>188.2</ele>
        <time>2024-11-03T13:18:50Z</time>
      </trkpt>
      <trkpt lat="43.49419" lon="6.92075">
        <ele>188.1</ele>
        <time>2024-11-03T13:18:57Z</time>
      </trkpt>
      <trkpt lat="43.4942" lon="6.92075">
        <ele>188.1</ele>
        <time>2024-11-03T13:18:59Z</time>
      </trkpt>
      <trkpt lat="43.49423" lon="6.92074">
        <ele>188.5</ele>
        <time>2024-11-03T13:19:07Z</time>
      </trkpt>
      <trkpt lat="43.49423" lon="6.92074">
        <ele>188.5</ele>
        <time>2024-11-03T13:19:19Z</time>
      </trkpt>
      <trkpt lat="43.49423" lon="6.92074">
        <ele>188.5</ele>
        <time>2024-11-03T13:19:20Z</time>
      </trkpt>
      <trkpt lat="43.49423" lon="6.92074">
        <ele>188.3</ele>
        <time>2024-11-03T13:19:39Z</time>
      </trkpt>
      <trkpt lat="43.49423" lon="6.92074">
        <ele>188.3</ele>
        <time>2024-11-03T13:19:40Z</time>
      </trkpt>
      <trkpt lat="43.49423" lon="6.92074">
        <ele>187.8</ele>
        <time>2024-11-03T13:19:46Z</time>
      </trkpt>
      <trkpt lat="43.49423" lon="6.92074">
        <ele>187.7</ele>
        <time>2024-11-03T13:19:47Z</time>
      </trkpt>
      <trkpt lat="43.49424" lon="6.92074">
        <ele>187.7</ele>
        <time>2024-11-03T13:19:52Z</time>
      </trkpt>
      <trkpt lat="43.49424" lon="6.92075">
        <ele>187.9</ele>
        <time>2024-11-03T13:19:55Z</time>
      </trkpt>
      <trkpt lat="43.49425" lon="6.92074">
        <ele>187.9</ele>
        <time>2024-11-03T13:19:57Z</time>
      </trkpt>
      <trkpt lat="43.49425" lon="6.92074">
        <ele>187.8</ele>
        <time>2024-11-03T13:19:58Z</time>
      </trkpt>
      <trkpt lat="43.49425" lon="6.92074">
        <ele>187.7</ele>
        <time>2024-11-03T13:20:06Z</time>
      </trkpt>
      <trkpt lat="43.49425" lon="6.92074">
        <ele>187.7</ele>
        <time>2024-11-03T13:20:07Z</time>
      </trkpt>
      <trkpt lat="43.49425" lon="6.92074">
        <ele>187.5</ele>
        <time>2024-11-03T13:20:24Z</time>
      </trkpt>
      <trkpt lat="43.49425" lon="6.92074">
        <ele>187.5</ele>
        <time>2024-11-03T13:20:25Z</time>
      </trkpt>
      <trkpt lat="43.49425" lon="6.92075">
        <ele>187.5</ele>
        <time>2024-11-03T13:20:26Z</time>
      </trkpt>
      <trkpt lat="43.49425" lon="6.92075">
        <ele>187.5</ele>
        <time>2024-11-03T13:20:27Z</time>
      </trkpt>
      <trkpt lat="43.49425" lon="6.92075">
        <ele>187.4</ele>
        <time>2024-11-03T13:20:36Z</time>
      </trkpt>
      <trkpt lat="43.49425" lon="6.92075">
        <ele>187.4</ele>
        <time>2024-11-03T13:20:37Z</time>
      </trkpt>
      <trkpt lat="43.49425" lon="6.92075">
        <ele>187.2</ele>
        <time>2024-11-03T13:20:42Z</time>
      </trkpt>
      <trkpt lat="43.49425" lon="6.92075">
        <ele>186.7</ele>
        <time>2024-11-03T13:20:44Z</time>
      </trkpt>
      <trkpt lat="43.49425" lon="6.92074">
        <ele>186.4</ele>
        <time>2024-11-03T13:20:59Z</time>
      </trkpt>
      <trkpt lat="43.49425" lon="6.92074">
        <ele>186.1</ele>
        <time>2024-11-03T13:21:07Z</time>
      </trkpt>
      <trkpt lat="43.49426" lon="6.92074">
        <ele>186</ele>
        <time>2024-11-03T13:21:14Z</time>
      </trkpt>
      <trkpt lat="43.49426" lon="6.92077">
        <ele>185.9</ele>
        <time>2024-11-03T13:21:22Z</time>
      </trkpt>
      <trkpt lat="43.49425" lon="6.92077">
        <ele>185.8</ele>
        <time>2024-11-03T13:21:23Z</time>
      </trkpt>
      <trkpt lat="43.49428" lon="6.92071">
        <ele>184.3</ele>
        <time>2024-11-03T13:21:37Z</time>
      </trkpt>
      <trkpt lat="43.49428" lon="6.9207">
        <ele>184.2</ele>
        <time>2024-11-03T13:21:38Z</time>
      </trkpt>
      <trkpt lat="43.49429" lon="6.92071">
        <ele>183.6</ele>
        <time>2024-11-03T13:21:45Z</time>
      </trkpt>
      <trkpt lat="43.49429" lon="6.92071">
        <ele>183.6</ele>
        <time>2024-11-03T13:21:46Z</time>
      </trkpt>
      <trkpt lat="43.4943" lon="6.92074">
        <ele>183.1</ele>
        <time>2024-11-03T13:21:52Z</time>
      </trkpt>
      <trkpt lat="43.4943" lon="6.92074">
        <ele>183</ele>
        <time>2024-11-03T13:21:54Z</time>
      </trkpt>
      <trkpt lat="43.49428" lon="6.92074">
        <ele>183.1</ele>
        <time>2024-11-03T13:21:59Z</time>
      </trkpt>
      <trkpt lat="43.49428" lon="6.92074">
        <ele>183.2</ele>
        <time>2024-11-03T13:22:04Z</time>
      </trkpt>
      <trkpt lat="43.49427" lon="6.92074">
        <ele>183.4</ele>
        <time>2024-11-03T13:22:06Z</time>
      </trkpt>
      <trkpt lat="43.49427" lon="6.92074">
        <ele>183.7</ele>
        <time>2024-11-03T13:22:11Z</time>
      </trkpt>
      <trkpt lat="43.49427" lon="6.92075">
        <ele>183.8</ele>
        <time>2024-11-03T13:22:13Z</time>
      </trkpt>
      <trkpt lat="43.49426" lon="6.92075">
        <ele>183.6</ele>
        <time>2024-11-03T13:22:14Z</time>
      </trkpt>
      <trkpt lat="43.49426" lon="6.92077">
        <ele>183.5</ele>
        <time>2024-11-03T13:22:19Z</time>
      </trkpt>
      <trkpt lat="43.49426" lon="6.92077">
        <ele>183.6</ele>
        <time>2024-11-03T13:22:35Z</time>
      </trkpt>
      <trkpt lat="43.49426" lon="6.92076">
        <ele>183.3</ele>
        <time>2024-11-03T13:22:38Z</time>
      </trkpt>
      <trkpt lat="43.49426" lon="6.92077">
        <ele>183.1</ele>
        <time>2024-11-03T13:22:39Z</time>
      </trkpt>
      <trkpt lat="43.49428" lon="6.9209">
        <ele>181.9</ele>
        <time>2024-11-03T13:22:56Z</time>
      </trkpt>
      <trkpt lat="43.49431" lon="6.92102">
        <ele>182.2</ele>
        <time>2024-11-03T13:23:04Z</time>
      </trkpt>
      <trkpt lat="43.49434" lon="6.92115">
        <ele>181</ele>
        <time>2024-11-03T13:23:14Z</time>
      </trkpt>
      <trkpt lat="43.49437" lon="6.92127">
        <ele>181.6</ele>
        <time>2024-11-03T13:23:22Z</time>
      </trkpt>
      <trkpt lat="43.49441" lon="6.92138">
        <ele>182.1</ele>
        <time>2024-11-03T13:23:36Z</time>
      </trkpt>
      <trkpt lat="43.49449" lon="6.92145">
        <ele>182.8</ele>
        <time>2024-11-03T13:23:46Z</time>
      </trkpt>
      <trkpt lat="43.49452" lon="6.92154">
        <ele>182.6</ele>
        <time>2024-11-03T13:23:57Z</time>
      </trkpt>
      <trkpt lat="43.49452" lon="6.92154">
        <ele>182.6</ele>
        <time>2024-11-03T13:23:58Z</time>
      </trkpt>
      <trkpt lat="43.49453" lon="6.92153">
        <ele>182.5</ele>
        <time>2024-11-03T13:24:02Z</time>
      </trkpt>
      <trkpt lat="43.49452" lon="6.92153">
        <ele>182.3</ele>
        <time>2024-11-03T13:24:07Z</time>
      </trkpt>
      <trkpt lat="43.49454" lon="6.92166">
        <ele>183.1</ele>
        <time>2024-11-03T13:24:17Z</time>
      </trkpt>
      <trkpt lat="43.49453" lon="6.92179">
        <ele>183</ele>
        <time>2024-11-03T13:24:25Z</time>
      </trkpt>
      <trkpt lat="43.49453" lon="6.92192">
        <ele>183</ele>
        <time>2024-11-03T13:24:34Z</time>
      </trkpt>
      <trkpt lat="43.49454" lon="6.92205">
        <ele>182.8</ele>
        <time>2024-11-03T13:24:43Z</time>
      </trkpt>
      <trkpt lat="43.49459" lon="6.92216">
        <ele>182.3</ele>
        <time>2024-11-03T13:24:51Z</time>
      </trkpt>
      <trkpt lat="43.49465" lon="6.92226">
        <ele>182.4</ele>
        <time>2024-11-03T13:24:58Z</time>
      </trkpt>
      <trkpt lat="43.49464" lon="6.9224">
        <ele>182.3</ele>
        <time>2024-11-03T13:25:05Z</time>
      </trkpt>
      <trkpt lat="43.49469" lon="6.92252">
        <ele>182.6</ele>
        <time>2024-11-03T13:25:12Z</time>
      </trkpt>
      <trkpt lat="43.49474" lon="6.92263">
        <ele>182.8</ele>
        <time>2024-11-03T13:25:20Z</time>
      </trkpt>
      <trkpt lat="43.4948" lon="6.92273">
        <ele>181.8</ele>
        <time>2024-11-03T13:25:27Z</time>
      </trkpt>
      <trkpt lat="43.49488" lon="6.92282">
        <ele>182.1</ele>
        <time>2024-11-03T13:25:35Z</time>
      </trkpt>
      <trkpt lat="43.49495" lon="6.9229">
        <ele>182.8</ele>
        <time>2024-11-03T13:25:45Z</time>
      </trkpt>
      <trkpt lat="43.495" lon="6.92302">
        <ele>182.5</ele>
        <time>2024-11-03T13:25:56Z</time>
      </trkpt>
      <trkpt lat="43.495" lon="6.92316">
        <ele>180.9</ele>
        <time>2024-11-03T13:26:08Z</time>
      </trkpt>
      <trkpt lat="43.49503" lon="6.92329">
        <ele>179.6</ele>
        <time>2024-11-03T13:26:16Z</time>
      </trkpt>
      <trkpt lat="43.49506" lon="6.92342">
        <ele>178.4</ele>
        <time>2024-11-03T13:26:27Z</time>
      </trkpt>
      <trkpt lat="43.49506" lon="6.92356">
        <ele>177.4</ele>
        <time>2024-11-03T13:26:38Z</time>
      </trkpt>
      <trkpt lat="43.49506" lon="6.92362">
        <ele>176.1</ele>
        <time>2024-11-03T13:26:45Z</time>
      </trkpt>
      <trkpt lat="43.49506" lon="6.92363">
        <ele>175.9</ele>
        <time>2024-11-03T13:26:46Z</time>
      </trkpt>
      <trkpt lat="43.495" lon="6.92373">
        <ele>174.8</ele>
        <time>2024-11-03T13:26:58Z</time>
      </trkpt>
      <trkpt lat="43.49495" lon="6.92384">
        <ele>174.6</ele>
        <time>2024-11-03T13:27:07Z</time>
      </trkpt>
      <trkpt lat="43.49495" lon="6.92397">
        <ele>174</ele>
        <time>2024-11-03T13:27:13Z</time>
      </trkpt>
      <trkpt lat="43.49497" lon="6.9241">
        <ele>173.1</ele>
        <time>2024-11-03T13:27:22Z</time>
      </trkpt>
      <trkpt lat="43.49498" lon="6.92423">
        <ele>172</ele>
        <time>2024-11-03T13:27:32Z</time>
      </trkpt>
      <trkpt lat="43.49495" lon="6.92436">
        <ele>172.6</ele>
        <time>2024-11-03T13:27:40Z</time>
      </trkpt>
      <trkpt lat="43.49496" lon="6.92449">
        <ele>172.1</ele>
        <time>2024-11-03T13:27:46Z</time>
      </trkpt>
      <trkpt lat="43.49498" lon="6.92461">
        <ele>171.5</ele>
        <time>2024-11-03T13:27:55Z</time>
      </trkpt>
      <trkpt lat="43.49496" lon="6.92474">
        <ele>171</ele>
        <time>2024-11-03T13:28:06Z</time>
      </trkpt>
      <trkpt lat="43.49495" lon="6.92487">
        <ele>170.2</ele>
        <time>2024-11-03T13:28:14Z</time>
      </trkpt>
      <trkpt lat="43.49497" lon="6.925">
        <ele>169</ele>
        <time>2024-11-03T13:28:24Z</time>
      </trkpt>
      <trkpt lat="43.49498" lon="6.92513">
        <ele>167.3</ele>
        <time>2024-11-03T13:28:33Z</time>
      </trkpt>
      <trkpt lat="43.49499" lon="6.92526">
        <ele>165.7</ele>
        <time>2024-11-03T13:28:44Z</time>
      </trkpt>
      <trkpt lat="43.49504" lon="6.92537">
        <ele>163.9</ele>
        <time>2024-11-03T13:28:52Z</time>
      </trkpt>
      <trkpt lat="43.49511" lon="6.92545">
        <ele>162</ele>
        <time>2024-11-03T13:29:04Z</time>
      </trkpt>
      <trkpt lat="43.49516" lon="6.92556">
        <ele>160.6</ele>
        <time>2024-11-03T13:29:13Z</time>
      </trkpt>
      <trkpt lat="43.49526" lon="6.9256">
        <ele>156.2</ele>
        <time>2024-11-03T13:29:27Z</time>
      </trkpt>
      <trkpt lat="43.49521" lon="6.92572">
        <ele>154</ele>
        <time>2024-11-03T13:29:39Z</time>
      </trkpt>
      <trkpt lat="43.49512" lon="6.92572">
        <ele>151.1</ele>
        <time>2024-11-03T13:29:48Z</time>
      </trkpt>
      <trkpt lat="43.4951" lon="6.92573">
        <ele>150.8</ele>
        <time>2024-11-03T13:29:52Z</time>
      </trkpt>
      <trkpt lat="43.4951" lon="6.92573">
        <ele>150.7</ele>
        <time>2024-11-03T13:29:53Z</time>
      </trkpt>
      <trkpt lat="43.495" lon="6.92575">
        <ele>148.2</ele>
        <time>2024-11-03T13:30:16Z</time>
      </trkpt>
      <trkpt lat="43.49491" lon="6.92575">
        <ele>147.5</ele>
        <time>2024-11-03T13:30:24Z</time>
      </trkpt>
      <trkpt lat="43.4949" lon="6.9258">
        <ele>146.8</ele>
        <time>2024-11-03T13:30:31Z</time>
      </trkpt>
      <trkpt lat="43.4949" lon="6.92581">
        <ele>146.7</ele>
        <time>2024-11-03T13:30:32Z</time>
      </trkpt>
      <trkpt lat="43.49495" lon="6.92592">
        <ele>146.6</ele>
        <time>2024-11-03T13:30:45Z</time>
      </trkpt>
      <trkpt lat="43.49496" lon="6.92595">
        <ele>146.5</ele>
        <time>2024-11-03T13:30:49Z</time>
      </trkpt>
      <trkpt lat="43.49495" lon="6.92596">
        <ele>146.3</ele>
        <time>2024-11-03T13:30:51Z</time>
      </trkpt>
      <trkpt lat="43.49497" lon="6.9261">
        <ele>145.9</ele>
        <time>2024-11-03T13:31:01Z</time>
      </trkpt>
      <trkpt lat="43.49501" lon="6.92622">
        <ele>143.8</ele>
        <time>2024-11-03T13:31:15Z</time>
      </trkpt>
      <trkpt lat="43.49501" lon="6.92635">
        <ele>142.9</ele>
        <time>2024-11-03T13:31:26Z</time>
      </trkpt>
      <trkpt lat="43.49498" lon="6.92647">
        <ele>141.6</ele>
        <time>2024-11-03T13:31:35Z</time>
      </trkpt>
      <trkpt lat="43.49498" lon="6.9266">
        <ele>138.4</ele>
        <time>2024-11-03T13:31:49Z</time>
      </trkpt>
      <trkpt lat="43.49497" lon="6.92673">
        <ele>137.4</ele>
        <time>2024-11-03T13:31:57Z</time>
      </trkpt>
      <trkpt lat="43.49496" lon="6.92686">
        <ele>136.4</ele>
        <time>2024-11-03T13:32:06Z</time>
      </trkpt>
      <trkpt lat="43.49494" lon="6.927">
        <ele>135.8</ele>
        <time>2024-11-03T13:32:18Z</time>
      </trkpt>
      <trkpt lat="43.49488" lon="6.9271">
        <ele>136.4</ele>
        <time>2024-11-03T13:32:28Z</time>
      </trkpt>
      <trkpt lat="43.4949" lon="6.92723">
        <ele>135.4</ele>
        <time>2024-11-03T13:32:38Z</time>
      </trkpt>
      <trkpt lat="43.49493" lon="6.92735">
        <ele>134.3</ele>
        <time>2024-11-03T13:32:44Z</time>
      </trkpt>
      <trkpt lat="43.49491" lon="6.92748">
        <ele>132</ele>
        <time>2024-11-03T13:32:57Z</time>
      </trkpt>
      <trkpt lat="43.49489" lon="6.92761">
        <ele>129.7</ele>
        <time>2024-11-03T13:33:07Z</time>
      </trkpt>
      <trkpt lat="43.49484" lon="6.92771">
        <ele>128.4</ele>
        <time>2024-11-03T13:33:15Z</time>
      </trkpt>
      <trkpt lat="43.49482" lon="6.92784">
        <ele>126.2</ele>
        <time>2024-11-03T13:33:27Z</time>
      </trkpt>
      <trkpt lat="43.49476" lon="6.92795">
        <ele>124.4</ele>
        <time>2024-11-03T13:33:36Z</time>
      </trkpt>
      <trkpt lat="43.49471" lon="6.92807">
        <ele>120.7</ele>
        <time>2024-11-03T13:33:49Z</time>
      </trkpt>
      <trkpt lat="43.49466" lon="6.92818">
        <ele>119.5</ele>
        <time>2024-11-03T13:33:57Z</time>
      </trkpt>
      <trkpt lat="43.49459" lon="6.92828">
        <ele>119.2</ele>
        <time>2024-11-03T13:34:05Z</time>
      </trkpt>
      <trkpt lat="43.49453" lon="6.92838">
        <ele>119</ele>
        <time>2024-11-03T13:34:13Z</time>
      </trkpt>
      <trkpt lat="43.49445" lon="6.92844">
        <ele>119.3</ele>
        <time>2024-11-03T13:34:21Z</time>
      </trkpt>
      <trkpt lat="43.49435" lon="6.92844">
        <ele>119.4</ele>
        <time>2024-11-03T13:34:32Z</time>
      </trkpt>
      <trkpt lat="43.49426" lon="6.92841">
        <ele>119.9</ele>
        <time>2024-11-03T13:34:41Z</time>
      </trkpt>
      <trkpt lat="43.49417" lon="6.92845">
        <ele>120.4</ele>
        <time>2024-11-03T13:34:49Z</time>
      </trkpt>
      <trkpt lat="43.49408" lon="6.92852">
        <ele>120.5</ele>
        <time>2024-11-03T13:34:58Z</time>
      </trkpt>
      <trkpt lat="43.49402" lon="6.92861">
        <ele>121</ele>
        <time>2024-11-03T13:35:07Z</time>
      </trkpt>
      <trkpt lat="43.494" lon="6.92873">
        <ele>121.3</ele>
        <time>2024-11-03T13:35:15Z</time>
      </trkpt>
      <trkpt lat="43.49399" lon="6.92886">
        <ele>121</ele>
        <time>2024-11-03T13:35:22Z</time>
      </trkpt>
      <trkpt lat="43.49401" lon="6.92898">
        <ele>121.7</ele>
        <time>2024-11-03T13:35:30Z</time>
      </trkpt>
      <trkpt lat="43.49404" lon="6.92909">
        <ele>122.9</ele>
        <time>2024-11-03T13:35:37Z</time>
      </trkpt>
      <trkpt lat="43.49409" lon="6.9292">
        <ele>123.9</ele>
        <time>2024-11-03T13:35:44Z</time>
      </trkpt>
      <trkpt lat="43.49413" lon="6.92932">
        <ele>125.3</ele>
        <time>2024-11-03T13:35:52Z</time>
      </trkpt>
      <trkpt lat="43.49411" lon="6.92945">
        <ele>126.6</ele>
        <time>2024-11-03T13:36:01Z</time>
      </trkpt>
      <trkpt lat="43.49407" lon="6.92957">
        <ele>127.9</ele>
        <time>2024-11-03T13:36:10Z</time>
      </trkpt>
      <trkpt lat="43.49404" lon="6.92968">
        <ele>129.5</ele>
        <time>2024-11-03T13:36:18Z</time>
      </trkpt>
      <trkpt lat="43.49403" lon="6.92981">
        <ele>130.4</ele>
        <time>2024-11-03T13:36:25Z</time>
      </trkpt>
      <trkpt lat="43.49405" lon="6.92995">
        <ele>130.3</ele>
        <time>2024-11-03T13:36:33Z</time>
      </trkpt>
      <trkpt lat="43.49405" lon="6.93008">
        <ele>130.4</ele>
        <time>2024-11-03T13:36:40Z</time>
      </trkpt>
      <trkpt lat="43.49406" lon="6.9302">
        <ele>129.9</ele>
        <time>2024-11-03T13:36:48Z</time>
      </trkpt>
      <trkpt lat="43.49404" lon="6.93034">
        <ele>131.3</ele>
        <time>2024-11-03T13:36:57Z</time>
      </trkpt>
      <trkpt lat="43.49399" lon="6.93046">
        <ele>131.9</ele>
        <time>2024-11-03T13:37:05Z</time>
      </trkpt>
      <trkpt lat="43.49394" lon="6.93058">
        <ele>132.1</ele>
        <time>2024-11-03T13:37:13Z</time>
      </trkpt>
      <trkpt lat="43.49388" lon="6.93067">
        <ele>133.4</ele>
        <time>2024-11-03T13:37:21Z</time>
      </trkpt>
      <trkpt lat="43.49384" lon="6.93079">
        <ele>134.5</ele>
        <time>2024-11-03T13:37:29Z</time>
      </trkpt>
      <trkpt lat="43.49378" lon="6.93089">
        <ele>136.2</ele>
        <time>2024-11-03T13:37:38Z</time>
      </trkpt>
      <trkpt lat="43.49372" lon="6.931">
        <ele>137.9</ele>
        <time>2024-11-03T13:37:47Z</time>
      </trkpt>
      <trkpt lat="43.49366" lon="6.93111">
        <ele>139.2</ele>
        <time>2024-11-03T13:37:55Z</time>
      </trkpt>
      <trkpt lat="43.49361" lon="6.93123">
        <ele>140.1</ele>
        <time>2024-11-03T13:38:03Z</time>
      </trkpt>
      <trkpt lat="43.49358" lon="6.93136">
        <ele>140.7</ele>
        <time>2024-11-03T13:38:10Z</time>
      </trkpt>
      <trkpt lat="43.49355" lon="6.93148">
        <ele>142.8</ele>
        <time>2024-11-03T13:38:19Z</time>
      </trkpt>
      <trkpt lat="43.49355" lon="6.93162">
        <ele>144.7</ele>
        <time>2024-11-03T13:38:27Z</time>
      </trkpt>
      <trkpt lat="43.4936" lon="6.93174">
        <ele>146.5</ele>
        <time>2024-11-03T13:38:35Z</time>
      </trkpt>
      <trkpt lat="43.49362" lon="6.93187">
        <ele>148.2</ele>
        <time>2024-11-03T13:38:44Z</time>
      </trkpt>
      <trkpt lat="43.49369" lon="6.93196">
        <ele>149.5</ele>
        <time>2024-11-03T13:38:52Z</time>
      </trkpt>
      <trkpt lat="43.49373" lon="6.93184">
        <ele>151</ele>
        <time>2024-11-03T13:39:04Z</time>
      </trkpt>
      <trkpt lat="43.49374" lon="6.93171">
        <ele>151.5</ele>
        <time>2024-11-03T13:39:12Z</time>
      </trkpt>
      <trkpt lat="43.49377" lon="6.93157">
        <ele>153.6</ele>
        <time>2024-11-03T13:39:21Z</time>
      </trkpt>
      <trkpt lat="43.49382" lon="6.93146">
        <ele>155.2</ele>
        <time>2024-11-03T13:39:30Z</time>
      </trkpt>
      <trkpt lat="43.4939" lon="6.93138">
        <ele>156.3</ele>
        <time>2024-11-03T13:39:38Z</time>
      </trkpt>
      <trkpt lat="43.49398" lon="6.93132">
        <ele>157</ele>
        <time>2024-11-03T13:39:46Z</time>
      </trkpt>
      <trkpt lat="43.49407" lon="6.93127">
        <ele>157.5</ele>
        <time>2024-11-03T13:39:54Z</time>
      </trkpt>
      <trkpt lat="43.49417" lon="6.93124">
        <ele>157.5</ele>
        <time>2024-11-03T13:40:02Z</time>
      </trkpt>
      <trkpt lat="43.49424" lon="6.93117">
        <ele>158.4</ele>
        <time>2024-11-03T13:40:09Z</time>
      </trkpt>
      <trkpt lat="43.49433" lon="6.93112">
        <ele>159.7</ele>
        <time>2024-11-03T13:40:16Z</time>
      </trkpt>
      <trkpt lat="43.49442" lon="6.93117">
        <ele>161</ele>
        <time>2024-11-03T13:40:25Z</time>
      </trkpt>
      <trkpt lat="43.49446" lon="6.93129">
        <ele>163.1</ele>
        <time>2024-11-03T13:40:34Z</time>
      </trkpt>
      <trkpt lat="43.49445" lon="6.93142">
        <ele>163.6</ele>
        <time>2024-11-03T13:40:43Z</time>
      </trkpt>
      <trkpt lat="43.49442" lon="6.93154">
        <ele>163.9</ele>
        <time>2024-11-03T13:40:51Z</time>
      </trkpt>
      <trkpt lat="43.49438" lon="6.93166">
        <ele>163.8</ele>
        <time>2024-11-03T13:40:59Z</time>
      </trkpt>
      <trkpt lat="43.49434" lon="6.93179">
        <ele>164.1</ele>
        <time>2024-11-03T13:41:07Z</time>
      </trkpt>
      <trkpt lat="43.49429" lon="6.93191">
        <ele>163.9</ele>
        <time>2024-11-03T13:41:14Z</time>
      </trkpt>
      <trkpt lat="43.49422" lon="6.932">
        <ele>163.7</ele>
        <time>2024-11-03T13:41:21Z</time>
      </trkpt>
      <trkpt lat="43.49416" lon="6.9321">
        <ele>163.5</ele>
        <time>2024-11-03T13:41:30Z</time>
      </trkpt>
      <trkpt lat="43.4941" lon="6.93219">
        <ele>164.5</ele>
        <time>2024-11-03T13:41:37Z</time>
      </trkpt>
      <trkpt lat="43.49403" lon="6.93229">
        <ele>164.7</ele>
        <time>2024-11-03T13:41:45Z</time>
      </trkpt>
      <trkpt lat="43.49399" lon="6.93241">
        <ele>164.3</ele>
        <time>2024-11-03T13:41:54Z</time>
      </trkpt>
      <trkpt lat="43.49397" lon="6.93254">
        <ele>164.8</ele>
        <time>2024-11-03T13:42:04Z</time>
      </trkpt>
      <trkpt lat="43.49398" lon="6.93266">
        <ele>164.8</ele>
        <time>2024-11-03T13:42:14Z</time>
      </trkpt>
      <trkpt lat="43.49399" lon="6.93279">
        <ele>165.1</ele>
        <time>2024-11-03T13:42:21Z</time>
      </trkpt>
      <trkpt lat="43.49399" lon="6.93292">
        <ele>165.7</ele>
        <time>2024-11-03T13:42:29Z</time>
      </trkpt>
      <trkpt lat="43.49401" lon="6.93305">
        <ele>166</ele>
        <time>2024-11-03T13:42:39Z</time>
      </trkpt>
      <trkpt lat="43.49393" lon="6.93314">
        <ele>168.5</ele>
        <time>2024-11-03T13:42:51Z</time>
      </trkpt>
      <trkpt lat="43.49386" lon="6.93304">
        <ele>169.6</ele>
        <time>2024-11-03T13:43:02Z</time>
      </trkpt>
      <trkpt lat="43.49378" lon="6.93299">
        <ele>169.8</ele>
        <time>2024-11-03T13:43:10Z</time>
      </trkpt>
      <trkpt lat="43.49368" lon="6.933">
        <ele>170.7</ele>
        <time>2024-11-03T13:43:17Z</time>
      </trkpt>
      <trkpt lat="43.49358" lon="6.93301">
        <ele>171.6</ele>
        <time>2024-11-03T13:43:24Z</time>
      </trkpt>
      <trkpt lat="43.49348" lon="6.93304">
        <ele>173.1</ele>
        <time>2024-11-03T13:43:33Z</time>
      </trkpt>
      <trkpt lat="43.49342" lon="6.93313">
        <ele>173.4</ele>
        <time>2024-11-03T13:43:41Z</time>
      </trkpt>
      <trkpt lat="43.49338" lon="6.93326">
        <ele>174.6</ele>
        <time>2024-11-03T13:43:48Z</time>
      </trkpt>
      <trkpt lat="43.49339" lon="6.9334">
        <ele>176.4</ele>
        <time>2024-11-03T13:43:56Z</time>
      </trkpt>
      <trkpt lat="43.49343" lon="6.93352">
        <ele>178.2</ele>
        <time>2024-11-03T13:44:03Z</time>
      </trkpt>
      <trkpt lat="43.49349" lon="6.93363">
        <ele>179.8</ele>
        <time>2024-11-03T13:44:11Z</time>
      </trkpt>
      <trkpt lat="43.49354" lon="6.93374">
        <ele>181.3</ele>
        <time>2024-11-03T13:44:19Z</time>
      </trkpt>
      <trkpt lat="43.49351" lon="6.93386">
        <ele>182.6</ele>
        <time>2024-11-03T13:44:27Z</time>
      </trkpt>
      <trkpt lat="43.49348" lon="6.93399">
        <ele>182.8</ele>
        <time>2024-11-03T13:44:35Z</time>
      </trkpt>
      <trkpt lat="43.49347" lon="6.93413">
        <ele>183.1</ele>
        <time>2024-11-03T13:44:43Z</time>
      </trkpt>
      <trkpt lat="43.49346" lon="6.93426">
        <ele>183.6</ele>
        <time>2024-11-03T13:44:50Z</time>
      </trkpt>
      <trkpt lat="43.49344" lon="6.93439">
        <ele>184.5</ele>
        <time>2024-11-03T13:44:57Z</time>
      </trkpt>
      <trkpt lat="43.49343" lon="6.93453">
        <ele>184.7</ele>
        <time>2024-11-03T13:45:05Z</time>
      </trkpt>
      <trkpt lat="43.49339" lon="6.93465">
        <ele>185</ele>
        <time>2024-11-03T13:45:13Z</time>
      </trkpt>
      <trkpt lat="43.49337" lon="6.93479">
        <ele>186.8</ele>
        <time>2024-11-03T13:45:21Z</time>
      </trkpt>
      <trkpt lat="43.49334" lon="6.93491">
        <ele>186.7</ele>
        <time>2024-11-03T13:45:30Z</time>
      </trkpt>
      <trkpt lat="43.49334" lon="6.93504">
        <ele>185.8</ele>
        <time>2024-11-03T13:45:37Z</time>
      </trkpt>
      <trkpt lat="43.49338" lon="6.93516">
        <ele>185.2</ele>
        <time>2024-11-03T13:45:45Z</time>
      </trkpt>
      <trkpt lat="43.4934" lon="6.93529">
        <ele>184.9</ele>
        <time>2024-11-03T13:45:53Z</time>
      </trkpt>
      <trkpt lat="43.49343" lon="6.93542">
        <ele>184.8</ele>
        <time>2024-11-03T13:46:00Z</time>
      </trkpt>
      <trkpt lat="43.49346" lon="6.93555">
        <ele>184.1</ele>
        <time>2024-11-03T13:46:07Z</time>
      </trkpt>
      <trkpt lat="43.49346" lon="6.93567">
        <ele>183.8</ele>
        <time>2024-11-03T13:46:16Z</time>
      </trkpt>
      <trkpt lat="43.49344" lon="6.9358">
        <ele>183.6</ele>
        <time>2024-11-03T13:46:23Z</time>
      </trkpt>
      <trkpt lat="43.4934" lon="6.93592">
        <ele>183.5</ele>
        <time>2024-11-03T13:46:31Z</time>
      </trkpt>
      <trkpt lat="43.49336" lon="6.93604">
        <ele>183.8</ele>
        <time>2024-11-03T13:46:39Z</time>
      </trkpt>
      <trkpt lat="43.49333" lon="6.93618">
        <ele>182.5</ele>
        <time>2024-11-03T13:46:47Z</time>
      </trkpt>
      <trkpt lat="43.49331" lon="6.93632">
        <ele>180.6</ele>
        <time>2024-11-03T13:46:54Z</time>
      </trkpt>
      <trkpt lat="43.49326" lon="6.93644">
        <ele>180.8</ele>
        <time>2024-11-03T13:47:02Z</time>
      </trkpt>
      <trkpt lat="43.49324" lon="6.93656">
        <ele>180.7</ele>
        <time>2024-11-03T13:47:10Z</time>
      </trkpt>
      <trkpt lat="43.49321" lon="6.93669">
        <ele>180.1</ele>
        <time>2024-11-03T13:47:21Z</time>
      </trkpt>
      <trkpt lat="43.49318" lon="6.93681">
        <ele>180.5</ele>
        <time>2024-11-03T13:47:30Z</time>
      </trkpt>
      <trkpt lat="43.49319" lon="6.93695">
        <ele>179.4</ele>
        <time>2024-11-03T13:47:37Z</time>
      </trkpt>
      <trkpt lat="43.49315" lon="6.93706">
        <ele>180.3</ele>
        <time>2024-11-03T13:47:53Z</time>
      </trkpt>
      <trkpt lat="43.49313" lon="6.93719">
        <ele>180.5</ele>
        <time>2024-11-03T13:48:01Z</time>
      </trkpt>
      <trkpt lat="43.49308" lon="6.93729">
        <ele>180.4</ele>
        <time>2024-11-03T13:48:08Z</time>
      </trkpt>
      <trkpt lat="43.49308" lon="6.93743">
        <ele>180.6</ele>
        <time>2024-11-03T13:48:15Z</time>
      </trkpt>
      <trkpt lat="43.49309" lon="6.93757">
        <ele>180.3</ele>
        <time>2024-11-03T13:48:22Z</time>
      </trkpt>
      <trkpt lat="43.49309" lon="6.9377">
        <ele>181.3</ele>
        <time>2024-11-03T13:48:29Z</time>
      </trkpt>
      <trkpt lat="43.49309" lon="6.93784">
        <ele>182.2</ele>
        <time>2024-11-03T13:48:37Z</time>
      </trkpt>
      <trkpt lat="43.49308" lon="6.93798">
        <ele>183.2</ele>
        <time>2024-11-03T13:48:45Z</time>
      </trkpt>
      <trkpt lat="43.49307" lon="6.93811">
        <ele>183.4</ele>
        <time>2024-11-03T13:48:53Z</time>
      </trkpt>
      <trkpt lat="43.49305" lon="6.93824">
        <ele>184</ele>
        <time>2024-11-03T13:49:01Z</time>
      </trkpt>
      <trkpt lat="43.49302" lon="6.93837">
        <ele>184.4</ele>
        <time>2024-11-03T13:49:08Z</time>
      </trkpt>
      <trkpt lat="43.493" lon="6.9385">
        <ele>183.9</ele>
        <time>2024-11-03T13:49:15Z</time>
      </trkpt>
      <trkpt lat="43.49301" lon="6.93863">
        <ele>183.9</ele>
        <time>2024-11-03T13:49:24Z</time>
      </trkpt>
      <trkpt lat="43.49303" lon="6.93877">
        <ele>184.5</ele>
        <time>2024-11-03T13:49:31Z</time>
      </trkpt>
      <trkpt lat="43.49306" lon="6.93889">
        <ele>184.5</ele>
        <time>2024-11-03T13:49:37Z</time>
      </trkpt>
      <trkpt lat="43.49309" lon="6.93903">
        <ele>185.4</ele>
        <time>2024-11-03T13:49:45Z</time>
      </trkpt>
      <trkpt lat="43.49313" lon="6.93914">
        <ele>185.6</ele>
        <time>2024-11-03T13:49:52Z</time>
      </trkpt>
      <trkpt lat="43.49315" lon="6.93928">
        <ele>184.8</ele>
        <time>2024-11-03T13:50:00Z</time>
      </trkpt>
      <trkpt lat="43.49313" lon="6.93941">
        <ele>184.6</ele>
        <time>2024-11-03T13:50:09Z</time>
      </trkpt>
      <trkpt lat="43.49314" lon="6.93954">
        <ele>184.4</ele>
        <time>2024-11-03T13:50:15Z</time>
      </trkpt>
      <trkpt lat="43.49316" lon="6.93967">
        <ele>184</ele>
        <time>2024-11-03T13:50:22Z</time>
      </trkpt>
      <trkpt lat="43.49321" lon="6.9398">
        <ele>183</ele>
        <time>2024-11-03T13:50:30Z</time>
      </trkpt>
      <trkpt lat="43.49324" lon="6.93993">
        <ele>181.6</ele>
        <time>2024-11-03T13:50:37Z</time>
      </trkpt>
      <trkpt lat="43.49329" lon="6.94005">
        <ele>180.1</ele>
        <time>2024-11-03T13:50:43Z</time>
      </trkpt>
      <trkpt lat="43.49331" lon="6.94017">
        <ele>179.3</ele>
        <time>2024-11-03T13:50:50Z</time>
      </trkpt>
      <trkpt lat="43.49331" lon="6.94031">
        <ele>179.3</ele>
        <time>2024-11-03T13:50:57Z</time>
      </trkpt>
      <trkpt lat="43.49334" lon="6.94043">
        <ele>178.7</ele>
        <time>2024-11-03T13:51:03Z</time>
      </trkpt>
      <trkpt lat="43.49335" lon="6.94056">
        <ele>177.7</ele>
        <time>2024-11-03T13:51:11Z</time>
      </trkpt>
      <trkpt lat="43.49335" lon="6.94069">
        <ele>176.8</ele>
        <time>2024-11-03T13:51:18Z</time>
      </trkpt>
      <trkpt lat="43.49336" lon="6.94082">
        <ele>176.3</ele>
        <time>2024-11-03T13:51:25Z</time>
      </trkpt>
      <trkpt lat="43.49337" lon="6.94095">
        <ele>176.2</ele>
        <time>2024-11-03T13:51:32Z</time>
      </trkpt>
      <trkpt lat="43.49338" lon="6.94108">
        <ele>176.2</ele>
        <time>2024-11-03T13:51:39Z</time>
      </trkpt>
      <trkpt lat="43.49335" lon="6.94121">
        <ele>175.8</ele>
        <time>2024-11-03T13:51:46Z</time>
      </trkpt>
      <trkpt lat="43.49336" lon="6.94135">
        <ele>175.2</ele>
        <time>2024-11-03T13:51:54Z</time>
      </trkpt>
      <trkpt lat="43.49337" lon="6.94147">
        <ele>174.5</ele>
        <time>2024-11-03T13:52:01Z</time>
      </trkpt>
      <trkpt lat="43.49338" lon="6.94159">
        <ele>173.8</ele>
        <time>2024-11-03T13:52:08Z</time>
      </trkpt>
      <trkpt lat="43.4934" lon="6.94173">
        <ele>172.1</ele>
        <time>2024-11-03T13:52:15Z</time>
      </trkpt>
      <trkpt lat="43.49342" lon="6.94186">
        <ele>171</ele>
        <time>2024-11-03T13:52:23Z</time>
      </trkpt>
      <trkpt lat="43.49344" lon="6.94199">
        <ele>170.8</ele>
        <time>2024-11-03T13:52:31Z</time>
      </trkpt>
      <trkpt lat="43.49345" lon="6.94212">
        <ele>170.5</ele>
        <time>2024-11-03T13:52:40Z</time>
      </trkpt>
      <trkpt lat="43.49345" lon="6.94225">
        <ele>169.3</ele>
        <time>2024-11-03T13:52:48Z</time>
      </trkpt>
      <trkpt lat="43.49347" lon="6.94238">
        <ele>168.3</ele>
        <time>2024-11-03T13:52:55Z</time>
      </trkpt>
      <trkpt lat="43.49352" lon="6.94249">
        <ele>167.4</ele>
        <time>2024-11-03T13:53:04Z</time>
      </trkpt>
      <trkpt lat="43.49359" lon="6.94257">
        <ele>166</ele>
        <time>2024-11-03T13:53:13Z</time>
      </trkpt>
      <trkpt lat="43.49369" lon="6.9426">
        <ele>164.7</ele>
        <time>2024-11-03T13:53:22Z</time>
      </trkpt>
      <trkpt lat="43.49378" lon="6.94259">
        <ele>163.7</ele>
        <time>2024-11-03T13:53:30Z</time>
      </trkpt>
      <trkpt lat="43.49387" lon="6.94261">
        <ele>163.2</ele>
        <time>2024-11-03T13:53:38Z</time>
      </trkpt>
      <trkpt lat="43.49397" lon="6.94259">
        <ele>162</ele>
        <time>2024-11-03T13:53:46Z</time>
      </trkpt>
      <trkpt lat="43.49399" lon="6.94266">
        <ele>160</ele>
        <time>2024-11-03T13:53:57Z</time>
      </trkpt>
      <trkpt lat="43.49399" lon="6.94265">
        <ele>160.1</ele>
        <time>2024-11-03T13:54:05Z</time>
      </trkpt>
      <trkpt lat="43.49399" lon="6.94265">
        <ele>160.5</ele>
        <time>2024-11-03T13:54:06Z</time>
      </trkpt>
      <trkpt lat="43.49399" lon="6.94265">
        <ele>160.7</ele>
        <time>2024-11-03T13:54:07Z</time>
      </trkpt>
      <trkpt lat="43.49399" lon="6.94265">
        <ele>160.8</ele>
        <time>2024-11-03T13:54:08Z</time>
      </trkpt>
      <trkpt lat="43.49399" lon="6.94264">
        <ele>160.9</ele>
        <time>2024-11-03T13:54:10Z</time>
      </trkpt>
      <trkpt lat="43.49407" lon="6.94257">
        <ele>159.9</ele>
        <time>2024-11-03T13:54:21Z</time>
      </trkpt>
      <trkpt lat="43.49417" lon="6.94259">
        <ele>158.9</ele>
        <time>2024-11-03T13:54:29Z</time>
      </trkpt>
      <trkpt lat="43.49426" lon="6.9426">
        <ele>158.9</ele>
        <time>2024-11-03T13:54:36Z</time>
      </trkpt>
      <trkpt lat="43.49436" lon="6.94258">
        <ele>159</ele>
        <time>2024-11-03T13:54:43Z</time>
      </trkpt>
      <trkpt lat="43.49445" lon="6.94257">
        <ele>158.5</ele>
        <time>2024-11-03T13:54:50Z</time>
      </trkpt>
      <trkpt lat="43.49455" lon="6.94257">
        <ele>158.3</ele>
        <time>2024-11-03T13:54:58Z</time>
      </trkpt>
      <trkpt lat="43.49464" lon="6.94259">
        <ele>158.4</ele>
        <time>2024-11-03T13:55:06Z</time>
      </trkpt>
      <trkpt lat="43.49473" lon="6.94258">
        <ele>158.7</ele>
        <time>2024-11-03T13:55:14Z</time>
      </trkpt>
      <trkpt lat="43.49483" lon="6.94256">
        <ele>157.7</ele>
        <time>2024-11-03T13:55:25Z</time>
      </trkpt>
      <trkpt lat="43.49492" lon="6.94257">
        <ele>157.4</ele>
        <time>2024-11-03T13:55:33Z</time>
      </trkpt>
      <trkpt lat="43.49502" lon="6.94253">
        <ele>157.7</ele>
        <time>2024-11-03T13:55:40Z</time>
      </trkpt>
      <trkpt lat="43.49512" lon="6.94251">
        <ele>157.9</ele>
        <time>2024-11-03T13:55:49Z</time>
      </trkpt>
      <trkpt lat="43.49522" lon="6.94253">
        <ele>158.1</ele>
        <time>2024-11-03T13:55:57Z</time>
      </trkpt>
      <trkpt lat="43.49531" lon="6.94258">
        <ele>158.2</ele>
        <time>2024-11-03T13:56:05Z</time>
      </trkpt>
      <trkpt lat="43.49539" lon="6.94264">
        <ele>158.3</ele>
        <time>2024-11-03T13:56:16Z</time>
      </trkpt>
      <trkpt lat="43.49549" lon="6.94264">
        <ele>157.6</ele>
        <time>2024-11-03T13:56:29Z</time>
      </trkpt>
      <trkpt lat="43.49551" lon="6.94272">
        <ele>157</ele>
        <time>2024-11-03T13:56:40Z</time>
      </trkpt>
      <trkpt lat="43.49552" lon="6.94272">
        <ele>157</ele>
        <time>2024-11-03T13:56:41Z</time>
      </trkpt>
      <trkpt lat="43.49552" lon="6.94272">
        <ele>156.7</ele>
        <time>2024-11-03T13:56:45Z</time>
      </trkpt>
      <trkpt lat="43.49553" lon="6.94272">
        <ele>156.6</ele>
        <time>2024-11-03T13:56:47Z</time>
      </trkpt>
      <trkpt lat="43.49563" lon="6.9427">
        <ele>156.7</ele>
        <time>2024-11-03T13:56:55Z</time>
      </trkpt>
      <trkpt lat="43.49568" lon="6.94261">
        <ele>155.8</ele>
        <time>2024-11-03T13:57:08Z</time>
      </trkpt>
      <trkpt lat="43.49568" lon="6.94261">
        <ele>155.8</ele>
        <time>2024-11-03T13:57:18Z</time>
      </trkpt>
      <trkpt lat="43.49566" lon="6.94262">
        <ele>156.6</ele>
        <time>2024-11-03T13:57:31Z</time>
      </trkpt>
      <trkpt lat="43.49566" lon="6.94262">
        <ele>156.5</ele>
        <time>2024-11-03T13:57:32Z</time>
      </trkpt>
      <trkpt lat="43.49566" lon="6.94262">
        <ele>156.6</ele>
        <time>2024-11-03T13:57:33Z</time>
      </trkpt>
      <trkpt lat="43.49565" lon="6.94262">
        <ele>156.6</ele>
        <time>2024-11-03T13:57:34Z</time>
      </trkpt>
      <trkpt lat="43.49565" lon="6.94262">
        <ele>156.6</ele>
        <time>2024-11-03T13:57:35Z</time>
      </trkpt>
      <trkpt lat="43.49565" lon="6.94262">
        <ele>156.6</ele>
        <time>2024-11-03T13:58:06Z</time>
      </trkpt>
      <trkpt lat="43.49565" lon="6.94262">
        <ele>156.5</ele>
        <time>2024-11-03T13:58:09Z</time>
      </trkpt>
      <trkpt lat="43.49565" lon="6.94262">
        <ele>156.5</ele>
        <time>2024-11-03T13:58:10Z</time>
      </trkpt>
      <trkpt lat="43.49565" lon="6.94263">
        <ele>156.5</ele>
        <time>2024-11-03T13:58:11Z</time>
      </trkpt>
      <trkpt lat="43.49565" lon="6.94263">
        <ele>156.5</ele>
        <time>2024-11-03T13:58:12Z</time>
      </trkpt>
      <trkpt lat="43.49565" lon="6.94263">
        <ele>156.4</ele>
        <time>2024-11-03T13:58:13Z</time>
      </trkpt>
      <trkpt lat="43.49565" lon="6.94263">
        <ele>156.4</ele>
        <time>2024-11-03T13:58:14Z</time>
      </trkpt>
      <trkpt lat="43.49565" lon="6.94263">
        <ele>156.2</ele>
        <time>2024-11-03T13:58:19Z</time>
      </trkpt>
      <trkpt lat="43.49565" lon="6.94263">
        <ele>156.2</ele>
        <time>2024-11-03T13:58:20Z</time>
      </trkpt>
      <trkpt lat="43.49565" lon="6.94264">
        <ele>156.4</ele>
        <time>2024-11-03T13:58:24Z</time>
      </trkpt>
      <trkpt lat="43.49565" lon="6.94265">
        <ele>156.4</ele>
        <time>2024-11-03T13:58:25Z</time>
      </trkpt>
      <trkpt lat="43.49565" lon="6.94265">
        <ele>156.5</ele>
        <time>2024-11-03T13:58:26Z</time>
      </trkpt>
      <trkpt lat="43.49565" lon="6.94264">
        <ele>156.4</ele>
        <time>2024-11-03T13:58:27Z</time>
      </trkpt>
      <trkpt lat="43.49565" lon="6.94264">
        <ele>156.3</ele>
        <time>2024-11-03T13:58:29Z</time>
      </trkpt>
      <trkpt lat="43.49565" lon="6.94264">
        <ele>156.3</ele>
        <time>2024-11-03T13:59:04Z</time>
      </trkpt>
      <trkpt lat="43.49565" lon="6.94262">
        <ele>156.1</ele>
        <time>2024-11-03T13:59:17Z</time>
      </trkpt>
      <trkpt lat="43.49565" lon="6.94262">
        <ele>156.1</ele>
        <time>2024-11-03T13:59:18Z</time>
      </trkpt>
      <trkpt lat="43.49566" lon="6.94262">
        <ele>156.3</ele>
        <time>2024-11-03T13:59:22Z</time>
      </trkpt>
      <trkpt lat="43.49567" lon="6.94262">
        <ele>156.5</ele>
        <time>2024-11-03T13:59:23Z</time>
      </trkpt>
      <trkpt lat="43.49567" lon="6.94262">
        <ele>157.4</ele>
        <time>2024-11-03T13:59:27Z</time>
      </trkpt>
      <trkpt lat="43.49567" lon="6.94262">
        <ele>157.6</ele>
        <time>2024-11-03T13:59:28Z</time>
      </trkpt>
      <trkpt lat="43.49575" lon="6.94255">
        <ele>156</ele>
        <time>2024-11-03T13:59:40Z</time>
      </trkpt>
      <trkpt lat="43.49567" lon="6.9426">
        <ele>155.1</ele>
        <time>2024-11-03T14:00:12Z</time>
      </trkpt>
      <trkpt lat="43.49567" lon="6.94261">
        <ele>155.1</ele>
        <time>2024-11-03T14:00:15Z</time>
      </trkpt>
      <trkpt lat="43.49567" lon="6.94261">
        <ele>154.8</ele>
        <time>2024-11-03T14:00:18Z</time>
      </trkpt>
      <trkpt lat="43.49567" lon="6.94261">
        <ele>154.7</ele>
        <time>2024-11-03T14:00:19Z</time>
      </trkpt>
      <trkpt lat="43.49567" lon="6.94261">
        <ele>154.8</ele>
        <time>2024-11-03T14:00:26Z</time>
      </trkpt>
      <trkpt lat="43.49567" lon="6.94261">
        <ele>154.9</ele>
        <time>2024-11-03T14:00:27Z</time>
      </trkpt>
      <trkpt lat="43.49567" lon="6.94262">
        <ele>155.1</ele>
        <time>2024-11-03T14:00:28Z</time>
      </trkpt>
      <trkpt lat="43.49568" lon="6.94263">
        <ele>157.7</ele>
        <time>2024-11-03T14:01:14Z</time>
      </trkpt>
      <trkpt lat="43.49568" lon="6.94263">
        <ele>157.7</ele>
        <time>2024-11-03T14:01:15Z</time>
      </trkpt>
      <trkpt lat="43.49568" lon="6.94263">
        <ele>157.6</ele>
        <time>2024-11-03T14:01:17Z</time>
      </trkpt>
      <trkpt lat="43.49568" lon="6.94262">
        <ele>157.6</ele>
        <time>2024-11-03T14:01:22Z</time>
      </trkpt>
      <trkpt lat="43.4957" lon="6.94259">
        <ele>156.7</ele>
        <time>2024-11-03T14:01:34Z</time>
      </trkpt>
      <trkpt lat="43.4957" lon="6.94259">
        <ele>156.7</ele>
        <time>2024-11-03T14:01:35Z</time>
      </trkpt>
      <trkpt lat="43.4957" lon="6.94259">
        <ele>156.7</ele>
        <time>2024-11-03T14:01:37Z</time>
      </trkpt>
      <trkpt lat="43.4957" lon="6.94258">
        <ele>156.9</ele>
        <time>2024-11-03T14:01:40Z</time>
      </trkpt>
      <trkpt lat="43.49567" lon="6.94264">
        <ele>157.4</ele>
        <time>2024-11-03T14:02:02Z</time>
      </trkpt>
      <trkpt lat="43.49567" lon="6.94264">
        <ele>157.6</ele>
        <time>2024-11-03T14:02:05Z</time>
      </trkpt>
      <trkpt lat="43.49567" lon="6.94264">
        <ele>157.7</ele>
        <time>2024-11-03T14:02:07Z</time>
      </trkpt>
      <trkpt lat="43.49567" lon="6.94263">
        <ele>157.8</ele>
        <time>2024-11-03T14:02:08Z</time>
      </trkpt>
      <trkpt lat="43.49567" lon="6.94261">
        <ele>159.1</ele>
        <time>2024-11-03T14:02:13Z</time>
      </trkpt>
      <trkpt lat="43.49567" lon="6.94261">
        <ele>159.3</ele>
        <time>2024-11-03T14:02:26Z</time>
      </trkpt>
      <trkpt lat="43.49567" lon="6.94261">
        <ele>159.3</ele>
        <time>2024-11-03T14:02:27Z</time>
      </trkpt>
      <trkpt lat="43.49567" lon="6.94261">
        <ele>159.2</ele>
        <time>2024-11-03T14:02:29Z</time>
      </trkpt>
      <trkpt lat="43.49567" lon="6.94261">
        <ele>159.2</ele>
        <time>2024-11-03T14:02:30Z</time>
      </trkpt>
      <trkpt lat="43.49567" lon="6.94261">
        <ele>159.1</ele>
        <time>2024-11-03T14:02:31Z</time>
      </trkpt>
      <trkpt lat="43.49566" lon="6.94262">
        <ele>158.9</ele>
        <time>2024-11-03T14:02:34Z</time>
      </trkpt>
      <trkpt lat="43.49566" lon="6.94263">
        <ele>158.6</ele>
        <time>2024-11-03T14:03:04Z</time>
      </trkpt>
      <trkpt lat="43.49566" lon="6.94263">
        <ele>158.8</ele>
        <time>2024-11-03T14:03:07Z</time>
      </trkpt>
      <trkpt lat="43.49566" lon="6.94263">
        <ele>158.7</ele>
        <time>2024-11-03T14:03:25Z</time>
      </trkpt>
      <trkpt lat="43.49566" lon="6.94263">
        <ele>158.7</ele>
        <time>2024-11-03T14:03:26Z</time>
      </trkpt>
      <trkpt lat="43.49566" lon="6.94263">
        <ele>158.6</ele>
        <time>2024-11-03T14:03:28Z</time>
      </trkpt>
      <trkpt lat="43.49566" lon="6.94263">
        <ele>158.5</ele>
        <time>2024-11-03T14:03:29Z</time>
      </trkpt>
      <trkpt lat="43.49566" lon="6.94263">
        <ele>158.5</ele>
        <time>2024-11-03T14:03:33Z</time>
      </trkpt>
      <trkpt lat="43.49566" lon="6.94263">
        <ele>158.5</ele>
        <time>2024-11-03T14:03:34Z</time>
      </trkpt>
      <trkpt lat="43.49565" lon="6.94264">
        <ele>158.3</ele>
        <time>2024-11-03T14:03:39Z</time>
      </trkpt>
      <trkpt lat="43.49565" lon="6.94264">
        <ele>158.4</ele>
        <time>2024-11-03T14:03:40Z</time>
      </trkpt>
      <trkpt lat="43.49565" lon="6.94264">
        <ele>158.5</ele>
        <time>2024-11-03T14:03:41Z</time>
      </trkpt>
      <trkpt lat="43.49562" lon="6.94277">
        <ele>161.2</ele>
        <time>2024-11-03T14:03:56Z</time>
      </trkpt>
      <trkpt lat="43.49563" lon="6.94284">
        <ele>162.9</ele>
        <time>2024-11-03T14:04:05Z</time>
      </trkpt>
      <trkpt lat="43.49563" lon="6.94284">
        <ele>162.8</ele>
        <time>2024-11-03T14:04:14Z</time>
      </trkpt>
      <trkpt lat="43.49563" lon="6.94284">
        <ele>162.8</ele>
        <time>2024-11-03T14:04:15Z</time>
      </trkpt>
      <trkpt lat="43.49563" lon="6.94285">
        <ele>162.7</ele>
        <time>2024-11-03T14:04:19Z</time>
      </trkpt>
      <trkpt lat="43.49564" lon="6.94285">
        <ele>162.6</ele>
        <time>2024-11-03T14:04:21Z</time>
      </trkpt>
      <trkpt lat="43.49564" lon="6.94285">
        <ele>162.4</ele>
        <time>2024-11-03T14:04:24Z</time>
      </trkpt>
      <trkpt lat="43.49565" lon="6.94277">
        <ele>159.4</ele>
        <time>2024-11-03T14:04:52Z</time>
      </trkpt>
      <trkpt lat="43.49565" lon="6.94277">
        <ele>159.4</ele>
        <time>2024-11-03T14:04:55Z</time>
      </trkpt>
      <trkpt lat="43.49564" lon="6.94278">
        <ele>159.5</ele>
        <time>2024-11-03T14:05:00Z</time>
      </trkpt>
      <trkpt lat="43.49564" lon="6.94278">
        <ele>159.2</ele>
        <time>2024-11-03T14:05:02Z</time>
      </trkpt>
      <trkpt lat="43.49565" lon="6.94276">
        <ele>159.5</ele>
        <time>2024-11-03T14:05:10Z</time>
      </trkpt>
      <trkpt lat="43.49565" lon="6.94276">
        <ele>159.5</ele>
        <time>2024-11-03T14:05:19Z</time>
      </trkpt>
      <trkpt lat="43.49565" lon="6.94273">
        <ele>159.8</ele>
        <time>2024-11-03T14:05:25Z</time>
      </trkpt>
      <trkpt lat="43.49565" lon="6.94272">
        <ele>159.9</ele>
        <time>2024-11-03T14:05:26Z</time>
      </trkpt>
      <trkpt lat="43.49565" lon="6.94272">
        <ele>159.9</ele>
        <time>2024-11-03T14:05:27Z</time>
      </trkpt>
      <trkpt lat="43.49565" lon="6.94271">
        <ele>159.8</ele>
        <time>2024-11-03T14:05:28Z</time>
      </trkpt>
      <trkpt lat="43.49564" lon="6.94269">
        <ele>160.2</ele>
        <time>2024-11-03T14:05:37Z</time>
      </trkpt>
      <trkpt lat="43.49563" lon="6.94269">
        <ele>160.4</ele>
        <time>2024-11-03T14:05:50Z</time>
      </trkpt>
      <trkpt lat="43.49564" lon="6.94269">
        <ele>160.6</ele>
        <time>2024-11-03T14:05:53Z</time>
      </trkpt>
      <trkpt lat="43.49563" lon="6.94269">
        <ele>160.7</ele>
        <time>2024-11-03T14:05:56Z</time>
      </trkpt>
      <trkpt lat="43.49563" lon="6.94269">
        <ele>160.8</ele>
        <time>2024-11-03T14:05:57Z</time>
      </trkpt>
      <trkpt lat="43.49564" lon="6.94269">
        <ele>161</ele>
        <time>2024-11-03T14:06:07Z</time>
      </trkpt>
      <trkpt lat="43.49564" lon="6.94269">
        <ele>161.2</ele>
        <time>2024-11-03T14:06:10Z</time>
      </trkpt>
      <trkpt lat="43.49564" lon="6.94268">
        <ele>161.2</ele>
        <time>2024-11-03T14:06:11Z</time>
      </trkpt>
      <trkpt lat="43.49564" lon="6.94266">
        <ele>161.5</ele>
        <time>2024-11-03T14:06:15Z</time>
      </trkpt>
      <trkpt lat="43.49564" lon="6.94266">
        <ele>161.5</ele>
        <time>2024-11-03T14:06:26Z</time>
      </trkpt>
      <trkpt lat="43.49564" lon="6.94266">
        <ele>161.5</ele>
        <time>2024-11-03T14:06:27Z</time>
      </trkpt>
      <trkpt lat="43.49564" lon="6.94266">
        <ele>161.6</ele>
        <time>2024-11-03T14:06:53Z</time>
      </trkpt>
      <trkpt lat="43.49564" lon="6.94266">
        <ele>161.5</ele>
        <time>2024-11-03T14:06:55Z</time>
      </trkpt>
      <trkpt lat="43.49565" lon="6.94266">
        <ele>161.4</ele>
        <time>2024-11-03T14:06:56Z</time>
      </trkpt>
      <trkpt lat="43.49565" lon="6.94266">
        <ele>161.3</ele>
        <time>2024-11-03T14:06:57Z</time>
      </trkpt>
      <trkpt lat="43.49565" lon="6.94266">
        <ele>161.3</ele>
        <time>2024-11-03T14:07:01Z</time>
      </trkpt>
      <trkpt lat="43.49565" lon="6.94266">
        <ele>161.2</ele>
        <time>2024-11-03T14:07:04Z</time>
      </trkpt>
      <trkpt lat="43.49565" lon="6.94265">
        <ele>161.2</ele>
        <time>2024-11-03T14:07:05Z</time>
      </trkpt>
      <trkpt lat="43.49566" lon="6.94265">
        <ele>161.3</ele>
        <time>2024-11-03T14:07:09Z</time>
      </trkpt>
      <trkpt lat="43.49566" lon="6.94264">
        <ele>161.2</ele>
        <time>2024-11-03T14:07:38Z</time>
      </trkpt>
      <trkpt lat="43.49566" lon="6.94264">
        <ele>161.2</ele>
        <time>2024-11-03T14:07:39Z</time>
      </trkpt>
      <trkpt lat="43.49566" lon="6.94264">
        <ele>161.1</ele>
        <time>2024-11-03T14:07:55Z</time>
      </trkpt>
      <trkpt lat="43.49566" lon="6.94264">
        <ele>161</ele>
        <time>2024-11-03T14:07:57Z</time>
      </trkpt>
      <trkpt lat="43.49566" lon="6.94264">
        <ele>160.9</ele>
        <time>2024-11-03T14:08:00Z</time>
      </trkpt>
      <trkpt lat="43.49566" lon="6.94264">
        <ele>160.9</ele>
        <time>2024-11-03T14:08:01Z</time>
      </trkpt>
      <trkpt lat="43.49566" lon="6.94264">
        <ele>160.9</ele>
        <time>2024-11-03T14:08:15Z</time>
      </trkpt>
      <trkpt lat="43.49566" lon="6.94264">
        <ele>161.2</ele>
        <time>2024-11-03T14:08:20Z</time>
      </trkpt>
      <trkpt lat="43.49566" lon="6.94265">
        <ele>161.2</ele>
        <time>2024-11-03T14:08:23Z</time>
      </trkpt>
      <trkpt lat="43.49564" lon="6.94263">
        <ele>161.8</ele>
        <time>2024-11-03T14:08:38Z</time>
      </trkpt>
      <trkpt lat="43.49564" lon="6.94263">
        <ele>161.9</ele>
        <time>2024-11-03T14:08:41Z</time>
      </trkpt>
      <trkpt lat="43.49565" lon="6.94263">
        <ele>163</ele>
        <time>2024-11-03T14:08:44Z</time>
      </trkpt>
      <trkpt lat="43.49565" lon="6.94264">
        <ele>163.2</ele>
        <time>2024-11-03T14:08:45Z</time>
      </trkpt>
      <trkpt lat="43.49567" lon="6.94266">
        <ele>164</ele>
        <time>2024-11-03T14:08:50Z</time>
      </trkpt>
      <trkpt lat="43.49567" lon="6.94267">
        <ele>164.5</ele>
        <time>2024-11-03T14:08:52Z</time>
      </trkpt>
      <trkpt lat="43.49567" lon="6.94269">
        <ele>166.3</ele>
        <time>2024-11-03T14:09:01Z</time>
      </trkpt>
      <trkpt lat="43.49567" lon="6.94269">
        <ele>166.3</ele>
        <time>2024-11-03T14:09:05Z</time>
      </trkpt>
      <trkpt lat="43.49567" lon="6.94269">
        <ele>166.2</ele>
        <time>2024-11-03T14:09:06Z</time>
      </trkpt>
      <trkpt lat="43.49566" lon="6.9427">
        <ele>165.5</ele>
        <time>2024-11-03T14:09:07Z</time>
      </trkpt>
      <trkpt lat="43.49566" lon="6.94269">
        <ele>165.5</ele>
        <time>2024-11-03T14:09:10Z</time>
      </trkpt>
      <trkpt lat="43.49566" lon="6.94269">
        <ele>165.3</ele>
        <time>2024-11-03T14:09:11Z</time>
      </trkpt>
      <trkpt lat="43.49566" lon="6.94268">
        <ele>165.2</ele>
        <time>2024-11-03T14:09:13Z</time>
      </trkpt>
      <trkpt lat="43.49566" lon="6.94268">
        <ele>165.2</ele>
        <time>2024-11-03T14:09:16Z</time>
      </trkpt>
      <trkpt lat="43.49566" lon="6.94267">
        <ele>165.5</ele>
        <time>2024-11-03T14:09:21Z</time>
      </trkpt>
      <trkpt lat="43.49566" lon="6.94267">
        <ele>165.4</ele>
        <time>2024-11-03T14:09:22Z</time>
      </trkpt>
      <trkpt lat="43.49565" lon="6.94265">
        <ele>166.2</ele>
        <time>2024-11-03T14:09:26Z</time>
      </trkpt>
      <trkpt lat="43.49565" lon="6.94265">
        <ele>166.4</ele>
        <time>2024-11-03T14:09:27Z</time>
      </trkpt>
      <trkpt lat="43.49562" lon="6.94262">
        <ele>166.1</ele>
        <time>2024-11-03T14:09:41Z</time>
      </trkpt>
      <trkpt lat="43.49561" lon="6.94263">
        <ele>165.9</ele>
        <time>2024-11-03T14:09:42Z</time>
      </trkpt>
      <trkpt lat="43.4956" lon="6.94264">
        <ele>165.4</ele>
        <time>2024-11-03T14:09:47Z</time>
      </trkpt>
      <trkpt lat="43.4956" lon="6.94264">
        <ele>165.4</ele>
        <time>2024-11-03T14:09:48Z</time>
      </trkpt>
      <trkpt lat="43.4956" lon="6.94264">
        <ele>165.4</ele>
        <time>2024-11-03T14:09:49Z</time>
      </trkpt>
      <trkpt lat="43.4956" lon="6.94265">
        <ele>165.3</ele>
        <time>2024-11-03T14:09:50Z</time>
      </trkpt>
      <trkpt lat="43.49559" lon="6.94265">
        <ele>164.9</ele>
        <time>2024-11-03T14:09:54Z</time>
      </trkpt>
      <trkpt lat="43.49559" lon="6.94265">
        <ele>164.7</ele>
        <time>2024-11-03T14:09:55Z</time>
      </trkpt>
      <trkpt lat="43.4956" lon="6.94267">
        <ele>164</ele>
        <time>2024-11-03T14:10:02Z</time>
      </trkpt>
      <trkpt lat="43.4956" lon="6.94267">
        <ele>163.8</ele>
        <time>2024-11-03T14:10:06Z</time>
      </trkpt>
      <trkpt lat="43.49559" lon="6.94267">
        <ele>163.1</ele>
        <time>2024-11-03T14:10:12Z</time>
      </trkpt>
      <trkpt lat="43.49558" lon="6.94267">
        <ele>163</ele>
        <time>2024-11-03T14:10:13Z</time>
      </trkpt>
      <trkpt lat="43.4956" lon="6.94269">
        <ele>162.5</ele>
        <time>2024-11-03T14:10:22Z</time>
      </trkpt>
      <trkpt lat="43.4956" lon="6.94269">
        <ele>162.5</ele>
        <time>2024-11-03T14:10:23Z</time>
      </trkpt>
      <trkpt lat="43.4956" lon="6.94269">
        <ele>162.4</ele>
        <time>2024-11-03T14:10:24Z</time>
      </trkpt>
      <trkpt lat="43.49559" lon="6.94269">
        <ele>162.3</ele>
        <time>2024-11-03T14:10:25Z</time>
      </trkpt>
      <trkpt lat="43.49559" lon="6.94269">
        <ele>162.1</ele>
        <time>2024-11-03T14:10:28Z</time>
      </trkpt>
      <trkpt lat="43.49559" lon="6.94269">
        <ele>161.8</ele>
        <time>2024-11-03T14:10:29Z</time>
      </trkpt>
      <trkpt lat="43.49559" lon="6.94269">
        <ele>161.8</ele>
        <time>2024-11-03T14:10:31Z</time>
      </trkpt>
      <trkpt lat="43.49559" lon="6.94269">
        <ele>161.6</ele>
        <time>2024-11-03T14:10:33Z</time>
      </trkpt>
      <trkpt lat="43.49559" lon="6.94269">
        <ele>161.6</ele>
        <time>2024-11-03T14:10:34Z</time>
      </trkpt>
      <trkpt lat="43.49559" lon="6.94269">
        <ele>161.5</ele>
        <time>2024-11-03T14:10:35Z</time>
      </trkpt>
      <trkpt lat="43.4956" lon="6.94269">
        <ele>161.1</ele>
        <time>2024-11-03T14:10:42Z</time>
      </trkpt>
      <trkpt lat="43.4956" lon="6.94269">
        <ele>161.1</ele>
        <time>2024-11-03T14:10:45Z</time>
      </trkpt>
      <trkpt lat="43.4956" lon="6.94269">
        <ele>161.1</ele>
        <time>2024-11-03T14:10:46Z</time>
      </trkpt>
      <trkpt lat="43.4956" lon="6.94269">
        <ele>161.2</ele>
        <time>2024-11-03T14:10:53Z</time>
      </trkpt>
      <trkpt lat="43.4956" lon="6.94269">
        <ele>161.2</ele>
        <time>2024-11-03T14:10:54Z</time>
      </trkpt>
      <trkpt lat="43.4956" lon="6.94269">
        <ele>161.2</ele>
        <time>2024-11-03T14:10:55Z</time>
      </trkpt>
      <trkpt lat="43.4956" lon="6.94269">
        <ele>161.2</ele>
        <time>2024-11-03T14:10:56Z</time>
      </trkpt>
      <trkpt lat="43.49561" lon="6.94269">
        <ele>161.2</ele>
        <time>2024-11-03T14:11:05Z</time>
      </trkpt>
      <trkpt lat="43.49561" lon="6.94269">
        <ele>161.3</ele>
        <time>2024-11-03T14:11:06Z</time>
      </trkpt>
      <trkpt lat="43.49561" lon="6.94269">
        <ele>161.3</ele>
        <time>2024-11-03T14:11:15Z</time>
      </trkpt>
      <trkpt lat="43.49561" lon="6.94269">
        <ele>161.3</ele>
        <time>2024-11-03T14:11:16Z</time>
      </trkpt>
      <trkpt lat="43.49561" lon="6.94269">
        <ele>161.4</ele>
        <time>2024-11-03T14:11:17Z</time>
      </trkpt>
      <trkpt lat="43.49561" lon="6.94269">
        <ele>161.4</ele>
        <time>2024-11-03T14:11:18Z</time>
      </trkpt>
      <trkpt lat="43.49561" lon="6.94269">
        <ele>161.6</ele>
        <time>2024-11-03T14:11:26Z</time>
      </trkpt>
      <trkpt lat="43.49561" lon="6.94269">
        <ele>161.6</ele>
        <time>2024-11-03T14:11:27Z</time>
      </trkpt>
      <trkpt lat="43.49561" lon="6.94269">
        <ele>161.9</ele>
        <time>2024-11-03T14:11:33Z</time>
      </trkpt>
      <trkpt lat="43.49561" lon="6.94269">
        <ele>161.9</ele>
        <time>2024-11-03T14:11:38Z</time>
      </trkpt>
      <trkpt lat="43.49561" lon="6.94269">
        <ele>161.6</ele>
        <time>2024-11-03T14:11:48Z</time>
      </trkpt>
      <trkpt lat="43.49561" lon="6.9427">
        <ele>161.3</ele>
        <time>2024-11-03T14:11:53Z</time>
      </trkpt>
      <trkpt lat="43.49561" lon="6.9427">
        <ele>161.4</ele>
        <time>2024-11-03T14:11:55Z</time>
      </trkpt>
      <trkpt lat="43.49561" lon="6.9427">
        <ele>161.5</ele>
        <time>2024-11-03T14:11:56Z</time>
      </trkpt>
      <trkpt lat="43.49561" lon="6.9427">
        <ele>161.6</ele>
        <time>2024-11-03T14:11:58Z</time>
      </trkpt>
      <trkpt lat="43.49561" lon="6.94262">
        <ele>161.9</ele>
        <time>2024-11-03T14:12:28Z</time>
      </trkpt>
      <trkpt lat="43.49562" lon="6.94262">
        <ele>162.1</ele>
        <time>2024-11-03T14:12:29Z</time>
      </trkpt>
      <trkpt lat="43.49563" lon="6.94262">
        <ele>161.9</ele>
        <time>2024-11-03T14:12:34Z</time>
      </trkpt>
      <trkpt lat="43.49563" lon="6.94262">
        <ele>162</ele>
        <time>2024-11-03T14:12:39Z</time>
      </trkpt>
      <trkpt lat="43.49563" lon="6.94262">
        <ele>162</ele>
        <time>2024-11-03T14:12:41Z</time>
      </trkpt>
      <trkpt lat="43.49563" lon="6.94263">
        <ele>162.1</ele>
        <time>2024-11-03T14:12:42Z</time>
      </trkpt>
      <trkpt lat="43.49564" lon="6.94266">
        <ele>162.1</ele>
        <time>2024-11-03T14:12:49Z</time>
      </trkpt>
      <trkpt lat="43.49564" lon="6.94266">
        <ele>162</ele>
        <time>2024-11-03T14:12:51Z</time>
      </trkpt>
      <trkpt lat="43.49563" lon="6.94266">
        <ele>161.4</ele>
        <time>2024-11-03T14:12:54Z</time>
      </trkpt>
      <trkpt lat="43.49563" lon="6.94265">
        <ele>161.2</ele>
        <time>2024-11-03T14:12:55Z</time>
      </trkpt>
      <trkpt lat="43.49563" lon="6.94265">
        <ele>161.1</ele>
        <time>2024-11-03T14:12:56Z</time>
      </trkpt>
      <trkpt lat="43.49563" lon="6.94265">
        <ele>161</ele>
        <time>2024-11-03T14:12:58Z</time>
      </trkpt>
      <trkpt lat="43.49563" lon="6.94264">
        <ele>161</ele>
        <time>2024-11-03T14:13:03Z</time>
      </trkpt>
      <trkpt lat="43.49563" lon="6.94264">
        <ele>161.1</ele>
        <time>2024-11-03T14:13:05Z</time>
      </trkpt>
      <trkpt lat="43.49565" lon="6.94267">
        <ele>164.4</ele>
        <time>2024-11-03T14:13:15Z</time>
      </trkpt>
      <trkpt lat="43.49566" lon="6.94267">
        <ele>164.5</ele>
        <time>2024-11-03T14:13:16Z</time>
      </trkpt>
      <trkpt lat="43.49566" lon="6.94267">
        <ele>164.5</ele>
        <time>2024-11-03T14:13:17Z</time>
      </trkpt>
      <trkpt lat="43.49565" lon="6.94267">
        <ele>164.6</ele>
        <time>2024-11-03T14:13:34Z</time>
      </trkpt>
      <trkpt lat="43.49565" lon="6.94267">
        <ele>164.6</ele>
        <time>2024-11-03T14:13:35Z</time>
      </trkpt>
      <trkpt lat="43.49565" lon="6.94267">
        <ele>164.6</ele>
        <time>2024-11-03T14:13:40Z</time>
      </trkpt>
      <trkpt lat="43.49565" lon="6.94267">
        <ele>164.6</ele>
        <time>2024-11-03T14:13:41Z</time>
      </trkpt>
      <trkpt lat="43.49565" lon="6.94267">
        <ele>164.6</ele>
        <time>2024-11-03T14:13:51Z</time>
      </trkpt>
      <trkpt lat="43.49573" lon="6.94274">
        <ele>164.4</ele>
        <time>2024-11-03T14:14:17Z</time>
      </trkpt>
      <trkpt lat="43.49579" lon="6.94284">
        <ele>167.2</ele>
        <time>2024-11-03T14:14:30Z</time>
      </trkpt>
      <trkpt lat="43.4958" lon="6.94285">
        <ele>167.2</ele>
        <time>2024-11-03T14:14:33Z</time>
      </trkpt>
      <trkpt lat="43.4958" lon="6.94286">
        <ele>167.2</ele>
        <time>2024-11-03T14:14:34Z</time>
      </trkpt>
      <trkpt lat="43.49586" lon="6.94296">
        <ele>168.8</ele>
        <time>2024-11-03T14:14:44Z</time>
      </trkpt>
      <trkpt lat="43.49586" lon="6.94309">
        <ele>168.8</ele>
        <time>2024-11-03T14:14:55Z</time>
      </trkpt>
      <trkpt lat="43.49589" lon="6.94321">
        <ele>169.5</ele>
        <time>2024-11-03T14:15:11Z</time>
      </trkpt>
      <trkpt lat="43.49597" lon="6.94328">
        <ele>169.4</ele>
        <time>2024-11-03T14:15:23Z</time>
      </trkpt>
      <trkpt lat="43.49604" lon="6.94337">
        <ele>168.6</ele>
        <time>2024-11-03T14:15:34Z</time>
      </trkpt>
      <trkpt lat="43.49614" lon="6.94341">
        <ele>165.9</ele>
        <time>2024-11-03T14:15:45Z</time>
      </trkpt>
      <trkpt lat="43.49622" lon="6.94345">
        <ele>164.2</ele>
        <time>2024-11-03T14:15:54Z</time>
      </trkpt>
      <trkpt lat="43.49632" lon="6.94348">
        <ele>163.2</ele>
        <time>2024-11-03T14:16:04Z</time>
      </trkpt>
      <trkpt lat="43.49642" lon="6.94353">
        <ele>162.4</ele>
        <time>2024-11-03T14:16:19Z</time>
      </trkpt>
      <trkpt lat="43.49651" lon="6.94357">
        <ele>161.9</ele>
        <time>2024-11-03T14:16:26Z</time>
      </trkpt>
      <trkpt lat="43.4966" lon="6.94358">
        <ele>161.5</ele>
        <time>2024-11-03T14:16:33Z</time>
      </trkpt>
      <trkpt lat="43.49668" lon="6.94365">
        <ele>161.3</ele>
        <time>2024-11-03T14:16:42Z</time>
      </trkpt>
      <trkpt lat="43.49676" lon="6.94371">
        <ele>160.7</ele>
        <time>2024-11-03T14:16:51Z</time>
      </trkpt>
      <trkpt lat="43.49682" lon="6.94381">
        <ele>161</ele>
        <time>2024-11-03T14:17:00Z</time>
      </trkpt>
      <trkpt lat="43.49691" lon="6.94387">
        <ele>160.4</ele>
        <time>2024-11-03T14:17:12Z</time>
      </trkpt>
      <trkpt lat="43.49701" lon="6.94389">
        <ele>160.3</ele>
        <time>2024-11-03T14:17:21Z</time>
      </trkpt>
      <trkpt lat="43.49707" lon="6.94399">
        <ele>158.6</ele>
        <time>2024-11-03T14:17:36Z</time>
      </trkpt>
      <trkpt lat="43.49698" lon="6.94404">
        <ele>158.8</ele>
        <time>2024-11-03T14:17:45Z</time>
      </trkpt>
      <trkpt lat="43.49691" lon="6.94412">
        <ele>158.9</ele>
        <time>2024-11-03T14:17:57Z</time>
      </trkpt>
      <trkpt lat="43.49689" lon="6.94424">
        <ele>159.6</ele>
        <time>2024-11-03T14:18:06Z</time>
      </trkpt>
      <trkpt lat="43.49685" lon="6.94437">
        <ele>159.4</ele>
        <time>2024-11-03T14:18:12Z</time>
      </trkpt>
      <trkpt lat="43.49684" lon="6.94441">
        <ele>159.3</ele>
        <time>2024-11-03T14:18:16Z</time>
      </trkpt>
      <trkpt lat="43.49683" lon="6.94441">
        <ele>159.4</ele>
        <time>2024-11-03T14:18:17Z</time>
      </trkpt>
      <trkpt lat="43.49681" lon="6.94453">
        <ele>159</ele>
        <time>2024-11-03T14:18:29Z</time>
      </trkpt>
      <trkpt lat="43.49678" lon="6.94466">
        <ele>160.1</ele>
        <time>2024-11-03T14:18:38Z</time>
      </trkpt>
      <trkpt lat="43.49676" lon="6.9448">
        <ele>159</ele>
        <time>2024-11-03T14:18:47Z</time>
      </trkpt>
      <trkpt lat="43.49677" lon="6.94492">
        <ele>156.8</ele>
        <time>2024-11-03T14:18:54Z</time>
      </trkpt>
      <trkpt lat="43.49672" lon="6.94503">
        <ele>155.3</ele>
        <time>2024-11-03T14:19:03Z</time>
      </trkpt>
      <trkpt lat="43.49664" lon="6.9451">
        <ele>154.1</ele>
        <time>2024-11-03T14:19:16Z</time>
      </trkpt>
      <trkpt lat="43.49665" lon="6.94513">
        <ele>152.4</ele>
        <time>2024-11-03T14:19:25Z</time>
      </trkpt>
      <trkpt lat="43.49666" lon="6.94512">
        <ele>152.2</ele>
        <time>2024-11-03T14:19:26Z</time>
      </trkpt>
      <trkpt lat="43.49671" lon="6.94523">
        <ele>149</ele>
        <time>2024-11-03T14:19:38Z</time>
      </trkpt>
      <trkpt lat="43.49669" lon="6.94536">
        <ele>147.2</ele>
        <time>2024-11-03T14:19:49Z</time>
      </trkpt>
      <trkpt lat="43.4967" lon="6.94549">
        <ele>147</ele>
        <time>2024-11-03T14:20:02Z</time>
      </trkpt>
      <trkpt lat="43.49676" lon="6.94559">
        <ele>145.1</ele>
        <time>2024-11-03T14:20:12Z</time>
      </trkpt>
      <trkpt lat="43.49681" lon="6.94571">
        <ele>144.5</ele>
        <time>2024-11-03T14:20:24Z</time>
      </trkpt>
      <trkpt lat="43.4969" lon="6.94577">
        <ele>143.4</ele>
        <time>2024-11-03T14:20:35Z</time>
      </trkpt>
      <trkpt lat="43.49699" lon="6.9458">
        <ele>141.8</ele>
        <time>2024-11-03T14:20:44Z</time>
      </trkpt>
      <trkpt lat="43.497" lon="6.94593">
        <ele>139.3</ele>
        <time>2024-11-03T14:20:58Z</time>
      </trkpt>
      <trkpt lat="43.49706" lon="6.94603">
        <ele>138.2</ele>
        <time>2024-11-03T14:21:07Z</time>
      </trkpt>
      <trkpt lat="43.49713" lon="6.94613">
        <ele>137.2</ele>
        <time>2024-11-03T14:21:16Z</time>
      </trkpt>
      <trkpt lat="43.49712" lon="6.94626">
        <ele>136.2</ele>
        <time>2024-11-03T14:21:25Z</time>
      </trkpt>
      <trkpt lat="43.4971" lon="6.94639">
        <ele>136.2</ele>
        <time>2024-11-03T14:21:35Z</time>
      </trkpt>
      <trkpt lat="43.49711" lon="6.94653">
        <ele>134.8</ele>
        <time>2024-11-03T14:21:44Z</time>
      </trkpt>
      <trkpt lat="43.49719" lon="6.94661">
        <ele>133.3</ele>
        <time>2024-11-03T14:21:51Z</time>
      </trkpt>
      <trkpt lat="43.49722" lon="6.94674">
        <ele>132</ele>
        <time>2024-11-03T14:22:05Z</time>
      </trkpt>
      <trkpt lat="43.49728" lon="6.94683">
        <ele>130.4</ele>
        <time>2024-11-03T14:22:14Z</time>
      </trkpt>
      <trkpt lat="43.49734" lon="6.94693">
        <ele>129</ele>
        <time>2024-11-03T14:22:21Z</time>
      </trkpt>
      <trkpt lat="43.49742" lon="6.94701">
        <ele>128.2</ele>
        <time>2024-11-03T14:22:28Z</time>
      </trkpt>
      <trkpt lat="43.49751" lon="6.94706">
        <ele>128</ele>
        <time>2024-11-03T14:22:34Z</time>
      </trkpt>
      <trkpt lat="43.4976" lon="6.94713">
        <ele>126.5</ele>
        <time>2024-11-03T14:22:41Z</time>
      </trkpt>
      <trkpt lat="43.4976" lon="6.94726">
        <ele>125.6</ele>
        <time>2024-11-03T14:22:47Z</time>
      </trkpt>
      <trkpt lat="43.49762" lon="6.9474">
        <ele>125.2</ele>
        <time>2024-11-03T14:22:54Z</time>
      </trkpt>
      <trkpt lat="43.49769" lon="6.94749">
        <ele>124.6</ele>
        <time>2024-11-03T14:23:01Z</time>
      </trkpt>
      <trkpt lat="43.49774" lon="6.94759">
        <ele>123.5</ele>
        <time>2024-11-03T14:23:10Z</time>
      </trkpt>
      <trkpt lat="43.4978" lon="6.94769">
        <ele>122.4</ele>
        <time>2024-11-03T14:23:18Z</time>
      </trkpt>
      <trkpt lat="43.49788" lon="6.94776">
        <ele>121.5</ele>
        <time>2024-11-03T14:23:25Z</time>
      </trkpt>
      <trkpt lat="43.49796" lon="6.94783">
        <ele>121.8</ele>
        <time>2024-11-03T14:23:33Z</time>
      </trkpt>
      <trkpt lat="43.49801" lon="6.94797">
        <ele>121.8</ele>
        <time>2024-11-03T14:23:42Z</time>
      </trkpt>
      <trkpt lat="43.49805" lon="6.94808">
        <ele>121.1</ele>
        <time>2024-11-03T14:23:49Z</time>
      </trkpt>
      <trkpt lat="43.49815" lon="6.94813">
        <ele>122</ele>
        <time>2024-11-03T14:23:56Z</time>
      </trkpt>
      <trkpt lat="43.49821" lon="6.94823">
        <ele>122.2</ele>
        <time>2024-11-03T14:24:05Z</time>
      </trkpt>
      <trkpt lat="43.49825" lon="6.94835">
        <ele>121.6</ele>
        <time>2024-11-03T14:24:12Z</time>
      </trkpt>
      <trkpt lat="43.4983" lon="6.94847">
        <ele>121.5</ele>
        <time>2024-11-03T14:24:20Z</time>
      </trkpt>
      <trkpt lat="43.49837" lon="6.94855">
        <ele>123.2</ele>
        <time>2024-11-03T14:24:30Z</time>
      </trkpt>
      <trkpt lat="43.49843" lon="6.94865">
        <ele>122</ele>
        <time>2024-11-03T14:24:38Z</time>
      </trkpt>
      <trkpt lat="43.49851" lon="6.94872">
        <ele>122.3</ele>
        <time>2024-11-03T14:24:46Z</time>
      </trkpt>
      <trkpt lat="43.49859" lon="6.9488">
        <ele>122.7</ele>
        <time>2024-11-03T14:24:54Z</time>
      </trkpt>
      <trkpt lat="43.49866" lon="6.94889">
        <ele>122.2</ele>
        <time>2024-11-03T14:25:01Z</time>
      </trkpt>
      <trkpt lat="43.49873" lon="6.94897">
        <ele>122.4</ele>
        <time>2024-11-03T14:25:09Z</time>
      </trkpt>
      <trkpt lat="43.49883" lon="6.94899">
        <ele>123.3</ele>
        <time>2024-11-03T14:25:16Z</time>
      </trkpt>
      <trkpt lat="43.49893" lon="6.94898">
        <ele>123.4</ele>
        <time>2024-11-03T14:25:22Z</time>
      </trkpt>
      <trkpt lat="43.49903" lon="6.949">
        <ele>121.7</ele>
        <time>2024-11-03T14:25:30Z</time>
      </trkpt>
      <trkpt lat="43.49913" lon="6.94899">
        <ele>121.7</ele>
        <time>2024-11-03T14:25:36Z</time>
      </trkpt>
      <trkpt lat="43.49918" lon="6.94909">
        <ele>121.5</ele>
        <time>2024-11-03T14:25:43Z</time>
      </trkpt>
      <trkpt lat="43.4992" lon="6.94922">
        <ele>121.5</ele>
        <time>2024-11-03T14:25:52Z</time>
      </trkpt>
      <trkpt lat="43.49916" lon="6.94933">
        <ele>121.3</ele>
        <time>2024-11-03T14:26:00Z</time>
      </trkpt>
      <trkpt lat="43.49915" lon="6.94945">
        <ele>121.3</ele>
        <time>2024-11-03T14:26:06Z</time>
      </trkpt>
      <trkpt lat="43.49909" lon="6.94957">
        <ele>121.5</ele>
        <time>2024-11-03T14:26:11Z</time>
      </trkpt>
      <trkpt lat="43.49909" lon="6.9497">
        <ele>121.7</ele>
        <time>2024-11-03T14:26:17Z</time>
      </trkpt>
      <trkpt lat="43.49911" lon="6.94984">
        <ele>122</ele>
        <time>2024-11-03T14:26:27Z</time>
      </trkpt>
      <trkpt lat="43.49917" lon="6.94994">
        <ele>122.1</ele>
        <time>2024-11-03T14:26:34Z</time>
      </trkpt>
      <trkpt lat="43.49921" lon="6.95006">
        <ele>121.7</ele>
        <time>2024-11-03T14:26:42Z</time>
      </trkpt>
      <trkpt lat="43.49925" lon="6.95019">
        <ele>121.5</ele>
        <time>2024-11-03T14:26:49Z</time>
      </trkpt>
      <trkpt lat="43.49928" lon="6.95032">
        <ele>121.1</ele>
        <time>2024-11-03T14:26:56Z</time>
      </trkpt>
      <trkpt lat="43.49936" lon="6.95039">
        <ele>121.5</ele>
        <time>2024-11-03T14:27:04Z</time>
      </trkpt>
      <trkpt lat="43.49944" lon="6.95046">
        <ele>121.6</ele>
        <time>2024-11-03T14:27:11Z</time>
      </trkpt>
      <trkpt lat="43.49949" lon="6.95058">
        <ele>122.4</ele>
        <time>2024-11-03T14:27:18Z</time>
      </trkpt>
      <trkpt lat="43.49955" lon="6.95068">
        <ele>123.1</ele>
        <time>2024-11-03T14:27:25Z</time>
      </trkpt>
      <trkpt lat="43.49964" lon="6.95074">
        <ele>125.5</ele>
        <time>2024-11-03T14:27:34Z</time>
      </trkpt>
      <trkpt lat="43.49974" lon="6.95072">
        <ele>126.6</ele>
        <time>2024-11-03T14:27:41Z</time>
      </trkpt>
      <trkpt lat="43.49983" lon="6.95074">
        <ele>128</ele>
        <time>2024-11-03T14:27:49Z</time>
      </trkpt>
      <trkpt lat="43.49992" lon="6.95078">
        <ele>128</ele>
        <time>2024-11-03T14:27:57Z</time>
      </trkpt>
      <trkpt lat="43.5" lon="6.95086">
        <ele>127.9</ele>
        <time>2024-11-03T14:28:05Z</time>
      </trkpt>
      <trkpt lat="43.50009" lon="6.95095">
        <ele>126.8</ele>
        <time>2024-11-03T14:28:13Z</time>
      </trkpt>
      <trkpt lat="43.50016" lon="6.95104">
        <ele>125.5</ele>
        <time>2024-11-03T14:28:24Z</time>
      </trkpt>
      <trkpt lat="43.50024" lon="6.95111">
        <ele>125.6</ele>
        <time>2024-11-03T14:28:32Z</time>
      </trkpt>
      <trkpt lat="43.50026" lon="6.95124">
        <ele>126.3</ele>
        <time>2024-11-03T14:28:40Z</time>
      </trkpt>
      <trkpt lat="43.50033" lon="6.95133">
        <ele>128</ele>
        <time>2024-11-03T14:28:49Z</time>
      </trkpt>
      <trkpt lat="43.50039" lon="6.95143">
        <ele>128.2</ele>
        <time>2024-11-03T14:28:57Z</time>
      </trkpt>
      <trkpt lat="43.50045" lon="6.95153">
        <ele>128.9</ele>
        <time>2024-11-03T14:29:05Z</time>
      </trkpt>
      <trkpt lat="43.50052" lon="6.95162">
        <ele>128.4</ele>
        <time>2024-11-03T14:29:12Z</time>
      </trkpt>
      <trkpt lat="43.50058" lon="6.95171">
        <ele>128.5</ele>
        <time>2024-11-03T14:29:19Z</time>
      </trkpt>
      <trkpt lat="43.50067" lon="6.95176">
        <ele>128.8</ele>
        <time>2024-11-03T14:29:28Z</time>
      </trkpt>
      <trkpt lat="43.50074" lon="6.95186">
        <ele>128.9</ele>
        <time>2024-11-03T14:29:37Z</time>
      </trkpt>
      <trkpt lat="43.50081" lon="6.95195">
        <ele>129</ele>
        <time>2024-11-03T14:29:46Z</time>
      </trkpt>
      <trkpt lat="43.5009" lon="6.95202">
        <ele>129.2</ele>
        <time>2024-11-03T14:29:56Z</time>
      </trkpt>
      <trkpt lat="43.50099" lon="6.95206">
        <ele>129.7</ele>
        <time>2024-11-03T14:30:04Z</time>
      </trkpt>
      <trkpt lat="43.50108" lon="6.9521">
        <ele>130.5</ele>
        <time>2024-11-03T14:30:10Z</time>
      </trkpt>
      <trkpt lat="43.50116" lon="6.95216">
        <ele>130.3</ele>
        <time>2024-11-03T14:30:17Z</time>
      </trkpt>
      <trkpt lat="43.50126" lon="6.95218">
        <ele>130.4</ele>
        <time>2024-11-03T14:30:23Z</time>
      </trkpt>
      <trkpt lat="43.50135" lon="6.95221">
        <ele>130.6</ele>
        <time>2024-11-03T14:30:29Z</time>
      </trkpt>
      <trkpt lat="43.50145" lon="6.95225">
        <ele>130.7</ele>
        <time>2024-11-03T14:30:36Z</time>
      </trkpt>
      <trkpt lat="43.50152" lon="6.95233">
        <ele>130.9</ele>
        <time>2024-11-03T14:30:46Z</time>
      </trkpt>
      <trkpt lat="43.50163" lon="6.95233">
        <ele>130.2</ele>
        <time>2024-11-03T14:30:52Z</time>
      </trkpt>
      <trkpt lat="43.50172" lon="6.95231">
        <ele>129.8</ele>
        <time>2024-11-03T14:30:57Z</time>
      </trkpt>
      <trkpt lat="43.50182" lon="6.95235">
        <ele>129</ele>
        <time>2024-11-03T14:31:06Z</time>
      </trkpt>
      <trkpt lat="43.50191" lon="6.95238">
        <ele>128.2</ele>
        <time>2024-11-03T14:31:14Z</time>
      </trkpt>
      <trkpt lat="43.502" lon="6.95234">
        <ele>127.3</ele>
        <time>2024-11-03T14:31:21Z</time>
      </trkpt>
      <trkpt lat="43.50209" lon="6.95233">
        <ele>127.3</ele>
        <time>2024-11-03T14:31:29Z</time>
      </trkpt>
      <trkpt lat="43.50216" lon="6.95241">
        <ele>126.3</ele>
        <time>2024-11-03T14:31:41Z</time>
      </trkpt>
      <trkpt lat="43.50225" lon="6.95246">
        <ele>125.2</ele>
        <time>2024-11-03T14:31:50Z</time>
      </trkpt>
      <trkpt lat="43.50235" lon="6.95246">
        <ele>124.8</ele>
        <time>2024-11-03T14:31:58Z</time>
      </trkpt>
      <trkpt lat="43.50244" lon="6.95249">
        <ele>124.4</ele>
        <time>2024-11-03T14:32:09Z</time>
      </trkpt>
      <trkpt lat="43.50252" lon="6.95253">
        <ele>124.7</ele>
        <time>2024-11-03T14:32:17Z</time>
      </trkpt>
      <trkpt lat="43.50259" lon="6.95264">
        <ele>123.3</ele>
        <time>2024-11-03T14:32:23Z</time>
      </trkpt>
      <trkpt lat="43.50266" lon="6.95272">
        <ele>122.6</ele>
        <time>2024-11-03T14:32:32Z</time>
      </trkpt>
      <trkpt lat="43.50276" lon="6.95274">
        <ele>121.8</ele>
        <time>2024-11-03T14:32:38Z</time>
      </trkpt>
      <trkpt lat="43.50284" lon="6.9528">
        <ele>121.9</ele>
        <time>2024-11-03T14:32:44Z</time>
      </trkpt>
      <trkpt lat="43.50293" lon="6.95283">
        <ele>121.7</ele>
        <time>2024-11-03T14:32:52Z</time>
      </trkpt>
      <trkpt lat="43.50302" lon="6.95286">
        <ele>121.6</ele>
        <time>2024-11-03T14:33:00Z</time>
      </trkpt>
      <trkpt lat="43.50311" lon="6.95291">
        <ele>121.5</ele>
        <time>2024-11-03T14:33:08Z</time>
      </trkpt>
      <trkpt lat="43.50318" lon="6.953">
        <ele>119.5</ele>
        <time>2024-11-03T14:33:16Z</time>
      </trkpt>
      <trkpt lat="43.50326" lon="6.95306">
        <ele>117.7</ele>
        <time>2024-11-03T14:33:27Z</time>
      </trkpt>
      <trkpt lat="43.50333" lon="6.95314">
        <ele>115.9</ele>
        <time>2024-11-03T14:33:37Z</time>
      </trkpt>
      <trkpt lat="43.50339" lon="6.95325">
        <ele>114.7</ele>
        <time>2024-11-03T14:33:42Z</time>
      </trkpt>
      <trkpt lat="43.50349" lon="6.95329">
        <ele>113.5</ele>
        <time>2024-11-03T14:33:50Z</time>
      </trkpt>
      <trkpt lat="43.50358" lon="6.95333">
        <ele>111.6</ele>
        <time>2024-11-03T14:34:01Z</time>
      </trkpt>
      <trkpt lat="43.50361" lon="6.95331">
        <ele>111.1</ele>
        <time>2024-11-03T14:34:08Z</time>
      </trkpt>
      <trkpt lat="43.50362" lon="6.95332">
        <ele>110.9</ele>
        <time>2024-11-03T14:34:09Z</time>
      </trkpt>
      <trkpt lat="43.50371" lon="6.95333">
        <ele>109.6</ele>
        <time>2024-11-03T14:34:18Z</time>
      </trkpt>
      <trkpt lat="43.50381" lon="6.95331">
        <ele>108.6</ele>
        <time>2024-11-03T14:34:28Z</time>
      </trkpt>
      <trkpt lat="43.50391" lon="6.95326">
        <ele>108.4</ele>
        <time>2024-11-03T14:34:36Z</time>
      </trkpt>
      <trkpt lat="43.50399" lon="6.95331">
        <ele>108.1</ele>
        <time>2024-11-03T14:34:48Z</time>
      </trkpt>
      <trkpt lat="43.50408" lon="6.95326">
        <ele>108.7</ele>
        <time>2024-11-03T14:34:56Z</time>
      </trkpt>
      <trkpt lat="43.50416" lon="6.95319">
        <ele>108.6</ele>
        <time>2024-11-03T14:35:06Z</time>
      </trkpt>
      <trkpt lat="43.50425" lon="6.95314">
        <ele>108.2</ele>
        <time>2024-11-03T14:35:14Z</time>
      </trkpt>
      <trkpt lat="43.50432" lon="6.95305">
        <ele>106.9</ele>
        <time>2024-11-03T14:35:21Z</time>
      </trkpt>
      <trkpt lat="43.50438" lon="6.95294">
        <ele>105.4</ele>
        <time>2024-11-03T14:35:29Z</time>
      </trkpt>
      <trkpt lat="43.50446" lon="6.95286">
        <ele>105.8</ele>
        <time>2024-11-03T14:35:40Z</time>
      </trkpt>
      <trkpt lat="43.50452" lon="6.95276">
        <ele>105.5</ele>
        <time>2024-11-03T14:35:47Z</time>
      </trkpt>
      <trkpt lat="43.50457" lon="6.95263">
        <ele>105.6</ele>
        <time>2024-11-03T14:35:55Z</time>
      </trkpt>
      <trkpt lat="43.5046" lon="6.9525">
        <ele>104.7</ele>
        <time>2024-11-03T14:36:04Z</time>
      </trkpt>
      <trkpt lat="43.50465" lon="6.95237">
        <ele>104.4</ele>
        <time>2024-11-03T14:36:12Z</time>
      </trkpt>
      <trkpt lat="43.50471" lon="6.95228">
        <ele>103.8</ele>
        <time>2024-11-03T14:36:18Z</time>
      </trkpt>
      <trkpt lat="43.50476" lon="6.95218">
        <ele>103</ele>
        <time>2024-11-03T14:36:27Z</time>
      </trkpt>
      <trkpt lat="43.50478" lon="6.95205">
        <ele>102.5</ele>
        <time>2024-11-03T14:36:34Z</time>
      </trkpt>
      <trkpt lat="43.50479" lon="6.95192">
        <ele>102.2</ele>
        <time>2024-11-03T14:36:41Z</time>
      </trkpt>
      <trkpt lat="43.50479" lon="6.95178">
        <ele>101.1</ele>
        <time>2024-11-03T14:36:52Z</time>
      </trkpt>
      <trkpt lat="43.50481" lon="6.95165">
        <ele>101.2</ele>
        <time>2024-11-03T14:37:01Z</time>
      </trkpt>
      <trkpt lat="43.5048" lon="6.95151">
        <ele>101.2</ele>
        <time>2024-11-03T14:37:09Z</time>
      </trkpt>
      <trkpt lat="43.50479" lon="6.95138">
        <ele>101.7</ele>
        <time>2024-11-03T14:37:17Z</time>
      </trkpt>
      <trkpt lat="43.50481" lon="6.95124">
        <ele>102.5</ele>
        <time>2024-11-03T14:37:26Z</time>
      </trkpt>
      <trkpt lat="43.50482" lon="6.95111">
        <ele>104</ele>
        <time>2024-11-03T14:37:34Z</time>
      </trkpt>
      <trkpt lat="43.50481" lon="6.95097">
        <ele>103.7</ele>
        <time>2024-11-03T14:37:44Z</time>
      </trkpt>
      <trkpt lat="43.50479" lon="6.95084">
        <ele>103.4</ele>
        <time>2024-11-03T14:37:52Z</time>
      </trkpt>
      <trkpt lat="43.50479" lon="6.95071">
        <ele>102.5</ele>
        <time>2024-11-03T14:38:00Z</time>
      </trkpt>
      <trkpt lat="43.50478" lon="6.95057">
        <ele>101.5</ele>
        <time>2024-11-03T14:38:08Z</time>
      </trkpt>
      <trkpt lat="43.50475" lon="6.95044">
        <ele>100.9</ele>
        <time>2024-11-03T14:38:15Z</time>
      </trkpt>
      <trkpt lat="43.50475" lon="6.9503">
        <ele>101.1</ele>
        <time>2024-11-03T14:38:24Z</time>
      </trkpt>
      <trkpt lat="43.50471" lon="6.95017">
        <ele>100.8</ele>
        <time>2024-11-03T14:38:33Z</time>
      </trkpt>
      <trkpt lat="43.50468" lon="6.95004">
        <ele>100.7</ele>
        <time>2024-11-03T14:38:40Z</time>
      </trkpt>
      <trkpt lat="43.50462" lon="6.94994">
        <ele>100.5</ele>
        <time>2024-11-03T14:38:48Z</time>
      </trkpt>
      <trkpt lat="43.50463" lon="6.9498">
        <ele>100.1</ele>
        <time>2024-11-03T14:38:55Z</time>
      </trkpt>
      <trkpt lat="43.50454" lon="6.9497">
        <ele>100.6</ele>
        <time>2024-11-03T14:39:02Z</time>
      </trkpt>
      <trkpt lat="43.50448" lon="6.9496">
        <ele>99.2</ele>
        <time>2024-11-03T14:39:09Z</time>
      </trkpt>
      <trkpt lat="43.50443" lon="6.94949">
        <ele>95.8</ele>
        <time>2024-11-03T14:39:15Z</time>
      </trkpt>
      <trkpt lat="43.50435" lon="6.94942">
        <ele>93.5</ele>
        <time>2024-11-03T14:39:26Z</time>
      </trkpt>
      <trkpt lat="43.50433" lon="6.94929">
        <ele>92.7</ele>
        <time>2024-11-03T14:39:37Z</time>
      </trkpt>
      <trkpt lat="43.50442" lon="6.94929">
        <ele>91.6</ele>
        <time>2024-11-03T14:39:48Z</time>
      </trkpt>
      <trkpt lat="43.50451" lon="6.94933">
        <ele>90.3</ele>
        <time>2024-11-03T14:39:57Z</time>
      </trkpt>
      <trkpt lat="43.50459" lon="6.94942">
        <ele>89.3</ele>
        <time>2024-11-03T14:40:06Z</time>
      </trkpt>
      <trkpt lat="43.50466" lon="6.9495">
        <ele>88.3</ele>
        <time>2024-11-03T14:40:15Z</time>
      </trkpt>
      <trkpt lat="43.50475" lon="6.94958">
        <ele>87.6</ele>
        <time>2024-11-03T14:40:24Z</time>
      </trkpt>
      <trkpt lat="43.50481" lon="6.94967">
        <ele>86.5</ele>
        <time>2024-11-03T14:40:29Z</time>
      </trkpt>
      <trkpt lat="43.50487" lon="6.94977">
        <ele>85</ele>
        <time>2024-11-03T14:40:35Z</time>
      </trkpt>
      <trkpt lat="43.50494" lon="6.94987">
        <ele>83.2</ele>
        <time>2024-11-03T14:40:42Z</time>
      </trkpt>
      <trkpt lat="43.505" lon="6.94999">
        <ele>81.4</ele>
        <time>2024-11-03T14:40:51Z</time>
      </trkpt>
      <trkpt lat="43.50501" lon="6.95013">
        <ele>79.4</ele>
        <time>2024-11-03T14:41:00Z</time>
      </trkpt>
      <trkpt lat="43.50502" lon="6.95026">
        <ele>77.3</ele>
        <time>2024-11-03T14:41:10Z</time>
      </trkpt>
      <trkpt lat="43.50504" lon="6.9504">
        <ele>77.1</ele>
        <time>2024-11-03T14:41:18Z</time>
      </trkpt>
      <trkpt lat="43.50503" lon="6.95053">
        <ele>76.5</ele>
        <time>2024-11-03T14:41:28Z</time>
      </trkpt>
      <trkpt lat="43.50505" lon="6.95055">
        <ele>76.2</ele>
        <time>2024-11-03T14:41:36Z</time>
      </trkpt>
      <trkpt lat="43.50505" lon="6.95055">
        <ele>76.2</ele>
        <time>2024-11-03T14:41:38Z</time>
      </trkpt>
      <trkpt lat="43.50506" lon="6.95055">
        <ele>76.8</ele>
        <time>2024-11-03T14:41:49Z</time>
      </trkpt>
      <trkpt lat="43.50506" lon="6.95055">
        <ele>76.6</ele>
        <time>2024-11-03T14:41:50Z</time>
      </trkpt>
      <trkpt lat="43.50504" lon="6.95058">
        <ele>75.6</ele>
        <time>2024-11-03T14:42:01Z</time>
      </trkpt>
      <trkpt lat="43.50504" lon="6.95058">
        <ele>75.6</ele>
        <time>2024-11-03T14:42:02Z</time>
      </trkpt>
      <trkpt lat="43.50507" lon="6.95058">
        <ele>74.7</ele>
        <time>2024-11-03T14:42:13Z</time>
      </trkpt>
      <trkpt lat="43.50507" lon="6.95058">
        <ele>74.6</ele>
        <time>2024-11-03T14:42:27Z</time>
      </trkpt>
      <trkpt lat="43.50507" lon="6.95058">
        <ele>74.6</ele>
        <time>2024-11-03T14:42:28Z</time>
      </trkpt>
      <trkpt lat="43.50507" lon="6.95058">
        <ele>74.6</ele>
        <time>2024-11-03T14:42:29Z</time>
      </trkpt>
      <trkpt lat="43.50507" lon="6.95057">
        <ele>74.6</ele>
        <time>2024-11-03T14:42:30Z</time>
      </trkpt>
      <trkpt lat="43.50507" lon="6.95057">
        <ele>74.7</ele>
        <time>2024-11-03T14:42:31Z</time>
      </trkpt>
      <trkpt lat="43.50507" lon="6.95057">
        <ele>74.6</ele>
        <time>2024-11-03T14:42:33Z</time>
      </trkpt>
      <trkpt lat="43.50508" lon="6.95057">
        <ele>74.5</ele>
        <time>2024-11-03T14:42:34Z</time>
      </trkpt>
      <trkpt lat="43.50508" lon="6.95057">
        <ele>74.5</ele>
        <time>2024-11-03T14:42:35Z</time>
      </trkpt>
      <trkpt lat="43.50507" lon="6.95057">
        <ele>74.7</ele>
        <time>2024-11-03T14:42:38Z</time>
      </trkpt>
      <trkpt lat="43.50501" lon="6.95068">
        <ele>74.7</ele>
        <time>2024-11-03T14:42:52Z</time>
      </trkpt>
      <trkpt lat="43.50495" lon="6.95079">
        <ele>74</ele>
        <time>2024-11-03T14:43:01Z</time>
      </trkpt>
      <trkpt lat="43.50493" lon="6.95091">
        <ele>74.2</ele>
        <time>2024-11-03T14:43:08Z</time>
      </trkpt>
      <trkpt lat="43.50487" lon="6.95101">
        <ele>74.4</ele>
        <time>2024-11-03T14:43:15Z</time>
      </trkpt>
      <trkpt lat="43.50486" lon="6.95114">
        <ele>74.6</ele>
        <time>2024-11-03T14:43:23Z</time>
      </trkpt>
      <trkpt lat="43.50488" lon="6.95128">
        <ele>73.7</ele>
        <time>2024-11-03T14:43:31Z</time>
      </trkpt>
      <trkpt lat="43.50488" lon="6.95143">
        <ele>73.4</ele>
        <time>2024-11-03T14:43:38Z</time>
      </trkpt>
      <trkpt lat="43.50493" lon="6.95156">
        <ele>74</ele>
        <time>2024-11-03T14:43:43Z</time>
      </trkpt>
      <trkpt lat="43.50499" lon="6.95166">
        <ele>74</ele>
        <time>2024-11-03T14:43:48Z</time>
      </trkpt>
      <trkpt lat="43.50505" lon="6.95178">
        <ele>71.8</ele>
        <time>2024-11-03T14:43:55Z</time>
      </trkpt>
      <trkpt lat="43.5051" lon="6.9519">
        <ele>71.1</ele>
        <time>2024-11-03T14:44:02Z</time>
      </trkpt>
      <trkpt lat="43.50513" lon="6.95202">
        <ele>71.1</ele>
        <time>2024-11-03T14:44:08Z</time>
      </trkpt>
      <trkpt lat="43.5051" lon="6.95214">
        <ele>71</ele>
        <time>2024-11-03T14:44:15Z</time>
      </trkpt>
      <trkpt lat="43.50508" lon="6.95227">
        <ele>70.2</ele>
        <time>2024-11-03T14:44:28Z</time>
      </trkpt>
      <trkpt lat="43.50505" lon="6.95227">
        <ele>69.5</ele>
        <time>2024-11-03T14:44:37Z</time>
      </trkpt>
      <trkpt lat="43.50506" lon="6.95227">
        <ele>69.4</ele>
        <time>2024-11-03T14:44:38Z</time>
      </trkpt>
      <trkpt lat="43.50506" lon="6.95227">
        <ele>69.1</ele>
        <time>2024-11-03T14:44:46Z</time>
      </trkpt>
      <trkpt lat="43.50506" lon="6.95227">
        <ele>68.9</ele>
        <time>2024-11-03T14:44:47Z</time>
      </trkpt>
      <trkpt lat="43.50513" lon="6.95225">
        <ele>69.7</ele>
        <time>2024-11-03T14:45:03Z</time>
      </trkpt>
      <trkpt lat="43.50514" lon="6.95225">
        <ele>69.6</ele>
        <time>2024-11-03T14:45:04Z</time>
      </trkpt>
      <trkpt lat="43.50519" lon="6.95222">
        <ele>69.1</ele>
        <time>2024-11-03T14:45:11Z</time>
      </trkpt>
      <trkpt lat="43.5052" lon="6.95223">
        <ele>69.1</ele>
        <time>2024-11-03T14:45:12Z</time>
      </trkpt>
      <trkpt lat="43.50519" lon="6.95237">
        <ele>71.2</ele>
        <time>2024-11-03T14:45:34Z</time>
      </trkpt>
      <trkpt lat="43.5052" lon="6.9525">
        <ele>71.7</ele>
        <time>2024-11-03T14:45:52Z</time>
      </trkpt>
      <trkpt lat="43.50516" lon="6.9526">
        <ele>70.9</ele>
        <time>2024-11-03T14:45:59Z</time>
      </trkpt>
      <trkpt lat="43.50509" lon="6.95269">
        <ele>70.3</ele>
        <time>2024-11-03T14:46:07Z</time>
      </trkpt>
      <trkpt lat="43.50504" lon="6.9528">
        <ele>69.9</ele>
        <time>2024-11-03T14:46:17Z</time>
      </trkpt>
      <trkpt lat="43.50502" lon="6.95293">
        <ele>70.2</ele>
        <time>2024-11-03T14:46:26Z</time>
      </trkpt>
      <trkpt lat="43.50502" lon="6.95307">
        <ele>70.8</ele>
        <time>2024-11-03T14:46:38Z</time>
      </trkpt>
      <trkpt lat="43.50502" lon="6.95311">
        <ele>69.6</ele>
        <time>2024-11-03T14:46:42Z</time>
      </trkpt>
      <trkpt lat="43.50503" lon="6.95311">
        <ele>68.9</ele>
        <time>2024-11-03T14:46:43Z</time>
      </trkpt>
      <trkpt lat="43.50497" lon="6.95322">
        <ele>67.6</ele>
        <time>2024-11-03T14:46:53Z</time>
      </trkpt>
      <trkpt lat="43.50494" lon="6.95335">
        <ele>66.5</ele>
        <time>2024-11-03T14:47:02Z</time>
      </trkpt>
      <trkpt lat="43.50489" lon="6.95346">
        <ele>63.5</ele>
        <time>2024-11-03T14:47:10Z</time>
      </trkpt>
      <trkpt lat="43.50485" lon="6.95358">
        <ele>61.5</ele>
        <time>2024-11-03T14:47:19Z</time>
      </trkpt>
      <trkpt lat="43.50484" lon="6.95363">
        <ele>60.1</ele>
        <time>2024-11-03T14:47:26Z</time>
      </trkpt>
      <trkpt lat="43.50484" lon="6.95364">
        <ele>59.6</ele>
        <time>2024-11-03T14:47:27Z</time>
      </trkpt>
      <trkpt lat="43.5048" lon="6.95377">
        <ele>58.7</ele>
        <time>2024-11-03T14:47:38Z</time>
      </trkpt>
      <trkpt lat="43.50483" lon="6.95389">
        <ele>58.6</ele>
        <time>2024-11-03T14:47:45Z</time>
      </trkpt>
      <trkpt lat="43.50492" lon="6.95392">
        <ele>57.1</ele>
        <time>2024-11-03T14:48:13Z</time>
      </trkpt>
      <trkpt lat="43.50496" lon="6.9539">
        <ele>55.5</ele>
        <time>2024-11-03T14:48:26Z</time>
      </trkpt>
      <trkpt lat="43.50497" lon="6.95388">
        <ele>55.1</ele>
        <time>2024-11-03T14:48:27Z</time>
      </trkpt>
      <trkpt lat="43.50499" lon="6.95376">
        <ele>52</ele>
        <time>2024-11-03T14:48:39Z</time>
      </trkpt>
      <trkpt lat="43.50504" lon="6.95364">
        <ele>51.2</ele>
        <time>2024-11-03T14:48:46Z</time>
      </trkpt>
      <trkpt lat="43.50508" lon="6.95353">
        <ele>51.1</ele>
        <time>2024-11-03T14:48:55Z</time>
      </trkpt>
      <trkpt lat="43.50515" lon="6.95344">
        <ele>50.3</ele>
        <time>2024-11-03T14:49:02Z</time>
      </trkpt>
      <trkpt lat="43.50521" lon="6.95334">
        <ele>50.3</ele>
        <time>2024-11-03T14:49:09Z</time>
      </trkpt>
      <trkpt lat="43.50529" lon="6.95325">
        <ele>50</ele>
        <time>2024-11-03T14:49:13Z</time>
      </trkpt>
      <trkpt lat="43.50537" lon="6.95319">
        <ele>49.9</ele>
        <time>2024-11-03T14:49:21Z</time>
      </trkpt>
      <trkpt lat="43.50545" lon="6.95311">
        <ele>48.5</ele>
        <time>2024-11-03T14:49:30Z</time>
      </trkpt>
      <trkpt lat="43.50551" lon="6.95301">
        <ele>47.1</ele>
        <time>2024-11-03T14:49:38Z</time>
      </trkpt>
      <trkpt lat="43.50558" lon="6.95291">
        <ele>46.1</ele>
        <time>2024-11-03T14:49:46Z</time>
      </trkpt>
      <trkpt lat="43.50566" lon="6.95282">
        <ele>45.5</ele>
        <time>2024-11-03T14:49:53Z</time>
      </trkpt>
      <trkpt lat="43.5057" lon="6.95269">
        <ele>44.6</ele>
        <time>2024-11-03T14:50:01Z</time>
      </trkpt>
      <trkpt lat="43.50578" lon="6.95263">
        <ele>42.1</ele>
        <time>2024-11-03T14:50:12Z</time>
      </trkpt>
      <trkpt lat="43.50584" lon="6.95254">
        <ele>40.5</ele>
        <time>2024-11-03T14:50:26Z</time>
      </trkpt>
      <trkpt lat="43.50587" lon="6.95267">
        <ele>37.2</ele>
        <time>2024-11-03T14:50:54Z</time>
      </trkpt>
      <trkpt lat="43.50588" lon="6.95279">
        <ele>35.1</ele>
        <time>2024-11-03T14:51:08Z</time>
      </trkpt>
      <trkpt lat="43.50588" lon="6.9528">
        <ele>34.6</ele>
        <time>2024-11-03T14:51:11Z</time>
      </trkpt>
      <trkpt lat="43.50588" lon="6.9528">
        <ele>34.4</ele>
        <time>2024-11-03T14:51:12Z</time>
      </trkpt>
      <trkpt lat="43.50589" lon="6.9528">
        <ele>34</ele>
        <time>2024-11-03T14:51:15Z</time>
      </trkpt>
      <trkpt lat="43.50589" lon="6.9528">
        <ele>34</ele>
        <time>2024-11-03T14:51:17Z</time>
      </trkpt>
      <trkpt lat="43.50589" lon="6.9528">
        <ele>33.9</ele>
        <time>2024-11-03T14:51:18Z</time>
      </trkpt>
      <trkpt lat="43.50589" lon="6.95279">
        <ele>33.6</ele>
        <time>2024-11-03T14:51:19Z</time>
      </trkpt>
      <trkpt lat="43.50589" lon="6.95279">
        <ele>33.6</ele>
        <time>2024-11-03T14:51:20Z</time>
      </trkpt>
      <trkpt lat="43.5059" lon="6.95279">
        <ele>33.5</ele>
        <time>2024-11-03T14:51:21Z</time>
      </trkpt>
      <trkpt lat="43.5059" lon="6.95279">
        <ele>33.2</ele>
        <time>2024-11-03T14:51:22Z</time>
      </trkpt>
      <trkpt lat="43.5059" lon="6.95279">
        <ele>32.6</ele>
        <time>2024-11-03T14:51:23Z</time>
      </trkpt>
      <trkpt lat="43.50593" lon="6.95279">
        <ele>30.7</ele>
        <time>2024-11-03T14:51:40Z</time>
      </trkpt>
      <trkpt lat="43.50593" lon="6.95279">
        <ele>30.8</ele>
        <time>2024-11-03T14:51:41Z</time>
      </trkpt>
      <trkpt lat="43.50592" lon="6.9528">
        <ele>30.8</ele>
        <time>2024-11-03T14:51:46Z</time>
      </trkpt>
      <trkpt lat="43.50593" lon="6.9528">
        <ele>30.8</ele>
        <time>2024-11-03T14:51:47Z</time>
      </trkpt>
      <trkpt lat="43.50593" lon="6.9528">
        <ele>31.1</ele>
        <time>2024-11-03T14:51:51Z</time>
      </trkpt>
      <trkpt lat="43.50593" lon="6.95279">
        <ele>31.2</ele>
        <time>2024-11-03T14:51:52Z</time>
      </trkpt>
      <trkpt lat="43.50597" lon="6.95266">
        <ele>29.7</ele>
        <time>2024-11-03T14:52:06Z</time>
      </trkpt>
      <trkpt lat="43.50604" lon="6.95257">
        <ele>29.4</ele>
        <time>2024-11-03T14:52:13Z</time>
      </trkpt>
      <trkpt lat="43.50597" lon="6.95259">
        <ele>26.4</ele>
        <time>2024-11-03T14:52:40Z</time>
      </trkpt>
      <trkpt lat="43.50596" lon="6.95259">
        <ele>26.2</ele>
        <time>2024-11-03T14:52:41Z</time>
      </trkpt>
      <trkpt lat="43.50598" lon="6.95258">
        <ele>25.2</ele>
        <time>2024-11-03T14:52:52Z</time>
      </trkpt>
      <trkpt lat="43.50598" lon="6.95258">
        <ele>25.2</ele>
        <time>2024-11-03T14:52:59Z</time>
      </trkpt>
      <trkpt lat="43.50598" lon="6.95258">
        <ele>25.2</ele>
        <time>2024-11-03T14:53:00Z</time>
      </trkpt>
      <trkpt lat="43.50598" lon="6.95258">
        <ele>25.1</ele>
        <time>2024-11-03T14:53:01Z</time>
      </trkpt>
      <trkpt lat="43.50608" lon="6.95261">
        <ele>24.8</ele>
        <time>2024-11-03T14:53:10Z</time>
      </trkpt>
      <trkpt lat="43.5061" lon="6.95258">
        <ele>24.3</ele>
        <time>2024-11-03T14:53:16Z</time>
      </trkpt>
      <trkpt lat="43.50611" lon="6.95258">
        <ele>24.2</ele>
        <time>2024-11-03T14:53:17Z</time>
      </trkpt>
      <trkpt lat="43.50615" lon="6.95269">
        <ele>20.7</ele>
        <time>2024-11-03T14:53:44Z</time>
      </trkpt>
      <trkpt lat="43.5062" lon="6.95281">
        <ele>17.9</ele>
        <time>2024-11-03T14:53:56Z</time>
      </trkpt>
      <trkpt lat="43.50616" lon="6.95294">
        <ele>15.8</ele>
        <time>2024-11-03T14:54:14Z</time>
      </trkpt>
      <trkpt lat="43.50615" lon="6.95304">
        <ele>11.7</ele>
        <time>2024-11-03T14:54:39Z</time>
      </trkpt>
      <trkpt lat="43.50615" lon="6.95305">
        <ele>11.5</ele>
        <time>2024-11-03T14:54:40Z</time>
      </trkpt>
      <trkpt lat="43.50615" lon="6.95305">
        <ele>11.5</ele>
        <time>2024-11-03T14:54:41Z</time>
      </trkpt>
      <trkpt lat="43.50616" lon="6.95305">
        <ele>11.5</ele>
        <time>2024-11-03T14:54:42Z</time>
      </trkpt>
      <trkpt lat="43.50617" lon="6.95306">
        <ele>12.2</ele>
        <time>2024-11-03T14:54:45Z</time>
      </trkpt>
      <trkpt lat="43.50617" lon="6.95307">
        <ele>11.9</ele>
        <time>2024-11-03T14:54:50Z</time>
      </trkpt>
      <trkpt lat="43.50617" lon="6.95307">
        <ele>11.7</ele>
        <time>2024-11-03T14:54:51Z</time>
      </trkpt>
      <trkpt lat="43.50617" lon="6.95307">
        <ele>11.6</ele>
        <time>2024-11-03T14:54:52Z</time>
      </trkpt>
      <trkpt lat="43.5061" lon="6.9531">
        <ele>8.8</ele>
        <time>2024-11-03T14:55:13Z</time>
      </trkpt>
      <trkpt lat="43.5061" lon="6.95309">
        <ele>8.7</ele>
        <time>2024-11-03T14:55:14Z</time>
      </trkpt>
      <trkpt lat="43.50604" lon="6.9532">
        <ele>6</ele>
        <time>2024-11-03T14:55:28Z</time>
      </trkpt>
      <trkpt lat="43.50598" lon="6.9533">
        <ele>3.1</ele>
        <time>2024-11-03T14:55:46Z</time>
      </trkpt>
      <trkpt lat="43.50589" lon="6.95327">
        <ele>2.4</ele>
        <time>2024-11-03T14:55:59Z</time>
      </trkpt>
      <trkpt lat="43.5058" lon="6.95333">
        <ele>1.5</ele>
        <time>2024-11-03T14:56:09Z</time>
      </trkpt>
      <trkpt lat="43.50571" lon="6.95336">
        <ele>0.7</ele>
        <time>2024-11-03T14:56:24Z</time>
      </trkpt>
      <trkpt lat="43.50563" lon="6.95343">
        <ele>0.3</ele>
        <time>2024-11-03T14:56:34Z</time>
      </trkpt>
      <trkpt lat="43.50556" lon="6.95351">
        <ele>-1.4</ele>
        <time>2024-11-03T14:56:47Z</time>
      </trkpt>
      <trkpt lat="43.50553" lon="6.95355">
        <ele>-1.7</ele>
        <time>2024-11-03T14:56:54Z</time>
      </trkpt>
      <trkpt lat="43.50553" lon="6.95356">
        <ele>-2.1</ele>
        <time>2024-11-03T14:56:55Z</time>
      </trkpt>
      <trkpt lat="43.50554" lon="6.95364">
        <ele>-3</ele>
        <time>2024-11-03T14:57:19Z</time>
      </trkpt>
      <trkpt lat="43.50554" lon="6.95364">
        <ele>-2.9</ele>
        <time>2024-11-03T14:57:20Z</time>
      </trkpt>
      <trkpt lat="43.50556" lon="6.95364">
        <ele>-1.6</ele>
        <time>2024-11-03T14:57:31Z</time>
      </trkpt>
      <trkpt lat="43.50556" lon="6.95364">
        <ele>-1.6</ele>
        <time>2024-11-03T14:57:32Z</time>
      </trkpt>
      <trkpt lat="43.50556" lon="6.95365">
        <ele>-1.4</ele>
        <time>2024-11-03T14:57:37Z</time>
      </trkpt>
      <trkpt lat="43.50556" lon="6.95365">
        <ele>-1.4</ele>
        <time>2024-11-03T14:57:39Z</time>
      </trkpt>
      <trkpt lat="43.50556" lon="6.95365">
        <ele>-1.6</ele>
        <time>2024-11-03T14:57:43Z</time>
      </trkpt>
      <trkpt lat="43.50556" lon="6.95365">
        <ele>-1.6</ele>
        <time>2024-11-03T14:57:44Z</time>
      </trkpt>
      <trkpt lat="43.50556" lon="6.95365">
        <ele>-1.6</ele>
        <time>2024-11-03T14:57:45Z</time>
      </trkpt>
      <trkpt lat="43.50556" lon="6.95365">
        <ele>-1.7</ele>
        <time>2024-11-03T14:57:50Z</time>
      </trkpt>
      <trkpt lat="43.50556" lon="6.95365">
        <ele>-1.7</ele>
        <time>2024-11-03T14:57:51Z</time>
      </trkpt>
      <trkpt lat="43.50556" lon="6.95365">
        <ele>-1.7</ele>
        <time>2024-11-03T14:57:53Z</time>
      </trkpt>
      <trkpt lat="43.50554" lon="6.95366">
        <ele>-2.1</ele>
        <time>2024-11-03T14:57:56Z</time>
      </trkpt>
      <trkpt lat="43.50554" lon="6.95366">
        <ele>-2.3</ele>
        <time>2024-11-03T14:57:58Z</time>
      </trkpt>
      <trkpt lat="43.50554" lon="6.95367">
        <ele>-2.9</ele>
        <time>2024-11-03T14:58:06Z</time>
      </trkpt>
      <trkpt lat="43.50554" lon="6.95367">
        <ele>-3</ele>
        <time>2024-11-03T14:58:07Z</time>
      </trkpt>
      <trkpt lat="43.50554" lon="6.95367">
        <ele>-3.1</ele>
        <time>2024-11-03T14:58:08Z</time>
      </trkpt>
      <trkpt lat="43.50554" lon="6.95367">
        <ele>-3.2</ele>
        <time>2024-11-03T14:58:09Z</time>
      </trkpt>
      <trkpt lat="43.50554" lon="6.95367">
        <ele>-3.2</ele>
        <time>2024-11-03T14:58:12Z</time>
      </trkpt>
      <trkpt lat="43.50554" lon="6.95367">
        <ele>-3.3</ele>
        <time>2024-11-03T14:58:13Z</time>
      </trkpt>
      <trkpt lat="43.50555" lon="6.95367">
        <ele>-3.3</ele>
        <time>2024-11-03T14:58:15Z</time>
      </trkpt>
      <trkpt lat="43.50554" lon="6.95367">
        <ele>-3.4</ele>
        <time>2024-11-03T14:58:16Z</time>
      </trkpt>
      <trkpt lat="43.50556" lon="6.95367">
        <ele>-3.2</ele>
        <time>2024-11-03T14:58:27Z</time>
      </trkpt>
      <trkpt lat="43.50556" lon="6.95367">
        <ele>-3.2</ele>
        <time>2024-11-03T14:58:29Z</time>
      </trkpt>
      <trkpt lat="43.50556" lon="6.95367">
        <ele>-3.2</ele>
        <time>2024-11-03T14:58:30Z</time>
      </trkpt>
      <trkpt lat="43.50556" lon="6.95368">
        <ele>-3.3</ele>
        <time>2024-11-03T14:58:32Z</time>
      </trkpt>
      <trkpt lat="43.50556" lon="6.95368">
        <ele>-3.3</ele>
        <time>2024-11-03T14:58:33Z</time>
      </trkpt>
      <trkpt lat="43.50556" lon="6.95367">
        <ele>-3.4</ele>
        <time>2024-11-03T14:58:36Z</time>
      </trkpt>
      <trkpt lat="43.50557" lon="6.95368">
        <ele>-3.5</ele>
        <time>2024-11-03T14:58:39Z</time>
      </trkpt>
      <trkpt lat="43.50556" lon="6.95367">
        <ele>-3.4</ele>
        <time>2024-11-03T14:58:40Z</time>
      </trkpt>
      <trkpt lat="43.50555" lon="6.95365">
        <ele>-2.9</ele>
        <time>2024-11-03T14:58:48Z</time>
      </trkpt>
      <trkpt lat="43.50555" lon="6.95365">
        <ele>-2.8</ele>
        <time>2024-11-03T14:58:49Z</time>
      </trkpt>
      <trkpt lat="43.5056" lon="6.95372">
        <ele>-2</ele>
        <time>2024-11-03T14:59:10Z</time>
      </trkpt>
      <trkpt lat="43.5056" lon="6.95371">
        <ele>-2.1</ele>
        <time>2024-11-03T14:59:22Z</time>
      </trkpt>
      <trkpt lat="43.50558" lon="6.95369">
        <ele>-2.6</ele>
        <time>2024-11-03T14:59:28Z</time>
      </trkpt>
      <trkpt lat="43.50558" lon="6.95369">
        <ele>-2.7</ele>
        <time>2024-11-03T14:59:30Z</time>
      </trkpt>
      <trkpt lat="43.50558" lon="6.95367">
        <ele>-2.8</ele>
        <time>2024-11-03T14:59:35Z</time>
      </trkpt>
      <trkpt lat="43.50558" lon="6.95367">
        <ele>-2.7</ele>
        <time>2024-11-03T14:59:37Z</time>
      </trkpt>
      <trkpt lat="43.50558" lon="6.95365">
        <ele>-2.3</ele>
        <time>2024-11-03T14:59:44Z</time>
      </trkpt>
      <trkpt lat="43.50558" lon="6.95365">
        <ele>-2.4</ele>
        <time>2024-11-03T14:59:49Z</time>
      </trkpt>
      <trkpt lat="43.50558" lon="6.95365">
        <ele>-2.4</ele>
        <time>2024-11-03T14:59:50Z</time>
      </trkpt>
      <trkpt lat="43.50557" lon="6.95365">
        <ele>-2.6</ele>
        <time>2024-11-03T15:00:05Z</time>
      </trkpt>
      <trkpt lat="43.50557" lon="6.95365">
        <ele>-2.6</ele>
        <time>2024-11-03T15:00:07Z</time>
      </trkpt>
      <trkpt lat="43.50557" lon="6.95364">
        <ele>-2.6</ele>
        <time>2024-11-03T15:00:15Z</time>
      </trkpt>
      <trkpt lat="43.50557" lon="6.95364">
        <ele>-2.6</ele>
        <time>2024-11-03T15:00:16Z</time>
      </trkpt>
      <trkpt lat="43.50558" lon="6.95364">
        <ele>-2.7</ele>
        <time>2024-11-03T15:00:20Z</time>
      </trkpt>
      <trkpt lat="43.50558" lon="6.95363">
        <ele>-2.6</ele>
        <time>2024-11-03T15:00:26Z</time>
      </trkpt>
      <trkpt lat="43.50558" lon="6.95363">
        <ele>-2.5</ele>
        <time>2024-11-03T15:00:39Z</time>
      </trkpt>
      <trkpt lat="43.50558" lon="6.95363">
        <ele>-2.5</ele>
        <time>2024-11-03T15:00:40Z</time>
      </trkpt>
      <trkpt lat="43.50558" lon="6.95363">
        <ele>-2.4</ele>
        <time>2024-11-03T15:00:41Z</time>
      </trkpt>
      <trkpt lat="43.50558" lon="6.95362">
        <ele>-2.3</ele>
        <time>2024-11-03T15:00:46Z</time>
      </trkpt>
      <trkpt lat="43.50558" lon="6.95362">
        <ele>-2.4</ele>
        <time>2024-11-03T15:00:56Z</time>
      </trkpt>
      <trkpt lat="43.50558" lon="6.95362">
        <ele>-2.4</ele>
        <time>2024-11-03T15:00:57Z</time>
      </trkpt>
      <trkpt lat="43.50558" lon="6.95363">
        <ele>-2.5</ele>
        <time>2024-11-03T15:00:58Z</time>
      </trkpt>
      <trkpt lat="43.50558" lon="6.95362">
        <ele>-2.5</ele>
        <time>2024-11-03T15:01:01Z</time>
      </trkpt>
      <trkpt lat="43.50558" lon="6.95362">
        <ele>-2.4</ele>
        <time>2024-11-03T15:01:15Z</time>
      </trkpt>
      <trkpt lat="43.50558" lon="6.95362">
        <ele>-2.3</ele>
        <time>2024-11-03T15:01:17Z</time>
      </trkpt>
      <trkpt lat="43.50558" lon="6.95362">
        <ele>-2.3</ele>
        <time>2024-11-03T15:01:19Z</time>
      </trkpt>
      <trkpt lat="43.50558" lon="6.95362">
        <ele>-2.3</ele>
        <time>2024-11-03T15:01:20Z</time>
      </trkpt>
      <trkpt lat="43.50558" lon="6.95362">
        <ele>-2.3</ele>
        <time>2024-11-03T15:01:24Z</time>
      </trkpt>
      <trkpt lat="43.50558" lon="6.95362">
        <ele>-2.3</ele>
        <time>2024-11-03T15:01:26Z</time>
      </trkpt>
      <trkpt lat="43.50558" lon="6.95361">
        <ele>-2.2</ele>
        <time>2024-11-03T15:01:29Z</time>
      </trkpt>
      <trkpt lat="43.50559" lon="6.95362">
        <ele>-2.2</ele>
        <time>2024-11-03T15:01:34Z</time>
      </trkpt>
      <trkpt lat="43.50559" lon="6.95361">
        <ele>-2.3</ele>
        <time>2024-11-03T15:01:41Z</time>
      </trkpt>
      <trkpt lat="43.50566" lon="6.95354">
        <ele>-1.5</ele>
        <time>2024-11-03T15:02:04Z</time>
      </trkpt>
      <trkpt lat="43.50574" lon="6.95348">
        <ele>-1.1</ele>
        <time>2024-11-03T15:02:43Z</time>
      </trkpt>
      <trkpt lat="43.50583" lon="6.95345">
        <ele>-1.1</ele>
        <time>2024-11-03T15:02:53Z</time>
      </trkpt>
      <trkpt lat="43.50591" lon="6.95337">
        <ele>0.1</ele>
        <time>2024-11-03T15:03:04Z</time>
      </trkpt>
      <trkpt lat="43.506" lon="6.95336">
        <ele>-3</ele>
        <time>2024-11-03T15:03:32Z</time>
      </trkpt>
      <trkpt lat="43.50607" lon="6.95333">
        <ele>-3.5</ele>
        <time>2024-11-03T15:03:43Z</time>
      </trkpt>
      <trkpt lat="43.50606" lon="6.95333">
        <ele>-3.6</ele>
        <time>2024-11-03T15:03:44Z</time>
      </trkpt>
      <trkpt lat="43.50608" lon="6.95333">
        <ele>-3.9</ele>
        <time>2024-11-03T15:03:49Z</time>
      </trkpt>
      <trkpt lat="43.50608" lon="6.95334">
        <ele>-3.7</ele>
        <time>2024-11-03T15:03:50Z</time>
      </trkpt>
      <trkpt lat="43.50613" lon="6.95324">
        <ele>-5.3</ele>
        <time>2024-11-03T15:04:07Z</time>
      </trkpt>
      <trkpt lat="43.50611" lon="6.95322">
        <ele>-6.1</ele>
        <time>2024-11-03T15:04:36Z</time>
      </trkpt>
      <trkpt lat="43.50611" lon="6.95322">
        <ele>-5.9</ele>
        <time>2024-11-03T15:04:37Z</time>
      </trkpt>
      <trkpt lat="43.50612" lon="6.95319">
        <ele>-3.8</ele>
        <time>2024-11-03T15:04:47Z</time>
      </trkpt>
      <trkpt lat="43.50612" lon="6.95319">
        <ele>-3.3</ele>
        <time>2024-11-03T15:04:48Z</time>
      </trkpt>
      <trkpt lat="43.5061" lon="6.95323">
        <ele>-1.9</ele>
        <time>2024-11-03T15:05:13Z</time>
      </trkpt>
      <trkpt lat="43.5061" lon="6.95323">
        <ele>-1.8</ele>
        <time>2024-11-03T15:05:14Z</time>
      </trkpt>
      <trkpt lat="43.5061" lon="6.95323">
        <ele>-1.8</ele>
        <time>2024-11-03T15:05:15Z</time>
      </trkpt>
      <trkpt lat="43.5061" lon="6.95323">
        <ele>-1.7</ele>
        <time>2024-11-03T15:05:23Z</time>
      </trkpt>
      <trkpt lat="43.5061" lon="6.95324">
        <ele>-2</ele>
        <time>2024-11-03T15:05:28Z</time>
      </trkpt>
      <trkpt lat="43.5061" lon="6.95323">
        <ele>-1.9</ele>
        <time>2024-11-03T15:05:40Z</time>
      </trkpt>
      <trkpt lat="43.5061" lon="6.95323">
        <ele>-1.9</ele>
        <time>2024-11-03T15:05:42Z</time>
      </trkpt>
      <trkpt lat="43.5061" lon="6.95323">
        <ele>-1.6</ele>
        <time>2024-11-03T15:05:46Z</time>
      </trkpt>
      <trkpt lat="43.5061" lon="6.95323">
        <ele>-1.5</ele>
        <time>2024-11-03T15:05:47Z</time>
      </trkpt>
      <trkpt lat="43.50611" lon="6.95323">
        <ele>-1.6</ele>
        <time>2024-11-03T15:05:48Z</time>
      </trkpt>
      <trkpt lat="43.50616" lon="6.95312">
        <ele>-1.7</ele>
        <time>2024-11-03T15:06:19Z</time>
      </trkpt>
      <trkpt lat="43.50621" lon="6.95301">
        <ele>-0.8</ele>
        <time>2024-11-03T15:06:33Z</time>
      </trkpt>
      <trkpt lat="43.5062" lon="6.953">
        <ele>-0.3</ele>
        <time>2024-11-03T15:06:39Z</time>
      </trkpt>
      <trkpt lat="43.50619" lon="6.953">
        <ele>-0.2</ele>
        <time>2024-11-03T15:06:40Z</time>
      </trkpt>
      <trkpt lat="43.50619" lon="6.95296">
        <ele>0.3</ele>
        <time>2024-11-03T15:06:48Z</time>
      </trkpt>
      <trkpt lat="43.50619" lon="6.95296">
        <ele>0.3</ele>
        <time>2024-11-03T15:06:50Z</time>
      </trkpt>
      <trkpt lat="43.50618" lon="6.95294">
        <ele>0.1</ele>
        <time>2024-11-03T15:06:54Z</time>
      </trkpt>
      <trkpt lat="43.50618" lon="6.95294">
        <ele>0.1</ele>
        <time>2024-11-03T15:06:55Z</time>
      </trkpt>
      <trkpt lat="43.50618" lon="6.95294">
        <ele>0.1</ele>
        <time>2024-11-03T15:06:56Z</time>
      </trkpt>
      <trkpt lat="43.50618" lon="6.95294">
        <ele>0.1</ele>
        <time>2024-11-03T15:06:57Z</time>
      </trkpt>
      <trkpt lat="43.50614" lon="6.95282">
        <ele>0.1</ele>
        <time>2024-11-03T15:07:06Z</time>
      </trkpt>
      <trkpt lat="43.50608" lon="6.95272">
        <ele>0.3</ele>
        <time>2024-11-03T15:07:15Z</time>
      </trkpt>
      <trkpt lat="43.50602" lon="6.95263">
        <ele>1.1</ele>
        <time>2024-11-03T15:07:26Z</time>
      </trkpt>
      <trkpt lat="43.50601" lon="6.95266">
        <ele>2.3</ele>
        <time>2024-11-03T15:07:33Z</time>
      </trkpt>
      <trkpt lat="43.50601" lon="6.95266">
        <ele>2.5</ele>
        <time>2024-11-03T15:07:34Z</time>
      </trkpt>
      <trkpt lat="43.50602" lon="6.95267">
        <ele>3.1</ele>
        <time>2024-11-03T15:07:37Z</time>
      </trkpt>
      <trkpt lat="43.50603" lon="6.95266">
        <ele>3.2</ele>
        <time>2024-11-03T15:07:38Z</time>
      </trkpt>
      <trkpt lat="43.50598" lon="6.95254">
        <ele>4.8</ele>
        <time>2024-11-03T15:07:50Z</time>
      </trkpt>
      <trkpt lat="43.50596" lon="6.95267">
        <ele>6.6</ele>
        <time>2024-11-03T15:08:21Z</time>
      </trkpt>
      <trkpt lat="43.5059" lon="6.95277">
        <ele>10.3</ele>
        <time>2024-11-03T15:08:30Z</time>
      </trkpt>
      <trkpt lat="43.5059" lon="6.95277">
        <ele>10.5</ele>
        <time>2024-11-03T15:08:31Z</time>
      </trkpt>
      <trkpt lat="43.5059" lon="6.95276">
        <ele>10.7</ele>
        <time>2024-11-03T15:08:32Z</time>
      </trkpt>
      <trkpt lat="43.50588" lon="6.95275">
        <ele>11.4</ele>
        <time>2024-11-03T15:08:39Z</time>
      </trkpt>
      <trkpt lat="43.50588" lon="6.95275">
        <ele>11.4</ele>
        <time>2024-11-03T15:08:40Z</time>
      </trkpt>
      <trkpt lat="43.50588" lon="6.95275">
        <ele>11.5</ele>
        <time>2024-11-03T15:08:41Z</time>
      </trkpt>
      <trkpt lat="43.50588" lon="6.95275">
        <ele>11.7</ele>
        <time>2024-11-03T15:08:42Z</time>
      </trkpt>
      <trkpt lat="43.50589" lon="6.95263">
        <ele>12.5</ele>
        <time>2024-11-03T15:08:56Z</time>
      </trkpt>
      <trkpt lat="43.5059" lon="6.95249">
        <ele>14.5</ele>
        <time>2024-11-03T15:09:09Z</time>
      </trkpt>
      <trkpt lat="43.50587" lon="6.95237">
        <ele>15.4</ele>
        <time>2024-11-03T15:09:19Z</time>
      </trkpt>
      <trkpt lat="43.50579" lon="6.9523">
        <ele>16.2</ele>
        <time>2024-11-03T15:09:27Z</time>
      </trkpt>
      <trkpt lat="43.50577" lon="6.95218">
        <ele>18</ele>
        <time>2024-11-03T15:09:40Z</time>
      </trkpt>
      <trkpt lat="43.50575" lon="6.95204">
        <ele>18.5</ele>
        <time>2024-11-03T15:09:49Z</time>
      </trkpt>
      <trkpt lat="43.50576" lon="6.95191">
        <ele>18.2</ele>
        <time>2024-11-03T15:09:57Z</time>
      </trkpt>
      <trkpt lat="43.50572" lon="6.9518">
        <ele>18.2</ele>
        <time>2024-11-03T15:10:06Z</time>
      </trkpt>
      <trkpt lat="43.50567" lon="6.95168">
        <ele>18.7</ele>
        <time>2024-11-03T15:10:17Z</time>
      </trkpt>
      <trkpt lat="43.50563" lon="6.95156">
        <ele>18.7</ele>
        <time>2024-11-03T15:10:26Z</time>
      </trkpt>
      <trkpt lat="43.50556" lon="6.95148">
        <ele>19.3</ele>
        <time>2024-11-03T15:10:32Z</time>
      </trkpt>
      <trkpt lat="43.50551" lon="6.95136">
        <ele>19.9</ele>
        <time>2024-11-03T15:10:41Z</time>
      </trkpt>
      <trkpt lat="43.50549" lon="6.95123">
        <ele>20.1</ele>
        <time>2024-11-03T15:10:50Z</time>
      </trkpt>
      <trkpt lat="43.50551" lon="6.9511">
        <ele>21.1</ele>
        <time>2024-11-03T15:10:59Z</time>
      </trkpt>
      <trkpt lat="43.50547" lon="6.95097">
        <ele>22.4</ele>
        <time>2024-11-03T15:11:08Z</time>
      </trkpt>
      <trkpt lat="43.50548" lon="6.95084">
        <ele>23.1</ele>
        <time>2024-11-03T15:11:18Z</time>
      </trkpt>
      <trkpt lat="43.50548" lon="6.95084">
        <ele>23.2</ele>
        <time>2024-11-03T15:11:20Z</time>
      </trkpt>
      <trkpt lat="43.50549" lon="6.95083">
        <ele>23.3</ele>
        <time>2024-11-03T15:11:21Z</time>
      </trkpt>
      <trkpt lat="43.50549" lon="6.95071">
        <ele>23.3</ele>
        <time>2024-11-03T15:11:28Z</time>
      </trkpt>
      <trkpt lat="43.50547" lon="6.95058">
        <ele>22.6</ele>
        <time>2024-11-03T15:11:35Z</time>
      </trkpt>
      <trkpt lat="43.50548" lon="6.95044">
        <ele>22.2</ele>
        <time>2024-11-03T15:11:44Z</time>
      </trkpt>
      <trkpt lat="43.50555" lon="6.9504">
        <ele>21.6</ele>
        <time>2024-11-03T15:11:52Z</time>
      </trkpt>
      <trkpt lat="43.50555" lon="6.9504">
        <ele>21.7</ele>
        <time>2024-11-03T15:11:53Z</time>
      </trkpt>
      <trkpt lat="43.50559" lon="6.95026">
        <ele>21.3</ele>
        <time>2024-11-03T15:12:11Z</time>
      </trkpt>
      <trkpt lat="43.50559" lon="6.95013">
        <ele>20.8</ele>
        <time>2024-11-03T15:12:24Z</time>
      </trkpt>
      <trkpt lat="43.50564" lon="6.95">
        <ele>21.2</ele>
        <time>2024-11-03T15:12:33Z</time>
      </trkpt>
      <trkpt lat="43.5057" lon="6.94989">
        <ele>21.8</ele>
        <time>2024-11-03T15:12:40Z</time>
      </trkpt>
      <trkpt lat="43.50575" lon="6.94977">
        <ele>22.4</ele>
        <time>2024-11-03T15:12:48Z</time>
      </trkpt>
      <trkpt lat="43.50574" lon="6.94964">
        <ele>23.7</ele>
        <time>2024-11-03T15:12:59Z</time>
      </trkpt>
      <trkpt lat="43.5057" lon="6.94952">
        <ele>23.4</ele>
        <time>2024-11-03T15:13:06Z</time>
      </trkpt>
      <trkpt lat="43.50572" lon="6.9494">
        <ele>23.1</ele>
        <time>2024-11-03T15:13:13Z</time>
      </trkpt>
      <trkpt lat="43.50574" lon="6.94927">
        <ele>23.8</ele>
        <time>2024-11-03T15:13:25Z</time>
      </trkpt>
      <trkpt lat="43.50574" lon="6.94914">
        <ele>23.8</ele>
        <time>2024-11-03T15:13:34Z</time>
      </trkpt>
      <trkpt lat="43.5057" lon="6.94902">
        <ele>24</ele>
        <time>2024-11-03T15:13:45Z</time>
      </trkpt>
      <trkpt lat="43.50578" lon="6.94894">
        <ele>24.3</ele>
        <time>2024-11-03T15:13:54Z</time>
      </trkpt>
      <trkpt lat="43.50572" lon="6.94904">
        <ele>19.8</ele>
        <time>2024-11-03T15:14:25Z</time>
      </trkpt>
      <trkpt lat="43.50582" lon="6.94901">
        <ele>20</ele>
        <time>2024-11-03T15:14:39Z</time>
      </trkpt>
      <trkpt lat="43.50587" lon="6.94912">
        <ele>18.6</ele>
        <time>2024-11-03T15:15:05Z</time>
      </trkpt>
      <trkpt lat="43.5059" lon="6.94925">
        <ele>17.5</ele>
        <time>2024-11-03T15:15:14Z</time>
      </trkpt>
      <trkpt lat="43.50589" lon="6.94939">
        <ele>17</ele>
        <time>2024-11-03T15:15:24Z</time>
      </trkpt>
      <trkpt lat="43.50586" lon="6.94951">
        <ele>16.4</ele>
        <time>2024-11-03T15:15:30Z</time>
      </trkpt>
      <trkpt lat="43.50587" lon="6.94964">
        <ele>16.8</ele>
        <time>2024-11-03T15:15:39Z</time>
      </trkpt>
      <trkpt lat="43.50593" lon="6.94973">
        <ele>14.8</ele>
        <time>2024-11-03T15:15:51Z</time>
      </trkpt>
      <trkpt lat="43.50593" lon="6.94986">
        <ele>11.8</ele>
        <time>2024-11-03T15:16:08Z</time>
      </trkpt>
      <trkpt lat="43.50587" lon="6.94996">
        <ele>12.1</ele>
        <time>2024-11-03T15:16:21Z</time>
      </trkpt>
      <trkpt lat="43.50585" lon="6.95009">
        <ele>11</ele>
        <time>2024-11-03T15:16:36Z</time>
      </trkpt>
      <trkpt lat="43.50583" lon="6.95022">
        <ele>10.6</ele>
        <time>2024-11-03T15:16:40Z</time>
      </trkpt>
      <trkpt lat="43.50586" lon="6.95035">
        <ele>10.4</ele>
        <time>2024-11-03T15:16:44Z</time>
      </trkpt>
      <trkpt lat="43.50595" lon="6.95033">
        <ele>10.3</ele>
        <time>2024-11-03T15:16:51Z</time>
      </trkpt>
      <trkpt lat="43.50601" lon="6.95022">
        <ele>10.1</ele>
        <time>2024-11-03T15:16:55Z</time>
      </trkpt>
      <trkpt lat="43.50603" lon="6.9501">
        <ele>9.2</ele>
        <time>2024-11-03T15:17:02Z</time>
      </trkpt>
      <trkpt lat="43.5061" lon="6.95">
        <ele>8.7</ele>
        <time>2024-11-03T15:17:13Z</time>
      </trkpt>
      <trkpt lat="43.50613" lon="6.94988">
        <ele>8.1</ele>
        <time>2024-11-03T15:17:20Z</time>
      </trkpt>
      <trkpt lat="43.50616" lon="6.94975">
        <ele>6.6</ele>
        <time>2024-11-03T15:17:29Z</time>
      </trkpt>
      <trkpt lat="43.5062" lon="6.94963">
        <ele>6</ele>
        <time>2024-11-03T15:17:38Z</time>
      </trkpt>
      <trkpt lat="43.50622" lon="6.94961">
        <ele>5.5</ele>
        <time>2024-11-03T15:17:45Z</time>
      </trkpt>
      <trkpt lat="43.50622" lon="6.94961">
        <ele>5.4</ele>
        <time>2024-11-03T15:17:47Z</time>
      </trkpt>
      <trkpt lat="43.50621" lon="6.94958">
        <ele>4.4</ele>
        <time>2024-11-03T15:17:57Z</time>
      </trkpt>
      <trkpt lat="43.5062" lon="6.94958">
        <ele>4.2</ele>
        <time>2024-11-03T15:18:00Z</time>
      </trkpt>
      <trkpt lat="43.50621" lon="6.94959">
        <ele>4</ele>
        <time>2024-11-03T15:18:02Z</time>
      </trkpt>
      <trkpt lat="43.5062" lon="6.94958">
        <ele>3.6</ele>
        <time>2024-11-03T15:18:03Z</time>
      </trkpt>
      <trkpt lat="43.5062" lon="6.94958">
        <ele>2.5</ele>
        <time>2024-11-03T15:18:10Z</time>
      </trkpt>
      <trkpt lat="43.5062" lon="6.94959">
        <ele>2.1</ele>
        <time>2024-11-03T15:18:11Z</time>
      </trkpt>
      <trkpt lat="43.50617" lon="6.94958">
        <ele>2</ele>
        <time>2024-11-03T15:18:18Z</time>
      </trkpt>
      <trkpt lat="43.50618" lon="6.94959">
        <ele>-0.2</ele>
        <time>2024-11-03T15:18:19Z</time>
      </trkpt>
      <trkpt lat="43.50621" lon="6.94956">
        <ele>-3.8</ele>
        <time>2024-11-03T15:19:18Z</time>
      </trkpt>
      <trkpt lat="43.50621" lon="6.94957">
        <ele>-3.7</ele>
        <time>2024-11-03T15:19:21Z</time>
      </trkpt>
      <trkpt lat="43.50621" lon="6.94957">
        <ele>-3.7</ele>
        <time>2024-11-03T15:19:23Z</time>
      </trkpt>
      <trkpt lat="43.50621" lon="6.94957">
        <ele>-3.7</ele>
        <time>2024-11-03T15:19:24Z</time>
      </trkpt>
      <trkpt lat="43.50621" lon="6.94957">
        <ele>-3.7</ele>
        <time>2024-11-03T15:19:25Z</time>
      </trkpt>
      <trkpt lat="43.50621" lon="6.94955">
        <ele>-3.7</ele>
        <time>2024-11-03T15:19:28Z</time>
      </trkpt>
      <trkpt lat="43.50617" lon="6.94943">
        <ele>-3.2</ele>
        <time>2024-11-03T15:19:37Z</time>
      </trkpt>
      <trkpt lat="43.50614" lon="6.94931">
        <ele>-3.1</ele>
        <time>2024-11-03T15:19:45Z</time>
      </trkpt>
      <trkpt lat="43.50614" lon="6.94918">
        <ele>-3.6</ele>
        <time>2024-11-03T15:19:56Z</time>
      </trkpt>
      <trkpt lat="43.50615" lon="6.94914">
        <ele>-3.1</ele>
        <time>2024-11-03T15:20:05Z</time>
      </trkpt>
      <trkpt lat="43.50615" lon="6.94915">
        <ele>-2.8</ele>
        <time>2024-11-03T15:20:08Z</time>
      </trkpt>
      <trkpt lat="43.50615" lon="6.94915">
        <ele>-2.7</ele>
        <time>2024-11-03T15:20:09Z</time>
      </trkpt>
      <trkpt lat="43.50615" lon="6.94914">
        <ele>-2.7</ele>
        <time>2024-11-03T15:20:16Z</time>
      </trkpt>
      <trkpt lat="43.50613" lon="6.94901">
        <ele>-2.6</ele>
        <time>2024-11-03T15:20:26Z</time>
      </trkpt>
      <trkpt lat="43.50615" lon="6.94889">
        <ele>-2.5</ele>
        <time>2024-11-03T15:20:38Z</time>
      </trkpt>
      <trkpt lat="43.50617" lon="6.94877">
        <ele>-2.8</ele>
        <time>2024-11-03T15:20:49Z</time>
      </trkpt>
      <trkpt lat="43.50612" lon="6.94865">
        <ele>-2.7</ele>
        <time>2024-11-03T15:20:58Z</time>
      </trkpt>
      <trkpt lat="43.50606" lon="6.94855">
        <ele>-3.5</ele>
        <time>2024-11-03T15:21:07Z</time>
      </trkpt>
      <trkpt lat="43.50607" lon="6.94843">
        <ele>-3.7</ele>
        <time>2024-11-03T15:21:17Z</time>
      </trkpt>
      <trkpt lat="43.50611" lon="6.94831">
        <ele>-3.9</ele>
        <time>2024-11-03T15:21:25Z</time>
      </trkpt>
      <trkpt lat="43.50615" lon="6.94819">
        <ele>-4.1</ele>
        <time>2024-11-03T15:21:35Z</time>
      </trkpt>
      <trkpt lat="43.50615" lon="6.94805">
        <ele>-4.1</ele>
        <time>2024-11-03T15:21:44Z</time>
      </trkpt>
      <trkpt lat="43.50612" lon="6.94793">
        <ele>-4</ele>
        <time>2024-11-03T15:21:52Z</time>
      </trkpt>
      <trkpt lat="43.50605" lon="6.94782">
        <ele>-4.5</ele>
        <time>2024-11-03T15:22:02Z</time>
      </trkpt>
      <trkpt lat="43.50603" lon="6.94769">
        <ele>-4.6</ele>
        <time>2024-11-03T15:22:11Z</time>
      </trkpt>
      <trkpt lat="43.50603" lon="6.94756">
        <ele>-5.6</ele>
        <time>2024-11-03T15:22:23Z</time>
      </trkpt>
      <trkpt lat="43.50606" lon="6.9475">
        <ele>-5.9</ele>
        <time>2024-11-03T15:22:34Z</time>
      </trkpt>
      <trkpt lat="43.50606" lon="6.9475">
        <ele>-6</ele>
        <time>2024-11-03T15:22:35Z</time>
      </trkpt>
      <trkpt lat="43.50599" lon="6.94742">
        <ele>-6</ele>
        <time>2024-11-03T15:22:49Z</time>
      </trkpt>
      <trkpt lat="43.50597" lon="6.94729">
        <ele>-7.3</ele>
        <time>2024-11-03T15:23:03Z</time>
      </trkpt>
      <trkpt lat="43.50595" lon="6.94716">
        <ele>-7.1</ele>
        <time>2024-11-03T15:23:11Z</time>
      </trkpt>
      <trkpt lat="43.50596" lon="6.94703">
        <ele>-7.3</ele>
        <time>2024-11-03T15:23:21Z</time>
      </trkpt>
      <trkpt lat="43.50598" lon="6.9469">
        <ele>-7.3</ele>
        <time>2024-11-03T15:23:31Z</time>
      </trkpt>
      <trkpt lat="43.506" lon="6.94677">
        <ele>-7.6</ele>
        <time>2024-11-03T15:23:42Z</time>
      </trkpt>
      <trkpt lat="43.506" lon="6.94664">
        <ele>-7.8</ele>
        <time>2024-11-03T15:23:51Z</time>
      </trkpt>
      <trkpt lat="43.50599" lon="6.94651">
        <ele>-8</ele>
        <time>2024-11-03T15:24:00Z</time>
      </trkpt>
      <trkpt lat="43.50598" lon="6.94637">
        <ele>-7.7</ele>
        <time>2024-11-03T15:24:09Z</time>
      </trkpt>
      <trkpt lat="43.50601" lon="6.94625">
        <ele>-6.8</ele>
        <time>2024-11-03T15:24:16Z</time>
      </trkpt>
      <trkpt lat="43.50607" lon="6.94614">
        <ele>-7</ele>
        <time>2024-11-03T15:24:23Z</time>
      </trkpt>
      <trkpt lat="43.5061" lon="6.94601">
        <ele>-7.1</ele>
        <time>2024-11-03T15:24:32Z</time>
      </trkpt>
      <trkpt lat="43.50611" lon="6.94588">
        <ele>-7.2</ele>
        <time>2024-11-03T15:24:40Z</time>
      </trkpt>
      <trkpt lat="43.50611" lon="6.94576">
        <ele>-7.9</ele>
        <time>2024-11-03T15:24:46Z</time>
      </trkpt>
      <trkpt lat="43.50614" lon="6.94562">
        <ele>-8.3</ele>
        <time>2024-11-03T15:24:54Z</time>
      </trkpt>
      <trkpt lat="43.50617" lon="6.9455">
        <ele>-8.3</ele>
        <time>2024-11-03T15:25:03Z</time>
      </trkpt>
      <trkpt lat="43.50617" lon="6.94549">
        <ele>-8.4</ele>
        <time>2024-11-03T15:25:07Z</time>
      </trkpt>
      <trkpt lat="43.50616" lon="6.94548">
        <ele>-8.4</ele>
        <time>2024-11-03T15:25:08Z</time>
      </trkpt>
      <trkpt lat="43.50618" lon="6.94547">
        <ele>-8.2</ele>
        <time>2024-11-03T15:25:12Z</time>
      </trkpt>
      <trkpt lat="43.50618" lon="6.94547">
        <ele>-8.1</ele>
        <time>2024-11-03T15:25:13Z</time>
      </trkpt>
      <trkpt lat="43.50624" lon="6.94537">
        <ele>-7.3</ele>
        <time>2024-11-03T15:25:24Z</time>
      </trkpt>
      <trkpt lat="43.50627" lon="6.94526">
        <ele>-7.3</ele>
        <time>2024-11-03T15:25:32Z</time>
      </trkpt>
      <trkpt lat="43.50627" lon="6.9452">
        <ele>-6.8</ele>
        <time>2024-11-03T15:25:37Z</time>
      </trkpt>
      <trkpt lat="43.50627" lon="6.9452">
        <ele>-6.7</ele>
        <time>2024-11-03T15:25:38Z</time>
      </trkpt>
      <trkpt lat="43.50629" lon="6.94507">
        <ele>-6.7</ele>
        <time>2024-11-03T15:25:48Z</time>
      </trkpt>
      <trkpt lat="43.5063" lon="6.94493">
        <ele>-6.8</ele>
        <time>2024-11-03T15:25:57Z</time>
      </trkpt>
      <trkpt lat="43.50632" lon="6.94481">
        <ele>-6.7</ele>
        <time>2024-11-03T15:26:05Z</time>
      </trkpt>
      <trkpt lat="43.50635" lon="6.94469">
        <ele>-6.5</ele>
        <time>2024-11-03T15:26:19Z</time>
      </trkpt>
      <trkpt lat="43.50635" lon="6.94469">
        <ele>-6.3</ele>
        <time>2024-11-03T15:26:20Z</time>
      </trkpt>
      <trkpt lat="43.50637" lon="6.94456">
        <ele>-4.6</ele>
        <time>2024-11-03T15:26:31Z</time>
      </trkpt>
      <trkpt lat="43.50641" lon="6.94444">
        <ele>-4.8</ele>
        <time>2024-11-03T15:26:40Z</time>
      </trkpt>
      <trkpt lat="43.50645" lon="6.94431">
        <ele>-4.8</ele>
        <time>2024-11-03T15:26:49Z</time>
      </trkpt>
      <trkpt lat="43.50646" lon="6.94418">
        <ele>-4.9</ele>
        <time>2024-11-03T15:27:13Z</time>
      </trkpt>
      <trkpt lat="43.50651" lon="6.94405">
        <ele>-4.8</ele>
        <time>2024-11-03T15:27:20Z</time>
      </trkpt>
      <trkpt lat="43.50653" lon="6.94393">
        <ele>-5.3</ele>
        <time>2024-11-03T15:27:27Z</time>
      </trkpt>
      <trkpt lat="43.50653" lon="6.94379">
        <ele>-5.2</ele>
        <time>2024-11-03T15:27:34Z</time>
      </trkpt>
      <trkpt lat="43.50658" lon="6.94368">
        <ele>-4.8</ele>
        <time>2024-11-03T15:27:42Z</time>
      </trkpt>
      <trkpt lat="43.50658" lon="6.94354">
        <ele>-4.7</ele>
        <time>2024-11-03T15:27:50Z</time>
      </trkpt>
      <trkpt lat="43.50666" lon="6.94347">
        <ele>-4.4</ele>
        <time>2024-11-03T15:27:58Z</time>
      </trkpt>
      <trkpt lat="43.50673" lon="6.94338">
        <ele>-4.5</ele>
        <time>2024-11-03T15:28:05Z</time>
      </trkpt>
      <trkpt lat="43.50675" lon="6.94326">
        <ele>-4</ele>
        <time>2024-11-03T15:28:13Z</time>
      </trkpt>
      <trkpt lat="43.50682" lon="6.94316">
        <ele>-3.7</ele>
        <time>2024-11-03T15:28:28Z</time>
      </trkpt>
      <trkpt lat="43.50689" lon="6.94307">
        <ele>-3.2</ele>
        <time>2024-11-03T15:28:35Z</time>
      </trkpt>
      <trkpt lat="43.50695" lon="6.94297">
        <ele>-3</ele>
        <time>2024-11-03T15:28:41Z</time>
      </trkpt>
      <trkpt lat="43.50696" lon="6.94284">
        <ele>-3.9</ele>
        <time>2024-11-03T15:28:53Z</time>
      </trkpt>
      <trkpt lat="43.50691" lon="6.94272">
        <ele>-5.1</ele>
        <time>2024-11-03T15:29:05Z</time>
      </trkpt>
      <trkpt lat="43.50691" lon="6.94272">
        <ele>-5.2</ele>
        <time>2024-11-03T15:29:06Z</time>
      </trkpt>
      <trkpt lat="43.50692" lon="6.94272">
        <ele>-5.2</ele>
        <time>2024-11-03T15:29:07Z</time>
      </trkpt>
      <trkpt lat="43.50697" lon="6.94262">
        <ele>-5.7</ele>
        <time>2024-11-03T15:29:15Z</time>
      </trkpt>
      <trkpt lat="43.50699" lon="6.94248">
        <ele>-5.4</ele>
        <time>2024-11-03T15:29:24Z</time>
      </trkpt>
      <trkpt lat="43.507" lon="6.94235">
        <ele>-5.4</ele>
        <time>2024-11-03T15:29:33Z</time>
      </trkpt>
      <trkpt lat="43.50704" lon="6.94224">
        <ele>-6.3</ele>
        <time>2024-11-03T15:29:44Z</time>
      </trkpt>
      <trkpt lat="43.50711" lon="6.94215">
        <ele>-6.1</ele>
        <time>2024-11-03T15:29:54Z</time>
      </trkpt>
      <trkpt lat="43.5071" lon="6.94211">
        <ele>-5.6</ele>
        <time>2024-11-03T15:30:05Z</time>
      </trkpt>
      <trkpt lat="43.5071" lon="6.9421">
        <ele>-5.5</ele>
        <time>2024-11-03T15:30:06Z</time>
      </trkpt>
      <trkpt lat="43.5071" lon="6.9421">
        <ele>-5.5</ele>
        <time>2024-11-03T15:30:08Z</time>
      </trkpt>
      <trkpt lat="43.5071" lon="6.94211">
        <ele>-5.6</ele>
        <time>2024-11-03T15:30:09Z</time>
      </trkpt>
      <trkpt lat="43.50719" lon="6.94205">
        <ele>-5.4</ele>
        <time>2024-11-03T15:30:35Z</time>
      </trkpt>
      <trkpt lat="43.50729" lon="6.94204">
        <ele>-5.3</ele>
        <time>2024-11-03T15:30:43Z</time>
      </trkpt>
      <trkpt lat="43.50735" lon="6.94196">
        <ele>-5.3</ele>
        <time>2024-11-03T15:30:55Z</time>
      </trkpt>
      <trkpt lat="43.50735" lon="6.94194">
        <ele>-5.3</ele>
        <time>2024-11-03T15:30:56Z</time>
      </trkpt>
      <trkpt lat="43.50733" lon="6.94181">
        <ele>-4.9</ele>
        <time>2024-11-03T15:31:04Z</time>
      </trkpt>
      <trkpt lat="43.5073" lon="6.94177">
        <ele>-4.5</ele>
        <time>2024-11-03T15:31:15Z</time>
      </trkpt>
      <trkpt lat="43.5073" lon="6.94177">
        <ele>-4.5</ele>
        <time>2024-11-03T15:31:17Z</time>
      </trkpt>
      <trkpt lat="43.5073" lon="6.94177">
        <ele>-4.5</ele>
        <time>2024-11-03T15:31:18Z</time>
      </trkpt>
      <trkpt lat="43.50729" lon="6.94177">
        <ele>-4.6</ele>
        <time>2024-11-03T15:31:20Z</time>
      </trkpt>
      <trkpt lat="43.50723" lon="6.94187">
        <ele>-6.6</ele>
        <time>2024-11-03T15:31:33Z</time>
      </trkpt>
      <trkpt lat="43.50722" lon="6.94188">
        <ele>-7</ele>
        <time>2024-11-03T15:31:37Z</time>
      </trkpt>
      <trkpt lat="43.50722" lon="6.94186">
        <ele>-7</ele>
        <time>2024-11-03T15:31:40Z</time>
      </trkpt>
      <trkpt lat="43.50721" lon="6.94178">
        <ele>-6.2</ele>
        <time>2024-11-03T15:31:48Z</time>
      </trkpt>
      <trkpt lat="43.50722" lon="6.94178">
        <ele>-6.2</ele>
        <time>2024-11-03T15:31:49Z</time>
      </trkpt>
      <trkpt lat="43.50723" lon="6.94179">
        <ele>-6.6</ele>
        <time>2024-11-03T15:31:52Z</time>
      </trkpt>
      <trkpt lat="43.50723" lon="6.94179">
        <ele>-6.7</ele>
        <time>2024-11-03T15:31:53Z</time>
      </trkpt>
      <trkpt lat="43.50723" lon="6.94179">
        <ele>-6.9</ele>
        <time>2024-11-03T15:32:01Z</time>
      </trkpt>
      <trkpt lat="43.50723" lon="6.94179">
        <ele>-6.8</ele>
        <time>2024-11-03T15:32:02Z</time>
      </trkpt>
      <trkpt lat="43.50723" lon="6.9418">
        <ele>-6.2</ele>
        <time>2024-11-03T15:32:05Z</time>
      </trkpt>
      <trkpt lat="43.50723" lon="6.9418">
        <ele>-6</ele>
        <time>2024-11-03T15:32:06Z</time>
      </trkpt>
      <trkpt lat="43.50722" lon="6.94175">
        <ele>-6.4</ele>
        <time>2024-11-03T15:32:21Z</time>
      </trkpt>
      <trkpt lat="43.50723" lon="6.94174">
        <ele>-6.3</ele>
        <time>2024-11-03T15:32:22Z</time>
      </trkpt>
      <trkpt lat="43.50723" lon="6.94174">
        <ele>-6.1</ele>
        <time>2024-11-03T15:32:23Z</time>
      </trkpt>
      <trkpt lat="43.50723" lon="6.94174">
        <ele>-5.9</ele>
        <time>2024-11-03T15:32:24Z</time>
      </trkpt>
      <trkpt lat="43.50723" lon="6.94174">
        <ele>-5.3</ele>
        <time>2024-11-03T15:32:26Z</time>
      </trkpt>
      <trkpt lat="43.50723" lon="6.94173">
        <ele>-5.1</ele>
        <time>2024-11-03T15:32:27Z</time>
      </trkpt>
      <trkpt lat="43.50723" lon="6.94173">
        <ele>-4.9</ele>
        <time>2024-11-03T15:32:29Z</time>
      </trkpt>
      <trkpt lat="43.50723" lon="6.94172">
        <ele>-4.6</ele>
        <time>2024-11-03T15:32:31Z</time>
      </trkpt>
      <trkpt lat="43.50723" lon="6.94172">
        <ele>-4.6</ele>
        <time>2024-11-03T15:32:34Z</time>
      </trkpt>
      <trkpt lat="43.50723" lon="6.94172">
        <ele>-4.6</ele>
        <time>2024-11-03T15:32:36Z</time>
      </trkpt>
      <trkpt lat="43.50724" lon="6.94172">
        <ele>-4.6</ele>
        <time>2024-11-03T15:32:39Z</time>
      </trkpt>
      <trkpt lat="43.50724" lon="6.94172">
        <ele>-4.7</ele>
        <time>2024-11-03T15:32:40Z</time>
      </trkpt>
      <trkpt lat="43.50724" lon="6.94169">
        <ele>-4.4</ele>
        <time>2024-11-03T15:32:50Z</time>
      </trkpt>
      <trkpt lat="43.50724" lon="6.9417">
        <ele>-4.5</ele>
        <time>2024-11-03T15:32:52Z</time>
      </trkpt>
      <trkpt lat="43.50724" lon="6.9417">
        <ele>-4.6</ele>
        <time>2024-11-03T15:32:54Z</time>
      </trkpt>
      <trkpt lat="43.50724" lon="6.9417">
        <ele>-4.8</ele>
        <time>2024-11-03T15:32:59Z</time>
      </trkpt>
      <trkpt lat="43.50724" lon="6.9417">
        <ele>-5</ele>
        <time>2024-11-03T15:33:01Z</time>
      </trkpt>
      <trkpt lat="43.50724" lon="6.9417">
        <ele>-5</ele>
        <time>2024-11-03T15:33:02Z</time>
      </trkpt>
      <trkpt lat="43.50724" lon="6.94169">
        <ele>-5</ele>
        <time>2024-11-03T15:33:09Z</time>
      </trkpt>
      <trkpt lat="43.50724" lon="6.94169">
        <ele>-4.8</ele>
        <time>2024-11-03T15:33:32Z</time>
      </trkpt>
      <trkpt lat="43.50724" lon="6.9417">
        <ele>-4.3</ele>
        <time>2024-11-03T15:33:35Z</time>
      </trkpt>
      <trkpt lat="43.50724" lon="6.94171">
        <ele>-4.1</ele>
        <time>2024-11-03T15:33:47Z</time>
      </trkpt>
      <trkpt lat="43.50723" lon="6.94173">
        <ele>-3.4</ele>
        <time>2024-11-03T15:33:57Z</time>
      </trkpt>
      <trkpt lat="43.50723" lon="6.94173">
        <ele>-3.2</ele>
        <time>2024-11-03T15:34:05Z</time>
      </trkpt>
      <trkpt lat="43.50723" lon="6.94174">
        <ele>-2.8</ele>
        <time>2024-11-03T15:34:08Z</time>
      </trkpt>
      <trkpt lat="43.50723" lon="6.94174">
        <ele>-2.9</ele>
        <time>2024-11-03T15:34:19Z</time>
      </trkpt>
      <trkpt lat="43.50723" lon="6.94174">
        <ele>-3.1</ele>
        <time>2024-11-03T15:34:23Z</time>
      </trkpt>
      <trkpt lat="43.50722" lon="6.94175">
        <ele>-3.2</ele>
        <time>2024-11-03T15:34:24Z</time>
      </trkpt>
      <trkpt lat="43.50723" lon="6.94175">
        <ele>-3.2</ele>
        <time>2024-11-03T15:34:26Z</time>
      </trkpt>
      <trkpt lat="43.50723" lon="6.94175">
        <ele>-3.3</ele>
        <time>2024-11-03T15:34:53Z</time>
      </trkpt>
      <trkpt lat="43.50723" lon="6.94175">
        <ele>-3.3</ele>
        <time>2024-11-03T15:34:55Z</time>
      </trkpt>
      <trkpt lat="43.50723" lon="6.94175">
        <ele>-3.3</ele>
        <time>2024-11-03T15:34:56Z</time>
      </trkpt>
      <trkpt lat="43.50723" lon="6.94175">
        <ele>-3.4</ele>
        <time>2024-11-03T15:34:57Z</time>
      </trkpt>
      <trkpt lat="43.50723" lon="6.94174">
        <ele>-3.4</ele>
        <time>2024-11-03T15:34:58Z</time>
      </trkpt>
      <trkpt lat="43.50723" lon="6.94174">
        <ele>-3.6</ele>
        <time>2024-11-03T15:35:01Z</time>
      </trkpt>
      <trkpt lat="43.50723" lon="6.94174">
        <ele>-3.7</ele>
        <time>2024-11-03T15:35:23Z</time>
      </trkpt>
      <trkpt lat="43.5072" lon="6.94162">
        <ele>-5</ele>
        <time>2024-11-03T15:35:39Z</time>
      </trkpt>
      <trkpt lat="43.50721" lon="6.94149">
        <ele>-4.9</ele>
        <time>2024-11-03T15:35:48Z</time>
      </trkpt>
      <trkpt lat="43.50713" lon="6.94141">
        <ele>-4.3</ele>
        <time>2024-11-03T15:35:55Z</time>
      </trkpt>
      <trkpt lat="43.5071" lon="6.94128">
        <ele>-4.4</ele>
        <time>2024-11-03T15:36:03Z</time>
      </trkpt>
      <trkpt lat="43.50705" lon="6.94117">
        <ele>-4.1</ele>
        <time>2024-11-03T15:36:11Z</time>
      </trkpt>
      <trkpt lat="43.50696" lon="6.94111">
        <ele>-4.1</ele>
        <time>2024-11-03T15:36:18Z</time>
      </trkpt>
      <trkpt lat="43.50692" lon="6.94098">
        <ele>-4.6</ele>
        <time>2024-11-03T15:36:27Z</time>
      </trkpt>
      <trkpt lat="43.50684" lon="6.94094">
        <ele>-4.8</ele>
        <time>2024-11-03T15:36:34Z</time>
      </trkpt>
      <trkpt lat="43.50678" lon="6.94083">
        <ele>-4.7</ele>
        <time>2024-11-03T15:36:43Z</time>
      </trkpt>
      <trkpt lat="43.50673" lon="6.9407">
        <ele>-4.4</ele>
        <time>2024-11-03T15:36:53Z</time>
      </trkpt>
      <trkpt lat="43.50666" lon="6.94061">
        <ele>-3.9</ele>
        <time>2024-11-03T15:37:00Z</time>
      </trkpt>
      <trkpt lat="43.50658" lon="6.94053">
        <ele>-3.6</ele>
        <time>2024-11-03T15:37:08Z</time>
      </trkpt>
      <trkpt lat="43.50653" lon="6.94042">
        <ele>-3.8</ele>
        <time>2024-11-03T15:37:15Z</time>
      </trkpt>
      <trkpt lat="43.50646" lon="6.94031">
        <ele>-4.8</ele>
        <time>2024-11-03T15:37:21Z</time>
      </trkpt>
      <trkpt lat="43.50643" lon="6.94019">
        <ele>-4.6</ele>
        <time>2024-11-03T15:37:28Z</time>
      </trkpt>
      <trkpt lat="43.50639" lon="6.94006">
        <ele>-4.3</ele>
        <time>2024-11-03T15:37:37Z</time>
      </trkpt>
      <trkpt lat="43.50636" lon="6.93993">
        <ele>-4.1</ele>
        <time>2024-11-03T15:37:44Z</time>
      </trkpt>
      <trkpt lat="43.5063" lon="6.93981">
        <ele>-4.4</ele>
        <time>2024-11-03T15:37:54Z</time>
      </trkpt>
      <trkpt lat="43.50621" lon="6.93978">
        <ele>-4.1</ele>
        <time>2024-11-03T15:38:03Z</time>
      </trkpt>
      <trkpt lat="43.50612" lon="6.93978">
        <ele>-3.5</ele>
        <time>2024-11-03T15:38:09Z</time>
      </trkpt>
      <trkpt lat="43.50603" lon="6.9397">
        <ele>-3.5</ele>
        <time>2024-11-03T15:38:16Z</time>
      </trkpt>
      <trkpt lat="43.50597" lon="6.93961">
        <ele>-3.5</ele>
        <time>2024-11-03T15:38:25Z</time>
      </trkpt>
      <trkpt lat="43.50592" lon="6.93948">
        <ele>-3.2</ele>
        <time>2024-11-03T15:38:34Z</time>
      </trkpt>
      <trkpt lat="43.50586" lon="6.93938">
        <ele>-3.1</ele>
        <time>2024-11-03T15:38:40Z</time>
      </trkpt>
      <trkpt lat="43.50577" lon="6.93932">
        <ele>-2.2</ele>
        <time>2024-11-03T15:38:48Z</time>
      </trkpt>
      <trkpt lat="43.5057" lon="6.93924">
        <ele>5.6</ele>
        <time>2024-11-03T15:38:56Z</time>
      </trkpt>
      <trkpt lat="43.50562" lon="6.93917">
        <ele>3.7</ele>
        <time>2024-11-03T15:39:07Z</time>
      </trkpt>
      <trkpt lat="43.50553" lon="6.93911">
        <ele>6</ele>
        <time>2024-11-03T15:39:17Z</time>
      </trkpt>
      <trkpt lat="43.50544" lon="6.93905">
        <ele>8.6</ele>
        <time>2024-11-03T15:39:27Z</time>
      </trkpt>
      <trkpt lat="43.50536" lon="6.93898">
        <ele>10.1</ele>
        <time>2024-11-03T15:39:37Z</time>
      </trkpt>
      <trkpt lat="43.50527" lon="6.93891">
        <ele>10.5</ele>
        <time>2024-11-03T15:39:44Z</time>
      </trkpt>
      <trkpt lat="43.50521" lon="6.93882">
        <ele>10.1</ele>
        <time>2024-11-03T15:39:51Z</time>
      </trkpt>
      <trkpt lat="43.50512" lon="6.93878">
        <ele>11</ele>
        <time>2024-11-03T15:40:00Z</time>
      </trkpt>
      <trkpt lat="43.50504" lon="6.93872">
        <ele>11.8</ele>
        <time>2024-11-03T15:40:07Z</time>
      </trkpt>
      <trkpt lat="43.50497" lon="6.93863">
        <ele>12.3</ele>
        <time>2024-11-03T15:40:15Z</time>
      </trkpt>
      <trkpt lat="43.50489" lon="6.93857">
        <ele>13.3</ele>
        <time>2024-11-03T15:40:27Z</time>
      </trkpt>
      <trkpt lat="43.5048" lon="6.93857">
        <ele>13.6</ele>
        <time>2024-11-03T15:40:34Z</time>
      </trkpt>
      <trkpt lat="43.5047" lon="6.93854">
        <ele>13.9</ele>
        <time>2024-11-03T15:40:42Z</time>
      </trkpt>
      <trkpt lat="43.50462" lon="6.93847">
        <ele>14</ele>
        <time>2024-11-03T15:40:51Z</time>
      </trkpt>
      <trkpt lat="43.50452" lon="6.93844">
        <ele>14.2</ele>
        <time>2024-11-03T15:40:59Z</time>
      </trkpt>
      <trkpt lat="43.50444" lon="6.93837">
        <ele>16</ele>
        <time>2024-11-03T15:41:10Z</time>
      </trkpt>
      <trkpt lat="43.50438" lon="6.93826">
        <ele>16.6</ele>
        <time>2024-11-03T15:41:20Z</time>
      </trkpt>
      <trkpt lat="43.50432" lon="6.93817">
        <ele>16.5</ele>
        <time>2024-11-03T15:41:29Z</time>
      </trkpt>
      <trkpt lat="43.50425" lon="6.93806">
        <ele>15.9</ele>
        <time>2024-11-03T15:41:38Z</time>
      </trkpt>
      <trkpt lat="43.50417" lon="6.93797">
        <ele>15.8</ele>
        <time>2024-11-03T15:41:47Z</time>
      </trkpt>
      <trkpt lat="43.50412" lon="6.93787">
        <ele>15.4</ele>
        <time>2024-11-03T15:41:55Z</time>
      </trkpt>
      <trkpt lat="43.50407" lon="6.93775">
        <ele>15.7</ele>
        <time>2024-11-03T15:42:05Z</time>
      </trkpt>
      <trkpt lat="43.50401" lon="6.93765">
        <ele>16.4</ele>
        <time>2024-11-03T15:42:14Z</time>
      </trkpt>
      <trkpt lat="43.50399" lon="6.93763">
        <ele>16.5</ele>
        <time>2024-11-03T15:42:18Z</time>
      </trkpt>
      <trkpt lat="43.50398" lon="6.93763">
        <ele>16.5</ele>
        <time>2024-11-03T15:42:19Z</time>
      </trkpt>
      <trkpt lat="43.50396" lon="6.93765">
        <ele>15</ele>
        <time>2024-11-03T15:42:24Z</time>
      </trkpt>
      <trkpt lat="43.50395" lon="6.93765">
        <ele>14.6</ele>
        <time>2024-11-03T15:42:25Z</time>
      </trkpt>
      <trkpt lat="43.50395" lon="6.93765">
        <ele>14</ele>
        <time>2024-11-03T15:42:27Z</time>
      </trkpt>
      <trkpt lat="43.50395" lon="6.93765">
        <ele>13.9</ele>
        <time>2024-11-03T15:42:29Z</time>
      </trkpt>
      <trkpt lat="43.50395" lon="6.93765">
        <ele>13.7</ele>
        <time>2024-11-03T15:42:30Z</time>
      </trkpt>
      <trkpt lat="43.50395" lon="6.93766">
        <ele>13.3</ele>
        <time>2024-11-03T15:42:31Z</time>
      </trkpt>
      <trkpt lat="43.50395" lon="6.93766">
        <ele>12.7</ele>
        <time>2024-11-03T15:42:34Z</time>
      </trkpt>
      <trkpt lat="43.50395" lon="6.93766">
        <ele>12.7</ele>
        <time>2024-11-03T15:42:47Z</time>
      </trkpt>
      <trkpt lat="43.50395" lon="6.93766">
        <ele>12.7</ele>
        <time>2024-11-03T15:42:48Z</time>
      </trkpt>
      <trkpt lat="43.50395" lon="6.93766">
        <ele>12.7</ele>
        <time>2024-11-03T15:42:48Z</time>
      </trkpt>
    </trkseg>
  </trk>
</gpx>